<?xml version="1.0" encoding="UTF-8" standalone="no" ?>
<gpx xmlns="http://www.topografix.com/GPX/1/1" xmlns:xsi="http://www.w3.org/2001/XMLSchema-instance" xsi:schemaLocation="http://www.topografix.com/GPX/1/1 http://www.topografix.com/GPX/1/1/gpx.xsd" version="1.1" creator="VisuGPX - https://www.visugpx.com">
  <metadata>
    <name>Pornichet 17/06/2021</name>
    <desc><![CDATA[Sortie VTT du jeudi 17 juin 2021]]></desc>
  </metadata>
  <trk>
    <name><![CDATA[Pornichet Cyclisme]]></name>
    <trkseg>
      <trkpt lat="47.26437" lon="-2.31598">
        <ele>17.200000762939</ele>
        <time>2021-06-17T06:51:38.000Z</time>
      </trkpt>
      <trkpt lat="47.26436" lon="-2.316">
        <ele>17.200000762939</ele>
        <time>2021-06-17T06:51:39.000Z</time>
      </trkpt>
      <trkpt lat="47.26431" lon="-2.31604">
        <ele>17.200000762939</ele>
        <time>2021-06-17T06:51:41.000Z</time>
      </trkpt>
      <trkpt lat="47.26429" lon="-2.31606">
        <ele>17.39999961853</ele>
        <time>2021-06-17T06:51:42.000Z</time>
      </trkpt>
      <trkpt lat="47.26427" lon="-2.31609">
        <ele>17.39999961853</ele>
        <time>2021-06-17T06:51:43.000Z</time>
      </trkpt>
      <trkpt lat="47.26418" lon="-2.3163">
        <ele>17.39999961853</ele>
        <time>2021-06-17T06:51:49.000Z</time>
      </trkpt>
      <trkpt lat="47.26411" lon="-2.31664">
        <ele>17.39999961853</ele>
        <time>2021-06-17T06:51:57.000Z</time>
      </trkpt>
      <trkpt lat="47.26413" lon="-2.31673">
        <ele>17.39999961853</ele>
        <time>2021-06-17T06:51:59.000Z</time>
      </trkpt>
      <trkpt lat="47.26411" lon="-2.31675">
        <ele>17.39999961853</ele>
        <time>2021-06-17T06:52:00.000Z</time>
      </trkpt>
      <trkpt lat="47.26403" lon="-2.31684">
        <ele>17.39999961853</ele>
        <time>2021-06-17T06:52:05.000Z</time>
      </trkpt>
      <trkpt lat="47.26381" lon="-2.31695">
        <ele>17.39999961853</ele>
        <time>2021-06-17T06:52:12.000Z</time>
      </trkpt>
      <trkpt lat="47.26357" lon="-2.31705">
        <ele>17.39999961853</ele>
        <time>2021-06-17T06:52:19.000Z</time>
      </trkpt>
      <trkpt lat="47.26351" lon="-2.31708">
        <ele>17</ele>
        <time>2021-06-17T06:52:21.000Z</time>
      </trkpt>
      <trkpt lat="47.26348" lon="-2.31709">
        <ele>16.60000038147</ele>
        <time>2021-06-17T06:52:22.000Z</time>
      </trkpt>
      <trkpt lat="47.26346" lon="-2.31711">
        <ele>16.200000762939</ele>
        <time>2021-06-17T06:52:23.000Z</time>
      </trkpt>
      <trkpt lat="47.26345" lon="-2.31715">
        <ele>15.800000190735</ele>
        <time>2021-06-17T06:52:24.000Z</time>
      </trkpt>
      <trkpt lat="47.26343" lon="-2.31719">
        <ele>15.39999961853</ele>
        <time>2021-06-17T06:52:25.000Z</time>
      </trkpt>
      <trkpt lat="47.2634" lon="-2.31721">
        <ele>15.39999961853</ele>
        <time>2021-06-17T06:52:26.000Z</time>
      </trkpt>
      <trkpt lat="47.26333" lon="-2.31725">
        <ele>15.39999961853</ele>
        <time>2021-06-17T06:52:28.000Z</time>
      </trkpt>
      <trkpt lat="47.26319" lon="-2.31732">
        <ele>15.39999961853</ele>
        <time>2021-06-17T06:52:31.000Z</time>
      </trkpt>
      <trkpt lat="47.26315" lon="-2.31736">
        <ele>15</ele>
        <time>2021-06-17T06:52:32.000Z</time>
      </trkpt>
      <trkpt lat="47.26313" lon="-2.31741">
        <ele>14.60000038147</ele>
        <time>2021-06-17T06:52:33.000Z</time>
      </trkpt>
      <trkpt lat="47.26312" lon="-2.31746">
        <ele>14.199999809265</ele>
        <time>2021-06-17T06:52:34.000Z</time>
      </trkpt>
      <trkpt lat="47.26313" lon="-2.31752">
        <ele>13.800000190735</ele>
        <time>2021-06-17T06:52:35.000Z</time>
      </trkpt>
      <trkpt lat="47.26314" lon="-2.31757">
        <ele>13.199999809265</ele>
        <time>2021-06-17T06:52:36.000Z</time>
      </trkpt>
      <trkpt lat="47.26315" lon="-2.31767">
        <ele>13.199999809265</ele>
        <time>2021-06-17T06:52:38.000Z</time>
      </trkpt>
      <trkpt lat="47.26317" lon="-2.31796">
        <ele>13.199999809265</ele>
        <time>2021-06-17T06:52:43.000Z</time>
      </trkpt>
      <trkpt lat="47.26317" lon="-2.31803">
        <ele>13.199999809265</ele>
        <time>2021-06-17T06:52:44.000Z</time>
      </trkpt>
      <trkpt lat="47.26316" lon="-2.31821">
        <ele>13.199999809265</ele>
        <time>2021-06-17T06:52:47.000Z</time>
      </trkpt>
      <trkpt lat="47.26315" lon="-2.31834">
        <ele>13.199999809265</ele>
        <time>2021-06-17T06:52:49.000Z</time>
      </trkpt>
      <trkpt lat="47.26312" lon="-2.31869">
        <ele>13.199999809265</ele>
        <time>2021-06-17T06:52:55.000Z</time>
      </trkpt>
      <trkpt lat="47.2631" lon="-2.31887">
        <ele>13.199999809265</ele>
        <time>2021-06-17T06:52:59.000Z</time>
      </trkpt>
      <trkpt lat="47.26296" lon="-2.31898">
        <ele>13.199999809265</ele>
        <time>2021-06-17T06:53:03.000Z</time>
      </trkpt>
      <trkpt lat="47.26288" lon="-2.31904">
        <ele>13.199999809265</ele>
        <time>2021-06-17T06:53:05.000Z</time>
      </trkpt>
      <trkpt lat="47.2628" lon="-2.31914">
        <ele>13.199999809265</ele>
        <time>2021-06-17T06:53:08.000Z</time>
      </trkpt>
      <trkpt lat="47.26264" lon="-2.31937">
        <ele>13.199999809265</ele>
        <time>2021-06-17T06:53:14.000Z</time>
      </trkpt>
      <trkpt lat="47.26258" lon="-2.31951">
        <ele>12.800000190735</ele>
        <time>2021-06-17T06:53:17.000Z</time>
      </trkpt>
      <trkpt lat="47.26256" lon="-2.31956">
        <ele>12.39999961853</ele>
        <time>2021-06-17T06:53:18.000Z</time>
      </trkpt>
      <trkpt lat="47.26255" lon="-2.31959">
        <ele>12</ele>
        <time>2021-06-17T06:53:19.000Z</time>
      </trkpt>
      <trkpt lat="47.26254" lon="-2.3196">
        <ele>11.60000038147</ele>
        <time>2021-06-17T06:53:20.000Z</time>
      </trkpt>
      <trkpt lat="47.26253" lon="-2.31961">
        <ele>11.199999809265</ele>
        <time>2021-06-17T06:53:21.000Z</time>
      </trkpt>
      <trkpt lat="47.26249" lon="-2.3196">
        <ele>11.199999809265</ele>
        <time>2021-06-17T06:53:23.000Z</time>
      </trkpt>
      <trkpt lat="47.26241" lon="-2.31969">
        <ele>11.199999809265</ele>
        <time>2021-06-17T06:53:27.000Z</time>
      </trkpt>
      <trkpt lat="47.26223" lon="-2.31983">
        <ele>11.199999809265</ele>
        <time>2021-06-17T06:53:33.000Z</time>
      </trkpt>
      <trkpt lat="47.26215" lon="-2.31995">
        <ele>11.199999809265</ele>
        <time>2021-06-17T06:53:38.000Z</time>
      </trkpt>
      <trkpt lat="47.26211" lon="-2.31998">
        <ele>11.199999809265</ele>
        <time>2021-06-17T06:53:40.000Z</time>
      </trkpt>
      <trkpt lat="47.26207" lon="-2.32">
        <ele>11.199999809265</ele>
        <time>2021-06-17T06:53:43.000Z</time>
      </trkpt>
      <trkpt lat="47.26194" lon="-2.32004">
        <ele>11.199999809265</ele>
        <time>2021-06-17T06:53:48.000Z</time>
      </trkpt>
      <trkpt lat="47.26178" lon="-2.32015">
        <ele>11.199999809265</ele>
        <time>2021-06-17T06:53:53.000Z</time>
      </trkpt>
      <trkpt lat="47.26167" lon="-2.32038">
        <ele>11.199999809265</ele>
        <time>2021-06-17T06:53:57.000Z</time>
      </trkpt>
      <trkpt lat="47.26159" lon="-2.32063">
        <ele>11.199999809265</ele>
        <time>2021-06-17T06:54:01.000Z</time>
      </trkpt>
      <trkpt lat="47.26154" lon="-2.32082">
        <ele>11.199999809265</ele>
        <time>2021-06-17T06:54:04.000Z</time>
      </trkpt>
      <trkpt lat="47.26139" lon="-2.32126">
        <ele>11.199999809265</ele>
        <time>2021-06-17T06:54:11.000Z</time>
      </trkpt>
      <trkpt lat="47.2612" lon="-2.32175">
        <ele>11.199999809265</ele>
        <time>2021-06-17T06:54:19.000Z</time>
      </trkpt>
      <trkpt lat="47.26101" lon="-2.32208">
        <ele>11.199999809265</ele>
        <time>2021-06-17T06:54:25.000Z</time>
      </trkpt>
      <trkpt lat="47.2607" lon="-2.32247">
        <ele>11.199999809265</ele>
        <time>2021-06-17T06:54:33.000Z</time>
      </trkpt>
      <trkpt lat="47.26036" lon="-2.32287">
        <ele>11.199999809265</ele>
        <time>2021-06-17T06:54:41.000Z</time>
      </trkpt>
      <trkpt lat="47.2601" lon="-2.32321">
        <ele>11.199999809265</ele>
        <time>2021-06-17T06:54:48.000Z</time>
      </trkpt>
      <trkpt lat="47.2598" lon="-2.32362">
        <ele>11.199999809265</ele>
        <time>2021-06-17T06:54:56.000Z</time>
      </trkpt>
      <trkpt lat="47.25953" lon="-2.32389">
        <ele>11.199999809265</ele>
        <time>2021-06-17T06:55:03.000Z</time>
      </trkpt>
      <trkpt lat="47.25927" lon="-2.32418">
        <ele>11.199999809265</ele>
        <time>2021-06-17T06:55:10.000Z</time>
      </trkpt>
      <trkpt lat="47.25911" lon="-2.32444">
        <ele>11.199999809265</ele>
        <time>2021-06-17T06:55:16.000Z</time>
      </trkpt>
      <trkpt lat="47.25911" lon="-2.32446">
        <ele>11.199999809265</ele>
        <time>2021-06-17T06:55:17.000Z</time>
      </trkpt>
      <trkpt lat="47.25915" lon="-2.3245">
        <ele>11.199999809265</ele>
        <time>2021-06-17T06:55:19.000Z</time>
      </trkpt>
      <trkpt lat="47.25931" lon="-2.32466">
        <ele>11.199999809265</ele>
        <time>2021-06-17T06:55:24.000Z</time>
      </trkpt>
      <trkpt lat="47.2594" lon="-2.32489">
        <ele>11.199999809265</ele>
        <time>2021-06-17T06:55:28.000Z</time>
      </trkpt>
      <trkpt lat="47.25954" lon="-2.32533">
        <ele>11.199999809265</ele>
        <time>2021-06-17T06:55:35.000Z</time>
      </trkpt>
      <trkpt lat="47.25968" lon="-2.3259">
        <ele>11.199999809265</ele>
        <time>2021-06-17T06:55:44.000Z</time>
      </trkpt>
      <trkpt lat="47.25971" lon="-2.32614">
        <ele>11.199999809265</ele>
        <time>2021-06-17T06:55:48.000Z</time>
      </trkpt>
      <trkpt lat="47.25968" lon="-2.32626">
        <ele>11.199999809265</ele>
        <time>2021-06-17T06:55:50.000Z</time>
      </trkpt>
      <trkpt lat="47.25973" lon="-2.32635">
        <ele>11.199999809265</ele>
        <time>2021-06-17T06:55:53.000Z</time>
      </trkpt>
      <trkpt lat="47.25983" lon="-2.3263">
        <ele>11.199999809265</ele>
        <time>2021-06-17T06:55:56.000Z</time>
      </trkpt>
      <trkpt lat="47.25995" lon="-2.3263">
        <ele>11.199999809265</ele>
        <time>2021-06-17T06:55:59.000Z</time>
      </trkpt>
      <trkpt lat="47.26008" lon="-2.32627">
        <ele>11.199999809265</ele>
        <time>2021-06-17T06:56:02.000Z</time>
      </trkpt>
      <trkpt lat="47.26043" lon="-2.3262">
        <ele>11.199999809265</ele>
        <time>2021-06-17T06:56:10.000Z</time>
      </trkpt>
      <trkpt lat="47.2607" lon="-2.32614">
        <ele>11.199999809265</ele>
        <time>2021-06-17T06:56:17.000Z</time>
      </trkpt>
      <trkpt lat="47.26103" lon="-2.32608">
        <ele>11.199999809265</ele>
        <time>2021-06-17T06:56:25.000Z</time>
      </trkpt>
      <trkpt lat="47.26136" lon="-2.32609">
        <ele>11.199999809265</ele>
        <time>2021-06-17T06:56:33.000Z</time>
      </trkpt>
      <trkpt lat="47.26166" lon="-2.32621">
        <ele>11.199999809265</ele>
        <time>2021-06-17T06:56:40.000Z</time>
      </trkpt>
      <trkpt lat="47.26202" lon="-2.32648">
        <ele>11.199999809265</ele>
        <time>2021-06-17T06:56:49.000Z</time>
      </trkpt>
      <trkpt lat="47.26231" lon="-2.32683">
        <ele>11.199999809265</ele>
        <time>2021-06-17T06:56:57.000Z</time>
      </trkpt>
      <trkpt lat="47.2626" lon="-2.32725">
        <ele>11.199999809265</ele>
        <time>2021-06-17T06:57:04.000Z</time>
      </trkpt>
      <trkpt lat="47.26279" lon="-2.32765">
        <ele>11.199999809265</ele>
        <time>2021-06-17T06:57:10.000Z</time>
      </trkpt>
      <trkpt lat="47.26288" lon="-2.32807">
        <ele>11.199999809265</ele>
        <time>2021-06-17T06:57:16.000Z</time>
      </trkpt>
      <trkpt lat="47.26289" lon="-2.32815">
        <ele>11.199999809265</ele>
        <time>2021-06-17T06:57:17.000Z</time>
      </trkpt>
      <trkpt lat="47.26291" lon="-2.32823">
        <ele>11.199999809265</ele>
        <time>2021-06-17T06:57:18.000Z</time>
      </trkpt>
      <trkpt lat="47.26297" lon="-2.32833">
        <ele>11.199999809265</ele>
        <time>2021-06-17T06:57:20.000Z</time>
      </trkpt>
      <trkpt lat="47.26311" lon="-2.3284">
        <ele>11.199999809265</ele>
        <time>2021-06-17T06:57:23.000Z</time>
      </trkpt>
      <trkpt lat="47.26316" lon="-2.32843">
        <ele>11.199999809265</ele>
        <time>2021-06-17T06:57:24.000Z</time>
      </trkpt>
      <trkpt lat="47.26322" lon="-2.32855">
        <ele>11.199999809265</ele>
        <time>2021-06-17T06:57:26.000Z</time>
      </trkpt>
      <trkpt lat="47.26326" lon="-2.32868">
        <ele>11.199999809265</ele>
        <time>2021-06-17T06:57:28.000Z</time>
      </trkpt>
      <trkpt lat="47.26335" lon="-2.32895">
        <ele>11.199999809265</ele>
        <time>2021-06-17T06:57:32.000Z</time>
      </trkpt>
      <trkpt lat="47.26353" lon="-2.32946">
        <ele>11.199999809265</ele>
        <time>2021-06-17T06:57:40.000Z</time>
      </trkpt>
      <trkpt lat="47.26364" lon="-2.32958">
        <ele>11.199999809265</ele>
        <time>2021-06-17T06:57:43.000Z</time>
      </trkpt>
      <trkpt lat="47.26367" lon="-2.32963">
        <ele>11.199999809265</ele>
        <time>2021-06-17T06:57:44.000Z</time>
      </trkpt>
      <trkpt lat="47.26369" lon="-2.32969">
        <ele>11.199999809265</ele>
        <time>2021-06-17T06:57:45.000Z</time>
      </trkpt>
      <trkpt lat="47.26369" lon="-2.32984">
        <ele>11.199999809265</ele>
        <time>2021-06-17T06:57:47.000Z</time>
      </trkpt>
      <trkpt lat="47.26372" lon="-2.33059">
        <ele>11.199999809265</ele>
        <time>2021-06-17T06:57:57.000Z</time>
      </trkpt>
      <trkpt lat="47.26375" lon="-2.33111">
        <ele>11.199999809265</ele>
        <time>2021-06-17T06:58:04.000Z</time>
      </trkpt>
      <trkpt lat="47.26379" lon="-2.33183">
        <ele>11.199999809265</ele>
        <time>2021-06-17T06:58:14.000Z</time>
      </trkpt>
      <trkpt lat="47.26381" lon="-2.33212">
        <ele>11.199999809265</ele>
        <time>2021-06-17T06:58:18.000Z</time>
      </trkpt>
      <trkpt lat="47.26384" lon="-2.33226">
        <ele>11.199999809265</ele>
        <time>2021-06-17T06:58:20.000Z</time>
      </trkpt>
      <trkpt lat="47.26387" lon="-2.33232">
        <ele>11.199999809265</ele>
        <time>2021-06-17T06:58:21.000Z</time>
      </trkpt>
      <trkpt lat="47.2639" lon="-2.33238">
        <ele>11.199999809265</ele>
        <time>2021-06-17T06:58:22.000Z</time>
      </trkpt>
      <trkpt lat="47.26399" lon="-2.33245">
        <ele>11.199999809265</ele>
        <time>2021-06-17T06:58:24.000Z</time>
      </trkpt>
      <trkpt lat="47.26419" lon="-2.33252">
        <ele>11.199999809265</ele>
        <time>2021-06-17T06:58:28.000Z</time>
      </trkpt>
      <trkpt lat="47.26424" lon="-2.33253">
        <ele>11.199999809265</ele>
        <time>2021-06-17T06:58:29.000Z</time>
      </trkpt>
      <trkpt lat="47.26466" lon="-2.33267">
        <ele>11.199999809265</ele>
        <time>2021-06-17T06:58:38.000Z</time>
      </trkpt>
      <trkpt lat="47.26495" lon="-2.33276">
        <ele>11.199999809265</ele>
        <time>2021-06-17T06:58:45.000Z</time>
      </trkpt>
      <trkpt lat="47.26514" lon="-2.33284">
        <ele>11.199999809265</ele>
        <time>2021-06-17T06:58:50.000Z</time>
      </trkpt>
      <trkpt lat="47.26518" lon="-2.33286">
        <ele>11.199999809265</ele>
        <time>2021-06-17T06:58:51.000Z</time>
      </trkpt>
      <trkpt lat="47.26531" lon="-2.33287">
        <ele>11.199999809265</ele>
        <time>2021-06-17T06:58:54.000Z</time>
      </trkpt>
      <trkpt lat="47.26535" lon="-2.33288">
        <ele>11.199999809265</ele>
        <time>2021-06-17T06:58:55.000Z</time>
      </trkpt>
      <trkpt lat="47.2654" lon="-2.33294">
        <ele>11.199999809265</ele>
        <time>2021-06-17T06:58:57.000Z</time>
      </trkpt>
      <trkpt lat="47.2655" lon="-2.33291">
        <ele>11.199999809265</ele>
        <time>2021-06-17T06:59:00.000Z</time>
      </trkpt>
      <trkpt lat="47.26553" lon="-2.33289">
        <ele>11.199999809265</ele>
        <time>2021-06-17T06:59:01.000Z</time>
      </trkpt>
      <trkpt lat="47.26573" lon="-2.33271">
        <ele>11.199999809265</ele>
        <time>2021-06-17T06:59:07.000Z</time>
      </trkpt>
      <trkpt lat="47.266" lon="-2.33245">
        <ele>11.199999809265</ele>
        <time>2021-06-17T06:59:14.000Z</time>
      </trkpt>
      <trkpt lat="47.26629" lon="-2.33212">
        <ele>11.199999809265</ele>
        <time>2021-06-17T06:59:22.000Z</time>
      </trkpt>
      <trkpt lat="47.26653" lon="-2.33187">
        <ele>11.199999809265</ele>
        <time>2021-06-17T06:59:29.000Z</time>
      </trkpt>
      <trkpt lat="47.26682" lon="-2.33157">
        <ele>11.199999809265</ele>
        <time>2021-06-17T06:59:37.000Z</time>
      </trkpt>
      <trkpt lat="47.26701" lon="-2.33137">
        <ele>11.60000038147</ele>
        <time>2021-06-17T06:59:42.000Z</time>
      </trkpt>
      <trkpt lat="47.26705" lon="-2.33134">
        <ele>12</ele>
        <time>2021-06-17T06:59:43.000Z</time>
      </trkpt>
      <trkpt lat="47.26708" lon="-2.3313">
        <ele>12.39999961853</ele>
        <time>2021-06-17T06:59:44.000Z</time>
      </trkpt>
      <trkpt lat="47.26712" lon="-2.33126">
        <ele>13</ele>
        <time>2021-06-17T06:59:45.000Z</time>
      </trkpt>
      <trkpt lat="47.26715" lon="-2.33122">
        <ele>13.39999961853</ele>
        <time>2021-06-17T06:59:46.000Z</time>
      </trkpt>
      <trkpt lat="47.26729" lon="-2.33104">
        <ele>13.39999961853</ele>
        <time>2021-06-17T06:59:51.000Z</time>
      </trkpt>
      <trkpt lat="47.26747" lon="-2.33088">
        <ele>13.39999961853</ele>
        <time>2021-06-17T06:59:57.000Z</time>
      </trkpt>
      <trkpt lat="47.2675" lon="-2.33088">
        <ele>13.39999961853</ele>
        <time>2021-06-17T06:59:58.000Z</time>
      </trkpt>
      <trkpt lat="47.26757" lon="-2.33095">
        <ele>13.39999961853</ele>
        <time>2021-06-17T07:00:00.000Z</time>
      </trkpt>
      <trkpt lat="47.26763" lon="-2.33114">
        <ele>13.39999961853</ele>
        <time>2021-06-17T07:00:03.000Z</time>
      </trkpt>
      <trkpt lat="47.26764" lon="-2.33121">
        <ele>13.39999961853</ele>
        <time>2021-06-17T07:00:04.000Z</time>
      </trkpt>
      <trkpt lat="47.26765" lon="-2.33129">
        <ele>13.39999961853</ele>
        <time>2021-06-17T07:00:05.000Z</time>
      </trkpt>
      <trkpt lat="47.26762" lon="-2.33151">
        <ele>13.39999961853</ele>
        <time>2021-06-17T07:00:08.000Z</time>
      </trkpt>
      <trkpt lat="47.2676" lon="-2.33157">
        <ele>13.39999961853</ele>
        <time>2021-06-17T07:00:09.000Z</time>
      </trkpt>
      <trkpt lat="47.26747" lon="-2.33201">
        <ele>13.39999961853</ele>
        <time>2021-06-17T07:00:16.000Z</time>
      </trkpt>
      <trkpt lat="47.26739" lon="-2.33225">
        <ele>13.39999961853</ele>
        <time>2021-06-17T07:00:20.000Z</time>
      </trkpt>
      <trkpt lat="47.26735" lon="-2.33238">
        <ele>13.39999961853</ele>
        <time>2021-06-17T07:00:22.000Z</time>
      </trkpt>
      <trkpt lat="47.26731" lon="-2.33253">
        <ele>13.39999961853</ele>
        <time>2021-06-17T07:00:24.000Z</time>
      </trkpt>
      <trkpt lat="47.2673" lon="-2.33275">
        <ele>13.39999961853</ele>
        <time>2021-06-17T07:00:27.000Z</time>
      </trkpt>
      <trkpt lat="47.26735" lon="-2.33296">
        <ele>13.39999961853</ele>
        <time>2021-06-17T07:00:30.000Z</time>
      </trkpt>
      <trkpt lat="47.26739" lon="-2.3331">
        <ele>13.39999961853</ele>
        <time>2021-06-17T07:00:32.000Z</time>
      </trkpt>
      <trkpt lat="47.2675" lon="-2.33346">
        <ele>13.39999961853</ele>
        <time>2021-06-17T07:00:37.000Z</time>
      </trkpt>
      <trkpt lat="47.26751" lon="-2.33354">
        <ele>13.39999961853</ele>
        <time>2021-06-17T07:00:38.000Z</time>
      </trkpt>
      <trkpt lat="47.26755" lon="-2.33394">
        <ele>13.39999961853</ele>
        <time>2021-06-17T07:00:43.000Z</time>
      </trkpt>
      <trkpt lat="47.2676" lon="-2.33447">
        <ele>13.39999961853</ele>
        <time>2021-06-17T07:00:50.000Z</time>
      </trkpt>
      <trkpt lat="47.26769" lon="-2.33499">
        <ele>13.39999961853</ele>
        <time>2021-06-17T07:00:57.000Z</time>
      </trkpt>
      <trkpt lat="47.26778" lon="-2.33551">
        <ele>13.39999961853</ele>
        <time>2021-06-17T07:01:04.000Z</time>
      </trkpt>
      <trkpt lat="47.26778" lon="-2.33558">
        <ele>13.39999961853</ele>
        <time>2021-06-17T07:01:05.000Z</time>
      </trkpt>
      <trkpt lat="47.2678" lon="-2.33594">
        <ele>13.39999961853</ele>
        <time>2021-06-17T07:01:10.000Z</time>
      </trkpt>
      <trkpt lat="47.26779" lon="-2.33601">
        <ele>13.800000190735</ele>
        <time>2021-06-17T07:01:11.000Z</time>
      </trkpt>
      <trkpt lat="47.26779" lon="-2.33608">
        <ele>14.199999809265</ele>
        <time>2021-06-17T07:01:12.000Z</time>
      </trkpt>
      <trkpt lat="47.26779" lon="-2.33614">
        <ele>14.60000038147</ele>
        <time>2021-06-17T07:01:13.000Z</time>
      </trkpt>
      <trkpt lat="47.26779" lon="-2.33621">
        <ele>15</ele>
        <time>2021-06-17T07:01:14.000Z</time>
      </trkpt>
      <trkpt lat="47.26779" lon="-2.33627">
        <ele>15.39999961853</ele>
        <time>2021-06-17T07:01:15.000Z</time>
      </trkpt>
      <trkpt lat="47.26778" lon="-2.3364">
        <ele>15.39999961853</ele>
        <time>2021-06-17T07:01:17.000Z</time>
      </trkpt>
      <trkpt lat="47.26778" lon="-2.33683">
        <ele>15.39999961853</ele>
        <time>2021-06-17T07:01:24.000Z</time>
      </trkpt>
      <trkpt lat="47.26784" lon="-2.33702">
        <ele>15.800000190735</ele>
        <time>2021-06-17T07:01:28.000Z</time>
      </trkpt>
      <trkpt lat="47.26786" lon="-2.33707">
        <ele>16.200000762939</ele>
        <time>2021-06-17T07:01:29.000Z</time>
      </trkpt>
      <trkpt lat="47.26789" lon="-2.33711">
        <ele>16.799999237061</ele>
        <time>2021-06-17T07:01:30.000Z</time>
      </trkpt>
      <trkpt lat="47.26792" lon="-2.33714">
        <ele>17.200000762939</ele>
        <time>2021-06-17T07:01:31.000Z</time>
      </trkpt>
      <trkpt lat="47.26796" lon="-2.33718">
        <ele>17.60000038147</ele>
        <time>2021-06-17T07:01:32.000Z</time>
      </trkpt>
      <trkpt lat="47.2681" lon="-2.33733">
        <ele>17.60000038147</ele>
        <time>2021-06-17T07:01:36.000Z</time>
      </trkpt>
      <trkpt lat="47.26835" lon="-2.33761">
        <ele>17.60000038147</ele>
        <time>2021-06-17T07:01:43.000Z</time>
      </trkpt>
      <trkpt lat="47.26846" lon="-2.33773">
        <ele>17.60000038147</ele>
        <time>2021-06-17T07:01:46.000Z</time>
      </trkpt>
      <trkpt lat="47.26855" lon="-2.33777">
        <ele>17.60000038147</ele>
        <time>2021-06-17T07:01:48.000Z</time>
      </trkpt>
      <trkpt lat="47.26864" lon="-2.3378">
        <ele>18</ele>
        <time>2021-06-17T07:01:50.000Z</time>
      </trkpt>
      <trkpt lat="47.26869" lon="-2.33782">
        <ele>18.39999961853</ele>
        <time>2021-06-17T07:01:51.000Z</time>
      </trkpt>
      <trkpt lat="47.26874" lon="-2.33784">
        <ele>18.799999237061</ele>
        <time>2021-06-17T07:01:52.000Z</time>
      </trkpt>
      <trkpt lat="47.26878" lon="-2.33786">
        <ele>19.60000038147</ele>
        <time>2021-06-17T07:01:53.000Z</time>
      </trkpt>
      <trkpt lat="47.26891" lon="-2.33793">
        <ele>19.60000038147</ele>
        <time>2021-06-17T07:01:56.000Z</time>
      </trkpt>
      <trkpt lat="47.26894" lon="-2.33797">
        <ele>19.60000038147</ele>
        <time>2021-06-17T07:01:57.000Z</time>
      </trkpt>
      <trkpt lat="47.26899" lon="-2.33807">
        <ele>19.60000038147</ele>
        <time>2021-06-17T07:01:59.000Z</time>
      </trkpt>
      <trkpt lat="47.26912" lon="-2.33861">
        <ele>19.60000038147</ele>
        <time>2021-06-17T07:02:07.000Z</time>
      </trkpt>
      <trkpt lat="47.26924" lon="-2.33915">
        <ele>19.60000038147</ele>
        <time>2021-06-17T07:02:15.000Z</time>
      </trkpt>
      <trkpt lat="47.26935" lon="-2.33968">
        <ele>19.60000038147</ele>
        <time>2021-06-17T07:02:23.000Z</time>
      </trkpt>
      <trkpt lat="47.2694" lon="-2.33987">
        <ele>20.200000762939</ele>
        <time>2021-06-17T07:02:26.000Z</time>
      </trkpt>
      <trkpt lat="47.26941" lon="-2.33994">
        <ele>20.60000038147</ele>
        <time>2021-06-17T07:02:27.000Z</time>
      </trkpt>
      <trkpt lat="47.26943" lon="-2.34001">
        <ele>21</ele>
        <time>2021-06-17T07:02:28.000Z</time>
      </trkpt>
      <trkpt lat="47.26944" lon="-2.34007">
        <ele>21.39999961853</ele>
        <time>2021-06-17T07:02:29.000Z</time>
      </trkpt>
      <trkpt lat="47.26946" lon="-2.34014">
        <ele>21.799999237061</ele>
        <time>2021-06-17T07:02:30.000Z</time>
      </trkpt>
      <trkpt lat="47.26949" lon="-2.34028">
        <ele>21.799999237061</ele>
        <time>2021-06-17T07:02:32.000Z</time>
      </trkpt>
      <trkpt lat="47.2696" lon="-2.34074">
        <ele>21.799999237061</ele>
        <time>2021-06-17T07:02:39.000Z</time>
      </trkpt>
      <trkpt lat="47.26965" lon="-2.34101">
        <ele>21.799999237061</ele>
        <time>2021-06-17T07:02:43.000Z</time>
      </trkpt>
      <trkpt lat="47.26974" lon="-2.34136">
        <ele>21.799999237061</ele>
        <time>2021-06-17T07:02:48.000Z</time>
      </trkpt>
      <trkpt lat="47.26987" lon="-2.34196">
        <ele>21.799999237061</ele>
        <time>2021-06-17T07:02:57.000Z</time>
      </trkpt>
      <trkpt lat="47.27001" lon="-2.34255">
        <ele>21.799999237061</ele>
        <time>2021-06-17T07:03:06.000Z</time>
      </trkpt>
      <trkpt lat="47.27007" lon="-2.3428">
        <ele>21.799999237061</ele>
        <time>2021-06-17T07:03:10.000Z</time>
      </trkpt>
      <trkpt lat="47.27007" lon="-2.34297">
        <ele>21.799999237061</ele>
        <time>2021-06-17T07:03:13.000Z</time>
      </trkpt>
      <trkpt lat="47.27007" lon="-2.34303">
        <ele>21.799999237061</ele>
        <time>2021-06-17T07:03:14.000Z</time>
      </trkpt>
      <trkpt lat="47.27008" lon="-2.34313">
        <ele>21.799999237061</ele>
        <time>2021-06-17T07:03:16.000Z</time>
      </trkpt>
      <trkpt lat="47.2701" lon="-2.34316">
        <ele>21.799999237061</ele>
        <time>2021-06-17T07:03:17.000Z</time>
      </trkpt>
      <trkpt lat="47.27019" lon="-2.34318">
        <ele>21.799999237061</ele>
        <time>2021-06-17T07:03:20.000Z</time>
      </trkpt>
      <trkpt lat="47.27022" lon="-2.34318">
        <ele>21.799999237061</ele>
        <time>2021-06-17T07:03:21.000Z</time>
      </trkpt>
      <trkpt lat="47.2703" lon="-2.34318">
        <ele>22.200000762939</ele>
        <time>2021-06-17T07:03:23.000Z</time>
      </trkpt>
      <trkpt lat="47.27034" lon="-2.34318">
        <ele>22.60000038147</ele>
        <time>2021-06-17T07:03:24.000Z</time>
      </trkpt>
      <trkpt lat="47.27038" lon="-2.34318">
        <ele>23</ele>
        <time>2021-06-17T07:03:25.000Z</time>
      </trkpt>
      <trkpt lat="47.27042" lon="-2.34318">
        <ele>23.60000038147</ele>
        <time>2021-06-17T07:03:26.000Z</time>
      </trkpt>
      <trkpt lat="47.27046" lon="-2.34318">
        <ele>24</ele>
        <time>2021-06-17T07:03:27.000Z</time>
      </trkpt>
      <trkpt lat="47.27071" lon="-2.34318">
        <ele>24</ele>
        <time>2021-06-17T07:03:33.000Z</time>
      </trkpt>
      <trkpt lat="47.27096" lon="-2.34318">
        <ele>24.39999961853</ele>
        <time>2021-06-17T07:03:39.000Z</time>
      </trkpt>
      <trkpt lat="47.271" lon="-2.34318">
        <ele>24.799999237061</ele>
        <time>2021-06-17T07:03:40.000Z</time>
      </trkpt>
      <trkpt lat="47.27103" lon="-2.34319">
        <ele>25.200000762939</ele>
        <time>2021-06-17T07:03:41.000Z</time>
      </trkpt>
      <trkpt lat="47.27106" lon="-2.3432">
        <ele>25.60000038147</ele>
        <time>2021-06-17T07:03:42.000Z</time>
      </trkpt>
      <trkpt lat="47.27109" lon="-2.34321">
        <ele>26</ele>
        <time>2021-06-17T07:03:43.000Z</time>
      </trkpt>
      <trkpt lat="47.27119" lon="-2.3432">
        <ele>26</ele>
        <time>2021-06-17T07:03:46.000Z</time>
      </trkpt>
      <trkpt lat="47.27139" lon="-2.3432">
        <ele>26</ele>
        <time>2021-06-17T07:03:52.000Z</time>
      </trkpt>
      <trkpt lat="47.27148" lon="-2.3432">
        <ele>26</ele>
        <time>2021-06-17T07:03:54.000Z</time>
      </trkpt>
      <trkpt lat="47.27152" lon="-2.3432">
        <ele>26.39999961853</ele>
        <time>2021-06-17T07:03:55.000Z</time>
      </trkpt>
      <trkpt lat="47.27155" lon="-2.3432">
        <ele>26.799999237061</ele>
        <time>2021-06-17T07:03:56.000Z</time>
      </trkpt>
      <trkpt lat="47.27159" lon="-2.3432">
        <ele>27.39999961853</ele>
        <time>2021-06-17T07:03:57.000Z</time>
      </trkpt>
      <trkpt lat="47.27163" lon="-2.3432">
        <ele>27.799999237061</ele>
        <time>2021-06-17T07:03:58.000Z</time>
      </trkpt>
      <trkpt lat="47.27167" lon="-2.3432">
        <ele>28.200000762939</ele>
        <time>2021-06-17T07:03:59.000Z</time>
      </trkpt>
      <trkpt lat="47.2718" lon="-2.34321">
        <ele>28.200000762939</ele>
        <time>2021-06-17T07:04:02.000Z</time>
      </trkpt>
      <trkpt lat="47.27184" lon="-2.34321">
        <ele>28.200000762939</ele>
        <time>2021-06-17T07:04:03.000Z</time>
      </trkpt>
      <trkpt lat="47.27213" lon="-2.34321">
        <ele>28.60000038147</ele>
        <time>2021-06-17T07:04:10.000Z</time>
      </trkpt>
      <trkpt lat="47.27217" lon="-2.34321">
        <ele>29</ele>
        <time>2021-06-17T07:04:11.000Z</time>
      </trkpt>
      <trkpt lat="47.27221" lon="-2.34321">
        <ele>29.39999961853</ele>
        <time>2021-06-17T07:04:12.000Z</time>
      </trkpt>
      <trkpt lat="47.27225" lon="-2.3432">
        <ele>29.799999237061</ele>
        <time>2021-06-17T07:04:13.000Z</time>
      </trkpt>
      <trkpt lat="47.2723" lon="-2.3432">
        <ele>30.39999961853</ele>
        <time>2021-06-17T07:04:14.000Z</time>
      </trkpt>
      <trkpt lat="47.27246" lon="-2.3432">
        <ele>30.39999961853</ele>
        <time>2021-06-17T07:04:18.000Z</time>
      </trkpt>
      <trkpt lat="47.27275" lon="-2.34316">
        <ele>30.39999961853</ele>
        <time>2021-06-17T07:04:25.000Z</time>
      </trkpt>
      <trkpt lat="47.27279" lon="-2.34315">
        <ele>30.799999237061</ele>
        <time>2021-06-17T07:04:26.000Z</time>
      </trkpt>
      <trkpt lat="47.27284" lon="-2.34314">
        <ele>31.200000762939</ele>
        <time>2021-06-17T07:04:27.000Z</time>
      </trkpt>
      <trkpt lat="47.27288" lon="-2.34313">
        <ele>31.60000038147</ele>
        <time>2021-06-17T07:04:28.000Z</time>
      </trkpt>
      <trkpt lat="47.27292" lon="-2.34311">
        <ele>32</ele>
        <time>2021-06-17T07:04:29.000Z</time>
      </trkpt>
      <trkpt lat="47.27297" lon="-2.3431">
        <ele>32.400001525879</ele>
        <time>2021-06-17T07:04:30.000Z</time>
      </trkpt>
      <trkpt lat="47.2731" lon="-2.34304">
        <ele>32.400001525879</ele>
        <time>2021-06-17T07:04:33.000Z</time>
      </trkpt>
      <trkpt lat="47.27329" lon="-2.34292">
        <ele>33.400001525879</ele>
        <time>2021-06-17T07:04:38.000Z</time>
      </trkpt>
      <trkpt lat="47.27333" lon="-2.3429">
        <ele>33.799999237061</ele>
        <time>2021-06-17T07:04:39.000Z</time>
      </trkpt>
      <trkpt lat="47.27337" lon="-2.34287">
        <ele>34.200000762939</ele>
        <time>2021-06-17T07:04:40.000Z</time>
      </trkpt>
      <trkpt lat="47.27341" lon="-2.34284">
        <ele>34.599998474121</ele>
        <time>2021-06-17T07:04:41.000Z</time>
      </trkpt>
      <trkpt lat="47.2736" lon="-2.3427">
        <ele>34.599998474121</ele>
        <time>2021-06-17T07:04:46.000Z</time>
      </trkpt>
      <trkpt lat="47.27367" lon="-2.34265">
        <ele>34.599998474121</ele>
        <time>2021-06-17T07:04:48.000Z</time>
      </trkpt>
      <trkpt lat="47.27383" lon="-2.34256">
        <ele>35.200000762939</ele>
        <time>2021-06-17T07:04:52.000Z</time>
      </trkpt>
      <trkpt lat="47.27387" lon="-2.34253">
        <ele>35.599998474121</ele>
        <time>2021-06-17T07:04:53.000Z</time>
      </trkpt>
      <trkpt lat="47.27391" lon="-2.34251">
        <ele>36</ele>
        <time>2021-06-17T07:04:54.000Z</time>
      </trkpt>
      <trkpt lat="47.27396" lon="-2.34249">
        <ele>36.400001525879</ele>
        <time>2021-06-17T07:04:55.000Z</time>
      </trkpt>
      <trkpt lat="47.274" lon="-2.34247">
        <ele>36.799999237061</ele>
        <time>2021-06-17T07:04:56.000Z</time>
      </trkpt>
      <trkpt lat="47.27404" lon="-2.34246">
        <ele>36.799999237061</ele>
        <time>2021-06-17T07:04:57.000Z</time>
      </trkpt>
      <trkpt lat="47.2741" lon="-2.34244">
        <ele>36.799999237061</ele>
        <time>2021-06-17T07:04:59.000Z</time>
      </trkpt>
      <trkpt lat="47.27413" lon="-2.34245">
        <ele>36.799999237061</ele>
        <time>2021-06-17T07:05:00.000Z</time>
      </trkpt>
      <trkpt lat="47.27415" lon="-2.34252">
        <ele>36.799999237061</ele>
        <time>2021-06-17T07:05:02.000Z</time>
      </trkpt>
      <trkpt lat="47.27417" lon="-2.34262">
        <ele>36.799999237061</ele>
        <time>2021-06-17T07:05:04.000Z</time>
      </trkpt>
      <trkpt lat="47.27419" lon="-2.34281">
        <ele>36.799999237061</ele>
        <time>2021-06-17T07:05:07.000Z</time>
      </trkpt>
      <trkpt lat="47.27418" lon="-2.34327">
        <ele>37.200000762939</ele>
        <time>2021-06-17T07:05:14.000Z</time>
      </trkpt>
      <trkpt lat="47.27418" lon="-2.34334">
        <ele>37.599998474121</ele>
        <time>2021-06-17T07:05:15.000Z</time>
      </trkpt>
      <trkpt lat="47.27418" lon="-2.3434">
        <ele>38</ele>
        <time>2021-06-17T07:05:16.000Z</time>
      </trkpt>
      <trkpt lat="47.27419" lon="-2.34347">
        <ele>38.400001525879</ele>
        <time>2021-06-17T07:05:17.000Z</time>
      </trkpt>
      <trkpt lat="47.27419" lon="-2.34354">
        <ele>38.799999237061</ele>
        <time>2021-06-17T07:05:18.000Z</time>
      </trkpt>
      <trkpt lat="47.2742" lon="-2.34372">
        <ele>38.799999237061</ele>
        <time>2021-06-17T07:05:21.000Z</time>
      </trkpt>
      <trkpt lat="47.27424" lon="-2.34418">
        <ele>38.799999237061</ele>
        <time>2021-06-17T07:05:28.000Z</time>
      </trkpt>
      <trkpt lat="47.27425" lon="-2.34431">
        <ele>39.400001525879</ele>
        <time>2021-06-17T07:05:30.000Z</time>
      </trkpt>
      <trkpt lat="47.27425" lon="-2.34438">
        <ele>39.799999237061</ele>
        <time>2021-06-17T07:05:31.000Z</time>
      </trkpt>
      <trkpt lat="47.27426" lon="-2.34445">
        <ele>40.200000762939</ele>
        <time>2021-06-17T07:05:32.000Z</time>
      </trkpt>
      <trkpt lat="47.27426" lon="-2.34452">
        <ele>40.599998474121</ele>
        <time>2021-06-17T07:05:33.000Z</time>
      </trkpt>
      <trkpt lat="47.27426" lon="-2.34459">
        <ele>41</ele>
        <time>2021-06-17T07:05:34.000Z</time>
      </trkpt>
      <trkpt lat="47.27426" lon="-2.34466">
        <ele>41</ele>
        <time>2021-06-17T07:05:35.000Z</time>
      </trkpt>
      <trkpt lat="47.27426" lon="-2.34479">
        <ele>41</ele>
        <time>2021-06-17T07:05:37.000Z</time>
      </trkpt>
      <trkpt lat="47.27431" lon="-2.34505">
        <ele>41</ele>
        <time>2021-06-17T07:05:41.000Z</time>
      </trkpt>
      <trkpt lat="47.27442" lon="-2.34548">
        <ele>41</ele>
        <time>2021-06-17T07:05:48.000Z</time>
      </trkpt>
      <trkpt lat="47.27448" lon="-2.34575">
        <ele>41.400001525879</ele>
        <time>2021-06-17T07:05:52.000Z</time>
      </trkpt>
      <trkpt lat="47.27449" lon="-2.34582">
        <ele>42.200000762939</ele>
        <time>2021-06-17T07:05:53.000Z</time>
      </trkpt>
      <trkpt lat="47.2745" lon="-2.34589">
        <ele>42.599998474121</ele>
        <time>2021-06-17T07:05:54.000Z</time>
      </trkpt>
      <trkpt lat="47.27451" lon="-2.34597">
        <ele>43</ele>
        <time>2021-06-17T07:05:55.000Z</time>
      </trkpt>
      <trkpt lat="47.27455" lon="-2.34644">
        <ele>43</ele>
        <time>2021-06-17T07:06:01.000Z</time>
      </trkpt>
      <trkpt lat="47.27459" lon="-2.34697">
        <ele>43</ele>
        <time>2021-06-17T07:06:08.000Z</time>
      </trkpt>
      <trkpt lat="47.27457" lon="-2.34735">
        <ele>43</ele>
        <time>2021-06-17T07:06:13.000Z</time>
      </trkpt>
      <trkpt lat="47.27457" lon="-2.34768">
        <ele>42.200000762939</ele>
        <time>2021-06-17T07:06:17.000Z</time>
      </trkpt>
      <trkpt lat="47.27457" lon="-2.34775">
        <ele>41.599998474121</ele>
        <time>2021-06-17T07:06:18.000Z</time>
      </trkpt>
      <trkpt lat="47.27458" lon="-2.34782">
        <ele>41.200000762939</ele>
        <time>2021-06-17T07:06:19.000Z</time>
      </trkpt>
      <trkpt lat="47.27458" lon="-2.34788">
        <ele>40.799999237061</ele>
        <time>2021-06-17T07:06:20.000Z</time>
      </trkpt>
      <trkpt lat="47.2746" lon="-2.34819">
        <ele>40.799999237061</ele>
        <time>2021-06-17T07:06:25.000Z</time>
      </trkpt>
      <trkpt lat="47.27461" lon="-2.34837">
        <ele>40.400001525879</ele>
        <time>2021-06-17T07:06:28.000Z</time>
      </trkpt>
      <trkpt lat="47.27461" lon="-2.34844">
        <ele>40</ele>
        <time>2021-06-17T07:06:29.000Z</time>
      </trkpt>
      <trkpt lat="47.2746" lon="-2.34851">
        <ele>39.599998474121</ele>
        <time>2021-06-17T07:06:30.000Z</time>
      </trkpt>
      <trkpt lat="47.2746" lon="-2.34859">
        <ele>39.200000762939</ele>
        <time>2021-06-17T07:06:31.000Z</time>
      </trkpt>
      <trkpt lat="47.27461" lon="-2.34867">
        <ele>38.799999237061</ele>
        <time>2021-06-17T07:06:32.000Z</time>
      </trkpt>
      <trkpt lat="47.27462" lon="-2.34891">
        <ele>38.799999237061</ele>
        <time>2021-06-17T07:06:35.000Z</time>
      </trkpt>
      <trkpt lat="47.27463" lon="-2.34899">
        <ele>38.799999237061</ele>
        <time>2021-06-17T07:06:36.000Z</time>
      </trkpt>
      <trkpt lat="47.27465" lon="-2.34906">
        <ele>38.799999237061</ele>
        <time>2021-06-17T07:06:37.000Z</time>
      </trkpt>
      <trkpt lat="47.27473" lon="-2.34913">
        <ele>38.799999237061</ele>
        <time>2021-06-17T07:06:39.000Z</time>
      </trkpt>
      <trkpt lat="47.27492" lon="-2.34915">
        <ele>38.799999237061</ele>
        <time>2021-06-17T07:06:43.000Z</time>
      </trkpt>
      <trkpt lat="47.27502" lon="-2.34913">
        <ele>38.799999237061</ele>
        <time>2021-06-17T07:06:45.000Z</time>
      </trkpt>
      <trkpt lat="47.27506" lon="-2.34911">
        <ele>38.799999237061</ele>
        <time>2021-06-17T07:06:46.000Z</time>
      </trkpt>
      <trkpt lat="47.27514" lon="-2.34905">
        <ele>38.799999237061</ele>
        <time>2021-06-17T07:06:48.000Z</time>
      </trkpt>
      <trkpt lat="47.27522" lon="-2.34901">
        <ele>38.799999237061</ele>
        <time>2021-06-17T07:06:50.000Z</time>
      </trkpt>
      <trkpt lat="47.27527" lon="-2.349">
        <ele>39.200000762939</ele>
        <time>2021-06-17T07:06:51.000Z</time>
      </trkpt>
      <trkpt lat="47.27531" lon="-2.349">
        <ele>39.599998474121</ele>
        <time>2021-06-17T07:06:52.000Z</time>
      </trkpt>
      <trkpt lat="47.27537" lon="-2.34899">
        <ele>40</ele>
        <time>2021-06-17T07:06:53.000Z</time>
      </trkpt>
      <trkpt lat="47.27542" lon="-2.349">
        <ele>40.400001525879</ele>
        <time>2021-06-17T07:06:54.000Z</time>
      </trkpt>
      <trkpt lat="47.27547" lon="-2.349">
        <ele>40.799999237061</ele>
        <time>2021-06-17T07:06:55.000Z</time>
      </trkpt>
      <trkpt lat="47.27568" lon="-2.34904">
        <ele>40.799999237061</ele>
        <time>2021-06-17T07:06:59.000Z</time>
      </trkpt>
      <trkpt lat="47.27598" lon="-2.34909">
        <ele>40.799999237061</ele>
        <time>2021-06-17T07:07:05.000Z</time>
      </trkpt>
      <trkpt lat="47.27628" lon="-2.34911">
        <ele>40.799999237061</ele>
        <time>2021-06-17T07:07:11.000Z</time>
      </trkpt>
      <trkpt lat="47.27653" lon="-2.3491">
        <ele>40.799999237061</ele>
        <time>2021-06-17T07:07:16.000Z</time>
      </trkpt>
      <trkpt lat="47.27658" lon="-2.34909">
        <ele>40.799999237061</ele>
        <time>2021-06-17T07:07:17.000Z</time>
      </trkpt>
      <trkpt lat="47.27668" lon="-2.34909">
        <ele>40.799999237061</ele>
        <time>2021-06-17T07:07:19.000Z</time>
      </trkpt>
      <trkpt lat="47.27681" lon="-2.34921">
        <ele>40.799999237061</ele>
        <time>2021-06-17T07:07:22.000Z</time>
      </trkpt>
      <trkpt lat="47.27688" lon="-2.34954">
        <ele>40.799999237061</ele>
        <time>2021-06-17T07:07:26.000Z</time>
      </trkpt>
      <trkpt lat="47.27687" lon="-2.34971">
        <ele>40.799999237061</ele>
        <time>2021-06-17T07:07:28.000Z</time>
      </trkpt>
      <trkpt lat="47.27686" lon="-2.34997">
        <ele>40.799999237061</ele>
        <time>2021-06-17T07:07:31.000Z</time>
      </trkpt>
      <trkpt lat="47.27691" lon="-2.3503">
        <ele>40.799999237061</ele>
        <time>2021-06-17T07:07:35.000Z</time>
      </trkpt>
      <trkpt lat="47.27694" lon="-2.35036">
        <ele>40.799999237061</ele>
        <time>2021-06-17T07:07:36.000Z</time>
      </trkpt>
      <trkpt lat="47.27704" lon="-2.35039">
        <ele>40.799999237061</ele>
        <time>2021-06-17T07:07:38.000Z</time>
      </trkpt>
      <trkpt lat="47.27725" lon="-2.35034">
        <ele>40.400001525879</ele>
        <time>2021-06-17T07:07:42.000Z</time>
      </trkpt>
      <trkpt lat="47.2773" lon="-2.35033">
        <ele>40</ele>
        <time>2021-06-17T07:07:43.000Z</time>
      </trkpt>
      <trkpt lat="47.27736" lon="-2.35031">
        <ele>39.599998474121</ele>
        <time>2021-06-17T07:07:44.000Z</time>
      </trkpt>
      <trkpt lat="47.27741" lon="-2.3503">
        <ele>39.200000762939</ele>
        <time>2021-06-17T07:07:45.000Z</time>
      </trkpt>
      <trkpt lat="47.27747" lon="-2.35028">
        <ele>38.799999237061</ele>
        <time>2021-06-17T07:07:46.000Z</time>
      </trkpt>
      <trkpt lat="47.2776" lon="-2.35026">
        <ele>38.799999237061</ele>
        <time>2021-06-17T07:07:49.000Z</time>
      </trkpt>
      <trkpt lat="47.27763" lon="-2.35029">
        <ele>38.400001525879</ele>
        <time>2021-06-17T07:07:50.000Z</time>
      </trkpt>
      <trkpt lat="47.27765" lon="-2.35032">
        <ele>38</ele>
        <time>2021-06-17T07:07:51.000Z</time>
      </trkpt>
      <trkpt lat="47.27766" lon="-2.35037">
        <ele>37.400001525879</ele>
        <time>2021-06-17T07:07:52.000Z</time>
      </trkpt>
      <trkpt lat="47.27767" lon="-2.35044">
        <ele>37</ele>
        <time>2021-06-17T07:07:53.000Z</time>
      </trkpt>
      <trkpt lat="47.27767" lon="-2.35051">
        <ele>36.599998474121</ele>
        <time>2021-06-17T07:07:54.000Z</time>
      </trkpt>
      <trkpt lat="47.27768" lon="-2.35059">
        <ele>36.599998474121</ele>
        <time>2021-06-17T07:07:55.000Z</time>
      </trkpt>
      <trkpt lat="47.27769" lon="-2.35107">
        <ele>36.599998474121</ele>
        <time>2021-06-17T07:08:01.000Z</time>
      </trkpt>
      <trkpt lat="47.27773" lon="-2.35165">
        <ele>36.200000762939</ele>
        <time>2021-06-17T07:08:08.000Z</time>
      </trkpt>
      <trkpt lat="47.27774" lon="-2.35174">
        <ele>35.799999237061</ele>
        <time>2021-06-17T07:08:09.000Z</time>
      </trkpt>
      <trkpt lat="47.27775" lon="-2.35183">
        <ele>35.400001525879</ele>
        <time>2021-06-17T07:08:10.000Z</time>
      </trkpt>
      <trkpt lat="47.27776" lon="-2.35193">
        <ele>35</ele>
        <time>2021-06-17T07:08:11.000Z</time>
      </trkpt>
      <trkpt lat="47.27777" lon="-2.35201">
        <ele>34.599998474121</ele>
        <time>2021-06-17T07:08:12.000Z</time>
      </trkpt>
      <trkpt lat="47.27779" lon="-2.3522">
        <ele>34.599998474121</ele>
        <time>2021-06-17T07:08:14.000Z</time>
      </trkpt>
      <trkpt lat="47.27786" lon="-2.35272">
        <ele>34.599998474121</ele>
        <time>2021-06-17T07:08:20.000Z</time>
      </trkpt>
      <trkpt lat="47.27799" lon="-2.35331">
        <ele>34.599998474121</ele>
        <time>2021-06-17T07:08:27.000Z</time>
      </trkpt>
      <trkpt lat="47.27806" lon="-2.35357">
        <ele>34.599998474121</ele>
        <time>2021-06-17T07:08:30.000Z</time>
      </trkpt>
      <trkpt lat="47.27815" lon="-2.35365">
        <ele>34.599998474121</ele>
        <time>2021-06-17T07:08:32.000Z</time>
      </trkpt>
      <trkpt lat="47.27831" lon="-2.35364">
        <ele>34.599998474121</ele>
        <time>2021-06-17T07:08:35.000Z</time>
      </trkpt>
      <trkpt lat="47.27871" lon="-2.35363">
        <ele>34.599998474121</ele>
        <time>2021-06-17T07:08:43.000Z</time>
      </trkpt>
      <trkpt lat="47.27884" lon="-2.35372">
        <ele>35.400001525879</ele>
        <time>2021-06-17T07:08:46.000Z</time>
      </trkpt>
      <trkpt lat="47.27888" lon="-2.35377">
        <ele>36</ele>
        <time>2021-06-17T07:08:47.000Z</time>
      </trkpt>
      <trkpt lat="47.27891" lon="-2.35381">
        <ele>36.400001525879</ele>
        <time>2021-06-17T07:08:48.000Z</time>
      </trkpt>
      <trkpt lat="47.27895" lon="-2.35387">
        <ele>36.799999237061</ele>
        <time>2021-06-17T07:08:49.000Z</time>
      </trkpt>
      <trkpt lat="47.27913" lon="-2.35412">
        <ele>36.799999237061</ele>
        <time>2021-06-17T07:08:54.000Z</time>
      </trkpt>
      <trkpt lat="47.27951" lon="-2.35456">
        <ele>36.799999237061</ele>
        <time>2021-06-17T07:09:03.000Z</time>
      </trkpt>
      <trkpt lat="47.27956" lon="-2.35459">
        <ele>36.799999237061</ele>
        <time>2021-06-17T07:09:04.000Z</time>
      </trkpt>
      <trkpt lat="47.27975" lon="-2.35468">
        <ele>36.799999237061</ele>
        <time>2021-06-17T07:09:08.000Z</time>
      </trkpt>
      <trkpt lat="47.27984" lon="-2.35483">
        <ele>36.799999237061</ele>
        <time>2021-06-17T07:09:11.000Z</time>
      </trkpt>
      <trkpt lat="47.27987" lon="-2.35489">
        <ele>36.799999237061</ele>
        <time>2021-06-17T07:09:12.000Z</time>
      </trkpt>
      <trkpt lat="47.28001" lon="-2.35523">
        <ele>36.799999237061</ele>
        <time>2021-06-17T07:09:18.000Z</time>
      </trkpt>
      <trkpt lat="47.2801" lon="-2.35552">
        <ele>36.799999237061</ele>
        <time>2021-06-17T07:09:24.000Z</time>
      </trkpt>
      <trkpt lat="47.28012" lon="-2.35554">
        <ele>36.799999237061</ele>
        <time>2021-06-17T07:09:25.000Z</time>
      </trkpt>
      <trkpt lat="47.28021" lon="-2.35557">
        <ele>36.799999237061</ele>
        <time>2021-06-17T07:09:27.000Z</time>
      </trkpt>
      <trkpt lat="47.28024" lon="-2.35561">
        <ele>37.200000762939</ele>
        <time>2021-06-17T07:09:28.000Z</time>
      </trkpt>
      <trkpt lat="47.28027" lon="-2.35564">
        <ele>37.599998474121</ele>
        <time>2021-06-17T07:09:29.000Z</time>
      </trkpt>
      <trkpt lat="47.2803" lon="-2.35567">
        <ele>38</ele>
        <time>2021-06-17T07:09:30.000Z</time>
      </trkpt>
      <trkpt lat="47.28034" lon="-2.3557">
        <ele>38.599998474121</ele>
        <time>2021-06-17T07:09:31.000Z</time>
      </trkpt>
      <trkpt lat="47.28037" lon="-2.35573">
        <ele>39</ele>
        <time>2021-06-17T07:09:32.000Z</time>
      </trkpt>
      <trkpt lat="47.28051" lon="-2.35577">
        <ele>39</ele>
        <time>2021-06-17T07:09:36.000Z</time>
      </trkpt>
      <trkpt lat="47.28067" lon="-2.35584">
        <ele>39.400001525879</ele>
        <time>2021-06-17T07:09:41.000Z</time>
      </trkpt>
      <trkpt lat="47.2807" lon="-2.35587">
        <ele>39.799999237061</ele>
        <time>2021-06-17T07:09:42.000Z</time>
      </trkpt>
      <trkpt lat="47.28072" lon="-2.3559">
        <ele>40.200000762939</ele>
        <time>2021-06-17T07:09:43.000Z</time>
      </trkpt>
      <trkpt lat="47.28074" lon="-2.35594">
        <ele>40.599998474121</ele>
        <time>2021-06-17T07:09:44.000Z</time>
      </trkpt>
      <trkpt lat="47.28076" lon="-2.35598">
        <ele>41</ele>
        <time>2021-06-17T07:09:45.000Z</time>
      </trkpt>
      <trkpt lat="47.28083" lon="-2.35614">
        <ele>41</ele>
        <time>2021-06-17T07:09:50.000Z</time>
      </trkpt>
      <trkpt lat="47.28091" lon="-2.35623">
        <ele>41</ele>
        <time>2021-06-17T07:09:55.000Z</time>
      </trkpt>
      <trkpt lat="47.28093" lon="-2.35629">
        <ele>41</ele>
        <time>2021-06-17T07:10:01.000Z</time>
      </trkpt>
      <trkpt lat="47.28094" lon="-2.35624">
        <ele>43</ele>
        <time>2021-06-17T07:11:31.000Z</time>
      </trkpt>
      <trkpt lat="47.28091" lon="-2.35618">
        <ele>43</ele>
        <time>2021-06-17T07:11:34.000Z</time>
      </trkpt>
      <trkpt lat="47.28087" lon="-2.35613">
        <ele>43</ele>
        <time>2021-06-17T07:11:37.000Z</time>
      </trkpt>
      <trkpt lat="47.28079" lon="-2.35617">
        <ele>43</ele>
        <time>2021-06-17T07:11:40.000Z</time>
      </trkpt>
      <trkpt lat="47.28077" lon="-2.35627">
        <ele>43.400001525879</ele>
        <time>2021-06-17T07:11:44.000Z</time>
      </trkpt>
      <trkpt lat="47.28077" lon="-2.35629">
        <ele>43.799999237061</ele>
        <time>2021-06-17T07:11:45.000Z</time>
      </trkpt>
      <trkpt lat="47.28078" lon="-2.35632">
        <ele>44.200000762939</ele>
        <time>2021-06-17T07:11:46.000Z</time>
      </trkpt>
      <trkpt lat="47.28078" lon="-2.35634">
        <ele>44.599998474121</ele>
        <time>2021-06-17T07:11:47.000Z</time>
      </trkpt>
      <trkpt lat="47.28079" lon="-2.35637">
        <ele>45</ele>
        <time>2021-06-17T07:11:48.000Z</time>
      </trkpt>
      <trkpt lat="47.28081" lon="-2.35644">
        <ele>45.400001525879</ele>
        <time>2021-06-17T07:11:50.000Z</time>
      </trkpt>
      <trkpt lat="47.28082" lon="-2.35647">
        <ele>45.799999237061</ele>
        <time>2021-06-17T07:11:51.000Z</time>
      </trkpt>
      <trkpt lat="47.28084" lon="-2.3565">
        <ele>46.200000762939</ele>
        <time>2021-06-17T07:11:52.000Z</time>
      </trkpt>
      <trkpt lat="47.28085" lon="-2.35654">
        <ele>46.599998474121</ele>
        <time>2021-06-17T07:11:53.000Z</time>
      </trkpt>
      <trkpt lat="47.28087" lon="-2.35657">
        <ele>47</ele>
        <time>2021-06-17T07:11:54.000Z</time>
      </trkpt>
      <trkpt lat="47.28089" lon="-2.3567">
        <ele>47.400001525879</ele>
        <time>2021-06-17T07:11:58.000Z</time>
      </trkpt>
      <trkpt lat="47.2809" lon="-2.35673">
        <ele>47.799999237061</ele>
        <time>2021-06-17T07:11:59.000Z</time>
      </trkpt>
      <trkpt lat="47.2809" lon="-2.35676">
        <ele>48.400001525879</ele>
        <time>2021-06-17T07:12:00.000Z</time>
      </trkpt>
      <trkpt lat="47.28091" lon="-2.35679">
        <ele>48.799999237061</ele>
        <time>2021-06-17T07:12:01.000Z</time>
      </trkpt>
      <trkpt lat="47.28092" lon="-2.35682">
        <ele>49.200000762939</ele>
        <time>2021-06-17T07:12:02.000Z</time>
      </trkpt>
      <trkpt lat="47.28096" lon="-2.357">
        <ele>49.200000762939</ele>
        <time>2021-06-17T07:12:07.000Z</time>
      </trkpt>
      <trkpt lat="47.28097" lon="-2.35703">
        <ele>49.599998474121</ele>
        <time>2021-06-17T07:12:08.000Z</time>
      </trkpt>
      <trkpt lat="47.28098" lon="-2.35707">
        <ele>50</ele>
        <time>2021-06-17T07:12:09.000Z</time>
      </trkpt>
      <trkpt lat="47.28097" lon="-2.35711">
        <ele>50.400001525879</ele>
        <time>2021-06-17T07:12:10.000Z</time>
      </trkpt>
      <trkpt lat="47.28097" lon="-2.35715">
        <ele>50.799999237061</ele>
        <time>2021-06-17T07:12:11.000Z</time>
      </trkpt>
      <trkpt lat="47.28096" lon="-2.35718">
        <ele>51.200000762939</ele>
        <time>2021-06-17T07:12:12.000Z</time>
      </trkpt>
      <trkpt lat="47.28094" lon="-2.35723">
        <ele>51.200000762939</ele>
        <time>2021-06-17T07:12:13.000Z</time>
      </trkpt>
      <trkpt lat="47.28086" lon="-2.35756">
        <ele>51.200000762939</ele>
        <time>2021-06-17T07:12:18.000Z</time>
      </trkpt>
      <trkpt lat="47.28082" lon="-2.35774">
        <ele>50.799999237061</ele>
        <time>2021-06-17T07:12:21.000Z</time>
      </trkpt>
      <trkpt lat="47.28081" lon="-2.35779">
        <ele>50.400001525879</ele>
        <time>2021-06-17T07:12:22.000Z</time>
      </trkpt>
      <trkpt lat="47.28079" lon="-2.35784">
        <ele>49.799999237061</ele>
        <time>2021-06-17T07:12:23.000Z</time>
      </trkpt>
      <trkpt lat="47.28078" lon="-2.35788">
        <ele>49.400001525879</ele>
        <time>2021-06-17T07:12:24.000Z</time>
      </trkpt>
      <trkpt lat="47.28078" lon="-2.35793">
        <ele>49</ele>
        <time>2021-06-17T07:12:25.000Z</time>
      </trkpt>
      <trkpt lat="47.28078" lon="-2.35799">
        <ele>48.599998474121</ele>
        <time>2021-06-17T07:12:28.000Z</time>
      </trkpt>
      <trkpt lat="47.28078" lon="-2.35799">
        <ele>48.200000762939</ele>
        <time>2021-06-17T07:12:29.000Z</time>
      </trkpt>
      <trkpt lat="47.2808" lon="-2.35799">
        <ele>47.599998474121</ele>
        <time>2021-06-17T07:12:30.000Z</time>
      </trkpt>
      <trkpt lat="47.28082" lon="-2.35799">
        <ele>47.200000762939</ele>
        <time>2021-06-17T07:12:31.000Z</time>
      </trkpt>
      <trkpt lat="47.28083" lon="-2.35796">
        <ele>46.799999237061</ele>
        <time>2021-06-17T07:12:32.000Z</time>
      </trkpt>
      <trkpt lat="47.28085" lon="-2.35786">
        <ele>46.799999237061</ele>
        <time>2021-06-17T07:12:35.000Z</time>
      </trkpt>
      <trkpt lat="47.28086" lon="-2.35778">
        <ele>46.799999237061</ele>
        <time>2021-06-17T07:12:37.000Z</time>
      </trkpt>
      <trkpt lat="47.28094" lon="-2.35753">
        <ele>46.799999237061</ele>
        <time>2021-06-17T07:12:43.000Z</time>
      </trkpt>
      <trkpt lat="47.2811" lon="-2.35744">
        <ele>46.799999237061</ele>
        <time>2021-06-17T07:12:48.000Z</time>
      </trkpt>
      <trkpt lat="47.28121" lon="-2.35754">
        <ele>46.799999237061</ele>
        <time>2021-06-17T07:12:52.000Z</time>
      </trkpt>
      <trkpt lat="47.28124" lon="-2.35758">
        <ele>46.799999237061</ele>
        <time>2021-06-17T07:12:53.000Z</time>
      </trkpt>
      <trkpt lat="47.28129" lon="-2.35778">
        <ele>46.799999237061</ele>
        <time>2021-06-17T07:12:57.000Z</time>
      </trkpt>
      <trkpt lat="47.28137" lon="-2.35798">
        <ele>46.799999237061</ele>
        <time>2021-06-17T07:13:03.000Z</time>
      </trkpt>
      <trkpt lat="47.28154" lon="-2.35816">
        <ele>46.799999237061</ele>
        <time>2021-06-17T07:13:10.000Z</time>
      </trkpt>
      <trkpt lat="47.28174" lon="-2.35836">
        <ele>46.799999237061</ele>
        <time>2021-06-17T07:13:17.000Z</time>
      </trkpt>
      <trkpt lat="47.28186" lon="-2.35861">
        <ele>46.799999237061</ele>
        <time>2021-06-17T07:13:24.000Z</time>
      </trkpt>
      <trkpt lat="47.28197" lon="-2.3588">
        <ele>46.799999237061</ele>
        <time>2021-06-17T07:13:29.000Z</time>
      </trkpt>
      <trkpt lat="47.28214" lon="-2.35888">
        <ele>46.799999237061</ele>
        <time>2021-06-17T07:13:34.000Z</time>
      </trkpt>
      <trkpt lat="47.28229" lon="-2.35896">
        <ele>47.200000762939</ele>
        <time>2021-06-17T07:13:38.000Z</time>
      </trkpt>
      <trkpt lat="47.28232" lon="-2.35896">
        <ele>47.599998474121</ele>
        <time>2021-06-17T07:13:39.000Z</time>
      </trkpt>
      <trkpt lat="47.28234" lon="-2.35895">
        <ele>48</ele>
        <time>2021-06-17T07:13:40.000Z</time>
      </trkpt>
      <trkpt lat="47.28237" lon="-2.35894">
        <ele>48.400001525879</ele>
        <time>2021-06-17T07:13:41.000Z</time>
      </trkpt>
      <trkpt lat="47.2824" lon="-2.35892">
        <ele>48.799999237061</ele>
        <time>2021-06-17T07:13:42.000Z</time>
      </trkpt>
      <trkpt lat="47.28254" lon="-2.35885">
        <ele>48.799999237061</ele>
        <time>2021-06-17T07:13:47.000Z</time>
      </trkpt>
      <trkpt lat="47.28273" lon="-2.3587">
        <ele>48.799999237061</ele>
        <time>2021-06-17T07:13:53.000Z</time>
      </trkpt>
      <trkpt lat="47.28299" lon="-2.35852">
        <ele>48.799999237061</ele>
        <time>2021-06-17T07:14:01.000Z</time>
      </trkpt>
      <trkpt lat="47.28301" lon="-2.35851">
        <ele>49.200000762939</ele>
        <time>2021-06-17T07:14:02.000Z</time>
      </trkpt>
      <trkpt lat="47.28303" lon="-2.35849">
        <ele>49.799999237061</ele>
        <time>2021-06-17T07:14:03.000Z</time>
      </trkpt>
      <trkpt lat="47.28305" lon="-2.35848">
        <ele>50.200000762939</ele>
        <time>2021-06-17T07:14:04.000Z</time>
      </trkpt>
      <trkpt lat="47.28308" lon="-2.35845">
        <ele>50.599998474121</ele>
        <time>2021-06-17T07:14:05.000Z</time>
      </trkpt>
      <trkpt lat="47.2831" lon="-2.35843">
        <ele>51</ele>
        <time>2021-06-17T07:14:06.000Z</time>
      </trkpt>
      <trkpt lat="47.28314" lon="-2.35838">
        <ele>51</ele>
        <time>2021-06-17T07:14:08.000Z</time>
      </trkpt>
      <trkpt lat="47.2833" lon="-2.35818">
        <ele>51</ele>
        <time>2021-06-17T07:14:14.000Z</time>
      </trkpt>
      <trkpt lat="47.28353" lon="-2.35793">
        <ele>51</ele>
        <time>2021-06-17T07:14:22.000Z</time>
      </trkpt>
      <trkpt lat="47.28362" lon="-2.35788">
        <ele>51.599998474121</ele>
        <time>2021-06-17T07:14:25.000Z</time>
      </trkpt>
      <trkpt lat="47.28365" lon="-2.35787">
        <ele>52</ele>
        <time>2021-06-17T07:14:26.000Z</time>
      </trkpt>
      <trkpt lat="47.28369" lon="-2.35788">
        <ele>52.400001525879</ele>
        <time>2021-06-17T07:14:27.000Z</time>
      </trkpt>
      <trkpt lat="47.28372" lon="-2.3579">
        <ele>52.799999237061</ele>
        <time>2021-06-17T07:14:28.000Z</time>
      </trkpt>
      <trkpt lat="47.28375" lon="-2.35791">
        <ele>53.200000762939</ele>
        <time>2021-06-17T07:14:29.000Z</time>
      </trkpt>
      <trkpt lat="47.28397" lon="-2.35806">
        <ele>53.200000762939</ele>
        <time>2021-06-17T07:14:35.000Z</time>
      </trkpt>
      <trkpt lat="47.28413" lon="-2.35823">
        <ele>53.200000762939</ele>
        <time>2021-06-17T07:14:40.000Z</time>
      </trkpt>
      <trkpt lat="47.28422" lon="-2.3584">
        <ele>53.200000762939</ele>
        <time>2021-06-17T07:14:46.000Z</time>
      </trkpt>
      <trkpt lat="47.2843" lon="-2.35862">
        <ele>53.200000762939</ele>
        <time>2021-06-17T07:14:51.000Z</time>
      </trkpt>
      <trkpt lat="47.28443" lon="-2.35873">
        <ele>53.200000762939</ele>
        <time>2021-06-17T07:14:55.000Z</time>
      </trkpt>
      <trkpt lat="47.28457" lon="-2.35884">
        <ele>53.799999237061</ele>
        <time>2021-06-17T07:15:00.000Z</time>
      </trkpt>
      <trkpt lat="47.2846" lon="-2.35887">
        <ele>54.200000762939</ele>
        <time>2021-06-17T07:15:01.000Z</time>
      </trkpt>
      <trkpt lat="47.28463" lon="-2.35891">
        <ele>54.599998474121</ele>
        <time>2021-06-17T07:15:02.000Z</time>
      </trkpt>
      <trkpt lat="47.28466" lon="-2.35895">
        <ele>55</ele>
        <time>2021-06-17T07:15:03.000Z</time>
      </trkpt>
      <trkpt lat="47.28468" lon="-2.35899">
        <ele>55.400001525879</ele>
        <time>2021-06-17T07:15:04.000Z</time>
      </trkpt>
      <trkpt lat="47.28474" lon="-2.35908">
        <ele>55.799999237061</ele>
        <time>2021-06-17T07:15:07.000Z</time>
      </trkpt>
      <trkpt lat="47.28475" lon="-2.35911">
        <ele>56.200000762939</ele>
        <time>2021-06-17T07:15:08.000Z</time>
      </trkpt>
      <trkpt lat="47.28476" lon="-2.35914">
        <ele>56.599998474121</ele>
        <time>2021-06-17T07:15:09.000Z</time>
      </trkpt>
      <trkpt lat="47.28476" lon="-2.35918">
        <ele>57.200000762939</ele>
        <time>2021-06-17T07:15:10.000Z</time>
      </trkpt>
      <trkpt lat="47.28476" lon="-2.35921">
        <ele>57.599998474121</ele>
        <time>2021-06-17T07:15:11.000Z</time>
      </trkpt>
      <trkpt lat="47.28473" lon="-2.3593">
        <ele>58</ele>
        <time>2021-06-17T07:15:14.000Z</time>
      </trkpt>
      <trkpt lat="47.28472" lon="-2.35932">
        <ele>58.400001525879</ele>
        <time>2021-06-17T07:15:15.000Z</time>
      </trkpt>
      <trkpt lat="47.28471" lon="-2.35935">
        <ele>58.799999237061</ele>
        <time>2021-06-17T07:15:16.000Z</time>
      </trkpt>
      <trkpt lat="47.2847" lon="-2.35937">
        <ele>59.400001525879</ele>
        <time>2021-06-17T07:15:17.000Z</time>
      </trkpt>
      <trkpt lat="47.2847" lon="-2.35939">
        <ele>59.799999237061</ele>
        <time>2021-06-17T07:15:18.000Z</time>
      </trkpt>
      <trkpt lat="47.28467" lon="-2.35946">
        <ele>60.200000762939</ele>
        <time>2021-06-17T07:15:21.000Z</time>
      </trkpt>
      <trkpt lat="47.28466" lon="-2.35948">
        <ele>60.599998474121</ele>
        <time>2021-06-17T07:15:22.000Z</time>
      </trkpt>
      <trkpt lat="47.28464" lon="-2.3595">
        <ele>61</ele>
        <time>2021-06-17T07:15:23.000Z</time>
      </trkpt>
      <trkpt lat="47.28463" lon="-2.35952">
        <ele>61.400001525879</ele>
        <time>2021-06-17T07:15:24.000Z</time>
      </trkpt>
      <trkpt lat="47.28462" lon="-2.35954">
        <ele>61.799999237061</ele>
        <time>2021-06-17T07:15:25.000Z</time>
      </trkpt>
      <trkpt lat="47.28459" lon="-2.35962">
        <ele>61.799999237061</ele>
        <time>2021-06-17T07:15:29.000Z</time>
      </trkpt>
      <trkpt lat="47.28458" lon="-2.35965">
        <ele>62.200000762939</ele>
        <time>2021-06-17T07:15:30.000Z</time>
      </trkpt>
      <trkpt lat="47.28458" lon="-2.35967">
        <ele>62.599998474121</ele>
        <time>2021-06-17T07:15:31.000Z</time>
      </trkpt>
      <trkpt lat="47.28457" lon="-2.35969">
        <ele>63</ele>
        <time>2021-06-17T07:15:32.000Z</time>
      </trkpt>
      <trkpt lat="47.28457" lon="-2.35972">
        <ele>63.400001525879</ele>
        <time>2021-06-17T07:15:33.000Z</time>
      </trkpt>
      <trkpt lat="47.28456" lon="-2.35975">
        <ele>63.799999237061</ele>
        <time>2021-06-17T07:15:34.000Z</time>
      </trkpt>
      <trkpt lat="47.28454" lon="-2.35985">
        <ele>63.799999237061</ele>
        <time>2021-06-17T07:15:37.000Z</time>
      </trkpt>
      <trkpt lat="47.28454" lon="-2.35992">
        <ele>64.199996948242</ele>
        <time>2021-06-17T07:15:39.000Z</time>
      </trkpt>
      <trkpt lat="47.28455" lon="-2.35995">
        <ele>64.599998474121</ele>
        <time>2021-06-17T07:15:40.000Z</time>
      </trkpt>
      <trkpt lat="47.28456" lon="-2.35998">
        <ele>65</ele>
        <time>2021-06-17T07:15:41.000Z</time>
      </trkpt>
      <trkpt lat="47.28457" lon="-2.35999">
        <ele>65.599998474121</ele>
        <time>2021-06-17T07:15:42.000Z</time>
      </trkpt>
      <trkpt lat="47.28457" lon="-2.36001">
        <ele>66</ele>
        <time>2021-06-17T07:15:43.000Z</time>
      </trkpt>
      <trkpt lat="47.28462" lon="-2.36009">
        <ele>66</ele>
        <time>2021-06-17T07:15:48.000Z</time>
      </trkpt>
      <trkpt lat="47.28474" lon="-2.36019">
        <ele>66</ele>
        <time>2021-06-17T07:15:54.000Z</time>
      </trkpt>
      <trkpt lat="47.28492" lon="-2.36025">
        <ele>66</ele>
        <time>2021-06-17T07:16:01.000Z</time>
      </trkpt>
      <trkpt lat="47.28507" lon="-2.36044">
        <ele>66</ele>
        <time>2021-06-17T07:16:06.000Z</time>
      </trkpt>
      <trkpt lat="47.28526" lon="-2.36065">
        <ele>66</ele>
        <time>2021-06-17T07:16:13.000Z</time>
      </trkpt>
      <trkpt lat="47.28533" lon="-2.36088">
        <ele>66</ele>
        <time>2021-06-17T07:16:17.000Z</time>
      </trkpt>
      <trkpt lat="47.28539" lon="-2.3612">
        <ele>66</ele>
        <time>2021-06-17T07:16:21.000Z</time>
      </trkpt>
      <trkpt lat="47.28541" lon="-2.36126">
        <ele>66</ele>
        <time>2021-06-17T07:16:22.000Z</time>
      </trkpt>
      <trkpt lat="47.28548" lon="-2.36145">
        <ele>66</ele>
        <time>2021-06-17T07:16:26.000Z</time>
      </trkpt>
      <trkpt lat="47.28551" lon="-2.36146">
        <ele>66</ele>
        <time>2021-06-17T07:16:27.000Z</time>
      </trkpt>
      <trkpt lat="47.28558" lon="-2.36144">
        <ele>66</ele>
        <time>2021-06-17T07:16:31.000Z</time>
      </trkpt>
      <trkpt lat="47.2856" lon="-2.36143">
        <ele>66.400001525879</ele>
        <time>2021-06-17T07:16:32.000Z</time>
      </trkpt>
      <trkpt lat="47.28562" lon="-2.36142">
        <ele>66.800003051758</ele>
        <time>2021-06-17T07:16:33.000Z</time>
      </trkpt>
      <trkpt lat="47.28565" lon="-2.36141">
        <ele>67.800003051758</ele>
        <time>2021-06-17T07:16:34.000Z</time>
      </trkpt>
      <trkpt lat="47.28568" lon="-2.3614">
        <ele>68.199996948242</ele>
        <time>2021-06-17T07:16:35.000Z</time>
      </trkpt>
      <trkpt lat="47.2857" lon="-2.3614">
        <ele>68.599998474121</ele>
        <time>2021-06-17T07:16:36.000Z</time>
      </trkpt>
      <trkpt lat="47.28573" lon="-2.3614">
        <ele>69</ele>
        <time>2021-06-17T07:16:37.000Z</time>
      </trkpt>
      <trkpt lat="47.28575" lon="-2.36141">
        <ele>69.400001525879</ele>
        <time>2021-06-17T07:16:38.000Z</time>
      </trkpt>
      <trkpt lat="47.28577" lon="-2.36142">
        <ele>69.800003051758</ele>
        <time>2021-06-17T07:16:39.000Z</time>
      </trkpt>
      <trkpt lat="47.28581" lon="-2.36143">
        <ele>70.199996948242</ele>
        <time>2021-06-17T07:16:40.000Z</time>
      </trkpt>
      <trkpt lat="47.28591" lon="-2.36146">
        <ele>70.199996948242</ele>
        <time>2021-06-17T07:16:43.000Z</time>
      </trkpt>
      <trkpt lat="47.28608" lon="-2.36144">
        <ele>70.199996948242</ele>
        <time>2021-06-17T07:16:50.000Z</time>
      </trkpt>
      <trkpt lat="47.2862" lon="-2.36135">
        <ele>70.199996948242</ele>
        <time>2021-06-17T07:16:57.000Z</time>
      </trkpt>
      <trkpt lat="47.28623" lon="-2.36137">
        <ele>70.199996948242</ele>
        <time>2021-06-17T07:16:58.000Z</time>
      </trkpt>
      <trkpt lat="47.2863" lon="-2.36143">
        <ele>70.199996948242</ele>
        <time>2021-06-17T07:17:01.000Z</time>
      </trkpt>
      <trkpt lat="47.28643" lon="-2.36159">
        <ele>70.199996948242</ele>
        <time>2021-06-17T07:17:06.000Z</time>
      </trkpt>
      <trkpt lat="47.28659" lon="-2.36176">
        <ele>70.199996948242</ele>
        <time>2021-06-17T07:17:11.000Z</time>
      </trkpt>
      <trkpt lat="47.28666" lon="-2.36193">
        <ele>69.800003051758</ele>
        <time>2021-06-17T07:17:15.000Z</time>
      </trkpt>
      <trkpt lat="47.28666" lon="-2.362">
        <ele>69.400001525879</ele>
        <time>2021-06-17T07:17:16.000Z</time>
      </trkpt>
      <trkpt lat="47.28666" lon="-2.36206">
        <ele>69</ele>
        <time>2021-06-17T07:17:17.000Z</time>
      </trkpt>
      <trkpt lat="47.28666" lon="-2.36212">
        <ele>68.599998474121</ele>
        <time>2021-06-17T07:17:18.000Z</time>
      </trkpt>
      <trkpt lat="47.28666" lon="-2.3622">
        <ele>68.199996948242</ele>
        <time>2021-06-17T07:17:19.000Z</time>
      </trkpt>
      <trkpt lat="47.28662" lon="-2.36241">
        <ele>68.199996948242</ele>
        <time>2021-06-17T07:17:22.000Z</time>
      </trkpt>
      <trkpt lat="47.28661" lon="-2.36247">
        <ele>67.800003051758</ele>
        <time>2021-06-17T07:17:23.000Z</time>
      </trkpt>
      <trkpt lat="47.28662" lon="-2.36252">
        <ele>67.400001525879</ele>
        <time>2021-06-17T07:17:24.000Z</time>
      </trkpt>
      <trkpt lat="47.28663" lon="-2.36259">
        <ele>67</ele>
        <time>2021-06-17T07:17:25.000Z</time>
      </trkpt>
      <trkpt lat="47.28665" lon="-2.36266">
        <ele>66.599998474121</ele>
        <time>2021-06-17T07:17:26.000Z</time>
      </trkpt>
      <trkpt lat="47.28668" lon="-2.3627">
        <ele>66.199996948242</ele>
        <time>2021-06-17T07:17:27.000Z</time>
      </trkpt>
      <trkpt lat="47.28676" lon="-2.36274">
        <ele>66.199996948242</ele>
        <time>2021-06-17T07:17:29.000Z</time>
      </trkpt>
      <trkpt lat="47.28687" lon="-2.36274">
        <ele>66.199996948242</ele>
        <time>2021-06-17T07:17:32.000Z</time>
      </trkpt>
      <trkpt lat="47.287" lon="-2.36279">
        <ele>66.199996948242</ele>
        <time>2021-06-17T07:17:35.000Z</time>
      </trkpt>
      <trkpt lat="47.28714" lon="-2.36298">
        <ele>66.199996948242</ele>
        <time>2021-06-17T07:17:41.000Z</time>
      </trkpt>
      <trkpt lat="47.28712" lon="-2.36318">
        <ele>66.199996948242</ele>
        <time>2021-06-17T07:17:47.000Z</time>
      </trkpt>
      <trkpt lat="47.28709" lon="-2.36327">
        <ele>66.599998474121</ele>
        <time>2021-06-17T07:17:49.000Z</time>
      </trkpt>
      <trkpt lat="47.28709" lon="-2.36331">
        <ele>67</ele>
        <time>2021-06-17T07:17:50.000Z</time>
      </trkpt>
      <trkpt lat="47.28708" lon="-2.36336">
        <ele>67.400001525879</ele>
        <time>2021-06-17T07:17:51.000Z</time>
      </trkpt>
      <trkpt lat="47.28707" lon="-2.3634">
        <ele>67.800003051758</ele>
        <time>2021-06-17T07:17:52.000Z</time>
      </trkpt>
      <trkpt lat="47.28706" lon="-2.36344">
        <ele>68.400001525879</ele>
        <time>2021-06-17T07:17:53.000Z</time>
      </trkpt>
      <trkpt lat="47.28706" lon="-2.36348">
        <ele>68.400001525879</ele>
        <time>2021-06-17T07:17:54.000Z</time>
      </trkpt>
      <trkpt lat="47.28698" lon="-2.36385">
        <ele>68.800003051758</ele>
        <time>2021-06-17T07:17:59.000Z</time>
      </trkpt>
      <trkpt lat="47.28697" lon="-2.36392">
        <ele>69.199996948242</ele>
        <time>2021-06-17T07:18:00.000Z</time>
      </trkpt>
      <trkpt lat="47.28697" lon="-2.36399">
        <ele>69.599998474121</ele>
        <time>2021-06-17T07:18:01.000Z</time>
      </trkpt>
      <trkpt lat="47.28696" lon="-2.36405">
        <ele>70</ele>
        <time>2021-06-17T07:18:02.000Z</time>
      </trkpt>
      <trkpt lat="47.28696" lon="-2.36411">
        <ele>70.400001525879</ele>
        <time>2021-06-17T07:18:03.000Z</time>
      </trkpt>
      <trkpt lat="47.28697" lon="-2.36427">
        <ele>70.400001525879</ele>
        <time>2021-06-17T07:18:06.000Z</time>
      </trkpt>
      <trkpt lat="47.28695" lon="-2.36459">
        <ele>70.400001525879</ele>
        <time>2021-06-17T07:18:13.000Z</time>
      </trkpt>
      <trkpt lat="47.28694" lon="-2.36475">
        <ele>70.800003051758</ele>
        <time>2021-06-17T07:18:16.000Z</time>
      </trkpt>
      <trkpt lat="47.28693" lon="-2.3648">
        <ele>71.199996948242</ele>
        <time>2021-06-17T07:18:17.000Z</time>
      </trkpt>
      <trkpt lat="47.28693" lon="-2.36484">
        <ele>71.599998474121</ele>
        <time>2021-06-17T07:18:18.000Z</time>
      </trkpt>
      <trkpt lat="47.28693" lon="-2.36488">
        <ele>72</ele>
        <time>2021-06-17T07:18:19.000Z</time>
      </trkpt>
      <trkpt lat="47.28693" lon="-2.36491">
        <ele>72.400001525879</ele>
        <time>2021-06-17T07:18:20.000Z</time>
      </trkpt>
      <trkpt lat="47.28693" lon="-2.36513">
        <ele>72.400001525879</ele>
        <time>2021-06-17T07:18:25.000Z</time>
      </trkpt>
      <trkpt lat="47.28695" lon="-2.36531">
        <ele>72</ele>
        <time>2021-06-17T07:18:28.000Z</time>
      </trkpt>
      <trkpt lat="47.28695" lon="-2.36537">
        <ele>71.599998474121</ele>
        <time>2021-06-17T07:18:29.000Z</time>
      </trkpt>
      <trkpt lat="47.28696" lon="-2.36543">
        <ele>71.199996948242</ele>
        <time>2021-06-17T07:18:30.000Z</time>
      </trkpt>
      <trkpt lat="47.28696" lon="-2.36549">
        <ele>70.599998474121</ele>
        <time>2021-06-17T07:18:31.000Z</time>
      </trkpt>
      <trkpt lat="47.28695" lon="-2.36555">
        <ele>70</ele>
        <time>2021-06-17T07:18:32.000Z</time>
      </trkpt>
      <trkpt lat="47.28694" lon="-2.36561">
        <ele>69.400001525879</ele>
        <time>2021-06-17T07:18:33.000Z</time>
      </trkpt>
      <trkpt lat="47.28693" lon="-2.36567">
        <ele>68.800003051758</ele>
        <time>2021-06-17T07:18:34.000Z</time>
      </trkpt>
      <trkpt lat="47.2869" lon="-2.36573">
        <ele>68.199996948242</ele>
        <time>2021-06-17T07:18:35.000Z</time>
      </trkpt>
      <trkpt lat="47.28687" lon="-2.36579">
        <ele>67.400001525879</ele>
        <time>2021-06-17T07:18:36.000Z</time>
      </trkpt>
      <trkpt lat="47.28683" lon="-2.36584">
        <ele>66.199996948242</ele>
        <time>2021-06-17T07:18:37.000Z</time>
      </trkpt>
      <trkpt lat="47.28678" lon="-2.36589">
        <ele>65.400001525879</ele>
        <time>2021-06-17T07:18:38.000Z</time>
      </trkpt>
      <trkpt lat="47.28672" lon="-2.36593">
        <ele>65.400001525879</ele>
        <time>2021-06-17T07:18:39.000Z</time>
      </trkpt>
      <trkpt lat="47.28666" lon="-2.36596">
        <ele>65</ele>
        <time>2021-06-17T07:18:40.000Z</time>
      </trkpt>
      <trkpt lat="47.2866" lon="-2.36599">
        <ele>64.599998474121</ele>
        <time>2021-06-17T07:18:41.000Z</time>
      </trkpt>
      <trkpt lat="47.28654" lon="-2.36602">
        <ele>64.199996948242</ele>
        <time>2021-06-17T07:18:42.000Z</time>
      </trkpt>
      <trkpt lat="47.28649" lon="-2.36607">
        <ele>63.599998474121</ele>
        <time>2021-06-17T07:18:43.000Z</time>
      </trkpt>
      <trkpt lat="47.28644" lon="-2.3661">
        <ele>63.200000762939</ele>
        <time>2021-06-17T07:18:44.000Z</time>
      </trkpt>
      <trkpt lat="47.28628" lon="-2.36622">
        <ele>62.799999237061</ele>
        <time>2021-06-17T07:18:48.000Z</time>
      </trkpt>
      <trkpt lat="47.28624" lon="-2.36624">
        <ele>62.400001525879</ele>
        <time>2021-06-17T07:18:49.000Z</time>
      </trkpt>
      <trkpt lat="47.28621" lon="-2.36626">
        <ele>62</ele>
        <time>2021-06-17T07:18:50.000Z</time>
      </trkpt>
      <trkpt lat="47.28618" lon="-2.36627">
        <ele>61.400001525879</ele>
        <time>2021-06-17T07:18:51.000Z</time>
      </trkpt>
      <trkpt lat="47.28615" lon="-2.3663">
        <ele>60.799999237061</ele>
        <time>2021-06-17T07:18:52.000Z</time>
      </trkpt>
      <trkpt lat="47.28612" lon="-2.36632">
        <ele>60.200000762939</ele>
        <time>2021-06-17T07:18:53.000Z</time>
      </trkpt>
      <trkpt lat="47.2861" lon="-2.36634">
        <ele>59.599998474121</ele>
        <time>2021-06-17T07:18:54.000Z</time>
      </trkpt>
      <trkpt lat="47.28608" lon="-2.36636">
        <ele>59</ele>
        <time>2021-06-17T07:18:55.000Z</time>
      </trkpt>
      <trkpt lat="47.28607" lon="-2.36637">
        <ele>58.400001525879</ele>
        <time>2021-06-17T07:18:56.000Z</time>
      </trkpt>
      <trkpt lat="47.28605" lon="-2.3664">
        <ele>58</ele>
        <time>2021-06-17T07:18:57.000Z</time>
      </trkpt>
      <trkpt lat="47.28601" lon="-2.36644">
        <ele>57.599998474121</ele>
        <time>2021-06-17T07:18:58.000Z</time>
      </trkpt>
      <trkpt lat="47.28598" lon="-2.36645">
        <ele>57.200000762939</ele>
        <time>2021-06-17T07:18:59.000Z</time>
      </trkpt>
      <trkpt lat="47.28595" lon="-2.36646">
        <ele>56.799999237061</ele>
        <time>2021-06-17T07:19:00.000Z</time>
      </trkpt>
      <trkpt lat="47.28588" lon="-2.36654">
        <ele>56.400001525879</ele>
        <time>2021-06-17T07:19:01.000Z</time>
      </trkpt>
      <trkpt lat="47.28583" lon="-2.36658">
        <ele>56.400001525879</ele>
        <time>2021-06-17T07:19:02.000Z</time>
      </trkpt>
      <trkpt lat="47.28569" lon="-2.36662">
        <ele>55.799999237061</ele>
        <time>2021-06-17T07:19:04.000Z</time>
      </trkpt>
      <trkpt lat="47.28562" lon="-2.36663">
        <ele>55.400001525879</ele>
        <time>2021-06-17T07:19:05.000Z</time>
      </trkpt>
      <trkpt lat="47.28557" lon="-2.36664">
        <ele>55</ele>
        <time>2021-06-17T07:19:06.000Z</time>
      </trkpt>
      <trkpt lat="47.28552" lon="-2.36664">
        <ele>54.599998474121</ele>
        <time>2021-06-17T07:19:07.000Z</time>
      </trkpt>
      <trkpt lat="47.28547" lon="-2.36664">
        <ele>54.200000762939</ele>
        <time>2021-06-17T07:19:08.000Z</time>
      </trkpt>
      <trkpt lat="47.28524" lon="-2.36668">
        <ele>54.200000762939</ele>
        <time>2021-06-17T07:19:13.000Z</time>
      </trkpt>
      <trkpt lat="47.28517" lon="-2.36682">
        <ele>54.200000762939</ele>
        <time>2021-06-17T07:19:17.000Z</time>
      </trkpt>
      <trkpt lat="47.28519" lon="-2.36686">
        <ele>54.200000762939</ele>
        <time>2021-06-17T07:19:20.000Z</time>
      </trkpt>
      <trkpt lat="47.28522" lon="-2.36689">
        <ele>54.200000762939</ele>
        <time>2021-06-17T07:19:33.000Z</time>
      </trkpt>
      <trkpt lat="47.28532" lon="-2.36706">
        <ele>54.200000762939</ele>
        <time>2021-06-17T07:19:37.000Z</time>
      </trkpt>
      <trkpt lat="47.28539" lon="-2.36718">
        <ele>53.799999237061</ele>
        <time>2021-06-17T07:19:39.000Z</time>
      </trkpt>
      <trkpt lat="47.28542" lon="-2.36726">
        <ele>53.400001525879</ele>
        <time>2021-06-17T07:19:40.000Z</time>
      </trkpt>
      <trkpt lat="47.28546" lon="-2.36734">
        <ele>53</ele>
        <time>2021-06-17T07:19:41.000Z</time>
      </trkpt>
      <trkpt lat="47.2855" lon="-2.36742">
        <ele>52.599998474121</ele>
        <time>2021-06-17T07:19:42.000Z</time>
      </trkpt>
      <trkpt lat="47.28554" lon="-2.36749">
        <ele>52.200000762939</ele>
        <time>2021-06-17T07:19:43.000Z</time>
      </trkpt>
      <trkpt lat="47.28567" lon="-2.36774">
        <ele>51.799999237061</ele>
        <time>2021-06-17T07:19:46.000Z</time>
      </trkpt>
      <trkpt lat="47.28571" lon="-2.36782">
        <ele>51.400001525879</ele>
        <time>2021-06-17T07:19:47.000Z</time>
      </trkpt>
      <trkpt lat="47.28575" lon="-2.3679">
        <ele>50.799999237061</ele>
        <time>2021-06-17T07:19:48.000Z</time>
      </trkpt>
      <trkpt lat="47.2858" lon="-2.36798">
        <ele>50.400001525879</ele>
        <time>2021-06-17T07:19:49.000Z</time>
      </trkpt>
      <trkpt lat="47.28584" lon="-2.36806">
        <ele>50</ele>
        <time>2021-06-17T07:19:50.000Z</time>
      </trkpt>
      <trkpt lat="47.28603" lon="-2.36838">
        <ele>50</ele>
        <time>2021-06-17T07:19:55.000Z</time>
      </trkpt>
      <trkpt lat="47.28607" lon="-2.36843">
        <ele>49.599998474121</ele>
        <time>2021-06-17T07:19:56.000Z</time>
      </trkpt>
      <trkpt lat="47.28611" lon="-2.36846">
        <ele>49.200000762939</ele>
        <time>2021-06-17T07:19:57.000Z</time>
      </trkpt>
      <trkpt lat="47.28614" lon="-2.36846">
        <ele>48.799999237061</ele>
        <time>2021-06-17T07:19:58.000Z</time>
      </trkpt>
      <trkpt lat="47.28619" lon="-2.36845">
        <ele>48.400001525879</ele>
        <time>2021-06-17T07:19:59.000Z</time>
      </trkpt>
      <trkpt lat="47.28623" lon="-2.36843">
        <ele>48</ele>
        <time>2021-06-17T07:20:00.000Z</time>
      </trkpt>
      <trkpt lat="47.28627" lon="-2.3684">
        <ele>48</ele>
        <time>2021-06-17T07:20:01.000Z</time>
      </trkpt>
      <trkpt lat="47.28634" lon="-2.36835">
        <ele>48</ele>
        <time>2021-06-17T07:20:03.000Z</time>
      </trkpt>
      <trkpt lat="47.2865" lon="-2.36813">
        <ele>48</ele>
        <time>2021-06-17T07:20:09.000Z</time>
      </trkpt>
      <trkpt lat="47.28659" lon="-2.36796">
        <ele>48.400001525879</ele>
        <time>2021-06-17T07:20:13.000Z</time>
      </trkpt>
      <trkpt lat="47.28662" lon="-2.36794">
        <ele>48.799999237061</ele>
        <time>2021-06-17T07:20:14.000Z</time>
      </trkpt>
      <trkpt lat="47.28665" lon="-2.36793">
        <ele>49.200000762939</ele>
        <time>2021-06-17T07:20:15.000Z</time>
      </trkpt>
      <trkpt lat="47.28667" lon="-2.36794">
        <ele>50</ele>
        <time>2021-06-17T07:20:16.000Z</time>
      </trkpt>
      <trkpt lat="47.28669" lon="-2.36796">
        <ele>50</ele>
        <time>2021-06-17T07:20:17.000Z</time>
      </trkpt>
      <trkpt lat="47.28672" lon="-2.36799">
        <ele>50</ele>
        <time>2021-06-17T07:20:19.000Z</time>
      </trkpt>
      <trkpt lat="47.28679" lon="-2.36814">
        <ele>50</ele>
        <time>2021-06-17T07:20:24.000Z</time>
      </trkpt>
      <trkpt lat="47.28692" lon="-2.36845">
        <ele>50</ele>
        <time>2021-06-17T07:20:31.000Z</time>
      </trkpt>
      <trkpt lat="47.2871" lon="-2.36878">
        <ele>49.599998474121</ele>
        <time>2021-06-17T07:20:37.000Z</time>
      </trkpt>
      <trkpt lat="47.28714" lon="-2.36884">
        <ele>49.200000762939</ele>
        <time>2021-06-17T07:20:38.000Z</time>
      </trkpt>
      <trkpt lat="47.28717" lon="-2.36888">
        <ele>48.799999237061</ele>
        <time>2021-06-17T07:20:39.000Z</time>
      </trkpt>
      <trkpt lat="47.28721" lon="-2.36894">
        <ele>48.400001525879</ele>
        <time>2021-06-17T07:20:40.000Z</time>
      </trkpt>
      <trkpt lat="47.28725" lon="-2.369">
        <ele>47.599998474121</ele>
        <time>2021-06-17T07:20:41.000Z</time>
      </trkpt>
      <trkpt lat="47.2873" lon="-2.36905">
        <ele>47</ele>
        <time>2021-06-17T07:20:42.000Z</time>
      </trkpt>
      <trkpt lat="47.28734" lon="-2.36909">
        <ele>46.599998474121</ele>
        <time>2021-06-17T07:20:43.000Z</time>
      </trkpt>
      <trkpt lat="47.28737" lon="-2.36914">
        <ele>46.200000762939</ele>
        <time>2021-06-17T07:20:44.000Z</time>
      </trkpt>
      <trkpt lat="47.2874" lon="-2.36919">
        <ele>45.799999237061</ele>
        <time>2021-06-17T07:20:45.000Z</time>
      </trkpt>
      <trkpt lat="47.28744" lon="-2.36924">
        <ele>45.799999237061</ele>
        <time>2021-06-17T07:20:47.000Z</time>
      </trkpt>
      <trkpt lat="47.28748" lon="-2.3693">
        <ele>46.200000762939</ele>
        <time>2021-06-17T07:20:50.000Z</time>
      </trkpt>
      <trkpt lat="47.28748" lon="-2.36931">
        <ele>46.599998474121</ele>
        <time>2021-06-17T07:20:51.000Z</time>
      </trkpt>
      <trkpt lat="47.2875" lon="-2.36936">
        <ele>47</ele>
        <time>2021-06-17T07:20:52.000Z</time>
      </trkpt>
      <trkpt lat="47.28751" lon="-2.3694">
        <ele>47.400001525879</ele>
        <time>2021-06-17T07:20:53.000Z</time>
      </trkpt>
      <trkpt lat="47.28752" lon="-2.36944">
        <ele>48</ele>
        <time>2021-06-17T07:20:54.000Z</time>
      </trkpt>
      <trkpt lat="47.28752" lon="-2.3695">
        <ele>48.400001525879</ele>
        <time>2021-06-17T07:20:56.000Z</time>
      </trkpt>
      <trkpt lat="47.28752" lon="-2.36952">
        <ele>48.799999237061</ele>
        <time>2021-06-17T07:20:57.000Z</time>
      </trkpt>
      <trkpt lat="47.28752" lon="-2.36953">
        <ele>49.200000762939</ele>
        <time>2021-06-17T07:20:58.000Z</time>
      </trkpt>
      <trkpt lat="47.28752" lon="-2.36956">
        <ele>49.799999237061</ele>
        <time>2021-06-17T07:20:59.000Z</time>
      </trkpt>
      <trkpt lat="47.28753" lon="-2.36959">
        <ele>50.200000762939</ele>
        <time>2021-06-17T07:21:00.000Z</time>
      </trkpt>
      <trkpt lat="47.28758" lon="-2.36971">
        <ele>50.200000762939</ele>
        <time>2021-06-17T07:21:04.000Z</time>
      </trkpt>
      <trkpt lat="47.28761" lon="-2.36976">
        <ele>51</ele>
        <time>2021-06-17T07:21:06.000Z</time>
      </trkpt>
      <trkpt lat="47.28764" lon="-2.36979">
        <ele>51.400001525879</ele>
        <time>2021-06-17T07:21:07.000Z</time>
      </trkpt>
      <trkpt lat="47.28766" lon="-2.36982">
        <ele>51.799999237061</ele>
        <time>2021-06-17T07:21:08.000Z</time>
      </trkpt>
      <trkpt lat="47.28769" lon="-2.36984">
        <ele>52.400001525879</ele>
        <time>2021-06-17T07:21:09.000Z</time>
      </trkpt>
      <trkpt lat="47.28772" lon="-2.36989">
        <ele>52.400001525879</ele>
        <time>2021-06-17T07:21:11.000Z</time>
      </trkpt>
      <trkpt lat="47.28773" lon="-2.36995">
        <ele>52.400001525879</ele>
        <time>2021-06-17T07:21:12.000Z</time>
      </trkpt>
      <trkpt lat="47.28774" lon="-2.37011">
        <ele>52.400001525879</ele>
        <time>2021-06-17T07:21:15.000Z</time>
      </trkpt>
      <trkpt lat="47.28778" lon="-2.37026">
        <ele>51.799999237061</ele>
        <time>2021-06-17T07:21:18.000Z</time>
      </trkpt>
      <trkpt lat="47.2878" lon="-2.37031">
        <ele>51.400001525879</ele>
        <time>2021-06-17T07:21:19.000Z</time>
      </trkpt>
      <trkpt lat="47.28782" lon="-2.37037">
        <ele>51</ele>
        <time>2021-06-17T07:21:20.000Z</time>
      </trkpt>
      <trkpt lat="47.28783" lon="-2.37044">
        <ele>50.400001525879</ele>
        <time>2021-06-17T07:21:21.000Z</time>
      </trkpt>
      <trkpt lat="47.28784" lon="-2.37051">
        <ele>50</ele>
        <time>2021-06-17T07:21:22.000Z</time>
      </trkpt>
      <trkpt lat="47.28785" lon="-2.37058">
        <ele>49.599998474121</ele>
        <time>2021-06-17T07:21:23.000Z</time>
      </trkpt>
      <trkpt lat="47.28786" lon="-2.37064">
        <ele>49.200000762939</ele>
        <time>2021-06-17T07:21:24.000Z</time>
      </trkpt>
      <trkpt lat="47.28787" lon="-2.3707">
        <ele>48.799999237061</ele>
        <time>2021-06-17T07:21:25.000Z</time>
      </trkpt>
      <trkpt lat="47.28788" lon="-2.37076">
        <ele>48.400001525879</ele>
        <time>2021-06-17T07:21:26.000Z</time>
      </trkpt>
      <trkpt lat="47.2879" lon="-2.37079">
        <ele>47.799999237061</ele>
        <time>2021-06-17T07:21:27.000Z</time>
      </trkpt>
      <trkpt lat="47.28797" lon="-2.37087">
        <ele>47.400001525879</ele>
        <time>2021-06-17T07:21:30.000Z</time>
      </trkpt>
      <trkpt lat="47.28799" lon="-2.37088">
        <ele>46.599998474121</ele>
        <time>2021-06-17T07:21:31.000Z</time>
      </trkpt>
      <trkpt lat="47.28801" lon="-2.37089">
        <ele>46</ele>
        <time>2021-06-17T07:21:32.000Z</time>
      </trkpt>
      <trkpt lat="47.28804" lon="-2.37089">
        <ele>45.599998474121</ele>
        <time>2021-06-17T07:21:33.000Z</time>
      </trkpt>
      <trkpt lat="47.28805" lon="-2.37088">
        <ele>45.200000762939</ele>
        <time>2021-06-17T07:21:34.000Z</time>
      </trkpt>
      <trkpt lat="47.28807" lon="-2.37088">
        <ele>44.599998474121</ele>
        <time>2021-06-17T07:21:35.000Z</time>
      </trkpt>
      <trkpt lat="47.28809" lon="-2.37088">
        <ele>44.200000762939</ele>
        <time>2021-06-17T07:21:36.000Z</time>
      </trkpt>
      <trkpt lat="47.28812" lon="-2.37089">
        <ele>43.599998474121</ele>
        <time>2021-06-17T07:21:37.000Z</time>
      </trkpt>
      <trkpt lat="47.28814" lon="-2.3709">
        <ele>43.200000762939</ele>
        <time>2021-06-17T07:21:38.000Z</time>
      </trkpt>
      <trkpt lat="47.28817" lon="-2.37093">
        <ele>42.799999237061</ele>
        <time>2021-06-17T07:21:39.000Z</time>
      </trkpt>
      <trkpt lat="47.2882" lon="-2.37099">
        <ele>42.400001525879</ele>
        <time>2021-06-17T07:21:40.000Z</time>
      </trkpt>
      <trkpt lat="47.28823" lon="-2.37106">
        <ele>42</ele>
        <time>2021-06-17T07:21:41.000Z</time>
      </trkpt>
      <trkpt lat="47.28825" lon="-2.37113">
        <ele>41.599998474121</ele>
        <time>2021-06-17T07:21:42.000Z</time>
      </trkpt>
      <trkpt lat="47.28827" lon="-2.3712">
        <ele>41.200000762939</ele>
        <time>2021-06-17T07:21:43.000Z</time>
      </trkpt>
      <trkpt lat="47.2883" lon="-2.37135">
        <ele>41.200000762939</ele>
        <time>2021-06-17T07:21:45.000Z</time>
      </trkpt>
      <trkpt lat="47.28832" lon="-2.37156">
        <ele>41.200000762939</ele>
        <time>2021-06-17T07:21:48.000Z</time>
      </trkpt>
      <trkpt lat="47.28839" lon="-2.37196">
        <ele>41.200000762939</ele>
        <time>2021-06-17T07:21:54.000Z</time>
      </trkpt>
      <trkpt lat="47.28847" lon="-2.37231">
        <ele>41.200000762939</ele>
        <time>2021-06-17T07:22:00.000Z</time>
      </trkpt>
      <trkpt lat="47.28853" lon="-2.37238">
        <ele>41.200000762939</ele>
        <time>2021-06-17T07:22:02.000Z</time>
      </trkpt>
      <trkpt lat="47.28857" lon="-2.37237">
        <ele>41.200000762939</ele>
        <time>2021-06-17T07:22:03.000Z</time>
      </trkpt>
      <trkpt lat="47.28869" lon="-2.37231">
        <ele>41.200000762939</ele>
        <time>2021-06-17T07:22:06.000Z</time>
      </trkpt>
      <trkpt lat="47.28874" lon="-2.37229">
        <ele>41.200000762939</ele>
        <time>2021-06-17T07:22:07.000Z</time>
      </trkpt>
      <trkpt lat="47.28904" lon="-2.37216">
        <ele>41.200000762939</ele>
        <time>2021-06-17T07:22:14.000Z</time>
      </trkpt>
      <trkpt lat="47.2893" lon="-2.37205">
        <ele>41.200000762939</ele>
        <time>2021-06-17T07:22:20.000Z</time>
      </trkpt>
      <trkpt lat="47.28949" lon="-2.37199">
        <ele>41.200000762939</ele>
        <time>2021-06-17T07:22:26.000Z</time>
      </trkpt>
      <trkpt lat="47.28951" lon="-2.37198">
        <ele>41.599998474121</ele>
        <time>2021-06-17T07:22:27.000Z</time>
      </trkpt>
      <trkpt lat="47.28952" lon="-2.37197">
        <ele>42</ele>
        <time>2021-06-17T07:22:28.000Z</time>
      </trkpt>
      <trkpt lat="47.28953" lon="-2.37196">
        <ele>42.400001525879</ele>
        <time>2021-06-17T07:22:29.000Z</time>
      </trkpt>
      <trkpt lat="47.28953" lon="-2.37196">
        <ele>42.799999237061</ele>
        <time>2021-06-17T07:22:30.000Z</time>
      </trkpt>
      <trkpt lat="47.28956" lon="-2.37195">
        <ele>43.200000762939</ele>
        <time>2021-06-17T07:22:31.000Z</time>
      </trkpt>
      <trkpt lat="47.28966" lon="-2.37186">
        <ele>43.200000762939</ele>
        <time>2021-06-17T07:22:35.000Z</time>
      </trkpt>
      <trkpt lat="47.28975" lon="-2.3718">
        <ele>43.599998474121</ele>
        <time>2021-06-17T07:22:38.000Z</time>
      </trkpt>
      <trkpt lat="47.28978" lon="-2.37178">
        <ele>44</ele>
        <time>2021-06-17T07:22:39.000Z</time>
      </trkpt>
      <trkpt lat="47.28981" lon="-2.37176">
        <ele>44.400001525879</ele>
        <time>2021-06-17T07:22:40.000Z</time>
      </trkpt>
      <trkpt lat="47.28983" lon="-2.37174">
        <ele>44.799999237061</ele>
        <time>2021-06-17T07:22:41.000Z</time>
      </trkpt>
      <trkpt lat="47.28984" lon="-2.37173">
        <ele>45.200000762939</ele>
        <time>2021-06-17T07:22:42.000Z</time>
      </trkpt>
      <trkpt lat="47.28995" lon="-2.37167">
        <ele>45.200000762939</ele>
        <time>2021-06-17T07:22:47.000Z</time>
      </trkpt>
      <trkpt lat="47.29001" lon="-2.3717">
        <ele>45.599998474121</ele>
        <time>2021-06-17T07:22:49.000Z</time>
      </trkpt>
      <trkpt lat="47.29004" lon="-2.37172">
        <ele>46</ele>
        <time>2021-06-17T07:22:50.000Z</time>
      </trkpt>
      <trkpt lat="47.29007" lon="-2.37175">
        <ele>46.400001525879</ele>
        <time>2021-06-17T07:22:51.000Z</time>
      </trkpt>
      <trkpt lat="47.29011" lon="-2.37178">
        <ele>46.799999237061</ele>
        <time>2021-06-17T07:22:52.000Z</time>
      </trkpt>
      <trkpt lat="47.29013" lon="-2.3718">
        <ele>47.200000762939</ele>
        <time>2021-06-17T07:22:53.000Z</time>
      </trkpt>
      <trkpt lat="47.29021" lon="-2.37189">
        <ele>47.599998474121</ele>
        <time>2021-06-17T07:22:56.000Z</time>
      </trkpt>
      <trkpt lat="47.29024" lon="-2.37192">
        <ele>48</ele>
        <time>2021-06-17T07:22:57.000Z</time>
      </trkpt>
      <trkpt lat="47.29027" lon="-2.37195">
        <ele>48.599998474121</ele>
        <time>2021-06-17T07:22:58.000Z</time>
      </trkpt>
      <trkpt lat="47.2903" lon="-2.37198">
        <ele>49</ele>
        <time>2021-06-17T07:22:59.000Z</time>
      </trkpt>
      <trkpt lat="47.29033" lon="-2.37201">
        <ele>49.400001525879</ele>
        <time>2021-06-17T07:23:00.000Z</time>
      </trkpt>
      <trkpt lat="47.29046" lon="-2.37215">
        <ele>49.400001525879</ele>
        <time>2021-06-17T07:23:05.000Z</time>
      </trkpt>
      <trkpt lat="47.29049" lon="-2.37218">
        <ele>49.799999237061</ele>
        <time>2021-06-17T07:23:06.000Z</time>
      </trkpt>
      <trkpt lat="47.29051" lon="-2.37222">
        <ele>50.200000762939</ele>
        <time>2021-06-17T07:23:07.000Z</time>
      </trkpt>
      <trkpt lat="47.29054" lon="-2.37224">
        <ele>50.599998474121</ele>
        <time>2021-06-17T07:23:08.000Z</time>
      </trkpt>
      <trkpt lat="47.29057" lon="-2.37228">
        <ele>51.400001525879</ele>
        <time>2021-06-17T07:23:09.000Z</time>
      </trkpt>
      <trkpt lat="47.2906" lon="-2.37231">
        <ele>51.400001525879</ele>
        <time>2021-06-17T07:23:10.000Z</time>
      </trkpt>
      <trkpt lat="47.2908" lon="-2.37252">
        <ele>51.400001525879</ele>
        <time>2021-06-17T07:23:17.000Z</time>
      </trkpt>
      <trkpt lat="47.29099" lon="-2.37269">
        <ele>51.799999237061</ele>
        <time>2021-06-17T07:23:23.000Z</time>
      </trkpt>
      <trkpt lat="47.29102" lon="-2.37272">
        <ele>52.400001525879</ele>
        <time>2021-06-17T07:23:24.000Z</time>
      </trkpt>
      <trkpt lat="47.29105" lon="-2.37275">
        <ele>52.799999237061</ele>
        <time>2021-06-17T07:23:25.000Z</time>
      </trkpt>
      <trkpt lat="47.29107" lon="-2.37278">
        <ele>53.200000762939</ele>
        <time>2021-06-17T07:23:26.000Z</time>
      </trkpt>
      <trkpt lat="47.2911" lon="-2.37281">
        <ele>53.599998474121</ele>
        <time>2021-06-17T07:23:27.000Z</time>
      </trkpt>
      <trkpt lat="47.29125" lon="-2.37294">
        <ele>53.599998474121</ele>
        <time>2021-06-17T07:23:32.000Z</time>
      </trkpt>
      <trkpt lat="47.29146" lon="-2.3732">
        <ele>53.599998474121</ele>
        <time>2021-06-17T07:23:39.000Z</time>
      </trkpt>
      <trkpt lat="47.29161" lon="-2.3735">
        <ele>53.599998474121</ele>
        <time>2021-06-17T07:23:45.000Z</time>
      </trkpt>
      <trkpt lat="47.29181" lon="-2.37388">
        <ele>53.599998474121</ele>
        <time>2021-06-17T07:23:53.000Z</time>
      </trkpt>
      <trkpt lat="47.29194" lon="-2.37407">
        <ele>53.599998474121</ele>
        <time>2021-06-17T07:23:57.000Z</time>
      </trkpt>
      <trkpt lat="47.29199" lon="-2.37418">
        <ele>53.599998474121</ele>
        <time>2021-06-17T07:23:59.000Z</time>
      </trkpt>
      <trkpt lat="47.29203" lon="-2.37424">
        <ele>53.599998474121</ele>
        <time>2021-06-17T07:24:00.000Z</time>
      </trkpt>
      <trkpt lat="47.29217" lon="-2.37448">
        <ele>53.599998474121</ele>
        <time>2021-06-17T07:24:04.000Z</time>
      </trkpt>
      <trkpt lat="47.29245" lon="-2.37492">
        <ele>53.200000762939</ele>
        <time>2021-06-17T07:24:11.000Z</time>
      </trkpt>
      <trkpt lat="47.29249" lon="-2.37498">
        <ele>52.799999237061</ele>
        <time>2021-06-17T07:24:12.000Z</time>
      </trkpt>
      <trkpt lat="47.29253" lon="-2.37504">
        <ele>52.400001525879</ele>
        <time>2021-06-17T07:24:13.000Z</time>
      </trkpt>
      <trkpt lat="47.29257" lon="-2.37509">
        <ele>51.799999237061</ele>
        <time>2021-06-17T07:24:14.000Z</time>
      </trkpt>
      <trkpt lat="47.29261" lon="-2.37514">
        <ele>51.400001525879</ele>
        <time>2021-06-17T07:24:15.000Z</time>
      </trkpt>
      <trkpt lat="47.29271" lon="-2.37522">
        <ele>51.400001525879</ele>
        <time>2021-06-17T07:24:17.000Z</time>
      </trkpt>
      <trkpt lat="47.29282" lon="-2.37551">
        <ele>51.400001525879</ele>
        <time>2021-06-17T07:24:21.000Z</time>
      </trkpt>
      <trkpt lat="47.29286" lon="-2.37558">
        <ele>51.400001525879</ele>
        <time>2021-06-17T07:24:22.000Z</time>
      </trkpt>
      <trkpt lat="47.29301" lon="-2.37583">
        <ele>51.400001525879</ele>
        <time>2021-06-17T07:24:26.000Z</time>
      </trkpt>
      <trkpt lat="47.29325" lon="-2.37625">
        <ele>51.400001525879</ele>
        <time>2021-06-17T07:24:33.000Z</time>
      </trkpt>
      <trkpt lat="47.29337" lon="-2.37659">
        <ele>51.400001525879</ele>
        <time>2021-06-17T07:24:38.000Z</time>
      </trkpt>
      <trkpt lat="47.29339" lon="-2.37666">
        <ele>51.400001525879</ele>
        <time>2021-06-17T07:24:39.000Z</time>
      </trkpt>
      <trkpt lat="47.29339" lon="-2.37673">
        <ele>51.400001525879</ele>
        <time>2021-06-17T07:24:40.000Z</time>
      </trkpt>
      <trkpt lat="47.29336" lon="-2.37691">
        <ele>51.400001525879</ele>
        <time>2021-06-17T07:24:42.000Z</time>
      </trkpt>
      <trkpt lat="47.29335" lon="-2.37709">
        <ele>51.400001525879</ele>
        <time>2021-06-17T07:24:44.000Z</time>
      </trkpt>
      <trkpt lat="47.29333" lon="-2.3773">
        <ele>51</ele>
        <time>2021-06-17T07:24:46.000Z</time>
      </trkpt>
      <trkpt lat="47.29333" lon="-2.3774">
        <ele>50.599998474121</ele>
        <time>2021-06-17T07:24:47.000Z</time>
      </trkpt>
      <trkpt lat="47.29333" lon="-2.37751">
        <ele>49.599998474121</ele>
        <time>2021-06-17T07:24:48.000Z</time>
      </trkpt>
      <trkpt lat="47.29333" lon="-2.37763">
        <ele>49.200000762939</ele>
        <time>2021-06-17T07:24:49.000Z</time>
      </trkpt>
      <trkpt lat="47.29334" lon="-2.37789">
        <ele>48.799999237061</ele>
        <time>2021-06-17T07:24:51.000Z</time>
      </trkpt>
      <trkpt lat="47.29334" lon="-2.37801">
        <ele>48.400001525879</ele>
        <time>2021-06-17T07:24:52.000Z</time>
      </trkpt>
      <trkpt lat="47.29335" lon="-2.37815">
        <ele>47.799999237061</ele>
        <time>2021-06-17T07:24:53.000Z</time>
      </trkpt>
      <trkpt lat="47.29336" lon="-2.37828">
        <ele>47.400001525879</ele>
        <time>2021-06-17T07:24:54.000Z</time>
      </trkpt>
      <trkpt lat="47.29337" lon="-2.3784">
        <ele>47</ele>
        <time>2021-06-17T07:24:55.000Z</time>
      </trkpt>
      <trkpt lat="47.29341" lon="-2.37851">
        <ele>47</ele>
        <time>2021-06-17T07:24:56.000Z</time>
      </trkpt>
      <trkpt lat="47.29344" lon="-2.37864">
        <ele>46.599998474121</ele>
        <time>2021-06-17T07:24:57.000Z</time>
      </trkpt>
      <trkpt lat="47.29348" lon="-2.37876">
        <ele>46.200000762939</ele>
        <time>2021-06-17T07:24:58.000Z</time>
      </trkpt>
      <trkpt lat="47.29352" lon="-2.37887">
        <ele>45.799999237061</ele>
        <time>2021-06-17T07:24:59.000Z</time>
      </trkpt>
      <trkpt lat="47.29356" lon="-2.37899">
        <ele>45.400001525879</ele>
        <time>2021-06-17T07:25:00.000Z</time>
      </trkpt>
      <trkpt lat="47.2936" lon="-2.37909">
        <ele>44.799999237061</ele>
        <time>2021-06-17T07:25:01.000Z</time>
      </trkpt>
      <trkpt lat="47.29364" lon="-2.3792">
        <ele>44.799999237061</ele>
        <time>2021-06-17T07:25:02.000Z</time>
      </trkpt>
      <trkpt lat="47.29371" lon="-2.37941">
        <ele>44.400001525879</ele>
        <time>2021-06-17T07:25:04.000Z</time>
      </trkpt>
      <trkpt lat="47.29375" lon="-2.37951">
        <ele>44</ele>
        <time>2021-06-17T07:25:05.000Z</time>
      </trkpt>
      <trkpt lat="47.29378" lon="-2.37961">
        <ele>43.599998474121</ele>
        <time>2021-06-17T07:25:06.000Z</time>
      </trkpt>
      <trkpt lat="47.29382" lon="-2.37971">
        <ele>43.200000762939</ele>
        <time>2021-06-17T07:25:07.000Z</time>
      </trkpt>
      <trkpt lat="47.29386" lon="-2.37982">
        <ele>42.799999237061</ele>
        <time>2021-06-17T07:25:08.000Z</time>
      </trkpt>
      <trkpt lat="47.29393" lon="-2.38002">
        <ele>42.799999237061</ele>
        <time>2021-06-17T07:25:10.000Z</time>
      </trkpt>
      <trkpt lat="47.29404" lon="-2.38031">
        <ele>42</ele>
        <time>2021-06-17T07:25:13.000Z</time>
      </trkpt>
      <trkpt lat="47.29407" lon="-2.38041">
        <ele>41.599998474121</ele>
        <time>2021-06-17T07:25:14.000Z</time>
      </trkpt>
      <trkpt lat="47.29411" lon="-2.38051">
        <ele>41.200000762939</ele>
        <time>2021-06-17T07:25:15.000Z</time>
      </trkpt>
      <trkpt lat="47.29414" lon="-2.38061">
        <ele>40.799999237061</ele>
        <time>2021-06-17T07:25:16.000Z</time>
      </trkpt>
      <trkpt lat="47.29424" lon="-2.38089">
        <ele>40.799999237061</ele>
        <time>2021-06-17T07:25:19.000Z</time>
      </trkpt>
      <trkpt lat="47.29445" lon="-2.38158">
        <ele>40.799999237061</ele>
        <time>2021-06-17T07:25:26.000Z</time>
      </trkpt>
      <trkpt lat="47.29454" lon="-2.38219">
        <ele>40.799999237061</ele>
        <time>2021-06-17T07:25:32.000Z</time>
      </trkpt>
      <trkpt lat="47.29458" lon="-2.38283">
        <ele>40.799999237061</ele>
        <time>2021-06-17T07:25:39.000Z</time>
      </trkpt>
      <trkpt lat="47.29455" lon="-2.38357">
        <ele>40.799999237061</ele>
        <time>2021-06-17T07:25:46.000Z</time>
      </trkpt>
      <trkpt lat="47.29456" lon="-2.38408">
        <ele>40.400001525879</ele>
        <time>2021-06-17T07:25:51.000Z</time>
      </trkpt>
      <trkpt lat="47.29456" lon="-2.38417">
        <ele>39.799999237061</ele>
        <time>2021-06-17T07:25:52.000Z</time>
      </trkpt>
      <trkpt lat="47.29457" lon="-2.38427">
        <ele>39.400001525879</ele>
        <time>2021-06-17T07:25:53.000Z</time>
      </trkpt>
      <trkpt lat="47.29458" lon="-2.38436">
        <ele>39</ele>
        <time>2021-06-17T07:25:54.000Z</time>
      </trkpt>
      <trkpt lat="47.29458" lon="-2.38445">
        <ele>38.599998474121</ele>
        <time>2021-06-17T07:25:55.000Z</time>
      </trkpt>
      <trkpt lat="47.2946" lon="-2.38482">
        <ele>38.599998474121</ele>
        <time>2021-06-17T07:25:59.000Z</time>
      </trkpt>
      <trkpt lat="47.29461" lon="-2.38553">
        <ele>38.599998474121</ele>
        <time>2021-06-17T07:26:07.000Z</time>
      </trkpt>
      <trkpt lat="47.29462" lon="-2.38571">
        <ele>39</ele>
        <time>2021-06-17T07:26:09.000Z</time>
      </trkpt>
      <trkpt lat="47.29462" lon="-2.38579">
        <ele>39.400001525879</ele>
        <time>2021-06-17T07:26:10.000Z</time>
      </trkpt>
      <trkpt lat="47.29463" lon="-2.38587">
        <ele>39.799999237061</ele>
        <time>2021-06-17T07:26:11.000Z</time>
      </trkpt>
      <trkpt lat="47.29463" lon="-2.38595">
        <ele>40.200000762939</ele>
        <time>2021-06-17T07:26:12.000Z</time>
      </trkpt>
      <trkpt lat="47.29463" lon="-2.38603">
        <ele>40.799999237061</ele>
        <time>2021-06-17T07:26:13.000Z</time>
      </trkpt>
      <trkpt lat="47.29463" lon="-2.38617">
        <ele>40.799999237061</ele>
        <time>2021-06-17T07:26:15.000Z</time>
      </trkpt>
      <trkpt lat="47.29464" lon="-2.38632">
        <ele>40.799999237061</ele>
        <time>2021-06-17T07:26:17.000Z</time>
      </trkpt>
      <trkpt lat="47.29464" lon="-2.38653">
        <ele>40.799999237061</ele>
        <time>2021-06-17T07:26:20.000Z</time>
      </trkpt>
      <trkpt lat="47.29468" lon="-2.38697">
        <ele>40.799999237061</ele>
        <time>2021-06-17T07:26:26.000Z</time>
      </trkpt>
      <trkpt lat="47.29473" lon="-2.38749">
        <ele>40.799999237061</ele>
        <time>2021-06-17T07:26:33.000Z</time>
      </trkpt>
      <trkpt lat="47.29474" lon="-2.38802">
        <ele>40.799999237061</ele>
        <time>2021-06-17T07:26:40.000Z</time>
      </trkpt>
      <trkpt lat="47.29475" lon="-2.38832">
        <ele>40.799999237061</ele>
        <time>2021-06-17T07:26:44.000Z</time>
      </trkpt>
      <trkpt lat="47.29476" lon="-2.3884">
        <ele>40.799999237061</ele>
        <time>2021-06-17T07:26:45.000Z</time>
      </trkpt>
      <trkpt lat="47.29478" lon="-2.38847">
        <ele>41.200000762939</ele>
        <time>2021-06-17T07:26:46.000Z</time>
      </trkpt>
      <trkpt lat="47.29479" lon="-2.38854">
        <ele>41.599998474121</ele>
        <time>2021-06-17T07:26:47.000Z</time>
      </trkpt>
      <trkpt lat="47.29481" lon="-2.38862">
        <ele>42</ele>
        <time>2021-06-17T07:26:48.000Z</time>
      </trkpt>
      <trkpt lat="47.29482" lon="-2.38869">
        <ele>42.400001525879</ele>
        <time>2021-06-17T07:26:49.000Z</time>
      </trkpt>
      <trkpt lat="47.29484" lon="-2.38877">
        <ele>42.799999237061</ele>
        <time>2021-06-17T07:26:50.000Z</time>
      </trkpt>
      <trkpt lat="47.29505" lon="-2.38936">
        <ele>42.799999237061</ele>
        <time>2021-06-17T07:26:58.000Z</time>
      </trkpt>
      <trkpt lat="47.29508" lon="-2.38942">
        <ele>42.799999237061</ele>
        <time>2021-06-17T07:26:59.000Z</time>
      </trkpt>
      <trkpt lat="47.29522" lon="-2.38958">
        <ele>42.799999237061</ele>
        <time>2021-06-17T07:27:02.000Z</time>
      </trkpt>
      <trkpt lat="47.29526" lon="-2.38962">
        <ele>42.799999237061</ele>
        <time>2021-06-17T07:27:03.000Z</time>
      </trkpt>
      <trkpt lat="47.29552" lon="-2.38981">
        <ele>42.799999237061</ele>
        <time>2021-06-17T07:27:08.000Z</time>
      </trkpt>
      <trkpt lat="47.29596" lon="-2.39003">
        <ele>42.799999237061</ele>
        <time>2021-06-17T07:27:16.000Z</time>
      </trkpt>
      <trkpt lat="47.29613" lon="-2.39012">
        <ele>42.799999237061</ele>
        <time>2021-06-17T07:27:19.000Z</time>
      </trkpt>
      <trkpt lat="47.29622" lon="-2.39022">
        <ele>42.799999237061</ele>
        <time>2021-06-17T07:27:21.000Z</time>
      </trkpt>
      <trkpt lat="47.29628" lon="-2.39047">
        <ele>42.799999237061</ele>
        <time>2021-06-17T07:27:24.000Z</time>
      </trkpt>
      <trkpt lat="47.29628" lon="-2.39065">
        <ele>42.799999237061</ele>
        <time>2021-06-17T07:27:26.000Z</time>
      </trkpt>
      <trkpt lat="47.29628" lon="-2.39103">
        <ele>42.799999237061</ele>
        <time>2021-06-17T07:27:30.000Z</time>
      </trkpt>
      <trkpt lat="47.2963" lon="-2.39132">
        <ele>42.799999237061</ele>
        <time>2021-06-17T07:27:33.000Z</time>
      </trkpt>
      <trkpt lat="47.29633" lon="-2.3915">
        <ele>42.799999237061</ele>
        <time>2021-06-17T07:27:35.000Z</time>
      </trkpt>
      <trkpt lat="47.29648" lon="-2.3918">
        <ele>42.799999237061</ele>
        <time>2021-06-17T07:27:39.000Z</time>
      </trkpt>
      <trkpt lat="47.29664" lon="-2.39199">
        <ele>42.799999237061</ele>
        <time>2021-06-17T07:27:43.000Z</time>
      </trkpt>
      <trkpt lat="47.2966" lon="-2.39216">
        <ele>42.799999237061</ele>
        <time>2021-06-17T07:27:46.000Z</time>
      </trkpt>
      <trkpt lat="47.29656" lon="-2.39231">
        <ele>42.799999237061</ele>
        <time>2021-06-17T07:27:48.000Z</time>
      </trkpt>
      <trkpt lat="47.29653" lon="-2.39248">
        <ele>42.799999237061</ele>
        <time>2021-06-17T07:27:50.000Z</time>
      </trkpt>
      <trkpt lat="47.29646" lon="-2.39305">
        <ele>42.799999237061</ele>
        <time>2021-06-17T07:27:57.000Z</time>
      </trkpt>
      <trkpt lat="47.29641" lon="-2.39378">
        <ele>42.799999237061</ele>
        <time>2021-06-17T07:28:07.000Z</time>
      </trkpt>
      <trkpt lat="47.29639" lon="-2.39385">
        <ele>42.799999237061</ele>
        <time>2021-06-17T07:28:08.000Z</time>
      </trkpt>
      <trkpt lat="47.29635" lon="-2.39397">
        <ele>42.400001525879</ele>
        <time>2021-06-17T07:28:10.000Z</time>
      </trkpt>
      <trkpt lat="47.29633" lon="-2.39403">
        <ele>42</ele>
        <time>2021-06-17T07:28:11.000Z</time>
      </trkpt>
      <trkpt lat="47.29632" lon="-2.3941">
        <ele>41.599998474121</ele>
        <time>2021-06-17T07:28:12.000Z</time>
      </trkpt>
      <trkpt lat="47.29631" lon="-2.39417">
        <ele>41.200000762939</ele>
        <time>2021-06-17T07:28:13.000Z</time>
      </trkpt>
      <trkpt lat="47.2963" lon="-2.39424">
        <ele>40.799999237061</ele>
        <time>2021-06-17T07:28:14.000Z</time>
      </trkpt>
      <trkpt lat="47.29629" lon="-2.39431">
        <ele>40.799999237061</ele>
        <time>2021-06-17T07:28:15.000Z</time>
      </trkpt>
      <trkpt lat="47.29627" lon="-2.39437">
        <ele>40.799999237061</ele>
        <time>2021-06-17T07:28:16.000Z</time>
      </trkpt>
      <trkpt lat="47.29618" lon="-2.39454">
        <ele>40.799999237061</ele>
        <time>2021-06-17T07:28:19.000Z</time>
      </trkpt>
      <trkpt lat="47.29611" lon="-2.39465">
        <ele>40.799999237061</ele>
        <time>2021-06-17T07:28:21.000Z</time>
      </trkpt>
      <trkpt lat="47.29591" lon="-2.39495">
        <ele>40.799999237061</ele>
        <time>2021-06-17T07:28:27.000Z</time>
      </trkpt>
      <trkpt lat="47.29587" lon="-2.39498">
        <ele>40.799999237061</ele>
        <time>2021-06-17T07:28:28.000Z</time>
      </trkpt>
      <trkpt lat="47.29575" lon="-2.39499">
        <ele>40.799999237061</ele>
        <time>2021-06-17T07:28:31.000Z</time>
      </trkpt>
      <trkpt lat="47.29568" lon="-2.39495">
        <ele>40.799999237061</ele>
        <time>2021-06-17T07:28:33.000Z</time>
      </trkpt>
      <trkpt lat="47.29559" lon="-2.39494">
        <ele>40.799999237061</ele>
        <time>2021-06-17T07:28:36.000Z</time>
      </trkpt>
      <trkpt lat="47.29555" lon="-2.39505">
        <ele>40.799999237061</ele>
        <time>2021-06-17T07:28:39.000Z</time>
      </trkpt>
      <trkpt lat="47.29555" lon="-2.39516">
        <ele>40.799999237061</ele>
        <time>2021-06-17T07:28:43.000Z</time>
      </trkpt>
      <trkpt lat="47.29554" lon="-2.39519">
        <ele>40.799999237061</ele>
        <time>2021-06-17T07:28:44.000Z</time>
      </trkpt>
      <trkpt lat="47.29555" lon="-2.39529">
        <ele>40.799999237061</ele>
        <time>2021-06-17T07:28:47.000Z</time>
      </trkpt>
      <trkpt lat="47.29555" lon="-2.39533">
        <ele>41.200000762939</ele>
        <time>2021-06-17T07:28:48.000Z</time>
      </trkpt>
      <trkpt lat="47.29555" lon="-2.39537">
        <ele>41.599998474121</ele>
        <time>2021-06-17T07:28:49.000Z</time>
      </trkpt>
      <trkpt lat="47.29555" lon="-2.3954">
        <ele>42.200000762939</ele>
        <time>2021-06-17T07:28:50.000Z</time>
      </trkpt>
      <trkpt lat="47.29555" lon="-2.39543">
        <ele>42.599998474121</ele>
        <time>2021-06-17T07:28:51.000Z</time>
      </trkpt>
      <trkpt lat="47.29557" lon="-2.39545">
        <ele>43</ele>
        <time>2021-06-17T07:28:52.000Z</time>
      </trkpt>
      <trkpt lat="47.29566" lon="-2.39545">
        <ele>43.400001525879</ele>
        <time>2021-06-17T07:28:55.000Z</time>
      </trkpt>
      <trkpt lat="47.29569" lon="-2.39546">
        <ele>43.799999237061</ele>
        <time>2021-06-17T07:28:56.000Z</time>
      </trkpt>
      <trkpt lat="47.29573" lon="-2.39546">
        <ele>44.200000762939</ele>
        <time>2021-06-17T07:28:57.000Z</time>
      </trkpt>
      <trkpt lat="47.29576" lon="-2.39547">
        <ele>44.799999237061</ele>
        <time>2021-06-17T07:28:58.000Z</time>
      </trkpt>
      <trkpt lat="47.29579" lon="-2.39547">
        <ele>45.200000762939</ele>
        <time>2021-06-17T07:28:59.000Z</time>
      </trkpt>
      <trkpt lat="47.29595" lon="-2.39549">
        <ele>45.200000762939</ele>
        <time>2021-06-17T07:29:04.000Z</time>
      </trkpt>
      <trkpt lat="47.29617" lon="-2.39553">
        <ele>45.200000762939</ele>
        <time>2021-06-17T07:29:09.000Z</time>
      </trkpt>
      <trkpt lat="47.29624" lon="-2.39558">
        <ele>45.200000762939</ele>
        <time>2021-06-17T07:29:12.000Z</time>
      </trkpt>
      <trkpt lat="47.29619" lon="-2.39565">
        <ele>45.200000762939</ele>
        <time>2021-06-17T07:29:15.000Z</time>
      </trkpt>
      <trkpt lat="47.29616" lon="-2.39566">
        <ele>45.200000762939</ele>
        <time>2021-06-17T07:29:16.000Z</time>
      </trkpt>
      <trkpt lat="47.29611" lon="-2.39572">
        <ele>45.200000762939</ele>
        <time>2021-06-17T07:29:19.000Z</time>
      </trkpt>
      <trkpt lat="47.29614" lon="-2.39573">
        <ele>44.799999237061</ele>
        <time>2021-06-17T07:29:20.000Z</time>
      </trkpt>
      <trkpt lat="47.29618" lon="-2.39573">
        <ele>44.400001525879</ele>
        <time>2021-06-17T07:29:21.000Z</time>
      </trkpt>
      <trkpt lat="47.29622" lon="-2.39573">
        <ele>44</ele>
        <time>2021-06-17T07:29:22.000Z</time>
      </trkpt>
      <trkpt lat="47.29626" lon="-2.39574">
        <ele>43.599998474121</ele>
        <time>2021-06-17T07:29:23.000Z</time>
      </trkpt>
      <trkpt lat="47.29629" lon="-2.39576">
        <ele>43.200000762939</ele>
        <time>2021-06-17T07:29:24.000Z</time>
      </trkpt>
      <trkpt lat="47.29632" lon="-2.3958">
        <ele>43.200000762939</ele>
        <time>2021-06-17T07:29:25.000Z</time>
      </trkpt>
      <trkpt lat="47.29636" lon="-2.39588">
        <ele>42.799999237061</ele>
        <time>2021-06-17T07:29:27.000Z</time>
      </trkpt>
      <trkpt lat="47.29636" lon="-2.39594">
        <ele>42.400001525879</ele>
        <time>2021-06-17T07:29:28.000Z</time>
      </trkpt>
      <trkpt lat="47.29636" lon="-2.39602">
        <ele>42</ele>
        <time>2021-06-17T07:29:29.000Z</time>
      </trkpt>
      <trkpt lat="47.29635" lon="-2.3961">
        <ele>41.599998474121</ele>
        <time>2021-06-17T07:29:30.000Z</time>
      </trkpt>
      <trkpt lat="47.29634" lon="-2.39618">
        <ele>41.200000762939</ele>
        <time>2021-06-17T07:29:31.000Z</time>
      </trkpt>
      <trkpt lat="47.29633" lon="-2.39627">
        <ele>41.200000762939</ele>
        <time>2021-06-17T07:29:32.000Z</time>
      </trkpt>
      <trkpt lat="47.29632" lon="-2.39635">
        <ele>41.200000762939</ele>
        <time>2021-06-17T07:29:33.000Z</time>
      </trkpt>
      <trkpt lat="47.29624" lon="-2.39659">
        <ele>41.200000762939</ele>
        <time>2021-06-17T07:29:36.000Z</time>
      </trkpt>
      <trkpt lat="47.29619" lon="-2.39667">
        <ele>41.200000762939</ele>
        <time>2021-06-17T07:29:37.000Z</time>
      </trkpt>
      <trkpt lat="47.2959" lon="-2.39718">
        <ele>41.200000762939</ele>
        <time>2021-06-17T07:29:44.000Z</time>
      </trkpt>
      <trkpt lat="47.29562" lon="-2.39774">
        <ele>41.200000762939</ele>
        <time>2021-06-17T07:29:51.000Z</time>
      </trkpt>
      <trkpt lat="47.2954" lon="-2.3982">
        <ele>41.200000762939</ele>
        <time>2021-06-17T07:29:57.000Z</time>
      </trkpt>
      <trkpt lat="47.29516" lon="-2.39868">
        <ele>41.200000762939</ele>
        <time>2021-06-17T07:30:04.000Z</time>
      </trkpt>
      <trkpt lat="47.29502" lon="-2.39895">
        <ele>41.200000762939</ele>
        <time>2021-06-17T07:30:09.000Z</time>
      </trkpt>
      <trkpt lat="47.29497" lon="-2.39901">
        <ele>41.200000762939</ele>
        <time>2021-06-17T07:30:13.000Z</time>
      </trkpt>
      <trkpt lat="47.29495" lon="-2.39901">
        <ele>41.200000762939</ele>
        <time>2021-06-17T07:30:14.000Z</time>
      </trkpt>
      <trkpt lat="47.29491" lon="-2.399">
        <ele>41.200000762939</ele>
        <time>2021-06-17T07:30:19.000Z</time>
      </trkpt>
      <trkpt lat="47.29491" lon="-2.399">
        <ele>41.200000762939</ele>
        <time>2021-06-17T07:30:20.000Z</time>
      </trkpt>
      <trkpt lat="47.29491" lon="-2.399">
        <ele>41.200000762939</ele>
        <time>2021-06-17T07:30:43.000Z</time>
      </trkpt>
      <trkpt lat="47.29489" lon="-2.39904">
        <ele>41.200000762939</ele>
        <time>2021-06-17T07:30:45.000Z</time>
      </trkpt>
      <trkpt lat="47.29486" lon="-2.39924">
        <ele>41.200000762939</ele>
        <time>2021-06-17T07:30:50.000Z</time>
      </trkpt>
      <trkpt lat="47.29477" lon="-2.39945">
        <ele>41.200000762939</ele>
        <time>2021-06-17T07:30:54.000Z</time>
      </trkpt>
      <trkpt lat="47.29475" lon="-2.39951">
        <ele>41.200000762939</ele>
        <time>2021-06-17T07:30:55.000Z</time>
      </trkpt>
      <trkpt lat="47.29467" lon="-2.39977">
        <ele>41.200000762939</ele>
        <time>2021-06-17T07:30:59.000Z</time>
      </trkpt>
      <trkpt lat="47.29463" lon="-2.4001">
        <ele>41.200000762939</ele>
        <time>2021-06-17T07:31:03.000Z</time>
      </trkpt>
      <trkpt lat="47.29463" lon="-2.40019">
        <ele>41.200000762939</ele>
        <time>2021-06-17T07:31:04.000Z</time>
      </trkpt>
      <trkpt lat="47.29463" lon="-2.40079">
        <ele>41.200000762939</ele>
        <time>2021-06-17T07:31:11.000Z</time>
      </trkpt>
      <trkpt lat="47.29462" lon="-2.40084">
        <ele>41.200000762939</ele>
        <time>2021-06-17T07:31:13.000Z</time>
      </trkpt>
      <trkpt lat="47.29462" lon="-2.40084">
        <ele>41.200000762939</ele>
        <time>2021-06-17T07:31:28.000Z</time>
      </trkpt>
      <trkpt lat="47.29459" lon="-2.40103">
        <ele>41.200000762939</ele>
        <time>2021-06-17T07:31:33.000Z</time>
      </trkpt>
      <trkpt lat="47.29458" lon="-2.40109">
        <ele>41.200000762939</ele>
        <time>2021-06-17T07:31:34.000Z</time>
      </trkpt>
      <trkpt lat="47.29455" lon="-2.4013">
        <ele>41.200000762939</ele>
        <time>2021-06-17T07:31:37.000Z</time>
      </trkpt>
      <trkpt lat="47.29454" lon="-2.40137">
        <ele>41.200000762939</ele>
        <time>2021-06-17T07:31:38.000Z</time>
      </trkpt>
      <trkpt lat="47.29451" lon="-2.40174">
        <ele>41.200000762939</ele>
        <time>2021-06-17T07:31:43.000Z</time>
      </trkpt>
      <trkpt lat="47.2945" lon="-2.40181">
        <ele>41.200000762939</ele>
        <time>2021-06-17T07:31:44.000Z</time>
      </trkpt>
      <trkpt lat="47.29445" lon="-2.40208">
        <ele>41.200000762939</ele>
        <time>2021-06-17T07:31:49.000Z</time>
      </trkpt>
      <trkpt lat="47.29441" lon="-2.40218">
        <ele>41.200000762939</ele>
        <time>2021-06-17T07:31:53.000Z</time>
      </trkpt>
      <trkpt lat="47.29438" lon="-2.40219">
        <ele>41.200000762939</ele>
        <time>2021-06-17T07:31:57.000Z</time>
      </trkpt>
      <trkpt lat="47.29437" lon="-2.40219">
        <ele>41.200000762939</ele>
        <time>2021-06-17T07:32:13.000Z</time>
      </trkpt>
      <trkpt lat="47.29422" lon="-2.4022">
        <ele>41.200000762939</ele>
        <time>2021-06-17T07:32:19.000Z</time>
      </trkpt>
      <trkpt lat="47.29396" lon="-2.40234">
        <ele>41.200000762939</ele>
        <time>2021-06-17T07:32:26.000Z</time>
      </trkpt>
      <trkpt lat="47.29368" lon="-2.40252">
        <ele>41.200000762939</ele>
        <time>2021-06-17T07:32:32.000Z</time>
      </trkpt>
      <trkpt lat="47.2935" lon="-2.40271">
        <ele>41.200000762939</ele>
        <time>2021-06-17T07:32:36.000Z</time>
      </trkpt>
      <trkpt lat="47.29345" lon="-2.40275">
        <ele>41.200000762939</ele>
        <time>2021-06-17T07:32:37.000Z</time>
      </trkpt>
      <trkpt lat="47.29318" lon="-2.40304">
        <ele>41.200000762939</ele>
        <time>2021-06-17T07:32:43.000Z</time>
      </trkpt>
      <trkpt lat="47.29294" lon="-2.4033">
        <ele>41.200000762939</ele>
        <time>2021-06-17T07:32:49.000Z</time>
      </trkpt>
      <trkpt lat="47.29287" lon="-2.4034">
        <ele>41.200000762939</ele>
        <time>2021-06-17T07:32:51.000Z</time>
      </trkpt>
      <trkpt lat="47.29284" lon="-2.40355">
        <ele>41.200000762939</ele>
        <time>2021-06-17T07:32:53.000Z</time>
      </trkpt>
      <trkpt lat="47.29291" lon="-2.40378">
        <ele>41.200000762939</ele>
        <time>2021-06-17T07:32:56.000Z</time>
      </trkpt>
      <trkpt lat="47.29294" lon="-2.40385">
        <ele>41.200000762939</ele>
        <time>2021-06-17T07:32:57.000Z</time>
      </trkpt>
      <trkpt lat="47.29305" lon="-2.40405">
        <ele>41.200000762939</ele>
        <time>2021-06-17T07:33:00.000Z</time>
      </trkpt>
      <trkpt lat="47.29305" lon="-2.40413">
        <ele>41.200000762939</ele>
        <time>2021-06-17T07:33:01.000Z</time>
      </trkpt>
      <trkpt lat="47.29299" lon="-2.40433">
        <ele>41.200000762939</ele>
        <time>2021-06-17T07:33:04.000Z</time>
      </trkpt>
      <trkpt lat="47.29296" lon="-2.4044">
        <ele>41.200000762939</ele>
        <time>2021-06-17T07:33:05.000Z</time>
      </trkpt>
      <trkpt lat="47.29288" lon="-2.4046">
        <ele>41.200000762939</ele>
        <time>2021-06-17T07:33:08.000Z</time>
      </trkpt>
      <trkpt lat="47.2928" lon="-2.40469">
        <ele>41.200000762939</ele>
        <time>2021-06-17T07:33:10.000Z</time>
      </trkpt>
      <trkpt lat="47.29263" lon="-2.40476">
        <ele>41.200000762939</ele>
        <time>2021-06-17T07:33:13.000Z</time>
      </trkpt>
      <trkpt lat="47.29258" lon="-2.40478">
        <ele>41.200000762939</ele>
        <time>2021-06-17T07:33:14.000Z</time>
      </trkpt>
      <trkpt lat="47.29224" lon="-2.40496">
        <ele>41.200000762939</ele>
        <time>2021-06-17T07:33:20.000Z</time>
      </trkpt>
      <trkpt lat="47.29194" lon="-2.40513">
        <ele>41.200000762939</ele>
        <time>2021-06-17T07:33:26.000Z</time>
      </trkpt>
      <trkpt lat="47.2918" lon="-2.4052">
        <ele>41.200000762939</ele>
        <time>2021-06-17T07:33:29.000Z</time>
      </trkpt>
      <trkpt lat="47.29171" lon="-2.40518">
        <ele>41.200000762939</ele>
        <time>2021-06-17T07:33:31.000Z</time>
      </trkpt>
      <trkpt lat="47.29165" lon="-2.40501">
        <ele>41.200000762939</ele>
        <time>2021-06-17T07:33:34.000Z</time>
      </trkpt>
      <trkpt lat="47.29156" lon="-2.40488">
        <ele>41.200000762939</ele>
        <time>2021-06-17T07:33:37.000Z</time>
      </trkpt>
      <trkpt lat="47.29141" lon="-2.40486">
        <ele>41.200000762939</ele>
        <time>2021-06-17T07:33:40.000Z</time>
      </trkpt>
      <trkpt lat="47.29127" lon="-2.40493">
        <ele>41.200000762939</ele>
        <time>2021-06-17T07:33:43.000Z</time>
      </trkpt>
      <trkpt lat="47.29117" lon="-2.40499">
        <ele>41.200000762939</ele>
        <time>2021-06-17T07:33:45.000Z</time>
      </trkpt>
      <trkpt lat="47.29109" lon="-2.40506">
        <ele>41.200000762939</ele>
        <time>2021-06-17T07:33:47.000Z</time>
      </trkpt>
      <trkpt lat="47.291" lon="-2.40523">
        <ele>41.200000762939</ele>
        <time>2021-06-17T07:33:50.000Z</time>
      </trkpt>
      <trkpt lat="47.29098" lon="-2.4053">
        <ele>41.599998474121</ele>
        <time>2021-06-17T07:33:51.000Z</time>
      </trkpt>
      <trkpt lat="47.29098" lon="-2.40537">
        <ele>42.400001525879</ele>
        <time>2021-06-17T07:33:52.000Z</time>
      </trkpt>
      <trkpt lat="47.29099" lon="-2.40544">
        <ele>42.799999237061</ele>
        <time>2021-06-17T07:33:53.000Z</time>
      </trkpt>
      <trkpt lat="47.29101" lon="-2.40551">
        <ele>43.200000762939</ele>
        <time>2021-06-17T07:33:54.000Z</time>
      </trkpt>
      <trkpt lat="47.2911" lon="-2.40561">
        <ele>43.200000762939</ele>
        <time>2021-06-17T07:33:56.000Z</time>
      </trkpt>
      <trkpt lat="47.29115" lon="-2.40566">
        <ele>43.200000762939</ele>
        <time>2021-06-17T07:33:57.000Z</time>
      </trkpt>
      <trkpt lat="47.29128" lon="-2.40582">
        <ele>43.200000762939</ele>
        <time>2021-06-17T07:34:00.000Z</time>
      </trkpt>
      <trkpt lat="47.29135" lon="-2.40595">
        <ele>43.200000762939</ele>
        <time>2021-06-17T07:34:02.000Z</time>
      </trkpt>
      <trkpt lat="47.29139" lon="-2.40607">
        <ele>43.200000762939</ele>
        <time>2021-06-17T07:34:04.000Z</time>
      </trkpt>
      <trkpt lat="47.29142" lon="-2.40625">
        <ele>43.200000762939</ele>
        <time>2021-06-17T07:34:07.000Z</time>
      </trkpt>
      <trkpt lat="47.29142" lon="-2.40631">
        <ele>43.200000762939</ele>
        <time>2021-06-17T07:34:08.000Z</time>
      </trkpt>
      <trkpt lat="47.29144" lon="-2.40641">
        <ele>43.200000762939</ele>
        <time>2021-06-17T07:34:11.000Z</time>
      </trkpt>
      <trkpt lat="47.29146" lon="-2.40642">
        <ele>43.200000762939</ele>
        <time>2021-06-17T07:34:12.000Z</time>
      </trkpt>
      <trkpt lat="47.29151" lon="-2.40644">
        <ele>43.200000762939</ele>
        <time>2021-06-17T07:34:15.000Z</time>
      </trkpt>
      <trkpt lat="47.29158" lon="-2.40641">
        <ele>43.200000762939</ele>
        <time>2021-06-17T07:34:18.000Z</time>
      </trkpt>
      <trkpt lat="47.29165" lon="-2.40636">
        <ele>43.200000762939</ele>
        <time>2021-06-17T07:34:21.000Z</time>
      </trkpt>
      <trkpt lat="47.29184" lon="-2.40621">
        <ele>43.200000762939</ele>
        <time>2021-06-17T07:34:27.000Z</time>
      </trkpt>
      <trkpt lat="47.29199" lon="-2.40611">
        <ele>43.200000762939</ele>
        <time>2021-06-17T07:34:31.000Z</time>
      </trkpt>
      <trkpt lat="47.29204" lon="-2.40612">
        <ele>43.200000762939</ele>
        <time>2021-06-17T07:34:32.000Z</time>
      </trkpt>
      <trkpt lat="47.29216" lon="-2.40626">
        <ele>43.200000762939</ele>
        <time>2021-06-17T07:34:35.000Z</time>
      </trkpt>
      <trkpt lat="47.2922" lon="-2.40632">
        <ele>43.200000762939</ele>
        <time>2021-06-17T07:34:36.000Z</time>
      </trkpt>
      <trkpt lat="47.29227" lon="-2.40645">
        <ele>43.200000762939</ele>
        <time>2021-06-17T07:34:38.000Z</time>
      </trkpt>
      <trkpt lat="47.29233" lon="-2.40665">
        <ele>43.200000762939</ele>
        <time>2021-06-17T07:34:41.000Z</time>
      </trkpt>
      <trkpt lat="47.29231" lon="-2.40693">
        <ele>43.200000762939</ele>
        <time>2021-06-17T07:34:45.000Z</time>
      </trkpt>
      <trkpt lat="47.29227" lon="-2.40704">
        <ele>43.200000762939</ele>
        <time>2021-06-17T07:34:47.000Z</time>
      </trkpt>
      <trkpt lat="47.29224" lon="-2.4071">
        <ele>43.200000762939</ele>
        <time>2021-06-17T07:34:48.000Z</time>
      </trkpt>
      <trkpt lat="47.29215" lon="-2.40725">
        <ele>43.200000762939</ele>
        <time>2021-06-17T07:34:51.000Z</time>
      </trkpt>
      <trkpt lat="47.29193" lon="-2.40757">
        <ele>43.200000762939</ele>
        <time>2021-06-17T07:34:57.000Z</time>
      </trkpt>
      <trkpt lat="47.29183" lon="-2.40785">
        <ele>43.200000762939</ele>
        <time>2021-06-17T07:35:01.000Z</time>
      </trkpt>
      <trkpt lat="47.29173" lon="-2.40813">
        <ele>43.200000762939</ele>
        <time>2021-06-17T07:35:05.000Z</time>
      </trkpt>
      <trkpt lat="47.29171" lon="-2.40828">
        <ele>43.200000762939</ele>
        <time>2021-06-17T07:35:07.000Z</time>
      </trkpt>
      <trkpt lat="47.29173" lon="-2.40852">
        <ele>43.200000762939</ele>
        <time>2021-06-17T07:35:10.000Z</time>
      </trkpt>
      <trkpt lat="47.29173" lon="-2.40859">
        <ele>43.200000762939</ele>
        <time>2021-06-17T07:35:11.000Z</time>
      </trkpt>
      <trkpt lat="47.29168" lon="-2.40889">
        <ele>43.200000762939</ele>
        <time>2021-06-17T07:35:15.000Z</time>
      </trkpt>
      <trkpt lat="47.29163" lon="-2.40925">
        <ele>43.200000762939</ele>
        <time>2021-06-17T07:35:20.000Z</time>
      </trkpt>
      <trkpt lat="47.29171" lon="-2.40942">
        <ele>43.200000762939</ele>
        <time>2021-06-17T07:35:23.000Z</time>
      </trkpt>
      <trkpt lat="47.29185" lon="-2.40947">
        <ele>43.200000762939</ele>
        <time>2021-06-17T07:35:26.000Z</time>
      </trkpt>
      <trkpt lat="47.2919" lon="-2.40948">
        <ele>43.200000762939</ele>
        <time>2021-06-17T07:35:27.000Z</time>
      </trkpt>
      <trkpt lat="47.29204" lon="-2.40953">
        <ele>43.200000762939</ele>
        <time>2021-06-17T07:35:30.000Z</time>
      </trkpt>
      <trkpt lat="47.29212" lon="-2.40962">
        <ele>43.200000762939</ele>
        <time>2021-06-17T07:35:32.000Z</time>
      </trkpt>
      <trkpt lat="47.29223" lon="-2.40987">
        <ele>43.200000762939</ele>
        <time>2021-06-17T07:35:36.000Z</time>
      </trkpt>
      <trkpt lat="47.29245" lon="-2.41029">
        <ele>43.200000762939</ele>
        <time>2021-06-17T07:35:43.000Z</time>
      </trkpt>
      <trkpt lat="47.29256" lon="-2.41044">
        <ele>43.200000762939</ele>
        <time>2021-06-17T07:35:46.000Z</time>
      </trkpt>
      <trkpt lat="47.29257" lon="-2.41057">
        <ele>43.200000762939</ele>
        <time>2021-06-17T07:35:48.000Z</time>
      </trkpt>
      <trkpt lat="47.29248" lon="-2.41075">
        <ele>43.200000762939</ele>
        <time>2021-06-17T07:35:51.000Z</time>
      </trkpt>
      <trkpt lat="47.29248" lon="-2.41089">
        <ele>43.200000762939</ele>
        <time>2021-06-17T07:35:53.000Z</time>
      </trkpt>
      <trkpt lat="47.29254" lon="-2.41101">
        <ele>43.200000762939</ele>
        <time>2021-06-17T07:35:55.000Z</time>
      </trkpt>
      <trkpt lat="47.29261" lon="-2.41112">
        <ele>43.200000762939</ele>
        <time>2021-06-17T07:35:57.000Z</time>
      </trkpt>
      <trkpt lat="47.29286" lon="-2.41143">
        <ele>43.200000762939</ele>
        <time>2021-06-17T07:36:03.000Z</time>
      </trkpt>
      <trkpt lat="47.29302" lon="-2.4118">
        <ele>43.200000762939</ele>
        <time>2021-06-17T07:36:09.000Z</time>
      </trkpt>
      <trkpt lat="47.29305" lon="-2.41186">
        <ele>43.200000762939</ele>
        <time>2021-06-17T07:36:10.000Z</time>
      </trkpt>
      <trkpt lat="47.29317" lon="-2.41203">
        <ele>43.200000762939</ele>
        <time>2021-06-17T07:36:13.000Z</time>
      </trkpt>
      <trkpt lat="47.29348" lon="-2.41239">
        <ele>43.200000762939</ele>
        <time>2021-06-17T07:36:20.000Z</time>
      </trkpt>
      <trkpt lat="47.29352" lon="-2.41244">
        <ele>43.200000762939</ele>
        <time>2021-06-17T07:36:21.000Z</time>
      </trkpt>
      <trkpt lat="47.29358" lon="-2.41264">
        <ele>43.200000762939</ele>
        <time>2021-06-17T07:36:24.000Z</time>
      </trkpt>
      <trkpt lat="47.29359" lon="-2.41278">
        <ele>43.200000762939</ele>
        <time>2021-06-17T07:36:26.000Z</time>
      </trkpt>
      <trkpt lat="47.29362" lon="-2.41304">
        <ele>43.200000762939</ele>
        <time>2021-06-17T07:36:30.000Z</time>
      </trkpt>
      <trkpt lat="47.29353" lon="-2.41327">
        <ele>43.200000762939</ele>
        <time>2021-06-17T07:36:34.000Z</time>
      </trkpt>
      <trkpt lat="47.29349" lon="-2.41339">
        <ele>43.200000762939</ele>
        <time>2021-06-17T07:36:36.000Z</time>
      </trkpt>
      <trkpt lat="47.2935" lon="-2.41352">
        <ele>43.200000762939</ele>
        <time>2021-06-17T07:36:38.000Z</time>
      </trkpt>
      <trkpt lat="47.29362" lon="-2.41373">
        <ele>43.200000762939</ele>
        <time>2021-06-17T07:36:42.000Z</time>
      </trkpt>
      <trkpt lat="47.29366" lon="-2.41377">
        <ele>43.200000762939</ele>
        <time>2021-06-17T07:36:43.000Z</time>
      </trkpt>
      <trkpt lat="47.29386" lon="-2.41407">
        <ele>43.200000762939</ele>
        <time>2021-06-17T07:36:49.000Z</time>
      </trkpt>
      <trkpt lat="47.29402" lon="-2.41443">
        <ele>43.200000762939</ele>
        <time>2021-06-17T07:36:55.000Z</time>
      </trkpt>
      <trkpt lat="47.29423" lon="-2.41475">
        <ele>43.200000762939</ele>
        <time>2021-06-17T07:37:01.000Z</time>
      </trkpt>
      <trkpt lat="47.29434" lon="-2.41487">
        <ele>43.200000762939</ele>
        <time>2021-06-17T07:37:04.000Z</time>
      </trkpt>
      <trkpt lat="47.29443" lon="-2.41489">
        <ele>43.200000762939</ele>
        <time>2021-06-17T07:37:06.000Z</time>
      </trkpt>
      <trkpt lat="47.29452" lon="-2.41488">
        <ele>43.599998474121</ele>
        <time>2021-06-17T07:37:08.000Z</time>
      </trkpt>
      <trkpt lat="47.29456" lon="-2.41487">
        <ele>44</ele>
        <time>2021-06-17T07:37:09.000Z</time>
      </trkpt>
      <trkpt lat="47.29461" lon="-2.41485">
        <ele>44.400001525879</ele>
        <time>2021-06-17T07:37:10.000Z</time>
      </trkpt>
      <trkpt lat="47.29466" lon="-2.41484">
        <ele>44.799999237061</ele>
        <time>2021-06-17T07:37:11.000Z</time>
      </trkpt>
      <trkpt lat="47.29471" lon="-2.41484">
        <ele>45.200000762939</ele>
        <time>2021-06-17T07:37:12.000Z</time>
      </trkpt>
      <trkpt lat="47.2948" lon="-2.41487">
        <ele>45.200000762939</ele>
        <time>2021-06-17T07:37:14.000Z</time>
      </trkpt>
      <trkpt lat="47.29499" lon="-2.41482">
        <ele>45.200000762939</ele>
        <time>2021-06-17T07:37:18.000Z</time>
      </trkpt>
      <trkpt lat="47.29503" lon="-2.41479">
        <ele>45.200000762939</ele>
        <time>2021-06-17T07:37:19.000Z</time>
      </trkpt>
      <trkpt lat="47.29512" lon="-2.41477">
        <ele>45.200000762939</ele>
        <time>2021-06-17T07:37:21.000Z</time>
      </trkpt>
      <trkpt lat="47.29517" lon="-2.41479">
        <ele>45.200000762939</ele>
        <time>2021-06-17T07:37:22.000Z</time>
      </trkpt>
      <trkpt lat="47.29528" lon="-2.41494">
        <ele>45.200000762939</ele>
        <time>2021-06-17T07:37:25.000Z</time>
      </trkpt>
      <trkpt lat="47.29542" lon="-2.41526">
        <ele>45.200000762939</ele>
        <time>2021-06-17T07:37:30.000Z</time>
      </trkpt>
      <trkpt lat="47.29544" lon="-2.41533">
        <ele>45.200000762939</ele>
        <time>2021-06-17T07:37:31.000Z</time>
      </trkpt>
      <trkpt lat="47.2954" lon="-2.41556">
        <ele>45.200000762939</ele>
        <time>2021-06-17T07:37:34.000Z</time>
      </trkpt>
      <trkpt lat="47.29532" lon="-2.41578">
        <ele>45.200000762939</ele>
        <time>2021-06-17T07:37:37.000Z</time>
      </trkpt>
      <trkpt lat="47.2953" lon="-2.41585">
        <ele>45.200000762939</ele>
        <time>2021-06-17T07:37:38.000Z</time>
      </trkpt>
      <trkpt lat="47.29529" lon="-2.41592">
        <ele>45.200000762939</ele>
        <time>2021-06-17T07:37:39.000Z</time>
      </trkpt>
      <trkpt lat="47.29528" lon="-2.41622">
        <ele>45.200000762939</ele>
        <time>2021-06-17T07:37:43.000Z</time>
      </trkpt>
      <trkpt lat="47.29529" lon="-2.41628">
        <ele>45.200000762939</ele>
        <time>2021-06-17T07:37:44.000Z</time>
      </trkpt>
      <trkpt lat="47.29538" lon="-2.41666">
        <ele>45.200000762939</ele>
        <time>2021-06-17T07:37:50.000Z</time>
      </trkpt>
      <trkpt lat="47.29556" lon="-2.41704">
        <ele>45.200000762939</ele>
        <time>2021-06-17T07:37:57.000Z</time>
      </trkpt>
      <trkpt lat="47.2956" lon="-2.41708">
        <ele>45.200000762939</ele>
        <time>2021-06-17T07:37:58.000Z</time>
      </trkpt>
      <trkpt lat="47.29573" lon="-2.41714">
        <ele>45.200000762939</ele>
        <time>2021-06-17T07:38:01.000Z</time>
      </trkpt>
      <trkpt lat="47.29583" lon="-2.41719">
        <ele>45.200000762939</ele>
        <time>2021-06-17T07:38:03.000Z</time>
      </trkpt>
      <trkpt lat="47.29598" lon="-2.41731">
        <ele>45.200000762939</ele>
        <time>2021-06-17T07:38:06.000Z</time>
      </trkpt>
      <trkpt lat="47.29629" lon="-2.41766">
        <ele>45.200000762939</ele>
        <time>2021-06-17T07:38:13.000Z</time>
      </trkpt>
      <trkpt lat="47.29632" lon="-2.41772">
        <ele>45.200000762939</ele>
        <time>2021-06-17T07:38:14.000Z</time>
      </trkpt>
      <trkpt lat="47.29639" lon="-2.41792">
        <ele>45.200000762939</ele>
        <time>2021-06-17T07:38:17.000Z</time>
      </trkpt>
      <trkpt lat="47.29645" lon="-2.4182">
        <ele>45.200000762939</ele>
        <time>2021-06-17T07:38:21.000Z</time>
      </trkpt>
      <trkpt lat="47.29658" lon="-2.41829">
        <ele>45.200000762939</ele>
        <time>2021-06-17T07:38:24.000Z</time>
      </trkpt>
      <trkpt lat="47.29674" lon="-2.41824">
        <ele>45.200000762939</ele>
        <time>2021-06-17T07:38:27.000Z</time>
      </trkpt>
      <trkpt lat="47.29679" lon="-2.41823">
        <ele>45.200000762939</ele>
        <time>2021-06-17T07:38:28.000Z</time>
      </trkpt>
      <trkpt lat="47.29703" lon="-2.41814">
        <ele>45.200000762939</ele>
        <time>2021-06-17T07:38:33.000Z</time>
      </trkpt>
      <trkpt lat="47.29714" lon="-2.41796">
        <ele>45.200000762939</ele>
        <time>2021-06-17T07:38:36.000Z</time>
      </trkpt>
      <trkpt lat="47.29717" lon="-2.41791">
        <ele>45.200000762939</ele>
        <time>2021-06-17T07:38:37.000Z</time>
      </trkpt>
      <trkpt lat="47.29732" lon="-2.41765">
        <ele>45.200000762939</ele>
        <time>2021-06-17T07:38:43.000Z</time>
      </trkpt>
      <trkpt lat="47.2975" lon="-2.41751">
        <ele>45.200000762939</ele>
        <time>2021-06-17T07:38:49.000Z</time>
      </trkpt>
      <trkpt lat="47.29764" lon="-2.41747">
        <ele>45.200000762939</ele>
        <time>2021-06-17T07:38:55.000Z</time>
      </trkpt>
      <trkpt lat="47.29769" lon="-2.41758">
        <ele>45.200000762939</ele>
        <time>2021-06-17T07:38:59.000Z</time>
      </trkpt>
      <trkpt lat="47.29773" lon="-2.41781">
        <ele>45.200000762939</ele>
        <time>2021-06-17T07:39:04.000Z</time>
      </trkpt>
      <trkpt lat="47.29775" lon="-2.41805">
        <ele>45.200000762939</ele>
        <time>2021-06-17T07:39:08.000Z</time>
      </trkpt>
      <trkpt lat="47.29775" lon="-2.41811">
        <ele>45.599998474121</ele>
        <time>2021-06-17T07:39:09.000Z</time>
      </trkpt>
      <trkpt lat="47.29774" lon="-2.41816">
        <ele>46</ele>
        <time>2021-06-17T07:39:10.000Z</time>
      </trkpt>
      <trkpt lat="47.29774" lon="-2.41821">
        <ele>46.599998474121</ele>
        <time>2021-06-17T07:39:11.000Z</time>
      </trkpt>
      <trkpt lat="47.29774" lon="-2.41825">
        <ele>47.400001525879</ele>
        <time>2021-06-17T07:39:12.000Z</time>
      </trkpt>
      <trkpt lat="47.29775" lon="-2.41828">
        <ele>47.400001525879</ele>
        <time>2021-06-17T07:39:13.000Z</time>
      </trkpt>
      <trkpt lat="47.29778" lon="-2.4183">
        <ele>47.400001525879</ele>
        <time>2021-06-17T07:39:14.000Z</time>
      </trkpt>
      <trkpt lat="47.29787" lon="-2.41825">
        <ele>47.400001525879</ele>
        <time>2021-06-17T07:39:17.000Z</time>
      </trkpt>
      <trkpt lat="47.29807" lon="-2.41808">
        <ele>47.400001525879</ele>
        <time>2021-06-17T07:39:23.000Z</time>
      </trkpt>
      <trkpt lat="47.29811" lon="-2.41804">
        <ele>47.400001525879</ele>
        <time>2021-06-17T07:39:24.000Z</time>
      </trkpt>
      <trkpt lat="47.29822" lon="-2.41792">
        <ele>47.400001525879</ele>
        <time>2021-06-17T07:39:27.000Z</time>
      </trkpt>
      <trkpt lat="47.29825" lon="-2.41787">
        <ele>47.400001525879</ele>
        <time>2021-06-17T07:39:28.000Z</time>
      </trkpt>
      <trkpt lat="47.29837" lon="-2.41771">
        <ele>47.400001525879</ele>
        <time>2021-06-17T07:39:31.000Z</time>
      </trkpt>
      <trkpt lat="47.29846" lon="-2.41763">
        <ele>47.400001525879</ele>
        <time>2021-06-17T07:39:33.000Z</time>
      </trkpt>
      <trkpt lat="47.29867" lon="-2.41762">
        <ele>47.400001525879</ele>
        <time>2021-06-17T07:39:37.000Z</time>
      </trkpt>
      <trkpt lat="47.29895" lon="-2.41764">
        <ele>47.400001525879</ele>
        <time>2021-06-17T07:39:41.000Z</time>
      </trkpt>
      <trkpt lat="47.29895" lon="-2.41764">
        <ele>47.400001525879</ele>
        <time>2021-06-17T07:39:42.000Z</time>
      </trkpt>
      <trkpt lat="47.299" lon="-2.41759">
        <ele>47.400001525879</ele>
        <time>2021-06-17T07:39:43.000Z</time>
      </trkpt>
      <trkpt lat="47.29914" lon="-2.41744">
        <ele>47.400001525879</ele>
        <time>2021-06-17T07:39:46.000Z</time>
      </trkpt>
      <trkpt lat="47.29932" lon="-2.41727">
        <ele>47.400001525879</ele>
        <time>2021-06-17T07:39:50.000Z</time>
      </trkpt>
      <trkpt lat="47.29939" lon="-2.41713">
        <ele>47.400001525879</ele>
        <time>2021-06-17T07:39:52.000Z</time>
      </trkpt>
      <trkpt lat="47.29939" lon="-2.4169">
        <ele>47.400001525879</ele>
        <time>2021-06-17T07:39:55.000Z</time>
      </trkpt>
      <trkpt lat="47.29937" lon="-2.41682">
        <ele>47.400001525879</ele>
        <time>2021-06-17T07:39:56.000Z</time>
      </trkpt>
      <trkpt lat="47.29929" lon="-2.41634">
        <ele>47.400001525879</ele>
        <time>2021-06-17T07:40:02.000Z</time>
      </trkpt>
      <trkpt lat="47.2993" lon="-2.41627">
        <ele>47.400001525879</ele>
        <time>2021-06-17T07:40:03.000Z</time>
      </trkpt>
      <trkpt lat="47.29929" lon="-2.41589">
        <ele>47.400001525879</ele>
        <time>2021-06-17T07:40:08.000Z</time>
      </trkpt>
      <trkpt lat="47.29926" lon="-2.41555">
        <ele>47.400001525879</ele>
        <time>2021-06-17T07:40:13.000Z</time>
      </trkpt>
      <trkpt lat="47.29927" lon="-2.41549">
        <ele>47.400001525879</ele>
        <time>2021-06-17T07:40:14.000Z</time>
      </trkpt>
      <trkpt lat="47.29937" lon="-2.41528">
        <ele>47.400001525879</ele>
        <time>2021-06-17T07:40:18.000Z</time>
      </trkpt>
      <trkpt lat="47.29942" lon="-2.41527">
        <ele>47.799999237061</ele>
        <time>2021-06-17T07:40:19.000Z</time>
      </trkpt>
      <trkpt lat="47.29947" lon="-2.41526">
        <ele>48.200000762939</ele>
        <time>2021-06-17T07:40:20.000Z</time>
      </trkpt>
      <trkpt lat="47.29952" lon="-2.41526">
        <ele>48.599998474121</ele>
        <time>2021-06-17T07:40:21.000Z</time>
      </trkpt>
      <trkpt lat="47.29958" lon="-2.41526">
        <ele>49</ele>
        <time>2021-06-17T07:40:22.000Z</time>
      </trkpt>
      <trkpt lat="47.29963" lon="-2.41526">
        <ele>49.400001525879</ele>
        <time>2021-06-17T07:40:23.000Z</time>
      </trkpt>
      <trkpt lat="47.2999" lon="-2.41523">
        <ele>49.400001525879</ele>
        <time>2021-06-17T07:40:28.000Z</time>
      </trkpt>
      <trkpt lat="47.30025" lon="-2.4151">
        <ele>49.400001525879</ele>
        <time>2021-06-17T07:40:34.000Z</time>
      </trkpt>
      <trkpt lat="47.30046" lon="-2.41497">
        <ele>49.799999237061</ele>
        <time>2021-06-17T07:40:38.000Z</time>
      </trkpt>
      <trkpt lat="47.30052" lon="-2.41494">
        <ele>50.200000762939</ele>
        <time>2021-06-17T07:40:39.000Z</time>
      </trkpt>
      <trkpt lat="47.30057" lon="-2.4149">
        <ele>50.599998474121</ele>
        <time>2021-06-17T07:40:40.000Z</time>
      </trkpt>
      <trkpt lat="47.30063" lon="-2.41487">
        <ele>51</ele>
        <time>2021-06-17T07:40:41.000Z</time>
      </trkpt>
      <trkpt lat="47.30068" lon="-2.41484">
        <ele>51.400001525879</ele>
        <time>2021-06-17T07:40:42.000Z</time>
      </trkpt>
      <trkpt lat="47.30096" lon="-2.41467">
        <ele>51.400001525879</ele>
        <time>2021-06-17T07:40:47.000Z</time>
      </trkpt>
      <trkpt lat="47.30136" lon="-2.41438">
        <ele>51.400001525879</ele>
        <time>2021-06-17T07:40:55.000Z</time>
      </trkpt>
      <trkpt lat="47.30149" lon="-2.41411">
        <ele>51.400001525879</ele>
        <time>2021-06-17T07:40:59.000Z</time>
      </trkpt>
      <trkpt lat="47.30174" lon="-2.41352">
        <ele>51.400001525879</ele>
        <time>2021-06-17T07:41:07.000Z</time>
      </trkpt>
      <trkpt lat="47.302" lon="-2.41295">
        <ele>51.400001525879</ele>
        <time>2021-06-17T07:41:15.000Z</time>
      </trkpt>
      <trkpt lat="47.30209" lon="-2.41283">
        <ele>51.400001525879</ele>
        <time>2021-06-17T07:41:17.000Z</time>
      </trkpt>
      <trkpt lat="47.30222" lon="-2.41266">
        <ele>51.400001525879</ele>
        <time>2021-06-17T07:41:20.000Z</time>
      </trkpt>
      <trkpt lat="47.30249" lon="-2.4123">
        <ele>51.400001525879</ele>
        <time>2021-06-17T07:41:26.000Z</time>
      </trkpt>
      <trkpt lat="47.30269" lon="-2.41188">
        <ele>51.400001525879</ele>
        <time>2021-06-17T07:41:32.000Z</time>
      </trkpt>
      <trkpt lat="47.30286" lon="-2.41153">
        <ele>51.400001525879</ele>
        <time>2021-06-17T07:41:37.000Z</time>
      </trkpt>
      <trkpt lat="47.3029" lon="-2.41147">
        <ele>51.400001525879</ele>
        <time>2021-06-17T07:41:38.000Z</time>
      </trkpt>
      <trkpt lat="47.303" lon="-2.41132">
        <ele>51</ele>
        <time>2021-06-17T07:41:41.000Z</time>
      </trkpt>
      <trkpt lat="47.30304" lon="-2.4113">
        <ele>50.599998474121</ele>
        <time>2021-06-17T07:41:42.000Z</time>
      </trkpt>
      <trkpt lat="47.30309" lon="-2.41129">
        <ele>50.200000762939</ele>
        <time>2021-06-17T07:41:43.000Z</time>
      </trkpt>
      <trkpt lat="47.30313" lon="-2.4113">
        <ele>49.799999237061</ele>
        <time>2021-06-17T07:41:44.000Z</time>
      </trkpt>
      <trkpt lat="47.30318" lon="-2.41132">
        <ele>49.400001525879</ele>
        <time>2021-06-17T07:41:45.000Z</time>
      </trkpt>
      <trkpt lat="47.30351" lon="-2.41147">
        <ele>49.400001525879</ele>
        <time>2021-06-17T07:41:51.000Z</time>
      </trkpt>
      <trkpt lat="47.3037" lon="-2.41154">
        <ele>49.400001525879</ele>
        <time>2021-06-17T07:41:54.000Z</time>
      </trkpt>
      <trkpt lat="47.30388" lon="-2.41156">
        <ele>49.400001525879</ele>
        <time>2021-06-17T07:41:57.000Z</time>
      </trkpt>
      <trkpt lat="47.30419" lon="-2.41153">
        <ele>49.400001525879</ele>
        <time>2021-06-17T07:42:02.000Z</time>
      </trkpt>
      <trkpt lat="47.30425" lon="-2.41153">
        <ele>49.400001525879</ele>
        <time>2021-06-17T07:42:03.000Z</time>
      </trkpt>
      <trkpt lat="47.30443" lon="-2.4116">
        <ele>49.400001525879</ele>
        <time>2021-06-17T07:42:06.000Z</time>
      </trkpt>
      <trkpt lat="47.30457" lon="-2.41178">
        <ele>49.400001525879</ele>
        <time>2021-06-17T07:42:09.000Z</time>
      </trkpt>
      <trkpt lat="47.30462" lon="-2.41203">
        <ele>49.400001525879</ele>
        <time>2021-06-17T07:42:12.000Z</time>
      </trkpt>
      <trkpt lat="47.30463" lon="-2.41213">
        <ele>49.400001525879</ele>
        <time>2021-06-17T07:42:13.000Z</time>
      </trkpt>
      <trkpt lat="47.3047" lon="-2.41271">
        <ele>49.400001525879</ele>
        <time>2021-06-17T07:42:19.000Z</time>
      </trkpt>
      <trkpt lat="47.30485" lon="-2.41338">
        <ele>49.400001525879</ele>
        <time>2021-06-17T07:42:26.000Z</time>
      </trkpt>
      <trkpt lat="47.30498" lon="-2.414">
        <ele>49.400001525879</ele>
        <time>2021-06-17T07:42:33.000Z</time>
      </trkpt>
      <trkpt lat="47.30508" lon="-2.41453">
        <ele>49.400001525879</ele>
        <time>2021-06-17T07:42:39.000Z</time>
      </trkpt>
      <trkpt lat="47.30507" lon="-2.4146">
        <ele>49.400001525879</ele>
        <time>2021-06-17T07:42:40.000Z</time>
      </trkpt>
      <trkpt lat="47.30498" lon="-2.41483">
        <ele>49.400001525879</ele>
        <time>2021-06-17T07:42:43.000Z</time>
      </trkpt>
      <trkpt lat="47.3049" lon="-2.415">
        <ele>49.400001525879</ele>
        <time>2021-06-17T07:42:45.000Z</time>
      </trkpt>
      <trkpt lat="47.30488" lon="-2.41519">
        <ele>49.400001525879</ele>
        <time>2021-06-17T07:42:47.000Z</time>
      </trkpt>
      <trkpt lat="47.30493" lon="-2.41547">
        <ele>49.400001525879</ele>
        <time>2021-06-17T07:42:50.000Z</time>
      </trkpt>
      <trkpt lat="47.30496" lon="-2.41555">
        <ele>49.400001525879</ele>
        <time>2021-06-17T07:42:51.000Z</time>
      </trkpt>
      <trkpt lat="47.30501" lon="-2.41572">
        <ele>49.400001525879</ele>
        <time>2021-06-17T07:42:53.000Z</time>
      </trkpt>
      <trkpt lat="47.30503" lon="-2.4158">
        <ele>49.400001525879</ele>
        <time>2021-06-17T07:42:54.000Z</time>
      </trkpt>
      <trkpt lat="47.30508" lon="-2.41615">
        <ele>49.400001525879</ele>
        <time>2021-06-17T07:42:58.000Z</time>
      </trkpt>
      <trkpt lat="47.30513" lon="-2.41652">
        <ele>49.400001525879</ele>
        <time>2021-06-17T07:43:02.000Z</time>
      </trkpt>
      <trkpt lat="47.30516" lon="-2.4166">
        <ele>49.400001525879</ele>
        <time>2021-06-17T07:43:03.000Z</time>
      </trkpt>
      <trkpt lat="47.30526" lon="-2.41681">
        <ele>49.400001525879</ele>
        <time>2021-06-17T07:43:06.000Z</time>
      </trkpt>
      <trkpt lat="47.30535" lon="-2.41694">
        <ele>49.400001525879</ele>
        <time>2021-06-17T07:43:08.000Z</time>
      </trkpt>
      <trkpt lat="47.30567" lon="-2.4174">
        <ele>49.400001525879</ele>
        <time>2021-06-17T07:43:15.000Z</time>
      </trkpt>
      <trkpt lat="47.30587" lon="-2.41785">
        <ele>49.400001525879</ele>
        <time>2021-06-17T07:43:21.000Z</time>
      </trkpt>
      <trkpt lat="47.30612" lon="-2.41848">
        <ele>49.400001525879</ele>
        <time>2021-06-17T07:43:29.000Z</time>
      </trkpt>
      <trkpt lat="47.30638" lon="-2.41911">
        <ele>49.400001525879</ele>
        <time>2021-06-17T07:43:37.000Z</time>
      </trkpt>
      <trkpt lat="47.30652" lon="-2.41964">
        <ele>49.400001525879</ele>
        <time>2021-06-17T07:43:43.000Z</time>
      </trkpt>
      <trkpt lat="47.30655" lon="-2.41972">
        <ele>49.400001525879</ele>
        <time>2021-06-17T07:43:44.000Z</time>
      </trkpt>
      <trkpt lat="47.30668" lon="-2.41993">
        <ele>49.400001525879</ele>
        <time>2021-06-17T07:43:47.000Z</time>
      </trkpt>
      <trkpt lat="47.30673" lon="-2.41999">
        <ele>49.400001525879</ele>
        <time>2021-06-17T07:43:48.000Z</time>
      </trkpt>
      <trkpt lat="47.30706" lon="-2.42038">
        <ele>49.400001525879</ele>
        <time>2021-06-17T07:43:55.000Z</time>
      </trkpt>
      <trkpt lat="47.30737" lon="-2.42064">
        <ele>49.400001525879</ele>
        <time>2021-06-17T07:44:01.000Z</time>
      </trkpt>
      <trkpt lat="47.30753" lon="-2.42092">
        <ele>49.400001525879</ele>
        <time>2021-06-17T07:44:05.000Z</time>
      </trkpt>
      <trkpt lat="47.30782" lon="-2.42149">
        <ele>49.400001525879</ele>
        <time>2021-06-17T07:44:13.000Z</time>
      </trkpt>
      <trkpt lat="47.30805" lon="-2.42189">
        <ele>49.400001525879</ele>
        <time>2021-06-17T07:44:19.000Z</time>
      </trkpt>
      <trkpt lat="47.3081" lon="-2.42194">
        <ele>49.400001525879</ele>
        <time>2021-06-17T07:44:20.000Z</time>
      </trkpt>
      <trkpt lat="47.30819" lon="-2.42204">
        <ele>49.400001525879</ele>
        <time>2021-06-17T07:44:22.000Z</time>
      </trkpt>
      <trkpt lat="47.30831" lon="-2.42207">
        <ele>49.400001525879</ele>
        <time>2021-06-17T07:44:24.000Z</time>
      </trkpt>
      <trkpt lat="47.3085" lon="-2.42211">
        <ele>49.400001525879</ele>
        <time>2021-06-17T07:44:28.000Z</time>
      </trkpt>
      <trkpt lat="47.30862" lon="-2.42206">
        <ele>49.400001525879</ele>
        <time>2021-06-17T07:44:31.000Z</time>
      </trkpt>
      <trkpt lat="47.30877" lon="-2.42212">
        <ele>49.400001525879</ele>
        <time>2021-06-17T07:44:35.000Z</time>
      </trkpt>
      <trkpt lat="47.30885" lon="-2.42222">
        <ele>49.400001525879</ele>
        <time>2021-06-17T07:44:37.000Z</time>
      </trkpt>
      <trkpt lat="47.30893" lon="-2.42234">
        <ele>49.400001525879</ele>
        <time>2021-06-17T07:44:39.000Z</time>
      </trkpt>
      <trkpt lat="47.30897" lon="-2.4224">
        <ele>49.400001525879</ele>
        <time>2021-06-17T07:44:40.000Z</time>
      </trkpt>
      <trkpt lat="47.30906" lon="-2.42251">
        <ele>49.400001525879</ele>
        <time>2021-06-17T07:44:42.000Z</time>
      </trkpt>
      <trkpt lat="47.30911" lon="-2.42254">
        <ele>49.400001525879</ele>
        <time>2021-06-17T07:44:43.000Z</time>
      </trkpt>
      <trkpt lat="47.30932" lon="-2.42268">
        <ele>49.400001525879</ele>
        <time>2021-06-17T07:44:47.000Z</time>
      </trkpt>
      <trkpt lat="47.30938" lon="-2.42273">
        <ele>49.400001525879</ele>
        <time>2021-06-17T07:44:48.000Z</time>
      </trkpt>
      <trkpt lat="47.30948" lon="-2.42295">
        <ele>49.400001525879</ele>
        <time>2021-06-17T07:44:51.000Z</time>
      </trkpt>
      <trkpt lat="47.3095" lon="-2.42303">
        <ele>49.400001525879</ele>
        <time>2021-06-17T07:44:52.000Z</time>
      </trkpt>
      <trkpt lat="47.3096" lon="-2.42355">
        <ele>49.400001525879</ele>
        <time>2021-06-17T07:44:58.000Z</time>
      </trkpt>
      <trkpt lat="47.30976" lon="-2.42422">
        <ele>49.400001525879</ele>
        <time>2021-06-17T07:45:06.000Z</time>
      </trkpt>
      <trkpt lat="47.30987" lon="-2.42463">
        <ele>49.799999237061</ele>
        <time>2021-06-17T07:45:11.000Z</time>
      </trkpt>
      <trkpt lat="47.30989" lon="-2.42472">
        <ele>50.200000762939</ele>
        <time>2021-06-17T07:45:12.000Z</time>
      </trkpt>
      <trkpt lat="47.30991" lon="-2.4248">
        <ele>50.599998474121</ele>
        <time>2021-06-17T07:45:13.000Z</time>
      </trkpt>
      <trkpt lat="47.30993" lon="-2.42488">
        <ele>51</ele>
        <time>2021-06-17T07:45:14.000Z</time>
      </trkpt>
      <trkpt lat="47.30995" lon="-2.42497">
        <ele>51.400001525879</ele>
        <time>2021-06-17T07:45:15.000Z</time>
      </trkpt>
      <trkpt lat="47.31007" lon="-2.42549">
        <ele>51.400001525879</ele>
        <time>2021-06-17T07:45:21.000Z</time>
      </trkpt>
      <trkpt lat="47.31026" lon="-2.42625">
        <ele>51.400001525879</ele>
        <time>2021-06-17T07:45:30.000Z</time>
      </trkpt>
      <trkpt lat="47.31041" lon="-2.42684">
        <ele>51.400001525879</ele>
        <time>2021-06-17T07:45:37.000Z</time>
      </trkpt>
      <trkpt lat="47.31049" lon="-2.42717">
        <ele>51.400001525879</ele>
        <time>2021-06-17T07:45:41.000Z</time>
      </trkpt>
      <trkpt lat="47.31047" lon="-2.42735">
        <ele>51.400001525879</ele>
        <time>2021-06-17T07:45:43.000Z</time>
      </trkpt>
      <trkpt lat="47.31032" lon="-2.42753">
        <ele>51.400001525879</ele>
        <time>2021-06-17T07:45:46.000Z</time>
      </trkpt>
      <trkpt lat="47.31011" lon="-2.42759">
        <ele>51.400001525879</ele>
        <time>2021-06-17T07:45:49.000Z</time>
      </trkpt>
      <trkpt lat="47.31004" lon="-2.4276">
        <ele>51.400001525879</ele>
        <time>2021-06-17T07:45:50.000Z</time>
      </trkpt>
      <trkpt lat="47.30971" lon="-2.42764">
        <ele>51.400001525879</ele>
        <time>2021-06-17T07:45:55.000Z</time>
      </trkpt>
      <trkpt lat="47.30918" lon="-2.42771">
        <ele>51.400001525879</ele>
        <time>2021-06-17T07:46:03.000Z</time>
      </trkpt>
      <trkpt lat="47.30872" lon="-2.42776">
        <ele>51.400001525879</ele>
        <time>2021-06-17T07:46:10.000Z</time>
      </trkpt>
      <trkpt lat="47.30814" lon="-2.42783">
        <ele>51.400001525879</ele>
        <time>2021-06-17T07:46:19.000Z</time>
      </trkpt>
      <trkpt lat="47.30762" lon="-2.4279">
        <ele>51.400001525879</ele>
        <time>2021-06-17T07:46:27.000Z</time>
      </trkpt>
      <trkpt lat="47.30736" lon="-2.42795">
        <ele>51</ele>
        <time>2021-06-17T07:46:31.000Z</time>
      </trkpt>
      <trkpt lat="47.3073" lon="-2.42798">
        <ele>50.599998474121</ele>
        <time>2021-06-17T07:46:32.000Z</time>
      </trkpt>
      <trkpt lat="47.30724" lon="-2.42802">
        <ele>50.200000762939</ele>
        <time>2021-06-17T07:46:33.000Z</time>
      </trkpt>
      <trkpt lat="47.30718" lon="-2.42807">
        <ele>49.799999237061</ele>
        <time>2021-06-17T07:46:34.000Z</time>
      </trkpt>
      <trkpt lat="47.30712" lon="-2.42812">
        <ele>49.400001525879</ele>
        <time>2021-06-17T07:46:35.000Z</time>
      </trkpt>
      <trkpt lat="47.30691" lon="-2.42831">
        <ele>49.400001525879</ele>
        <time>2021-06-17T07:46:39.000Z</time>
      </trkpt>
      <trkpt lat="47.3064" lon="-2.42874">
        <ele>49.400001525879</ele>
        <time>2021-06-17T07:46:48.000Z</time>
      </trkpt>
      <trkpt lat="47.30601" lon="-2.42906">
        <ele>49.400001525879</ele>
        <time>2021-06-17T07:46:55.000Z</time>
      </trkpt>
      <trkpt lat="47.30557" lon="-2.42942">
        <ele>49.400001525879</ele>
        <time>2021-06-17T07:47:03.000Z</time>
      </trkpt>
      <trkpt lat="47.30507" lon="-2.42984">
        <ele>49.400001525879</ele>
        <time>2021-06-17T07:47:12.000Z</time>
      </trkpt>
      <trkpt lat="47.30458" lon="-2.43025">
        <ele>49.400001525879</ele>
        <time>2021-06-17T07:47:21.000Z</time>
      </trkpt>
      <trkpt lat="47.30447" lon="-2.43035">
        <ele>49.400001525879</ele>
        <time>2021-06-17T07:47:23.000Z</time>
      </trkpt>
      <trkpt lat="47.30413" lon="-2.43057">
        <ele>49.400001525879</ele>
        <time>2021-06-17T07:47:29.000Z</time>
      </trkpt>
      <trkpt lat="47.30376" lon="-2.43066">
        <ele>49.400001525879</ele>
        <time>2021-06-17T07:47:35.000Z</time>
      </trkpt>
      <trkpt lat="47.30329" lon="-2.43073">
        <ele>49.400001525879</ele>
        <time>2021-06-17T07:47:43.000Z</time>
      </trkpt>
      <trkpt lat="47.30283" lon="-2.43077">
        <ele>49.400001525879</ele>
        <time>2021-06-17T07:47:51.000Z</time>
      </trkpt>
      <trkpt lat="47.30269" lon="-2.43078">
        <ele>49.400001525879</ele>
        <time>2021-06-17T07:47:54.000Z</time>
      </trkpt>
      <trkpt lat="47.30267" lon="-2.43091">
        <ele>49.400001525879</ele>
        <time>2021-06-17T07:47:57.000Z</time>
      </trkpt>
      <trkpt lat="47.3027" lon="-2.43108">
        <ele>49.400001525879</ele>
        <time>2021-06-17T07:48:00.000Z</time>
      </trkpt>
      <trkpt lat="47.30271" lon="-2.43114">
        <ele>49.400001525879</ele>
        <time>2021-06-17T07:48:01.000Z</time>
      </trkpt>
      <trkpt lat="47.30279" lon="-2.43145">
        <ele>49.400001525879</ele>
        <time>2021-06-17T07:48:07.000Z</time>
      </trkpt>
      <trkpt lat="47.30289" lon="-2.4315">
        <ele>49.400001525879</ele>
        <time>2021-06-17T07:48:10.000Z</time>
      </trkpt>
      <trkpt lat="47.30303" lon="-2.43154">
        <ele>49.400001525879</ele>
        <time>2021-06-17T07:48:15.000Z</time>
      </trkpt>
      <trkpt lat="47.30321" lon="-2.43171">
        <ele>49.400001525879</ele>
        <time>2021-06-17T07:48:23.000Z</time>
      </trkpt>
      <trkpt lat="47.30333" lon="-2.43189">
        <ele>49.400001525879</ele>
        <time>2021-06-17T07:48:28.000Z</time>
      </trkpt>
      <trkpt lat="47.30348" lon="-2.43213">
        <ele>49.400001525879</ele>
        <time>2021-06-17T07:48:35.000Z</time>
      </trkpt>
      <trkpt lat="47.30363" lon="-2.43231">
        <ele>49.400001525879</ele>
        <time>2021-06-17T07:48:41.000Z</time>
      </trkpt>
      <trkpt lat="47.30379" lon="-2.43237">
        <ele>49.400001525879</ele>
        <time>2021-06-17T07:48:46.000Z</time>
      </trkpt>
      <trkpt lat="47.30394" lon="-2.43249">
        <ele>49.400001525879</ele>
        <time>2021-06-17T07:48:51.000Z</time>
      </trkpt>
      <trkpt lat="47.30403" lon="-2.43275">
        <ele>49.400001525879</ele>
        <time>2021-06-17T07:48:56.000Z</time>
      </trkpt>
      <trkpt lat="47.30412" lon="-2.43313">
        <ele>49.400001525879</ele>
        <time>2021-06-17T07:49:03.000Z</time>
      </trkpt>
      <trkpt lat="47.30418" lon="-2.4335">
        <ele>49.400001525879</ele>
        <time>2021-06-17T07:49:10.000Z</time>
      </trkpt>
      <trkpt lat="47.30426" lon="-2.43385">
        <ele>49.400001525879</ele>
        <time>2021-06-17T07:49:18.000Z</time>
      </trkpt>
      <trkpt lat="47.30432" lon="-2.43414">
        <ele>49.400001525879</ele>
        <time>2021-06-17T07:49:24.000Z</time>
      </trkpt>
      <trkpt lat="47.30444" lon="-2.43422">
        <ele>49.400001525879</ele>
        <time>2021-06-17T07:49:28.000Z</time>
      </trkpt>
      <trkpt lat="47.30455" lon="-2.43415">
        <ele>49.400001525879</ele>
        <time>2021-06-17T07:49:32.000Z</time>
      </trkpt>
      <trkpt lat="47.30476" lon="-2.43409">
        <ele>49.400001525879</ele>
        <time>2021-06-17T07:49:37.000Z</time>
      </trkpt>
      <trkpt lat="47.30485" lon="-2.43409">
        <ele>49.400001525879</ele>
        <time>2021-06-17T07:49:39.000Z</time>
      </trkpt>
      <trkpt lat="47.30502" lon="-2.43411">
        <ele>49.400001525879</ele>
        <time>2021-06-17T07:49:43.000Z</time>
      </trkpt>
      <trkpt lat="47.30548" lon="-2.43418">
        <ele>49.400001525879</ele>
        <time>2021-06-17T07:49:53.000Z</time>
      </trkpt>
      <trkpt lat="47.30563" lon="-2.43419">
        <ele>49.400001525879</ele>
        <time>2021-06-17T07:49:56.000Z</time>
      </trkpt>
      <trkpt lat="47.30578" lon="-2.43417">
        <ele>49.400001525879</ele>
        <time>2021-06-17T07:49:59.000Z</time>
      </trkpt>
      <trkpt lat="47.30622" lon="-2.43407">
        <ele>49.400001525879</ele>
        <time>2021-06-17T07:50:08.000Z</time>
      </trkpt>
      <trkpt lat="47.30666" lon="-2.43395">
        <ele>49.400001525879</ele>
        <time>2021-06-17T07:50:17.000Z</time>
      </trkpt>
      <trkpt lat="47.30707" lon="-2.4339">
        <ele>49.400001525879</ele>
        <time>2021-06-17T07:50:25.000Z</time>
      </trkpt>
      <trkpt lat="47.30757" lon="-2.43389">
        <ele>49.400001525879</ele>
        <time>2021-06-17T07:50:34.000Z</time>
      </trkpt>
      <trkpt lat="47.30802" lon="-2.43389">
        <ele>49.799999237061</ele>
        <time>2021-06-17T07:50:42.000Z</time>
      </trkpt>
      <trkpt lat="47.30808" lon="-2.43388">
        <ele>50.599998474121</ele>
        <time>2021-06-17T07:50:43.000Z</time>
      </trkpt>
      <trkpt lat="47.30813" lon="-2.43387">
        <ele>51</ele>
        <time>2021-06-17T07:50:44.000Z</time>
      </trkpt>
      <trkpt lat="47.30819" lon="-2.43385">
        <ele>51.400001525879</ele>
        <time>2021-06-17T07:50:45.000Z</time>
      </trkpt>
      <trkpt lat="47.30836" lon="-2.43378">
        <ele>51.400001525879</ele>
        <time>2021-06-17T07:50:48.000Z</time>
      </trkpt>
      <trkpt lat="47.30881" lon="-2.43358">
        <ele>51.400001525879</ele>
        <time>2021-06-17T07:50:56.000Z</time>
      </trkpt>
      <trkpt lat="47.30927" lon="-2.43338">
        <ele>51.400001525879</ele>
        <time>2021-06-17T07:51:04.000Z</time>
      </trkpt>
      <trkpt lat="47.30978" lon="-2.43317">
        <ele>51.400001525879</ele>
        <time>2021-06-17T07:51:13.000Z</time>
      </trkpt>
      <trkpt lat="47.3101" lon="-2.43295">
        <ele>51.400001525879</ele>
        <time>2021-06-17T07:51:19.000Z</time>
      </trkpt>
      <trkpt lat="47.31031" lon="-2.43267">
        <ele>51.400001525879</ele>
        <time>2021-06-17T07:51:24.000Z</time>
      </trkpt>
      <trkpt lat="47.31056" lon="-2.43234">
        <ele>51.400001525879</ele>
        <time>2021-06-17T07:51:30.000Z</time>
      </trkpt>
      <trkpt lat="47.31086" lon="-2.43206">
        <ele>51.400001525879</ele>
        <time>2021-06-17T07:51:37.000Z</time>
      </trkpt>
      <trkpt lat="47.31109" lon="-2.43195">
        <ele>51.400001525879</ele>
        <time>2021-06-17T07:51:43.000Z</time>
      </trkpt>
      <trkpt lat="47.31121" lon="-2.43203">
        <ele>51.400001525879</ele>
        <time>2021-06-17T07:51:46.000Z</time>
      </trkpt>
      <trkpt lat="47.31125" lon="-2.43207">
        <ele>51.400001525879</ele>
        <time>2021-06-17T07:51:47.000Z</time>
      </trkpt>
      <trkpt lat="47.31137" lon="-2.43226">
        <ele>51.400001525879</ele>
        <time>2021-06-17T07:51:50.000Z</time>
      </trkpt>
      <trkpt lat="47.31146" lon="-2.43239">
        <ele>51.400001525879</ele>
        <time>2021-06-17T07:51:52.000Z</time>
      </trkpt>
      <trkpt lat="47.31158" lon="-2.43258">
        <ele>51.799999237061</ele>
        <time>2021-06-17T07:51:55.000Z</time>
      </trkpt>
      <trkpt lat="47.31162" lon="-2.43265">
        <ele>52.200000762939</ele>
        <time>2021-06-17T07:51:56.000Z</time>
      </trkpt>
      <trkpt lat="47.31166" lon="-2.43271">
        <ele>53</ele>
        <time>2021-06-17T07:51:57.000Z</time>
      </trkpt>
      <trkpt lat="47.3117" lon="-2.43278">
        <ele>53.400001525879</ele>
        <time>2021-06-17T07:51:58.000Z</time>
      </trkpt>
      <trkpt lat="47.31174" lon="-2.43285">
        <ele>53.400001525879</ele>
        <time>2021-06-17T07:51:59.000Z</time>
      </trkpt>
      <trkpt lat="47.31191" lon="-2.43322">
        <ele>53.400001525879</ele>
        <time>2021-06-17T07:52:04.000Z</time>
      </trkpt>
      <trkpt lat="47.31203" lon="-2.43376">
        <ele>53.400001525879</ele>
        <time>2021-06-17T07:52:10.000Z</time>
      </trkpt>
      <trkpt lat="47.31212" lon="-2.43439">
        <ele>53.400001525879</ele>
        <time>2021-06-17T07:52:17.000Z</time>
      </trkpt>
      <trkpt lat="47.3122" lon="-2.43503">
        <ele>53.400001525879</ele>
        <time>2021-06-17T07:52:24.000Z</time>
      </trkpt>
      <trkpt lat="47.3123" lon="-2.43569">
        <ele>53.400001525879</ele>
        <time>2021-06-17T07:52:31.000Z</time>
      </trkpt>
      <trkpt lat="47.31244" lon="-2.43653">
        <ele>53.400001525879</ele>
        <time>2021-06-17T07:52:40.000Z</time>
      </trkpt>
      <trkpt lat="47.31259" lon="-2.43708">
        <ele>53.400001525879</ele>
        <time>2021-06-17T07:52:46.000Z</time>
      </trkpt>
      <trkpt lat="47.3128" lon="-2.43758">
        <ele>53.400001525879</ele>
        <time>2021-06-17T07:52:52.000Z</time>
      </trkpt>
      <trkpt lat="47.31302" lon="-2.43806">
        <ele>53.400001525879</ele>
        <time>2021-06-17T07:52:58.000Z</time>
      </trkpt>
      <trkpt lat="47.31307" lon="-2.43813">
        <ele>53.400001525879</ele>
        <time>2021-06-17T07:52:59.000Z</time>
      </trkpt>
      <trkpt lat="47.3133" lon="-2.43847">
        <ele>53.400001525879</ele>
        <time>2021-06-17T07:53:04.000Z</time>
      </trkpt>
      <trkpt lat="47.31334" lon="-2.43855">
        <ele>53.400001525879</ele>
        <time>2021-06-17T07:53:05.000Z</time>
      </trkpt>
      <trkpt lat="47.31346" lon="-2.43888">
        <ele>53.400001525879</ele>
        <time>2021-06-17T07:53:09.000Z</time>
      </trkpt>
      <trkpt lat="47.31369" lon="-2.43945">
        <ele>53.400001525879</ele>
        <time>2021-06-17T07:53:16.000Z</time>
      </trkpt>
      <trkpt lat="47.31395" lon="-2.43987">
        <ele>53.400001525879</ele>
        <time>2021-06-17T07:53:22.000Z</time>
      </trkpt>
      <trkpt lat="47.31435" lon="-2.44039">
        <ele>53.400001525879</ele>
        <time>2021-06-17T07:53:30.000Z</time>
      </trkpt>
      <trkpt lat="47.31476" lon="-2.4409">
        <ele>53.400001525879</ele>
        <time>2021-06-17T07:53:38.000Z</time>
      </trkpt>
      <trkpt lat="47.31518" lon="-2.44144">
        <ele>53.400001525879</ele>
        <time>2021-06-17T07:53:47.000Z</time>
      </trkpt>
      <trkpt lat="47.31521" lon="-2.44151">
        <ele>53.400001525879</ele>
        <time>2021-06-17T07:53:48.000Z</time>
      </trkpt>
      <trkpt lat="47.31538" lon="-2.4419">
        <ele>53.400001525879</ele>
        <time>2021-06-17T07:53:53.000Z</time>
      </trkpt>
      <trkpt lat="47.31552" lon="-2.44248">
        <ele>53.400001525879</ele>
        <time>2021-06-17T07:53:59.000Z</time>
      </trkpt>
      <trkpt lat="47.31564" lon="-2.44329">
        <ele>53.400001525879</ele>
        <time>2021-06-17T07:54:07.000Z</time>
      </trkpt>
      <trkpt lat="47.31569" lon="-2.44359">
        <ele>53</ele>
        <time>2021-06-17T07:54:10.000Z</time>
      </trkpt>
      <trkpt lat="47.3157" lon="-2.44369">
        <ele>52.599998474121</ele>
        <time>2021-06-17T07:54:11.000Z</time>
      </trkpt>
      <trkpt lat="47.31572" lon="-2.4438">
        <ele>52.200000762939</ele>
        <time>2021-06-17T07:54:12.000Z</time>
      </trkpt>
      <trkpt lat="47.31573" lon="-2.4439">
        <ele>51.799999237061</ele>
        <time>2021-06-17T07:54:13.000Z</time>
      </trkpt>
      <trkpt lat="47.31575" lon="-2.444">
        <ele>51.400001525879</ele>
        <time>2021-06-17T07:54:14.000Z</time>
      </trkpt>
      <trkpt lat="47.31577" lon="-2.44409">
        <ele>51.400001525879</ele>
        <time>2021-06-17T07:54:15.000Z</time>
      </trkpt>
      <trkpt lat="47.31586" lon="-2.44464">
        <ele>51.400001525879</ele>
        <time>2021-06-17T07:54:21.000Z</time>
      </trkpt>
      <trkpt lat="47.31601" lon="-2.44518">
        <ele>51.400001525879</ele>
        <time>2021-06-17T07:54:27.000Z</time>
      </trkpt>
      <trkpt lat="47.31608" lon="-2.44533">
        <ele>51.400001525879</ele>
        <time>2021-06-17T07:54:29.000Z</time>
      </trkpt>
      <trkpt lat="47.31622" lon="-2.44554">
        <ele>51.400001525879</ele>
        <time>2021-06-17T07:54:32.000Z</time>
      </trkpt>
      <trkpt lat="47.31655" lon="-2.44611">
        <ele>51.400001525879</ele>
        <time>2021-06-17T07:54:40.000Z</time>
      </trkpt>
      <trkpt lat="47.31678" lon="-2.44668">
        <ele>51.400001525879</ele>
        <time>2021-06-17T07:54:47.000Z</time>
      </trkpt>
      <trkpt lat="47.31707" lon="-2.4474">
        <ele>51.400001525879</ele>
        <time>2021-06-17T07:54:56.000Z</time>
      </trkpt>
      <trkpt lat="47.31725" lon="-2.44784">
        <ele>51.400001525879</ele>
        <time>2021-06-17T07:55:02.000Z</time>
      </trkpt>
      <trkpt lat="47.31729" lon="-2.44787">
        <ele>51.400001525879</ele>
        <time>2021-06-17T07:55:03.000Z</time>
      </trkpt>
      <trkpt lat="47.31737" lon="-2.44784">
        <ele>51.400001525879</ele>
        <time>2021-06-17T07:55:05.000Z</time>
      </trkpt>
      <trkpt lat="47.31754" lon="-2.44769">
        <ele>51.400001525879</ele>
        <time>2021-06-17T07:55:09.000Z</time>
      </trkpt>
      <trkpt lat="47.31763" lon="-2.4476">
        <ele>51.799999237061</ele>
        <time>2021-06-17T07:55:11.000Z</time>
      </trkpt>
      <trkpt lat="47.31768" lon="-2.44755">
        <ele>52.200000762939</ele>
        <time>2021-06-17T07:55:12.000Z</time>
      </trkpt>
      <trkpt lat="47.31773" lon="-2.44751">
        <ele>52.599998474121</ele>
        <time>2021-06-17T07:55:13.000Z</time>
      </trkpt>
      <trkpt lat="47.31778" lon="-2.44747">
        <ele>53.400001525879</ele>
        <time>2021-06-17T07:55:14.000Z</time>
      </trkpt>
      <trkpt lat="47.31817" lon="-2.44725">
        <ele>53.400001525879</ele>
        <time>2021-06-17T07:55:21.000Z</time>
      </trkpt>
      <trkpt lat="47.31833" lon="-2.4471">
        <ele>53.400001525879</ele>
        <time>2021-06-17T07:55:24.000Z</time>
      </trkpt>
      <trkpt lat="47.31841" lon="-2.44698">
        <ele>53.400001525879</ele>
        <time>2021-06-17T07:55:26.000Z</time>
      </trkpt>
      <trkpt lat="47.31863" lon="-2.44657">
        <ele>53.400001525879</ele>
        <time>2021-06-17T07:55:32.000Z</time>
      </trkpt>
      <trkpt lat="47.31887" lon="-2.44594">
        <ele>53.400001525879</ele>
        <time>2021-06-17T07:55:41.000Z</time>
      </trkpt>
      <trkpt lat="47.31892" lon="-2.44582">
        <ele>53.799999237061</ele>
        <time>2021-06-17T07:55:43.000Z</time>
      </trkpt>
      <trkpt lat="47.31894" lon="-2.44576">
        <ele>54.200000762939</ele>
        <time>2021-06-17T07:55:44.000Z</time>
      </trkpt>
      <trkpt lat="47.31898" lon="-2.44571">
        <ele>54.599998474121</ele>
        <time>2021-06-17T07:55:45.000Z</time>
      </trkpt>
      <trkpt lat="47.31901" lon="-2.44569">
        <ele>55</ele>
        <time>2021-06-17T07:55:46.000Z</time>
      </trkpt>
      <trkpt lat="47.31906" lon="-2.44569">
        <ele>55.400001525879</ele>
        <time>2021-06-17T07:55:47.000Z</time>
      </trkpt>
      <trkpt lat="47.31917" lon="-2.4458">
        <ele>55.400001525879</ele>
        <time>2021-06-17T07:55:50.000Z</time>
      </trkpt>
      <trkpt lat="47.3192" lon="-2.44585">
        <ele>55.400001525879</ele>
        <time>2021-06-17T07:55:51.000Z</time>
      </trkpt>
      <trkpt lat="47.31942" lon="-2.44611">
        <ele>55.400001525879</ele>
        <time>2021-06-17T07:55:56.000Z</time>
      </trkpt>
      <trkpt lat="47.31963" lon="-2.44636">
        <ele>55.400001525879</ele>
        <time>2021-06-17T07:56:02.000Z</time>
      </trkpt>
      <trkpt lat="47.31992" lon="-2.44669">
        <ele>55.400001525879</ele>
        <time>2021-06-17T07:56:09.000Z</time>
      </trkpt>
      <trkpt lat="47.32023" lon="-2.44713">
        <ele>55.400001525879</ele>
        <time>2021-06-17T07:56:17.000Z</time>
      </trkpt>
      <trkpt lat="47.3204" lon="-2.44735">
        <ele>55.400001525879</ele>
        <time>2021-06-17T07:56:22.000Z</time>
      </trkpt>
      <trkpt lat="47.3206" lon="-2.4477">
        <ele>55.400001525879</ele>
        <time>2021-06-17T07:56:29.000Z</time>
      </trkpt>
      <trkpt lat="47.32065" lon="-2.4478">
        <ele>55.799999237061</ele>
        <time>2021-06-17T07:56:31.000Z</time>
      </trkpt>
      <trkpt lat="47.32068" lon="-2.44784">
        <ele>56.200000762939</ele>
        <time>2021-06-17T07:56:32.000Z</time>
      </trkpt>
      <trkpt lat="47.32071" lon="-2.44789">
        <ele>56.599998474121</ele>
        <time>2021-06-17T07:56:33.000Z</time>
      </trkpt>
      <trkpt lat="47.32074" lon="-2.44794">
        <ele>57</ele>
        <time>2021-06-17T07:56:34.000Z</time>
      </trkpt>
      <trkpt lat="47.32076" lon="-2.448">
        <ele>57.400001525879</ele>
        <time>2021-06-17T07:56:35.000Z</time>
      </trkpt>
      <trkpt lat="47.32078" lon="-2.44805">
        <ele>57.400001525879</ele>
        <time>2021-06-17T07:56:36.000Z</time>
      </trkpt>
      <trkpt lat="47.32091" lon="-2.44834">
        <ele>57.400001525879</ele>
        <time>2021-06-17T07:56:42.000Z</time>
      </trkpt>
      <trkpt lat="47.32108" lon="-2.44876">
        <ele>57.400001525879</ele>
        <time>2021-06-17T07:56:49.000Z</time>
      </trkpt>
      <trkpt lat="47.32129" lon="-2.44921">
        <ele>57.400001525879</ele>
        <time>2021-06-17T07:56:57.000Z</time>
      </trkpt>
      <trkpt lat="47.32143" lon="-2.44941">
        <ele>57.799999237061</ele>
        <time>2021-06-17T07:57:02.000Z</time>
      </trkpt>
      <trkpt lat="47.32147" lon="-2.44945">
        <ele>58.400001525879</ele>
        <time>2021-06-17T07:57:03.000Z</time>
      </trkpt>
      <trkpt lat="47.3215" lon="-2.44948">
        <ele>58.799999237061</ele>
        <time>2021-06-17T07:57:04.000Z</time>
      </trkpt>
      <trkpt lat="47.32154" lon="-2.44951">
        <ele>59.200000762939</ele>
        <time>2021-06-17T07:57:05.000Z</time>
      </trkpt>
      <trkpt lat="47.32158" lon="-2.44954">
        <ele>59.599998474121</ele>
        <time>2021-06-17T07:57:06.000Z</time>
      </trkpt>
      <trkpt lat="47.32168" lon="-2.44962">
        <ele>59.599998474121</ele>
        <time>2021-06-17T07:57:09.000Z</time>
      </trkpt>
      <trkpt lat="47.32185" lon="-2.44979">
        <ele>60</ele>
        <time>2021-06-17T07:57:14.000Z</time>
      </trkpt>
      <trkpt lat="47.32188" lon="-2.44982">
        <ele>60.400001525879</ele>
        <time>2021-06-17T07:57:15.000Z</time>
      </trkpt>
      <trkpt lat="47.32191" lon="-2.44985">
        <ele>61</ele>
        <time>2021-06-17T07:57:16.000Z</time>
      </trkpt>
      <trkpt lat="47.32193" lon="-2.4499">
        <ele>61.799999237061</ele>
        <time>2021-06-17T07:57:17.000Z</time>
      </trkpt>
      <trkpt lat="47.32206" lon="-2.45021">
        <ele>62.200000762939</ele>
        <time>2021-06-17T07:57:23.000Z</time>
      </trkpt>
      <trkpt lat="47.32209" lon="-2.45026">
        <ele>62.599998474121</ele>
        <time>2021-06-17T07:57:24.000Z</time>
      </trkpt>
      <trkpt lat="47.32213" lon="-2.45032">
        <ele>63</ele>
        <time>2021-06-17T07:57:25.000Z</time>
      </trkpt>
      <trkpt lat="47.32217" lon="-2.45039">
        <ele>63.400001525879</ele>
        <time>2021-06-17T07:57:26.000Z</time>
      </trkpt>
      <trkpt lat="47.3222" lon="-2.45046">
        <ele>63.799999237061</ele>
        <time>2021-06-17T07:57:27.000Z</time>
      </trkpt>
      <trkpt lat="47.32224" lon="-2.45054">
        <ele>63.799999237061</ele>
        <time>2021-06-17T07:57:28.000Z</time>
      </trkpt>
      <trkpt lat="47.32227" lon="-2.45061">
        <ele>63.799999237061</ele>
        <time>2021-06-17T07:57:29.000Z</time>
      </trkpt>
      <trkpt lat="47.32249" lon="-2.45114">
        <ele>63.799999237061</ele>
        <time>2021-06-17T07:57:36.000Z</time>
      </trkpt>
      <trkpt lat="47.32266" lon="-2.45179">
        <ele>63.799999237061</ele>
        <time>2021-06-17T07:57:43.000Z</time>
      </trkpt>
      <trkpt lat="47.32273" lon="-2.45201">
        <ele>63.400001525879</ele>
        <time>2021-06-17T07:57:45.000Z</time>
      </trkpt>
      <trkpt lat="47.32277" lon="-2.45212">
        <ele>63</ele>
        <time>2021-06-17T07:57:46.000Z</time>
      </trkpt>
      <trkpt lat="47.32282" lon="-2.45223">
        <ele>62.400001525879</ele>
        <time>2021-06-17T07:57:47.000Z</time>
      </trkpt>
      <trkpt lat="47.32287" lon="-2.45232">
        <ele>62</ele>
        <time>2021-06-17T07:57:48.000Z</time>
      </trkpt>
      <trkpt lat="47.32291" lon="-2.45241">
        <ele>61.599998474121</ele>
        <time>2021-06-17T07:57:49.000Z</time>
      </trkpt>
      <trkpt lat="47.32295" lon="-2.45249">
        <ele>61.200000762939</ele>
        <time>2021-06-17T07:57:50.000Z</time>
      </trkpt>
      <trkpt lat="47.32298" lon="-2.45255">
        <ele>60.599998474121</ele>
        <time>2021-06-17T07:57:51.000Z</time>
      </trkpt>
      <trkpt lat="47.32301" lon="-2.4526">
        <ele>60.200000762939</ele>
        <time>2021-06-17T07:57:52.000Z</time>
      </trkpt>
      <trkpt lat="47.32303" lon="-2.45266">
        <ele>59.799999237061</ele>
        <time>2021-06-17T07:57:53.000Z</time>
      </trkpt>
      <trkpt lat="47.32306" lon="-2.45272">
        <ele>59.400001525879</ele>
        <time>2021-06-17T07:57:54.000Z</time>
      </trkpt>
      <trkpt lat="47.32308" lon="-2.45278">
        <ele>59.400001525879</ele>
        <time>2021-06-17T07:57:55.000Z</time>
      </trkpt>
      <trkpt lat="47.32316" lon="-2.45308">
        <ele>59.799999237061</ele>
        <time>2021-06-17T07:58:00.000Z</time>
      </trkpt>
      <trkpt lat="47.32317" lon="-2.45314">
        <ele>60.200000762939</ele>
        <time>2021-06-17T07:58:01.000Z</time>
      </trkpt>
      <trkpt lat="47.32318" lon="-2.4532">
        <ele>60.799999237061</ele>
        <time>2021-06-17T07:58:02.000Z</time>
      </trkpt>
      <trkpt lat="47.32319" lon="-2.45327">
        <ele>61.200000762939</ele>
        <time>2021-06-17T07:58:03.000Z</time>
      </trkpt>
      <trkpt lat="47.32318" lon="-2.45333">
        <ele>61.599998474121</ele>
        <time>2021-06-17T07:58:04.000Z</time>
      </trkpt>
      <trkpt lat="47.32319" lon="-2.45348">
        <ele>61.599998474121</ele>
        <time>2021-06-17T07:58:06.000Z</time>
      </trkpt>
      <trkpt lat="47.3232" lon="-2.45366">
        <ele>61.599998474121</ele>
        <time>2021-06-17T07:58:08.000Z</time>
      </trkpt>
      <trkpt lat="47.32322" lon="-2.45382">
        <ele>61.599998474121</ele>
        <time>2021-06-17T07:58:10.000Z</time>
      </trkpt>
      <trkpt lat="47.32323" lon="-2.45394">
        <ele>61.200000762939</ele>
        <time>2021-06-17T07:58:12.000Z</time>
      </trkpt>
      <trkpt lat="47.32323" lon="-2.45399">
        <ele>60.599998474121</ele>
        <time>2021-06-17T07:58:13.000Z</time>
      </trkpt>
      <trkpt lat="47.32323" lon="-2.45405">
        <ele>60.200000762939</ele>
        <time>2021-06-17T07:58:14.000Z</time>
      </trkpt>
      <trkpt lat="47.32319" lon="-2.45414">
        <ele>59.599998474121</ele>
        <time>2021-06-17T07:58:15.000Z</time>
      </trkpt>
      <trkpt lat="47.32318" lon="-2.45423">
        <ele>59.200000762939</ele>
        <time>2021-06-17T07:58:16.000Z</time>
      </trkpt>
      <trkpt lat="47.32318" lon="-2.45431">
        <ele>59.200000762939</ele>
        <time>2021-06-17T07:58:17.000Z</time>
      </trkpt>
      <trkpt lat="47.3232" lon="-2.45439">
        <ele>59.200000762939</ele>
        <time>2021-06-17T07:58:18.000Z</time>
      </trkpt>
      <trkpt lat="47.32324" lon="-2.45452">
        <ele>59.200000762939</ele>
        <time>2021-06-17T07:58:20.000Z</time>
      </trkpt>
      <trkpt lat="47.32329" lon="-2.45465">
        <ele>59.200000762939</ele>
        <time>2021-06-17T07:58:22.000Z</time>
      </trkpt>
      <trkpt lat="47.32338" lon="-2.45477">
        <ele>59.200000762939</ele>
        <time>2021-06-17T07:58:24.000Z</time>
      </trkpt>
      <trkpt lat="47.32347" lon="-2.45483">
        <ele>59.200000762939</ele>
        <time>2021-06-17T07:58:25.000Z</time>
      </trkpt>
      <trkpt lat="47.32376" lon="-2.45524">
        <ele>59.200000762939</ele>
        <time>2021-06-17T07:58:32.000Z</time>
      </trkpt>
      <trkpt lat="47.32385" lon="-2.45543">
        <ele>59.200000762939</ele>
        <time>2021-06-17T07:58:35.000Z</time>
      </trkpt>
      <trkpt lat="47.32391" lon="-2.45555">
        <ele>59.200000762939</ele>
        <time>2021-06-17T07:58:37.000Z</time>
      </trkpt>
      <trkpt lat="47.32394" lon="-2.4556">
        <ele>59.200000762939</ele>
        <time>2021-06-17T07:58:38.000Z</time>
      </trkpt>
      <trkpt lat="47.3241" lon="-2.45585">
        <ele>59.200000762939</ele>
        <time>2021-06-17T07:58:43.000Z</time>
      </trkpt>
      <trkpt lat="47.32412" lon="-2.45592">
        <ele>59.200000762939</ele>
        <time>2021-06-17T07:58:44.000Z</time>
      </trkpt>
      <trkpt lat="47.32421" lon="-2.45617">
        <ele>59.200000762939</ele>
        <time>2021-06-17T07:58:48.000Z</time>
      </trkpt>
      <trkpt lat="47.3244" lon="-2.45655">
        <ele>59.200000762939</ele>
        <time>2021-06-17T07:58:54.000Z</time>
      </trkpt>
      <trkpt lat="47.32454" lon="-2.45681">
        <ele>59.200000762939</ele>
        <time>2021-06-17T07:58:58.000Z</time>
      </trkpt>
      <trkpt lat="47.32465" lon="-2.45695">
        <ele>59.200000762939</ele>
        <time>2021-06-17T07:59:00.000Z</time>
      </trkpt>
      <trkpt lat="47.32498" lon="-2.45746">
        <ele>59.200000762939</ele>
        <time>2021-06-17T07:59:07.000Z</time>
      </trkpt>
      <trkpt lat="47.32531" lon="-2.45799">
        <ele>59.200000762939</ele>
        <time>2021-06-17T07:59:15.000Z</time>
      </trkpt>
      <trkpt lat="47.3255" lon="-2.45825">
        <ele>59.200000762939</ele>
        <time>2021-06-17T07:59:20.000Z</time>
      </trkpt>
      <trkpt lat="47.32553" lon="-2.45831">
        <ele>59.200000762939</ele>
        <time>2021-06-17T07:59:21.000Z</time>
      </trkpt>
      <trkpt lat="47.3257" lon="-2.4586">
        <ele>59.200000762939</ele>
        <time>2021-06-17T07:59:26.000Z</time>
      </trkpt>
      <trkpt lat="47.32592" lon="-2.45893">
        <ele>59.200000762939</ele>
        <time>2021-06-17T07:59:32.000Z</time>
      </trkpt>
      <trkpt lat="47.32612" lon="-2.45921">
        <ele>59.200000762939</ele>
        <time>2021-06-17T07:59:37.000Z</time>
      </trkpt>
      <trkpt lat="47.32615" lon="-2.45926">
        <ele>59.200000762939</ele>
        <time>2021-06-17T07:59:38.000Z</time>
      </trkpt>
      <trkpt lat="47.32642" lon="-2.45967">
        <ele>59.200000762939</ele>
        <time>2021-06-17T07:59:46.000Z</time>
      </trkpt>
      <trkpt lat="47.3265" lon="-2.45974">
        <ele>59.200000762939</ele>
        <time>2021-06-17T07:59:48.000Z</time>
      </trkpt>
      <trkpt lat="47.32666" lon="-2.45988">
        <ele>59.200000762939</ele>
        <time>2021-06-17T07:59:52.000Z</time>
      </trkpt>
      <trkpt lat="47.3267" lon="-2.45992">
        <ele>59.200000762939</ele>
        <time>2021-06-17T07:59:53.000Z</time>
      </trkpt>
      <trkpt lat="47.32679" lon="-2.46004">
        <ele>59.200000762939</ele>
        <time>2021-06-17T07:59:56.000Z</time>
      </trkpt>
      <trkpt lat="47.32685" lon="-2.46011">
        <ele>59.200000762939</ele>
        <time>2021-06-17T07:59:58.000Z</time>
      </trkpt>
      <trkpt lat="47.32701" lon="-2.46033">
        <ele>59.200000762939</ele>
        <time>2021-06-17T08:00:04.000Z</time>
      </trkpt>
      <trkpt lat="47.32716" lon="-2.46052">
        <ele>59.200000762939</ele>
        <time>2021-06-17T08:00:10.000Z</time>
      </trkpt>
      <trkpt lat="47.32729" lon="-2.46066">
        <ele>59.200000762939</ele>
        <time>2021-06-17T08:00:17.000Z</time>
      </trkpt>
      <trkpt lat="47.32733" lon="-2.46071">
        <ele>59.599998474121</ele>
        <time>2021-06-17T08:00:19.000Z</time>
      </trkpt>
      <trkpt lat="47.32737" lon="-2.46074">
        <ele>60</ele>
        <time>2021-06-17T08:00:20.000Z</time>
      </trkpt>
      <trkpt lat="47.32739" lon="-2.46076">
        <ele>60.400001525879</ele>
        <time>2021-06-17T08:00:21.000Z</time>
      </trkpt>
      <trkpt lat="47.32742" lon="-2.46079">
        <ele>60.799999237061</ele>
        <time>2021-06-17T08:00:22.000Z</time>
      </trkpt>
      <trkpt lat="47.32745" lon="-2.46083">
        <ele>61.200000762939</ele>
        <time>2021-06-17T08:00:23.000Z</time>
      </trkpt>
      <trkpt lat="47.32756" lon="-2.46099">
        <ele>61.200000762939</ele>
        <time>2021-06-17T08:00:27.000Z</time>
      </trkpt>
      <trkpt lat="47.32758" lon="-2.46103">
        <ele>61.200000762939</ele>
        <time>2021-06-17T08:00:28.000Z</time>
      </trkpt>
      <trkpt lat="47.32769" lon="-2.46128">
        <ele>61.599998474121</ele>
        <time>2021-06-17T08:00:34.000Z</time>
      </trkpt>
      <trkpt lat="47.32771" lon="-2.46132">
        <ele>62.599998474121</ele>
        <time>2021-06-17T08:00:35.000Z</time>
      </trkpt>
      <trkpt lat="47.32772" lon="-2.46137">
        <ele>63</ele>
        <time>2021-06-17T08:00:36.000Z</time>
      </trkpt>
      <trkpt lat="47.32773" lon="-2.46142">
        <ele>63.400001525879</ele>
        <time>2021-06-17T08:00:37.000Z</time>
      </trkpt>
      <trkpt lat="47.32781" lon="-2.46163">
        <ele>63.400001525879</ele>
        <time>2021-06-17T08:00:41.000Z</time>
      </trkpt>
      <trkpt lat="47.32783" lon="-2.46168">
        <ele>63.799999237061</ele>
        <time>2021-06-17T08:00:42.000Z</time>
      </trkpt>
      <trkpt lat="47.32786" lon="-2.46171">
        <ele>64.199996948242</ele>
        <time>2021-06-17T08:00:43.000Z</time>
      </trkpt>
      <trkpt lat="47.32789" lon="-2.46174">
        <ele>64.599998474121</ele>
        <time>2021-06-17T08:00:44.000Z</time>
      </trkpt>
      <trkpt lat="47.32793" lon="-2.46176">
        <ele>65</ele>
        <time>2021-06-17T08:00:45.000Z</time>
      </trkpt>
      <trkpt lat="47.32797" lon="-2.46177">
        <ele>65.599998474121</ele>
        <time>2021-06-17T08:00:46.000Z</time>
      </trkpt>
      <trkpt lat="47.32806" lon="-2.46183">
        <ele>65.599998474121</ele>
        <time>2021-06-17T08:00:48.000Z</time>
      </trkpt>
      <trkpt lat="47.32819" lon="-2.46191">
        <ele>65.599998474121</ele>
        <time>2021-06-17T08:00:51.000Z</time>
      </trkpt>
      <trkpt lat="47.32828" lon="-2.46191">
        <ele>65.599998474121</ele>
        <time>2021-06-17T08:00:53.000Z</time>
      </trkpt>
      <trkpt lat="47.32839" lon="-2.46183">
        <ele>65.599998474121</ele>
        <time>2021-06-17T08:00:56.000Z</time>
      </trkpt>
      <trkpt lat="47.32842" lon="-2.46181">
        <ele>66</ele>
        <time>2021-06-17T08:00:57.000Z</time>
      </trkpt>
      <trkpt lat="47.32845" lon="-2.46179">
        <ele>66.400001525879</ele>
        <time>2021-06-17T08:00:58.000Z</time>
      </trkpt>
      <trkpt lat="47.32848" lon="-2.46177">
        <ele>66.800003051758</ele>
        <time>2021-06-17T08:00:59.000Z</time>
      </trkpt>
      <trkpt lat="47.32851" lon="-2.46175">
        <ele>67.599998474121</ele>
        <time>2021-06-17T08:01:00.000Z</time>
      </trkpt>
      <trkpt lat="47.32857" lon="-2.46171">
        <ele>67.599998474121</ele>
        <time>2021-06-17T08:01:02.000Z</time>
      </trkpt>
      <trkpt lat="47.32861" lon="-2.46168">
        <ele>68</ele>
        <time>2021-06-17T08:01:03.000Z</time>
      </trkpt>
      <trkpt lat="47.32864" lon="-2.46166">
        <ele>68.599998474121</ele>
        <time>2021-06-17T08:01:04.000Z</time>
      </trkpt>
      <trkpt lat="47.32867" lon="-2.46163">
        <ele>69</ele>
        <time>2021-06-17T08:01:05.000Z</time>
      </trkpt>
      <trkpt lat="47.3287" lon="-2.46161">
        <ele>69.400001525879</ele>
        <time>2021-06-17T08:01:06.000Z</time>
      </trkpt>
      <trkpt lat="47.32873" lon="-2.4616">
        <ele>69.800003051758</ele>
        <time>2021-06-17T08:01:07.000Z</time>
      </trkpt>
      <trkpt lat="47.32879" lon="-2.46157">
        <ele>70.199996948242</ele>
        <time>2021-06-17T08:01:09.000Z</time>
      </trkpt>
      <trkpt lat="47.32883" lon="-2.46156">
        <ele>70.599998474121</ele>
        <time>2021-06-17T08:01:10.000Z</time>
      </trkpt>
      <trkpt lat="47.32885" lon="-2.46154">
        <ele>71</ele>
        <time>2021-06-17T08:01:11.000Z</time>
      </trkpt>
      <trkpt lat="47.32888" lon="-2.46152">
        <ele>71.400001525879</ele>
        <time>2021-06-17T08:01:12.000Z</time>
      </trkpt>
      <trkpt lat="47.3289" lon="-2.46151">
        <ele>71.800003051758</ele>
        <time>2021-06-17T08:01:13.000Z</time>
      </trkpt>
      <trkpt lat="47.32893" lon="-2.46148">
        <ele>71.800003051758</ele>
        <time>2021-06-17T08:01:15.000Z</time>
      </trkpt>
      <trkpt lat="47.32898" lon="-2.46143">
        <ele>71.800003051758</ele>
        <time>2021-06-17T08:01:21.000Z</time>
      </trkpt>
      <trkpt lat="47.329" lon="-2.46143">
        <ele>71.800003051758</ele>
        <time>2021-06-17T08:01:28.000Z</time>
      </trkpt>
      <trkpt lat="47.32904" lon="-2.4615">
        <ele>71.800003051758</ele>
        <time>2021-06-17T08:01:31.000Z</time>
      </trkpt>
      <trkpt lat="47.32904" lon="-2.46152">
        <ele>71.800003051758</ele>
        <time>2021-06-17T08:01:32.000Z</time>
      </trkpt>
      <trkpt lat="47.32909" lon="-2.46169">
        <ele>71.800003051758</ele>
        <time>2021-06-17T08:01:38.000Z</time>
      </trkpt>
      <trkpt lat="47.32918" lon="-2.46198">
        <ele>71.800003051758</ele>
        <time>2021-06-17T08:01:45.000Z</time>
      </trkpt>
      <trkpt lat="47.32929" lon="-2.4624">
        <ele>71.800003051758</ele>
        <time>2021-06-17T08:01:54.000Z</time>
      </trkpt>
      <trkpt lat="47.32938" lon="-2.46272">
        <ele>71.800003051758</ele>
        <time>2021-06-17T08:02:01.000Z</time>
      </trkpt>
      <trkpt lat="47.3294" lon="-2.46283">
        <ele>71.800003051758</ele>
        <time>2021-06-17T08:02:03.000Z</time>
      </trkpt>
      <trkpt lat="47.32945" lon="-2.46301">
        <ele>71.800003051758</ele>
        <time>2021-06-17T08:02:06.000Z</time>
      </trkpt>
      <trkpt lat="47.32957" lon="-2.46339">
        <ele>71.800003051758</ele>
        <time>2021-06-17T08:02:11.000Z</time>
      </trkpt>
      <trkpt lat="47.32964" lon="-2.4637">
        <ele>71.800003051758</ele>
        <time>2021-06-17T08:02:14.000Z</time>
      </trkpt>
      <trkpt lat="47.32967" lon="-2.46394">
        <ele>71.800003051758</ele>
        <time>2021-06-17T08:02:16.000Z</time>
      </trkpt>
      <trkpt lat="47.32969" lon="-2.4642">
        <ele>71.199996948242</ele>
        <time>2021-06-17T08:02:18.000Z</time>
      </trkpt>
      <trkpt lat="47.32971" lon="-2.46434">
        <ele>70.800003051758</ele>
        <time>2021-06-17T08:02:19.000Z</time>
      </trkpt>
      <trkpt lat="47.32973" lon="-2.46449">
        <ele>70.199996948242</ele>
        <time>2021-06-17T08:02:20.000Z</time>
      </trkpt>
      <trkpt lat="47.32974" lon="-2.46463">
        <ele>69.800003051758</ele>
        <time>2021-06-17T08:02:21.000Z</time>
      </trkpt>
      <trkpt lat="47.32976" lon="-2.46478">
        <ele>69.199996948242</ele>
        <time>2021-06-17T08:02:22.000Z</time>
      </trkpt>
      <trkpt lat="47.32978" lon="-2.46493">
        <ele>68.800003051758</ele>
        <time>2021-06-17T08:02:23.000Z</time>
      </trkpt>
      <trkpt lat="47.32977" lon="-2.46508">
        <ele>68.199996948242</ele>
        <time>2021-06-17T08:02:24.000Z</time>
      </trkpt>
      <trkpt lat="47.32975" lon="-2.46521">
        <ele>67.400001525879</ele>
        <time>2021-06-17T08:02:25.000Z</time>
      </trkpt>
      <trkpt lat="47.32974" lon="-2.46533">
        <ele>66.599998474121</ele>
        <time>2021-06-17T08:02:26.000Z</time>
      </trkpt>
      <trkpt lat="47.32972" lon="-2.46544">
        <ele>65.400001525879</ele>
        <time>2021-06-17T08:02:27.000Z</time>
      </trkpt>
      <trkpt lat="47.32971" lon="-2.46554">
        <ele>64.400001525879</ele>
        <time>2021-06-17T08:02:28.000Z</time>
      </trkpt>
      <trkpt lat="47.32964" lon="-2.46563">
        <ele>63.400001525879</ele>
        <time>2021-06-17T08:02:29.000Z</time>
      </trkpt>
      <trkpt lat="47.32966" lon="-2.46566">
        <ele>62.400001525879</ele>
        <time>2021-06-17T08:02:30.000Z</time>
      </trkpt>
      <trkpt lat="47.32969" lon="-2.46566">
        <ele>61.400001525879</ele>
        <time>2021-06-17T08:02:31.000Z</time>
      </trkpt>
      <trkpt lat="47.32978" lon="-2.46562">
        <ele>61.400001525879</ele>
        <time>2021-06-17T08:02:34.000Z</time>
      </trkpt>
      <trkpt lat="47.32988" lon="-2.46556">
        <ele>61.400001525879</ele>
        <time>2021-06-17T08:02:37.000Z</time>
      </trkpt>
      <trkpt lat="47.33008" lon="-2.46541">
        <ele>61.799999237061</ele>
        <time>2021-06-17T08:02:43.000Z</time>
      </trkpt>
      <trkpt lat="47.33011" lon="-2.46539">
        <ele>62.200000762939</ele>
        <time>2021-06-17T08:02:44.000Z</time>
      </trkpt>
      <trkpt lat="47.33015" lon="-2.46538">
        <ele>62.599998474121</ele>
        <time>2021-06-17T08:02:45.000Z</time>
      </trkpt>
      <trkpt lat="47.33019" lon="-2.46537">
        <ele>63</ele>
        <time>2021-06-17T08:02:46.000Z</time>
      </trkpt>
      <trkpt lat="47.33023" lon="-2.46536">
        <ele>63.400001525879</ele>
        <time>2021-06-17T08:02:47.000Z</time>
      </trkpt>
      <trkpt lat="47.33031" lon="-2.46536">
        <ele>63.400001525879</ele>
        <time>2021-06-17T08:02:49.000Z</time>
      </trkpt>
      <trkpt lat="47.33043" lon="-2.46535">
        <ele>63.799999237061</ele>
        <time>2021-06-17T08:02:52.000Z</time>
      </trkpt>
      <trkpt lat="47.33046" lon="-2.46535">
        <ele>64.199996948242</ele>
        <time>2021-06-17T08:02:53.000Z</time>
      </trkpt>
      <trkpt lat="47.3305" lon="-2.46534">
        <ele>64.599998474121</ele>
        <time>2021-06-17T08:02:54.000Z</time>
      </trkpt>
      <trkpt lat="47.33054" lon="-2.46532">
        <ele>65</ele>
        <time>2021-06-17T08:02:55.000Z</time>
      </trkpt>
      <trkpt lat="47.33057" lon="-2.46531">
        <ele>65.400001525879</ele>
        <time>2021-06-17T08:02:56.000Z</time>
      </trkpt>
      <trkpt lat="47.33075" lon="-2.46522">
        <ele>65.400001525879</ele>
        <time>2021-06-17T08:03:01.000Z</time>
      </trkpt>
      <trkpt lat="47.33081" lon="-2.46519">
        <ele>66</ele>
        <time>2021-06-17T08:03:03.000Z</time>
      </trkpt>
      <trkpt lat="47.33084" lon="-2.46518">
        <ele>66.800003051758</ele>
        <time>2021-06-17T08:03:04.000Z</time>
      </trkpt>
      <trkpt lat="47.33087" lon="-2.46516">
        <ele>67.199996948242</ele>
        <time>2021-06-17T08:03:05.000Z</time>
      </trkpt>
      <trkpt lat="47.33091" lon="-2.46515">
        <ele>67.599998474121</ele>
        <time>2021-06-17T08:03:06.000Z</time>
      </trkpt>
      <trkpt lat="47.33101" lon="-2.46511">
        <ele>68</ele>
        <time>2021-06-17T08:03:09.000Z</time>
      </trkpt>
      <trkpt lat="47.33104" lon="-2.46509">
        <ele>68.400001525879</ele>
        <time>2021-06-17T08:03:10.000Z</time>
      </trkpt>
      <trkpt lat="47.33108" lon="-2.46508">
        <ele>68.800003051758</ele>
        <time>2021-06-17T08:03:11.000Z</time>
      </trkpt>
      <trkpt lat="47.3311" lon="-2.46507">
        <ele>69.199996948242</ele>
        <time>2021-06-17T08:03:12.000Z</time>
      </trkpt>
      <trkpt lat="47.33113" lon="-2.46505">
        <ele>69.800003051758</ele>
        <time>2021-06-17T08:03:13.000Z</time>
      </trkpt>
      <trkpt lat="47.33118" lon="-2.46502">
        <ele>69.800003051758</ele>
        <time>2021-06-17T08:03:15.000Z</time>
      </trkpt>
      <trkpt lat="47.33134" lon="-2.46498">
        <ele>70.199996948242</ele>
        <time>2021-06-17T08:03:21.000Z</time>
      </trkpt>
      <trkpt lat="47.33136" lon="-2.46498">
        <ele>70.599998474121</ele>
        <time>2021-06-17T08:03:22.000Z</time>
      </trkpt>
      <trkpt lat="47.33138" lon="-2.46498">
        <ele>71</ele>
        <time>2021-06-17T08:03:23.000Z</time>
      </trkpt>
      <trkpt lat="47.3314" lon="-2.46497">
        <ele>71.400001525879</ele>
        <time>2021-06-17T08:03:24.000Z</time>
      </trkpt>
      <trkpt lat="47.33142" lon="-2.46497">
        <ele>71.800003051758</ele>
        <time>2021-06-17T08:03:25.000Z</time>
      </trkpt>
      <trkpt lat="47.33152" lon="-2.46496">
        <ele>71.800003051758</ele>
        <time>2021-06-17T08:03:29.000Z</time>
      </trkpt>
      <trkpt lat="47.33168" lon="-2.46488">
        <ele>72.199996948242</ele>
        <time>2021-06-17T08:03:37.000Z</time>
      </trkpt>
      <trkpt lat="47.3317" lon="-2.46487">
        <ele>72.599998474121</ele>
        <time>2021-06-17T08:03:38.000Z</time>
      </trkpt>
      <trkpt lat="47.33172" lon="-2.46486">
        <ele>73</ele>
        <time>2021-06-17T08:03:39.000Z</time>
      </trkpt>
      <trkpt lat="47.33174" lon="-2.46485">
        <ele>73.400001525879</ele>
        <time>2021-06-17T08:03:40.000Z</time>
      </trkpt>
      <trkpt lat="47.33176" lon="-2.46484">
        <ele>73.800003051758</ele>
        <time>2021-06-17T08:03:41.000Z</time>
      </trkpt>
      <trkpt lat="47.33184" lon="-2.4648">
        <ele>73.800003051758</ele>
        <time>2021-06-17T08:03:45.000Z</time>
      </trkpt>
      <trkpt lat="47.33191" lon="-2.46477">
        <ele>74.199996948242</ele>
        <time>2021-06-17T08:03:50.000Z</time>
      </trkpt>
      <trkpt lat="47.33192" lon="-2.46477">
        <ele>74.599998474121</ele>
        <time>2021-06-17T08:03:51.000Z</time>
      </trkpt>
      <trkpt lat="47.33194" lon="-2.46476">
        <ele>75.199996948242</ele>
        <time>2021-06-17T08:03:52.000Z</time>
      </trkpt>
      <trkpt lat="47.33195" lon="-2.46476">
        <ele>76</ele>
        <time>2021-06-17T08:03:53.000Z</time>
      </trkpt>
      <trkpt lat="47.33202" lon="-2.46475">
        <ele>76</ele>
        <time>2021-06-17T08:03:57.000Z</time>
      </trkpt>
      <trkpt lat="47.33207" lon="-2.46476">
        <ele>76</ele>
        <time>2021-06-17T08:03:59.000Z</time>
      </trkpt>
      <trkpt lat="47.33209" lon="-2.46475">
        <ele>76.400001525879</ele>
        <time>2021-06-17T08:04:00.000Z</time>
      </trkpt>
      <trkpt lat="47.3321" lon="-2.46475">
        <ele>76.800003051758</ele>
        <time>2021-06-17T08:04:01.000Z</time>
      </trkpt>
      <trkpt lat="47.33212" lon="-2.46474">
        <ele>77.199996948242</ele>
        <time>2021-06-17T08:04:02.000Z</time>
      </trkpt>
      <trkpt lat="47.33214" lon="-2.46474">
        <ele>77.599998474121</ele>
        <time>2021-06-17T08:04:03.000Z</time>
      </trkpt>
      <trkpt lat="47.33215" lon="-2.46473">
        <ele>78</ele>
        <time>2021-06-17T08:04:04.000Z</time>
      </trkpt>
      <trkpt lat="47.33224" lon="-2.46464">
        <ele>78</ele>
        <time>2021-06-17T08:04:09.000Z</time>
      </trkpt>
      <trkpt lat="47.33226" lon="-2.46461">
        <ele>78.400001525879</ele>
        <time>2021-06-17T08:04:10.000Z</time>
      </trkpt>
      <trkpt lat="47.33227" lon="-2.46458">
        <ele>78.800003051758</ele>
        <time>2021-06-17T08:04:11.000Z</time>
      </trkpt>
      <trkpt lat="47.33229" lon="-2.46455">
        <ele>79.199996948242</ele>
        <time>2021-06-17T08:04:12.000Z</time>
      </trkpt>
      <trkpt lat="47.3323" lon="-2.46452">
        <ele>79.800003051758</ele>
        <time>2021-06-17T08:04:13.000Z</time>
      </trkpt>
      <trkpt lat="47.33232" lon="-2.46449">
        <ele>80.199996948242</ele>
        <time>2021-06-17T08:04:14.000Z</time>
      </trkpt>
      <trkpt lat="47.33237" lon="-2.46441">
        <ele>80.199996948242</ele>
        <time>2021-06-17T08:04:17.000Z</time>
      </trkpt>
      <trkpt lat="47.33248" lon="-2.46431">
        <ele>80.599998474121</ele>
        <time>2021-06-17T08:04:23.000Z</time>
      </trkpt>
      <trkpt lat="47.3325" lon="-2.4643">
        <ele>81</ele>
        <time>2021-06-17T08:04:24.000Z</time>
      </trkpt>
      <trkpt lat="47.33253" lon="-2.4643">
        <ele>81.400001525879</ele>
        <time>2021-06-17T08:04:25.000Z</time>
      </trkpt>
      <trkpt lat="47.33255" lon="-2.4643">
        <ele>81.800003051758</ele>
        <time>2021-06-17T08:04:26.000Z</time>
      </trkpt>
      <trkpt lat="47.33258" lon="-2.46429">
        <ele>82.199996948242</ele>
        <time>2021-06-17T08:04:27.000Z</time>
      </trkpt>
      <trkpt lat="47.33265" lon="-2.4643">
        <ele>82.199996948242</ele>
        <time>2021-06-17T08:04:30.000Z</time>
      </trkpt>
      <trkpt lat="47.33276" lon="-2.46442">
        <ele>82.199996948242</ele>
        <time>2021-06-17T08:04:35.000Z</time>
      </trkpt>
      <trkpt lat="47.33283" lon="-2.46475">
        <ele>82.199996948242</ele>
        <time>2021-06-17T08:04:42.000Z</time>
      </trkpt>
      <trkpt lat="47.33288" lon="-2.46512">
        <ele>82.199996948242</ele>
        <time>2021-06-17T08:04:47.000Z</time>
      </trkpt>
      <trkpt lat="47.33294" lon="-2.46566">
        <ele>82.199996948242</ele>
        <time>2021-06-17T08:04:53.000Z</time>
      </trkpt>
      <trkpt lat="47.33296" lon="-2.46576">
        <ele>81.599998474121</ele>
        <time>2021-06-17T08:04:56.000Z</time>
      </trkpt>
      <trkpt lat="47.33297" lon="-2.46578">
        <ele>81.199996948242</ele>
        <time>2021-06-17T08:04:57.000Z</time>
      </trkpt>
      <trkpt lat="47.33297" lon="-2.4658">
        <ele>80.800003051758</ele>
        <time>2021-06-17T08:04:58.000Z</time>
      </trkpt>
      <trkpt lat="47.33297" lon="-2.46581">
        <ele>80.199996948242</ele>
        <time>2021-06-17T08:04:59.000Z</time>
      </trkpt>
      <trkpt lat="47.33299" lon="-2.46587">
        <ele>79.800003051758</ele>
        <time>2021-06-17T08:05:31.000Z</time>
      </trkpt>
      <trkpt lat="47.333" lon="-2.46589">
        <ele>79.800003051758</ele>
        <time>2021-06-17T08:05:32.000Z</time>
      </trkpt>
      <trkpt lat="47.33308" lon="-2.46604">
        <ele>79.800003051758</ele>
        <time>2021-06-17T08:05:37.000Z</time>
      </trkpt>
      <trkpt lat="47.33324" lon="-2.46626">
        <ele>79.800003051758</ele>
        <time>2021-06-17T08:05:43.000Z</time>
      </trkpt>
      <trkpt lat="47.33333" lon="-2.46644">
        <ele>79.800003051758</ele>
        <time>2021-06-17T08:05:48.000Z</time>
      </trkpt>
      <trkpt lat="47.33332" lon="-2.46656">
        <ele>79.800003051758</ele>
        <time>2021-06-17T08:05:52.000Z</time>
      </trkpt>
      <trkpt lat="47.33332" lon="-2.46658">
        <ele>79.800003051758</ele>
        <time>2021-06-17T08:05:53.000Z</time>
      </trkpt>
      <trkpt lat="47.33336" lon="-2.46655">
        <ele>79.800003051758</ele>
        <time>2021-06-17T08:05:56.000Z</time>
      </trkpt>
      <trkpt lat="47.33338" lon="-2.46654">
        <ele>79.800003051758</ele>
        <time>2021-06-17T08:05:57.000Z</time>
      </trkpt>
      <trkpt lat="47.3335" lon="-2.46649">
        <ele>79.800003051758</ele>
        <time>2021-06-17T08:06:02.000Z</time>
      </trkpt>
      <trkpt lat="47.33365" lon="-2.46644">
        <ele>79.800003051758</ele>
        <time>2021-06-17T08:06:08.000Z</time>
      </trkpt>
      <trkpt lat="47.33379" lon="-2.46632">
        <ele>79.800003051758</ele>
        <time>2021-06-17T08:06:14.000Z</time>
      </trkpt>
      <trkpt lat="47.33391" lon="-2.46617">
        <ele>80.199996948242</ele>
        <time>2021-06-17T08:06:21.000Z</time>
      </trkpt>
      <trkpt lat="47.33393" lon="-2.46614">
        <ele>81.199996948242</ele>
        <time>2021-06-17T08:06:22.000Z</time>
      </trkpt>
      <trkpt lat="47.33395" lon="-2.46612">
        <ele>81.599998474121</ele>
        <time>2021-06-17T08:06:23.000Z</time>
      </trkpt>
      <trkpt lat="47.33397" lon="-2.4661">
        <ele>82</ele>
        <time>2021-06-17T08:06:24.000Z</time>
      </trkpt>
      <trkpt lat="47.33404" lon="-2.466">
        <ele>82</ele>
        <time>2021-06-17T08:06:29.000Z</time>
      </trkpt>
      <trkpt lat="47.33409" lon="-2.46596">
        <ele>82.400001525879</ele>
        <time>2021-06-17T08:06:32.000Z</time>
      </trkpt>
      <trkpt lat="47.3341" lon="-2.46594">
        <ele>82.800003051758</ele>
        <time>2021-06-17T08:06:33.000Z</time>
      </trkpt>
      <trkpt lat="47.33411" lon="-2.46592">
        <ele>83.199996948242</ele>
        <time>2021-06-17T08:06:34.000Z</time>
      </trkpt>
      <trkpt lat="47.33413" lon="-2.46591">
        <ele>83.599998474121</ele>
        <time>2021-06-17T08:06:35.000Z</time>
      </trkpt>
      <trkpt lat="47.33415" lon="-2.4659">
        <ele>84</ele>
        <time>2021-06-17T08:06:36.000Z</time>
      </trkpt>
      <trkpt lat="47.33436" lon="-2.4658">
        <ele>84.400001525879</ele>
        <time>2021-06-17T08:06:43.000Z</time>
      </trkpt>
      <trkpt lat="47.33439" lon="-2.46579">
        <ele>84.800003051758</ele>
        <time>2021-06-17T08:06:44.000Z</time>
      </trkpt>
      <trkpt lat="47.33442" lon="-2.46577">
        <ele>85.199996948242</ele>
        <time>2021-06-17T08:06:45.000Z</time>
      </trkpt>
      <trkpt lat="47.33444" lon="-2.46575">
        <ele>86</ele>
        <time>2021-06-17T08:06:46.000Z</time>
      </trkpt>
      <trkpt lat="47.33449" lon="-2.46567">
        <ele>86</ele>
        <time>2021-06-17T08:06:49.000Z</time>
      </trkpt>
      <trkpt lat="47.33458" lon="-2.46557">
        <ele>86</ele>
        <time>2021-06-17T08:06:54.000Z</time>
      </trkpt>
      <trkpt lat="47.3346" lon="-2.46554">
        <ele>86.599998474121</ele>
        <time>2021-06-17T08:06:55.000Z</time>
      </trkpt>
      <trkpt lat="47.33461" lon="-2.46552">
        <ele>87</ele>
        <time>2021-06-17T08:06:56.000Z</time>
      </trkpt>
      <trkpt lat="47.33463" lon="-2.4655">
        <ele>87.400001525879</ele>
        <time>2021-06-17T08:06:57.000Z</time>
      </trkpt>
      <trkpt lat="47.33464" lon="-2.46548">
        <ele>87.800003051758</ele>
        <time>2021-06-17T08:06:58.000Z</time>
      </trkpt>
      <trkpt lat="47.33466" lon="-2.46546">
        <ele>88.199996948242</ele>
        <time>2021-06-17T08:06:59.000Z</time>
      </trkpt>
      <trkpt lat="47.33471" lon="-2.46539">
        <ele>88.199996948242</ele>
        <time>2021-06-17T08:07:02.000Z</time>
      </trkpt>
      <trkpt lat="47.3348" lon="-2.46524">
        <ele>88.599998474121</ele>
        <time>2021-06-17T08:07:09.000Z</time>
      </trkpt>
      <trkpt lat="47.33481" lon="-2.46522">
        <ele>89</ele>
        <time>2021-06-17T08:07:10.000Z</time>
      </trkpt>
      <trkpt lat="47.33482" lon="-2.4652">
        <ele>90</ele>
        <time>2021-06-17T08:07:11.000Z</time>
      </trkpt>
      <trkpt lat="47.33483" lon="-2.46518">
        <ele>90.400001525879</ele>
        <time>2021-06-17T08:07:12.000Z</time>
      </trkpt>
      <trkpt lat="47.33491" lon="-2.46506">
        <ele>90.400001525879</ele>
        <time>2021-06-17T08:07:18.000Z</time>
      </trkpt>
      <trkpt lat="47.33501" lon="-2.46493">
        <ele>90.800003051758</ele>
        <time>2021-06-17T08:07:23.000Z</time>
      </trkpt>
      <trkpt lat="47.33503" lon="-2.46492">
        <ele>91.199996948242</ele>
        <time>2021-06-17T08:07:24.000Z</time>
      </trkpt>
      <trkpt lat="47.33505" lon="-2.46491">
        <ele>91.599998474121</ele>
        <time>2021-06-17T08:07:25.000Z</time>
      </trkpt>
      <trkpt lat="47.33507" lon="-2.46492">
        <ele>92</ele>
        <time>2021-06-17T08:07:26.000Z</time>
      </trkpt>
      <trkpt lat="47.33512" lon="-2.46492">
        <ele>92.400001525879</ele>
        <time>2021-06-17T08:07:27.000Z</time>
      </trkpt>
      <trkpt lat="47.33524" lon="-2.46491">
        <ele>92.400001525879</ele>
        <time>2021-06-17T08:07:31.000Z</time>
      </trkpt>
      <trkpt lat="47.33526" lon="-2.46491">
        <ele>92.800003051758</ele>
        <time>2021-06-17T08:07:32.000Z</time>
      </trkpt>
      <trkpt lat="47.33529" lon="-2.46492">
        <ele>93.199996948242</ele>
        <time>2021-06-17T08:07:33.000Z</time>
      </trkpt>
      <trkpt lat="47.33531" lon="-2.46493">
        <ele>93.599998474121</ele>
        <time>2021-06-17T08:07:34.000Z</time>
      </trkpt>
      <trkpt lat="47.33534" lon="-2.46495">
        <ele>94</ele>
        <time>2021-06-17T08:07:35.000Z</time>
      </trkpt>
      <trkpt lat="47.33536" lon="-2.46498">
        <ele>94.400001525879</ele>
        <time>2021-06-17T08:07:36.000Z</time>
      </trkpt>
      <trkpt lat="47.33538" lon="-2.4651">
        <ele>94.400001525879</ele>
        <time>2021-06-17T08:07:38.000Z</time>
      </trkpt>
      <trkpt lat="47.3354" lon="-2.46516">
        <ele>94</ele>
        <time>2021-06-17T08:07:39.000Z</time>
      </trkpt>
      <trkpt lat="47.33541" lon="-2.46521">
        <ele>93.599998474121</ele>
        <time>2021-06-17T08:07:40.000Z</time>
      </trkpt>
      <trkpt lat="47.33542" lon="-2.46525">
        <ele>93</ele>
        <time>2021-06-17T08:07:41.000Z</time>
      </trkpt>
      <trkpt lat="47.33542" lon="-2.46529">
        <ele>92.599998474121</ele>
        <time>2021-06-17T08:07:42.000Z</time>
      </trkpt>
      <trkpt lat="47.33543" lon="-2.46532">
        <ele>92.199996948242</ele>
        <time>2021-06-17T08:07:43.000Z</time>
      </trkpt>
      <trkpt lat="47.33548" lon="-2.46553">
        <ele>92.199996948242</ele>
        <time>2021-06-17T08:07:49.000Z</time>
      </trkpt>
      <trkpt lat="47.33557" lon="-2.46586">
        <ele>92.199996948242</ele>
        <time>2021-06-17T08:07:57.000Z</time>
      </trkpt>
      <trkpt lat="47.33561" lon="-2.46589">
        <ele>92.199996948242</ele>
        <time>2021-06-17T08:07:59.000Z</time>
      </trkpt>
      <trkpt lat="47.3357" lon="-2.46592">
        <ele>92.199996948242</ele>
        <time>2021-06-17T08:08:02.000Z</time>
      </trkpt>
      <trkpt lat="47.33575" lon="-2.46606">
        <ele>92.199996948242</ele>
        <time>2021-06-17T08:08:05.000Z</time>
      </trkpt>
      <trkpt lat="47.33583" lon="-2.46639">
        <ele>92.199996948242</ele>
        <time>2021-06-17T08:08:10.000Z</time>
      </trkpt>
      <trkpt lat="47.33604" lon="-2.46695">
        <ele>92.199996948242</ele>
        <time>2021-06-17T08:08:18.000Z</time>
      </trkpt>
      <trkpt lat="47.33617" lon="-2.46734">
        <ele>92.199996948242</ele>
        <time>2021-06-17T08:08:24.000Z</time>
      </trkpt>
      <trkpt lat="47.3362" lon="-2.46747">
        <ele>92.199996948242</ele>
        <time>2021-06-17T08:08:26.000Z</time>
      </trkpt>
      <trkpt lat="47.33619" lon="-2.46757">
        <ele>92.199996948242</ele>
        <time>2021-06-17T08:08:28.000Z</time>
      </trkpt>
      <trkpt lat="47.33615" lon="-2.46765">
        <ele>92.199996948242</ele>
        <time>2021-06-17T08:08:30.000Z</time>
      </trkpt>
      <trkpt lat="47.33605" lon="-2.46775">
        <ele>91.599998474121</ele>
        <time>2021-06-17T08:08:32.000Z</time>
      </trkpt>
      <trkpt lat="47.33599" lon="-2.4678">
        <ele>91.199996948242</ele>
        <time>2021-06-17T08:08:33.000Z</time>
      </trkpt>
      <trkpt lat="47.33593" lon="-2.46786">
        <ele>90.800003051758</ele>
        <time>2021-06-17T08:08:34.000Z</time>
      </trkpt>
      <trkpt lat="47.33588" lon="-2.46792">
        <ele>90.400001525879</ele>
        <time>2021-06-17T08:08:35.000Z</time>
      </trkpt>
      <trkpt lat="47.33583" lon="-2.46799">
        <ele>89.800003051758</ele>
        <time>2021-06-17T08:08:36.000Z</time>
      </trkpt>
      <trkpt lat="47.33577" lon="-2.46806">
        <ele>89.400001525879</ele>
        <time>2021-06-17T08:08:37.000Z</time>
      </trkpt>
      <trkpt lat="47.3357" lon="-2.46813">
        <ele>88.800003051758</ele>
        <time>2021-06-17T08:08:38.000Z</time>
      </trkpt>
      <trkpt lat="47.33564" lon="-2.46819">
        <ele>88.400001525879</ele>
        <time>2021-06-17T08:08:39.000Z</time>
      </trkpt>
      <trkpt lat="47.33557" lon="-2.46826">
        <ele>87.800003051758</ele>
        <time>2021-06-17T08:08:40.000Z</time>
      </trkpt>
      <trkpt lat="47.3355" lon="-2.46832">
        <ele>87.199996948242</ele>
        <time>2021-06-17T08:08:41.000Z</time>
      </trkpt>
      <trkpt lat="47.33545" lon="-2.46837">
        <ele>86.599998474121</ele>
        <time>2021-06-17T08:08:42.000Z</time>
      </trkpt>
      <trkpt lat="47.33542" lon="-2.46841">
        <ele>86</ele>
        <time>2021-06-17T08:08:43.000Z</time>
      </trkpt>
      <trkpt lat="47.33539" lon="-2.46846">
        <ele>85.400001525879</ele>
        <time>2021-06-17T08:08:44.000Z</time>
      </trkpt>
      <trkpt lat="47.33538" lon="-2.46852">
        <ele>84.800003051758</ele>
        <time>2021-06-17T08:08:45.000Z</time>
      </trkpt>
      <trkpt lat="47.33537" lon="-2.46858">
        <ele>84.400001525879</ele>
        <time>2021-06-17T08:08:46.000Z</time>
      </trkpt>
      <trkpt lat="47.33537" lon="-2.46865">
        <ele>83.800003051758</ele>
        <time>2021-06-17T08:08:47.000Z</time>
      </trkpt>
      <trkpt lat="47.33538" lon="-2.46871">
        <ele>83.199996948242</ele>
        <time>2021-06-17T08:08:48.000Z</time>
      </trkpt>
      <trkpt lat="47.33537" lon="-2.46877">
        <ele>83.199996948242</ele>
        <time>2021-06-17T08:08:49.000Z</time>
      </trkpt>
      <trkpt lat="47.33536" lon="-2.46881">
        <ele>82.400001525879</ele>
        <time>2021-06-17T08:08:50.000Z</time>
      </trkpt>
      <trkpt lat="47.33535" lon="-2.46885">
        <ele>82</ele>
        <time>2021-06-17T08:08:51.000Z</time>
      </trkpt>
      <trkpt lat="47.33533" lon="-2.46888">
        <ele>81.599998474121</ele>
        <time>2021-06-17T08:08:52.000Z</time>
      </trkpt>
      <trkpt lat="47.33531" lon="-2.46893">
        <ele>81.199996948242</ele>
        <time>2021-06-17T08:08:53.000Z</time>
      </trkpt>
      <trkpt lat="47.33523" lon="-2.46906">
        <ele>81.199996948242</ele>
        <time>2021-06-17T08:08:56.000Z</time>
      </trkpt>
      <trkpt lat="47.33519" lon="-2.46911">
        <ele>80.800003051758</ele>
        <time>2021-06-17T08:08:57.000Z</time>
      </trkpt>
      <trkpt lat="47.33509" lon="-2.46916">
        <ele>80.199996948242</ele>
        <time>2021-06-17T08:08:58.000Z</time>
      </trkpt>
      <trkpt lat="47.33503" lon="-2.46919">
        <ele>79.800003051758</ele>
        <time>2021-06-17T08:08:59.000Z</time>
      </trkpt>
      <trkpt lat="47.33498" lon="-2.46921">
        <ele>79.400001525879</ele>
        <time>2021-06-17T08:09:00.000Z</time>
      </trkpt>
      <trkpt lat="47.33492" lon="-2.46922">
        <ele>79</ele>
        <time>2021-06-17T08:09:01.000Z</time>
      </trkpt>
      <trkpt lat="47.33487" lon="-2.46922">
        <ele>79</ele>
        <time>2021-06-17T08:09:02.000Z</time>
      </trkpt>
      <trkpt lat="47.3348" lon="-2.46923">
        <ele>79</ele>
        <time>2021-06-17T08:09:05.000Z</time>
      </trkpt>
      <trkpt lat="47.33477" lon="-2.46928">
        <ele>78.599998474121</ele>
        <time>2021-06-17T08:09:09.000Z</time>
      </trkpt>
      <trkpt lat="47.33476" lon="-2.4693">
        <ele>78.199996948242</ele>
        <time>2021-06-17T08:09:10.000Z</time>
      </trkpt>
      <trkpt lat="47.33475" lon="-2.46932">
        <ele>77.800003051758</ele>
        <time>2021-06-17T08:09:11.000Z</time>
      </trkpt>
      <trkpt lat="47.33474" lon="-2.46933">
        <ele>77.400001525879</ele>
        <time>2021-06-17T08:09:12.000Z</time>
      </trkpt>
      <trkpt lat="47.33473" lon="-2.46934">
        <ele>77</ele>
        <time>2021-06-17T08:09:13.000Z</time>
      </trkpt>
      <trkpt lat="47.33473" lon="-2.46933">
        <ele>77</ele>
        <time>2021-06-17T08:09:15.000Z</time>
      </trkpt>
      <trkpt lat="47.33472" lon="-2.46934">
        <ele>77</ele>
        <time>2021-06-17T08:09:16.000Z</time>
      </trkpt>
      <trkpt lat="47.33471" lon="-2.46936">
        <ele>77</ele>
        <time>2021-06-17T08:09:23.000Z</time>
      </trkpt>
      <trkpt lat="47.33468" lon="-2.46944">
        <ele>77</ele>
        <time>2021-06-17T08:09:26.000Z</time>
      </trkpt>
      <trkpt lat="47.33457" lon="-2.46966">
        <ele>77</ele>
        <time>2021-06-17T08:09:32.000Z</time>
      </trkpt>
      <trkpt lat="47.33437" lon="-2.46995">
        <ele>77</ele>
        <time>2021-06-17T08:09:38.000Z</time>
      </trkpt>
      <trkpt lat="47.33412" lon="-2.47034">
        <ele>77</ele>
        <time>2021-06-17T08:09:45.000Z</time>
      </trkpt>
      <trkpt lat="47.33396" lon="-2.47076">
        <ele>77</ele>
        <time>2021-06-17T08:09:51.000Z</time>
      </trkpt>
      <trkpt lat="47.33394" lon="-2.47084">
        <ele>77</ele>
        <time>2021-06-17T08:09:52.000Z</time>
      </trkpt>
      <trkpt lat="47.33393" lon="-2.47092">
        <ele>76.599998474121</ele>
        <time>2021-06-17T08:09:53.000Z</time>
      </trkpt>
      <trkpt lat="47.33391" lon="-2.47099">
        <ele>76.199996948242</ele>
        <time>2021-06-17T08:09:54.000Z</time>
      </trkpt>
      <trkpt lat="47.3339" lon="-2.47107">
        <ele>75.800003051758</ele>
        <time>2021-06-17T08:09:55.000Z</time>
      </trkpt>
      <trkpt lat="47.33389" lon="-2.47115">
        <ele>75.400001525879</ele>
        <time>2021-06-17T08:09:56.000Z</time>
      </trkpt>
      <trkpt lat="47.33388" lon="-2.47123">
        <ele>75</ele>
        <time>2021-06-17T08:09:57.000Z</time>
      </trkpt>
      <trkpt lat="47.33387" lon="-2.47129">
        <ele>75</ele>
        <time>2021-06-17T08:09:58.000Z</time>
      </trkpt>
      <trkpt lat="47.33378" lon="-2.47154">
        <ele>75</ele>
        <time>2021-06-17T08:10:03.000Z</time>
      </trkpt>
      <trkpt lat="47.33376" lon="-2.4716">
        <ele>75</ele>
        <time>2021-06-17T08:10:04.000Z</time>
      </trkpt>
      <trkpt lat="47.33373" lon="-2.47173">
        <ele>75</ele>
        <time>2021-06-17T08:10:06.000Z</time>
      </trkpt>
      <trkpt lat="47.33373" lon="-2.4718">
        <ele>75</ele>
        <time>2021-06-17T08:10:07.000Z</time>
      </trkpt>
      <trkpt lat="47.33374" lon="-2.47187">
        <ele>75</ele>
        <time>2021-06-17T08:10:08.000Z</time>
      </trkpt>
      <trkpt lat="47.33376" lon="-2.47204">
        <ele>75</ele>
        <time>2021-06-17T08:10:10.000Z</time>
      </trkpt>
      <trkpt lat="47.33384" lon="-2.47261">
        <ele>75</ele>
        <time>2021-06-17T08:10:16.000Z</time>
      </trkpt>
      <trkpt lat="47.33388" lon="-2.473">
        <ele>75</ele>
        <time>2021-06-17T08:10:20.000Z</time>
      </trkpt>
      <trkpt lat="47.33389" lon="-2.47309">
        <ele>75</ele>
        <time>2021-06-17T08:10:21.000Z</time>
      </trkpt>
      <trkpt lat="47.33391" lon="-2.47331">
        <ele>75</ele>
        <time>2021-06-17T08:10:25.000Z</time>
      </trkpt>
      <trkpt lat="47.3339" lon="-2.47336">
        <ele>75</ele>
        <time>2021-06-17T08:10:29.000Z</time>
      </trkpt>
      <trkpt lat="47.33389" lon="-2.4734">
        <ele>75</ele>
        <time>2021-06-17T08:10:33.000Z</time>
      </trkpt>
      <trkpt lat="47.3339" lon="-2.47343">
        <ele>75</ele>
        <time>2021-06-17T08:10:34.000Z</time>
      </trkpt>
      <trkpt lat="47.33396" lon="-2.47366">
        <ele>75</ele>
        <time>2021-06-17T08:10:39.000Z</time>
      </trkpt>
      <trkpt lat="47.3341" lon="-2.47411">
        <ele>75</ele>
        <time>2021-06-17T08:10:47.000Z</time>
      </trkpt>
      <trkpt lat="47.3342" lon="-2.47456">
        <ele>75</ele>
        <time>2021-06-17T08:10:54.000Z</time>
      </trkpt>
      <trkpt lat="47.33424" lon="-2.47468">
        <ele>75</ele>
        <time>2021-06-17T08:10:56.000Z</time>
      </trkpt>
      <trkpt lat="47.33431" lon="-2.47487">
        <ele>75</ele>
        <time>2021-06-17T08:10:59.000Z</time>
      </trkpt>
      <trkpt lat="47.33454" lon="-2.47548">
        <ele>75</ele>
        <time>2021-06-17T08:11:09.000Z</time>
      </trkpt>
      <trkpt lat="47.33475" lon="-2.47589">
        <ele>75</ele>
        <time>2021-06-17T08:11:16.000Z</time>
      </trkpt>
      <trkpt lat="47.33482" lon="-2.476">
        <ele>75</ele>
        <time>2021-06-17T08:11:18.000Z</time>
      </trkpt>
      <trkpt lat="47.33494" lon="-2.47612">
        <ele>75</ele>
        <time>2021-06-17T08:11:21.000Z</time>
      </trkpt>
      <trkpt lat="47.33503" lon="-2.47621">
        <ele>75</ele>
        <time>2021-06-17T08:11:23.000Z</time>
      </trkpt>
      <trkpt lat="47.3351" lon="-2.47635">
        <ele>75</ele>
        <time>2021-06-17T08:11:25.000Z</time>
      </trkpt>
      <trkpt lat="47.33519" lon="-2.47656">
        <ele>75</ele>
        <time>2021-06-17T08:11:28.000Z</time>
      </trkpt>
      <trkpt lat="47.33531" lon="-2.47673">
        <ele>75</ele>
        <time>2021-06-17T08:11:31.000Z</time>
      </trkpt>
      <trkpt lat="47.33536" lon="-2.47677">
        <ele>75</ele>
        <time>2021-06-17T08:11:32.000Z</time>
      </trkpt>
      <trkpt lat="47.33558" lon="-2.47693">
        <ele>75</ele>
        <time>2021-06-17T08:11:37.000Z</time>
      </trkpt>
      <trkpt lat="47.33573" lon="-2.47701">
        <ele>75</ele>
        <time>2021-06-17T08:11:41.000Z</time>
      </trkpt>
      <trkpt lat="47.3358" lon="-2.47701">
        <ele>75</ele>
        <time>2021-06-17T08:11:43.000Z</time>
      </trkpt>
      <trkpt lat="47.33597" lon="-2.47691">
        <ele>75</ele>
        <time>2021-06-17T08:11:48.000Z</time>
      </trkpt>
      <trkpt lat="47.33618" lon="-2.47667">
        <ele>75</ele>
        <time>2021-06-17T08:11:55.000Z</time>
      </trkpt>
      <trkpt lat="47.33625" lon="-2.47661">
        <ele>75</ele>
        <time>2021-06-17T08:11:57.000Z</time>
      </trkpt>
      <trkpt lat="47.33637" lon="-2.47654">
        <ele>75</ele>
        <time>2021-06-17T08:12:00.000Z</time>
      </trkpt>
      <trkpt lat="47.33667" lon="-2.47631">
        <ele>75</ele>
        <time>2021-06-17T08:12:08.000Z</time>
      </trkpt>
      <trkpt lat="47.33685" lon="-2.4762">
        <ele>75</ele>
        <time>2021-06-17T08:12:13.000Z</time>
      </trkpt>
      <trkpt lat="47.33694" lon="-2.47617">
        <ele>75.400001525879</ele>
        <time>2021-06-17T08:12:15.000Z</time>
      </trkpt>
      <trkpt lat="47.33699" lon="-2.47617">
        <ele>75.800003051758</ele>
        <time>2021-06-17T08:12:16.000Z</time>
      </trkpt>
      <trkpt lat="47.33703" lon="-2.47617">
        <ele>76.199996948242</ele>
        <time>2021-06-17T08:12:17.000Z</time>
      </trkpt>
      <trkpt lat="47.33708" lon="-2.47617">
        <ele>76.599998474121</ele>
        <time>2021-06-17T08:12:18.000Z</time>
      </trkpt>
      <trkpt lat="47.33712" lon="-2.47617">
        <ele>77</ele>
        <time>2021-06-17T08:12:19.000Z</time>
      </trkpt>
      <trkpt lat="47.33719" lon="-2.47617">
        <ele>77</ele>
        <time>2021-06-17T08:12:21.000Z</time>
      </trkpt>
      <trkpt lat="47.33736" lon="-2.47625">
        <ele>77</ele>
        <time>2021-06-17T08:12:26.000Z</time>
      </trkpt>
      <trkpt lat="47.33756" lon="-2.47646">
        <ele>77</ele>
        <time>2021-06-17T08:12:32.000Z</time>
      </trkpt>
      <trkpt lat="47.33758" lon="-2.47651">
        <ele>77</ele>
        <time>2021-06-17T08:12:33.000Z</time>
      </trkpt>
      <trkpt lat="47.33771" lon="-2.47675">
        <ele>77</ele>
        <time>2021-06-17T08:12:37.000Z</time>
      </trkpt>
      <trkpt lat="47.33789" lon="-2.47696">
        <ele>76.599998474121</ele>
        <time>2021-06-17T08:12:41.000Z</time>
      </trkpt>
      <trkpt lat="47.33793" lon="-2.47701">
        <ele>76.199996948242</ele>
        <time>2021-06-17T08:12:42.000Z</time>
      </trkpt>
      <trkpt lat="47.33797" lon="-2.47707">
        <ele>75.599998474121</ele>
        <time>2021-06-17T08:12:43.000Z</time>
      </trkpt>
      <trkpt lat="47.33802" lon="-2.47713">
        <ele>75.199996948242</ele>
        <time>2021-06-17T08:12:44.000Z</time>
      </trkpt>
      <trkpt lat="47.33806" lon="-2.47719">
        <ele>74.800003051758</ele>
        <time>2021-06-17T08:12:45.000Z</time>
      </trkpt>
      <trkpt lat="47.33824" lon="-2.47741">
        <ele>74.800003051758</ele>
        <time>2021-06-17T08:12:49.000Z</time>
      </trkpt>
      <trkpt lat="47.33849" lon="-2.4777">
        <ele>74.800003051758</ele>
        <time>2021-06-17T08:12:55.000Z</time>
      </trkpt>
      <trkpt lat="47.33853" lon="-2.47772">
        <ele>74.400001525879</ele>
        <time>2021-06-17T08:12:56.000Z</time>
      </trkpt>
      <trkpt lat="47.33857" lon="-2.47772">
        <ele>74</ele>
        <time>2021-06-17T08:12:57.000Z</time>
      </trkpt>
      <trkpt lat="47.3386" lon="-2.47769">
        <ele>73</ele>
        <time>2021-06-17T08:12:58.000Z</time>
      </trkpt>
      <trkpt lat="47.33862" lon="-2.47766">
        <ele>72.599998474121</ele>
        <time>2021-06-17T08:12:59.000Z</time>
      </trkpt>
      <trkpt lat="47.33867" lon="-2.47757">
        <ele>72.599998474121</ele>
        <time>2021-06-17T08:13:01.000Z</time>
      </trkpt>
      <trkpt lat="47.33878" lon="-2.47736">
        <ele>72.599998474121</ele>
        <time>2021-06-17T08:13:05.000Z</time>
      </trkpt>
      <trkpt lat="47.33896" lon="-2.47698">
        <ele>72.599998474121</ele>
        <time>2021-06-17T08:13:12.000Z</time>
      </trkpt>
      <trkpt lat="47.33909" lon="-2.47674">
        <ele>73</ele>
        <time>2021-06-17T08:13:17.000Z</time>
      </trkpt>
      <trkpt lat="47.33912" lon="-2.47669">
        <ele>73.599998474121</ele>
        <time>2021-06-17T08:13:18.000Z</time>
      </trkpt>
      <trkpt lat="47.33915" lon="-2.47664">
        <ele>74</ele>
        <time>2021-06-17T08:13:19.000Z</time>
      </trkpt>
      <trkpt lat="47.33918" lon="-2.47659">
        <ele>74.400001525879</ele>
        <time>2021-06-17T08:13:20.000Z</time>
      </trkpt>
      <trkpt lat="47.3392" lon="-2.47654">
        <ele>74.800003051758</ele>
        <time>2021-06-17T08:13:21.000Z</time>
      </trkpt>
      <trkpt lat="47.33926" lon="-2.47639">
        <ele>74.800003051758</ele>
        <time>2021-06-17T08:13:24.000Z</time>
      </trkpt>
      <trkpt lat="47.33937" lon="-2.47604">
        <ele>74.800003051758</ele>
        <time>2021-06-17T08:13:31.000Z</time>
      </trkpt>
      <trkpt lat="47.33939" lon="-2.47599">
        <ele>75.199996948242</ele>
        <time>2021-06-17T08:13:32.000Z</time>
      </trkpt>
      <trkpt lat="47.3394" lon="-2.47594">
        <ele>75.599998474121</ele>
        <time>2021-06-17T08:13:33.000Z</time>
      </trkpt>
      <trkpt lat="47.33942" lon="-2.4759">
        <ele>76.199996948242</ele>
        <time>2021-06-17T08:13:34.000Z</time>
      </trkpt>
      <trkpt lat="47.33943" lon="-2.47585">
        <ele>76.599998474121</ele>
        <time>2021-06-17T08:13:35.000Z</time>
      </trkpt>
      <trkpt lat="47.33945" lon="-2.47581">
        <ele>77</ele>
        <time>2021-06-17T08:13:36.000Z</time>
      </trkpt>
      <trkpt lat="47.33948" lon="-2.47572">
        <ele>77</ele>
        <time>2021-06-17T08:13:38.000Z</time>
      </trkpt>
      <trkpt lat="47.33957" lon="-2.47552">
        <ele>77.400001525879</ele>
        <time>2021-06-17T08:13:44.000Z</time>
      </trkpt>
      <trkpt lat="47.33959" lon="-2.47548">
        <ele>77.800003051758</ele>
        <time>2021-06-17T08:13:45.000Z</time>
      </trkpt>
      <trkpt lat="47.33961" lon="-2.47545">
        <ele>78.199996948242</ele>
        <time>2021-06-17T08:13:46.000Z</time>
      </trkpt>
      <trkpt lat="47.33964" lon="-2.4754">
        <ele>79</ele>
        <time>2021-06-17T08:13:47.000Z</time>
      </trkpt>
      <trkpt lat="47.3397" lon="-2.47532">
        <ele>79</ele>
        <time>2021-06-17T08:13:49.000Z</time>
      </trkpt>
      <trkpt lat="47.3398" lon="-2.47522">
        <ele>79.400001525879</ele>
        <time>2021-06-17T08:13:52.000Z</time>
      </trkpt>
      <trkpt lat="47.33983" lon="-2.47519">
        <ele>79.800003051758</ele>
        <time>2021-06-17T08:13:53.000Z</time>
      </trkpt>
      <trkpt lat="47.33987" lon="-2.47515">
        <ele>80.400001525879</ele>
        <time>2021-06-17T08:13:54.000Z</time>
      </trkpt>
      <trkpt lat="47.3399" lon="-2.47512">
        <ele>80.800003051758</ele>
        <time>2021-06-17T08:13:55.000Z</time>
      </trkpt>
      <trkpt lat="47.33995" lon="-2.47509">
        <ele>81.199996948242</ele>
        <time>2021-06-17T08:13:56.000Z</time>
      </trkpt>
      <trkpt lat="47.34012" lon="-2.47492">
        <ele>81.199996948242</ele>
        <time>2021-06-17T08:14:01.000Z</time>
      </trkpt>
      <trkpt lat="47.34016" lon="-2.47489">
        <ele>81.599998474121</ele>
        <time>2021-06-17T08:14:02.000Z</time>
      </trkpt>
      <trkpt lat="47.34019" lon="-2.47485">
        <ele>82</ele>
        <time>2021-06-17T08:14:03.000Z</time>
      </trkpt>
      <trkpt lat="47.34022" lon="-2.47482">
        <ele>82.400001525879</ele>
        <time>2021-06-17T08:14:04.000Z</time>
      </trkpt>
      <trkpt lat="47.34025" lon="-2.47479">
        <ele>82.800003051758</ele>
        <time>2021-06-17T08:14:05.000Z</time>
      </trkpt>
      <trkpt lat="47.34028" lon="-2.47476">
        <ele>83.400001525879</ele>
        <time>2021-06-17T08:14:06.000Z</time>
      </trkpt>
      <trkpt lat="47.34035" lon="-2.47469">
        <ele>83.400001525879</ele>
        <time>2021-06-17T08:14:08.000Z</time>
      </trkpt>
      <trkpt lat="47.34053" lon="-2.47449">
        <ele>83.400001525879</ele>
        <time>2021-06-17T08:14:14.000Z</time>
      </trkpt>
      <trkpt lat="47.34061" lon="-2.47438">
        <ele>83.800003051758</ele>
        <time>2021-06-17T08:14:17.000Z</time>
      </trkpt>
      <trkpt lat="47.34063" lon="-2.47434">
        <ele>84.199996948242</ele>
        <time>2021-06-17T08:14:18.000Z</time>
      </trkpt>
      <trkpt lat="47.34066" lon="-2.47431">
        <ele>84.599998474121</ele>
        <time>2021-06-17T08:14:19.000Z</time>
      </trkpt>
      <trkpt lat="47.34069" lon="-2.47428">
        <ele>85</ele>
        <time>2021-06-17T08:14:20.000Z</time>
      </trkpt>
      <trkpt lat="47.34071" lon="-2.47425">
        <ele>85.400001525879</ele>
        <time>2021-06-17T08:14:21.000Z</time>
      </trkpt>
      <trkpt lat="47.34079" lon="-2.47415">
        <ele>85.400001525879</ele>
        <time>2021-06-17T08:14:26.000Z</time>
      </trkpt>
      <trkpt lat="47.34086" lon="-2.47404">
        <ele>85.400001525879</ele>
        <time>2021-06-17T08:14:32.000Z</time>
      </trkpt>
      <trkpt lat="47.34094" lon="-2.47386">
        <ele>85.800003051758</ele>
        <time>2021-06-17T08:14:37.000Z</time>
      </trkpt>
      <trkpt lat="47.34095" lon="-2.47382">
        <ele>86.199996948242</ele>
        <time>2021-06-17T08:14:38.000Z</time>
      </trkpt>
      <trkpt lat="47.34097" lon="-2.47377">
        <ele>86.599998474121</ele>
        <time>2021-06-17T08:14:39.000Z</time>
      </trkpt>
      <trkpt lat="47.34099" lon="-2.47372">
        <ele>87</ele>
        <time>2021-06-17T08:14:40.000Z</time>
      </trkpt>
      <trkpt lat="47.34101" lon="-2.47367">
        <ele>87.400001525879</ele>
        <time>2021-06-17T08:14:41.000Z</time>
      </trkpt>
      <trkpt lat="47.34108" lon="-2.47352">
        <ele>87.400001525879</ele>
        <time>2021-06-17T08:14:44.000Z</time>
      </trkpt>
      <trkpt lat="47.34119" lon="-2.47328">
        <ele>87.800003051758</ele>
        <time>2021-06-17T08:14:49.000Z</time>
      </trkpt>
      <trkpt lat="47.34121" lon="-2.47323">
        <ele>88.199996948242</ele>
        <time>2021-06-17T08:14:50.000Z</time>
      </trkpt>
      <trkpt lat="47.34122" lon="-2.47318">
        <ele>88.599998474121</ele>
        <time>2021-06-17T08:14:51.000Z</time>
      </trkpt>
      <trkpt lat="47.34123" lon="-2.47314">
        <ele>89.199996948242</ele>
        <time>2021-06-17T08:14:52.000Z</time>
      </trkpt>
      <trkpt lat="47.34125" lon="-2.4731">
        <ele>89.599998474121</ele>
        <time>2021-06-17T08:14:53.000Z</time>
      </trkpt>
      <trkpt lat="47.34131" lon="-2.47295">
        <ele>89.599998474121</ele>
        <time>2021-06-17T08:14:56.000Z</time>
      </trkpt>
      <trkpt lat="47.3414" lon="-2.47281">
        <ele>89.599998474121</ele>
        <time>2021-06-17T08:14:59.000Z</time>
      </trkpt>
      <trkpt lat="47.34145" lon="-2.47276">
        <ele>90</ele>
        <time>2021-06-17T08:15:00.000Z</time>
      </trkpt>
      <trkpt lat="47.34149" lon="-2.47272">
        <ele>90.800003051758</ele>
        <time>2021-06-17T08:15:01.000Z</time>
      </trkpt>
      <trkpt lat="47.34154" lon="-2.47268">
        <ele>91.199996948242</ele>
        <time>2021-06-17T08:15:02.000Z</time>
      </trkpt>
      <trkpt lat="47.34158" lon="-2.47263">
        <ele>91.599998474121</ele>
        <time>2021-06-17T08:15:03.000Z</time>
      </trkpt>
      <trkpt lat="47.34177" lon="-2.47243">
        <ele>91.599998474121</ele>
        <time>2021-06-17T08:15:08.000Z</time>
      </trkpt>
      <trkpt lat="47.34195" lon="-2.47224">
        <ele>92</ele>
        <time>2021-06-17T08:15:13.000Z</time>
      </trkpt>
      <trkpt lat="47.34198" lon="-2.4722">
        <ele>92.400001525879</ele>
        <time>2021-06-17T08:15:14.000Z</time>
      </trkpt>
      <trkpt lat="47.34202" lon="-2.47216">
        <ele>92.800003051758</ele>
        <time>2021-06-17T08:15:15.000Z</time>
      </trkpt>
      <trkpt lat="47.34205" lon="-2.47212">
        <ele>93.199996948242</ele>
        <time>2021-06-17T08:15:16.000Z</time>
      </trkpt>
      <trkpt lat="47.34209" lon="-2.47208">
        <ele>93.599998474121</ele>
        <time>2021-06-17T08:15:17.000Z</time>
      </trkpt>
      <trkpt lat="47.34229" lon="-2.47183">
        <ele>93.599998474121</ele>
        <time>2021-06-17T08:15:23.000Z</time>
      </trkpt>
      <trkpt lat="47.34239" lon="-2.47168">
        <ele>93.599998474121</ele>
        <time>2021-06-17T08:15:26.000Z</time>
      </trkpt>
      <trkpt lat="47.34252" lon="-2.47153">
        <ele>93.599998474121</ele>
        <time>2021-06-17T08:15:29.000Z</time>
      </trkpt>
      <trkpt lat="47.34265" lon="-2.4714">
        <ele>94</ele>
        <time>2021-06-17T08:15:32.000Z</time>
      </trkpt>
      <trkpt lat="47.3427" lon="-2.47137">
        <ele>94.599998474121</ele>
        <time>2021-06-17T08:15:33.000Z</time>
      </trkpt>
      <trkpt lat="47.34275" lon="-2.47133">
        <ele>95</ele>
        <time>2021-06-17T08:15:34.000Z</time>
      </trkpt>
      <trkpt lat="47.34279" lon="-2.4713">
        <ele>95.400001525879</ele>
        <time>2021-06-17T08:15:35.000Z</time>
      </trkpt>
      <trkpt lat="47.34283" lon="-2.47127">
        <ele>95.800003051758</ele>
        <time>2021-06-17T08:15:36.000Z</time>
      </trkpt>
      <trkpt lat="47.34313" lon="-2.47108">
        <ele>95.800003051758</ele>
        <time>2021-06-17T08:15:42.000Z</time>
      </trkpt>
      <trkpt lat="47.34349" lon="-2.47082">
        <ele>95.800003051758</ele>
        <time>2021-06-17T08:15:49.000Z</time>
      </trkpt>
      <trkpt lat="47.34393" lon="-2.47055">
        <ele>96.199996948242</ele>
        <time>2021-06-17T08:15:57.000Z</time>
      </trkpt>
      <trkpt lat="47.34399" lon="-2.47052">
        <ele>96.599998474121</ele>
        <time>2021-06-17T08:15:58.000Z</time>
      </trkpt>
      <trkpt lat="47.34404" lon="-2.47048">
        <ele>97</ele>
        <time>2021-06-17T08:15:59.000Z</time>
      </trkpt>
      <trkpt lat="47.3441" lon="-2.47045">
        <ele>97.400001525879</ele>
        <time>2021-06-17T08:16:00.000Z</time>
      </trkpt>
      <trkpt lat="47.34416" lon="-2.47042">
        <ele>97.800003051758</ele>
        <time>2021-06-17T08:16:01.000Z</time>
      </trkpt>
      <trkpt lat="47.34428" lon="-2.47035">
        <ele>97.800003051758</ele>
        <time>2021-06-17T08:16:03.000Z</time>
      </trkpt>
      <trkpt lat="47.34454" lon="-2.47021">
        <ele>97.800003051758</ele>
        <time>2021-06-17T08:16:07.000Z</time>
      </trkpt>
      <trkpt lat="47.34466" lon="-2.47014">
        <ele>97.800003051758</ele>
        <time>2021-06-17T08:16:09.000Z</time>
      </trkpt>
      <trkpt lat="47.34519" lon="-2.46983">
        <ele>97.800003051758</ele>
        <time>2021-06-17T08:16:18.000Z</time>
      </trkpt>
      <trkpt lat="47.34567" lon="-2.46957">
        <ele>97.800003051758</ele>
        <time>2021-06-17T08:16:26.000Z</time>
      </trkpt>
      <trkpt lat="47.34587" lon="-2.46937">
        <ele>97.800003051758</ele>
        <time>2021-06-17T08:16:30.000Z</time>
      </trkpt>
      <trkpt lat="47.34592" lon="-2.46933">
        <ele>97.800003051758</ele>
        <time>2021-06-17T08:16:31.000Z</time>
      </trkpt>
      <trkpt lat="47.34603" lon="-2.46924">
        <ele>97.800003051758</ele>
        <time>2021-06-17T08:16:33.000Z</time>
      </trkpt>
      <trkpt lat="47.34617" lon="-2.46907">
        <ele>97.800003051758</ele>
        <time>2021-06-17T08:16:36.000Z</time>
      </trkpt>
      <trkpt lat="47.34631" lon="-2.46879">
        <ele>97.800003051758</ele>
        <time>2021-06-17T08:16:40.000Z</time>
      </trkpt>
      <trkpt lat="47.34649" lon="-2.46858">
        <ele>97.800003051758</ele>
        <time>2021-06-17T08:16:44.000Z</time>
      </trkpt>
      <trkpt lat="47.34653" lon="-2.46852">
        <ele>97.800003051758</ele>
        <time>2021-06-17T08:16:45.000Z</time>
      </trkpt>
      <trkpt lat="47.34678" lon="-2.46809">
        <ele>97.800003051758</ele>
        <time>2021-06-17T08:16:51.000Z</time>
      </trkpt>
      <trkpt lat="47.34711" lon="-2.46752">
        <ele>97.800003051758</ele>
        <time>2021-06-17T08:16:59.000Z</time>
      </trkpt>
      <trkpt lat="47.34746" lon="-2.46696">
        <ele>97.800003051758</ele>
        <time>2021-06-17T08:17:07.000Z</time>
      </trkpt>
      <trkpt lat="47.34755" lon="-2.46682">
        <ele>97.400001525879</ele>
        <time>2021-06-17T08:17:09.000Z</time>
      </trkpt>
      <trkpt lat="47.3476" lon="-2.46675">
        <ele>97</ele>
        <time>2021-06-17T08:17:10.000Z</time>
      </trkpt>
      <trkpt lat="47.34765" lon="-2.46668">
        <ele>96.400001525879</ele>
        <time>2021-06-17T08:17:11.000Z</time>
      </trkpt>
      <trkpt lat="47.34769" lon="-2.46661">
        <ele>96</ele>
        <time>2021-06-17T08:17:12.000Z</time>
      </trkpt>
      <trkpt lat="47.34774" lon="-2.46654">
        <ele>95.599998474121</ele>
        <time>2021-06-17T08:17:13.000Z</time>
      </trkpt>
      <trkpt lat="47.34783" lon="-2.46642">
        <ele>95.599998474121</ele>
        <time>2021-06-17T08:17:15.000Z</time>
      </trkpt>
      <trkpt lat="47.34806" lon="-2.46602">
        <ele>95.599998474121</ele>
        <time>2021-06-17T08:17:21.000Z</time>
      </trkpt>
      <trkpt lat="47.34825" lon="-2.46567">
        <ele>95.199996948242</ele>
        <time>2021-06-17T08:17:26.000Z</time>
      </trkpt>
      <trkpt lat="47.34829" lon="-2.46561">
        <ele>94.800003051758</ele>
        <time>2021-06-17T08:17:27.000Z</time>
      </trkpt>
      <trkpt lat="47.34832" lon="-2.46555">
        <ele>94</ele>
        <time>2021-06-17T08:17:28.000Z</time>
      </trkpt>
      <trkpt lat="47.34834" lon="-2.46548">
        <ele>93.599998474121</ele>
        <time>2021-06-17T08:17:29.000Z</time>
      </trkpt>
      <trkpt lat="47.34841" lon="-2.46531">
        <ele>93.599998474121</ele>
        <time>2021-06-17T08:17:32.000Z</time>
      </trkpt>
      <trkpt lat="47.34848" lon="-2.46502">
        <ele>93.599998474121</ele>
        <time>2021-06-17T08:17:38.000Z</time>
      </trkpt>
      <trkpt lat="47.34852" lon="-2.46487">
        <ele>93.599998474121</ele>
        <time>2021-06-17T08:17:43.000Z</time>
      </trkpt>
      <trkpt lat="47.34852" lon="-2.46487">
        <ele>93.599998474121</ele>
        <time>2021-06-17T08:17:44.000Z</time>
      </trkpt>
      <trkpt lat="47.34851" lon="-2.46493">
        <ele>93.599998474121</ele>
        <time>2021-06-17T08:23:56.000Z</time>
      </trkpt>
      <trkpt lat="47.34849" lon="-2.46497">
        <ele>93.599998474121</ele>
        <time>2021-06-17T08:23:58.000Z</time>
      </trkpt>
      <trkpt lat="47.34847" lon="-2.46511">
        <ele>93.599998474121</ele>
        <time>2021-06-17T08:24:04.000Z</time>
      </trkpt>
      <trkpt lat="47.34847" lon="-2.46533">
        <ele>93.599998474121</ele>
        <time>2021-06-17T08:24:10.000Z</time>
      </trkpt>
      <trkpt lat="47.34849" lon="-2.46551">
        <ele>93.599998474121</ele>
        <time>2021-06-17T08:24:13.000Z</time>
      </trkpt>
      <trkpt lat="47.3485" lon="-2.46565">
        <ele>93.599998474121</ele>
        <time>2021-06-17T08:24:15.000Z</time>
      </trkpt>
      <trkpt lat="47.34856" lon="-2.46618">
        <ele>93.599998474121</ele>
        <time>2021-06-17T08:24:22.000Z</time>
      </trkpt>
      <trkpt lat="47.3486" lon="-2.46666">
        <ele>94</ele>
        <time>2021-06-17T08:24:28.000Z</time>
      </trkpt>
      <trkpt lat="47.34861" lon="-2.46674">
        <ele>94.400001525879</ele>
        <time>2021-06-17T08:24:29.000Z</time>
      </trkpt>
      <trkpt lat="47.34862" lon="-2.46681">
        <ele>94.800003051758</ele>
        <time>2021-06-17T08:24:30.000Z</time>
      </trkpt>
      <trkpt lat="47.34863" lon="-2.46689">
        <ele>95.400001525879</ele>
        <time>2021-06-17T08:24:31.000Z</time>
      </trkpt>
      <trkpt lat="47.34863" lon="-2.46697">
        <ele>95.800003051758</ele>
        <time>2021-06-17T08:24:32.000Z</time>
      </trkpt>
      <trkpt lat="47.34867" lon="-2.46741">
        <ele>95.800003051758</ele>
        <time>2021-06-17T08:24:38.000Z</time>
      </trkpt>
      <trkpt lat="47.3487" lon="-2.46787">
        <ele>96.199996948242</ele>
        <time>2021-06-17T08:24:44.000Z</time>
      </trkpt>
      <trkpt lat="47.34871" lon="-2.46795">
        <ele>96.599998474121</ele>
        <time>2021-06-17T08:24:45.000Z</time>
      </trkpt>
      <trkpt lat="47.34871" lon="-2.46803">
        <ele>97</ele>
        <time>2021-06-17T08:24:46.000Z</time>
      </trkpt>
      <trkpt lat="47.34872" lon="-2.46811">
        <ele>97.400001525879</ele>
        <time>2021-06-17T08:24:47.000Z</time>
      </trkpt>
      <trkpt lat="47.34873" lon="-2.46819">
        <ele>97.800003051758</ele>
        <time>2021-06-17T08:24:48.000Z</time>
      </trkpt>
      <trkpt lat="47.34875" lon="-2.4685">
        <ele>97.800003051758</ele>
        <time>2021-06-17T08:24:52.000Z</time>
      </trkpt>
      <trkpt lat="47.34878" lon="-2.46865">
        <ele>97.800003051758</ele>
        <time>2021-06-17T08:24:54.000Z</time>
      </trkpt>
      <trkpt lat="47.3488" lon="-2.46872">
        <ele>97.800003051758</ele>
        <time>2021-06-17T08:24:55.000Z</time>
      </trkpt>
      <trkpt lat="47.34886" lon="-2.46902">
        <ele>97.800003051758</ele>
        <time>2021-06-17T08:24:59.000Z</time>
      </trkpt>
      <trkpt lat="47.3489" lon="-2.46931">
        <ele>98.199996948242</ele>
        <time>2021-06-17T08:25:03.000Z</time>
      </trkpt>
      <trkpt lat="47.34891" lon="-2.46939">
        <ele>98.599998474121</ele>
        <time>2021-06-17T08:25:04.000Z</time>
      </trkpt>
      <trkpt lat="47.34892" lon="-2.46947">
        <ele>99.199996948242</ele>
        <time>2021-06-17T08:25:05.000Z</time>
      </trkpt>
      <trkpt lat="47.34893" lon="-2.46955">
        <ele>99.599998474121</ele>
        <time>2021-06-17T08:25:06.000Z</time>
      </trkpt>
      <trkpt lat="47.34894" lon="-2.46963">
        <ele>100</ele>
        <time>2021-06-17T08:25:07.000Z</time>
      </trkpt>
      <trkpt lat="47.34904" lon="-2.47026">
        <ele>100</ele>
        <time>2021-06-17T08:25:15.000Z</time>
      </trkpt>
      <trkpt lat="47.34916" lon="-2.47061">
        <ele>100</ele>
        <time>2021-06-17T08:25:20.000Z</time>
      </trkpt>
      <trkpt lat="47.34919" lon="-2.47068">
        <ele>100</ele>
        <time>2021-06-17T08:25:21.000Z</time>
      </trkpt>
      <trkpt lat="47.34937" lon="-2.47117">
        <ele>100</ele>
        <time>2021-06-17T08:25:27.000Z</time>
      </trkpt>
      <trkpt lat="47.34951" lon="-2.47151">
        <ele>99.599998474121</ele>
        <time>2021-06-17T08:25:31.000Z</time>
      </trkpt>
      <trkpt lat="47.34954" lon="-2.4716">
        <ele>99.199996948242</ele>
        <time>2021-06-17T08:25:32.000Z</time>
      </trkpt>
      <trkpt lat="47.34958" lon="-2.47169">
        <ele>98.800003051758</ele>
        <time>2021-06-17T08:25:33.000Z</time>
      </trkpt>
      <trkpt lat="47.34961" lon="-2.47178">
        <ele>98.400001525879</ele>
        <time>2021-06-17T08:25:34.000Z</time>
      </trkpt>
      <trkpt lat="47.34965" lon="-2.47187">
        <ele>98</ele>
        <time>2021-06-17T08:25:35.000Z</time>
      </trkpt>
      <trkpt lat="47.34988" lon="-2.47251">
        <ele>98</ele>
        <time>2021-06-17T08:25:42.000Z</time>
      </trkpt>
      <trkpt lat="47.34994" lon="-2.4727">
        <ele>97.599998474121</ele>
        <time>2021-06-17T08:25:44.000Z</time>
      </trkpt>
      <trkpt lat="47.34997" lon="-2.47279">
        <ele>97.199996948242</ele>
        <time>2021-06-17T08:25:45.000Z</time>
      </trkpt>
      <trkpt lat="47.35" lon="-2.47288">
        <ele>96.599998474121</ele>
        <time>2021-06-17T08:25:46.000Z</time>
      </trkpt>
      <trkpt lat="47.35002" lon="-2.47297">
        <ele>96.199996948242</ele>
        <time>2021-06-17T08:25:47.000Z</time>
      </trkpt>
      <trkpt lat="47.35005" lon="-2.47306">
        <ele>95.800003051758</ele>
        <time>2021-06-17T08:25:48.000Z</time>
      </trkpt>
      <trkpt lat="47.35011" lon="-2.47323">
        <ele>95.800003051758</ele>
        <time>2021-06-17T08:25:50.000Z</time>
      </trkpt>
      <trkpt lat="47.35018" lon="-2.47359">
        <ele>95.800003051758</ele>
        <time>2021-06-17T08:25:54.000Z</time>
      </trkpt>
      <trkpt lat="47.35018" lon="-2.47369">
        <ele>95.800003051758</ele>
        <time>2021-06-17T08:25:55.000Z</time>
      </trkpt>
      <trkpt lat="47.3502" lon="-2.47404">
        <ele>95.400001525879</ele>
        <time>2021-06-17T08:25:59.000Z</time>
      </trkpt>
      <trkpt lat="47.35021" lon="-2.47412">
        <ele>95</ele>
        <time>2021-06-17T08:26:00.000Z</time>
      </trkpt>
      <trkpt lat="47.35022" lon="-2.4742">
        <ele>94.599998474121</ele>
        <time>2021-06-17T08:26:01.000Z</time>
      </trkpt>
      <trkpt lat="47.35023" lon="-2.47428">
        <ele>94.199996948242</ele>
        <time>2021-06-17T08:26:02.000Z</time>
      </trkpt>
      <trkpt lat="47.35024" lon="-2.47434">
        <ele>93.800003051758</ele>
        <time>2021-06-17T08:26:03.000Z</time>
      </trkpt>
      <trkpt lat="47.35026" lon="-2.47443">
        <ele>93.800003051758</ele>
        <time>2021-06-17T08:26:05.000Z</time>
      </trkpt>
      <trkpt lat="47.35027" lon="-2.4746">
        <ele>93.800003051758</ele>
        <time>2021-06-17T08:26:10.000Z</time>
      </trkpt>
      <trkpt lat="47.35031" lon="-2.47491">
        <ele>93.800003051758</ele>
        <time>2021-06-17T08:26:16.000Z</time>
      </trkpt>
      <trkpt lat="47.35032" lon="-2.47498">
        <ele>93.800003051758</ele>
        <time>2021-06-17T08:26:17.000Z</time>
      </trkpt>
      <trkpt lat="47.35036" lon="-2.47529">
        <ele>93.800003051758</ele>
        <time>2021-06-17T08:26:21.000Z</time>
      </trkpt>
      <trkpt lat="47.35039" lon="-2.47574">
        <ele>93.800003051758</ele>
        <time>2021-06-17T08:26:26.000Z</time>
      </trkpt>
      <trkpt lat="47.3504" lon="-2.47583">
        <ele>93.800003051758</ele>
        <time>2021-06-17T08:26:27.000Z</time>
      </trkpt>
      <trkpt lat="47.35043" lon="-2.47636">
        <ele>93.800003051758</ele>
        <time>2021-06-17T08:26:33.000Z</time>
      </trkpt>
      <trkpt lat="47.35046" lon="-2.47679">
        <ele>93.800003051758</ele>
        <time>2021-06-17T08:26:39.000Z</time>
      </trkpt>
      <trkpt lat="47.35047" lon="-2.47698">
        <ele>93.800003051758</ele>
        <time>2021-06-17T08:26:42.000Z</time>
      </trkpt>
      <trkpt lat="47.35048" lon="-2.47713">
        <ele>93.800003051758</ele>
        <time>2021-06-17T08:26:44.000Z</time>
      </trkpt>
      <trkpt lat="47.35046" lon="-2.47756">
        <ele>93.800003051758</ele>
        <time>2021-06-17T08:26:49.000Z</time>
      </trkpt>
      <trkpt lat="47.35042" lon="-2.47821">
        <ele>93.800003051758</ele>
        <time>2021-06-17T08:26:56.000Z</time>
      </trkpt>
      <trkpt lat="47.35037" lon="-2.47906">
        <ele>93.800003051758</ele>
        <time>2021-06-17T08:27:05.000Z</time>
      </trkpt>
      <trkpt lat="47.35036" lon="-2.47979">
        <ele>93.800003051758</ele>
        <time>2021-06-17T08:27:13.000Z</time>
      </trkpt>
      <trkpt lat="47.35037" lon="-2.48049">
        <ele>93.800003051758</ele>
        <time>2021-06-17T08:27:21.000Z</time>
      </trkpt>
      <trkpt lat="47.35034" lon="-2.48065">
        <ele>93.800003051758</ele>
        <time>2021-06-17T08:27:23.000Z</time>
      </trkpt>
      <trkpt lat="47.35018" lon="-2.48089">
        <ele>93.800003051758</ele>
        <time>2021-06-17T08:27:27.000Z</time>
      </trkpt>
      <trkpt lat="47.35001" lon="-2.48101">
        <ele>93.800003051758</ele>
        <time>2021-06-17T08:27:30.000Z</time>
      </trkpt>
      <trkpt lat="47.34989" lon="-2.48109">
        <ele>93.800003051758</ele>
        <time>2021-06-17T08:27:32.000Z</time>
      </trkpt>
      <trkpt lat="47.3497" lon="-2.48128">
        <ele>93.800003051758</ele>
        <time>2021-06-17T08:27:36.000Z</time>
      </trkpt>
      <trkpt lat="47.34967" lon="-2.48134">
        <ele>93.800003051758</ele>
        <time>2021-06-17T08:27:37.000Z</time>
      </trkpt>
      <trkpt lat="47.34941" lon="-2.48183">
        <ele>94.199996948242</ele>
        <time>2021-06-17T08:27:45.000Z</time>
      </trkpt>
      <trkpt lat="47.34938" lon="-2.48189">
        <ele>94.599998474121</ele>
        <time>2021-06-17T08:27:46.000Z</time>
      </trkpt>
      <trkpt lat="47.34935" lon="-2.48196">
        <ele>95.199996948242</ele>
        <time>2021-06-17T08:27:47.000Z</time>
      </trkpt>
      <trkpt lat="47.34932" lon="-2.48203">
        <ele>95.599998474121</ele>
        <time>2021-06-17T08:27:48.000Z</time>
      </trkpt>
      <trkpt lat="47.3493" lon="-2.4821">
        <ele>96</ele>
        <time>2021-06-17T08:27:49.000Z</time>
      </trkpt>
      <trkpt lat="47.3492" lon="-2.48237">
        <ele>96</ele>
        <time>2021-06-17T08:27:53.000Z</time>
      </trkpt>
      <trkpt lat="47.34907" lon="-2.48263">
        <ele>96</ele>
        <time>2021-06-17T08:27:57.000Z</time>
      </trkpt>
      <trkpt lat="47.34898" lon="-2.48276">
        <ele>96</ele>
        <time>2021-06-17T08:27:59.000Z</time>
      </trkpt>
      <trkpt lat="47.34886" lon="-2.48299">
        <ele>96</ele>
        <time>2021-06-17T08:28:02.000Z</time>
      </trkpt>
      <trkpt lat="47.34881" lon="-2.48316">
        <ele>96</ele>
        <time>2021-06-17T08:28:04.000Z</time>
      </trkpt>
      <trkpt lat="47.34878" lon="-2.48323">
        <ele>96</ele>
        <time>2021-06-17T08:28:05.000Z</time>
      </trkpt>
      <trkpt lat="47.34865" lon="-2.48344">
        <ele>96</ele>
        <time>2021-06-17T08:28:08.000Z</time>
      </trkpt>
      <trkpt lat="47.34849" lon="-2.48361">
        <ele>96</ele>
        <time>2021-06-17T08:28:11.000Z</time>
      </trkpt>
      <trkpt lat="47.34837" lon="-2.48372">
        <ele>96</ele>
        <time>2021-06-17T08:28:13.000Z</time>
      </trkpt>
      <trkpt lat="47.34811" lon="-2.4839">
        <ele>95.599998474121</ele>
        <time>2021-06-17T08:28:17.000Z</time>
      </trkpt>
      <trkpt lat="47.34804" lon="-2.48394">
        <ele>95.199996948242</ele>
        <time>2021-06-17T08:28:18.000Z</time>
      </trkpt>
      <trkpt lat="47.34797" lon="-2.48397">
        <ele>94.800003051758</ele>
        <time>2021-06-17T08:28:19.000Z</time>
      </trkpt>
      <trkpt lat="47.3479" lon="-2.48399">
        <ele>94.400001525879</ele>
        <time>2021-06-17T08:28:20.000Z</time>
      </trkpt>
      <trkpt lat="47.34783" lon="-2.484">
        <ele>93.800003051758</ele>
        <time>2021-06-17T08:28:21.000Z</time>
      </trkpt>
      <trkpt lat="47.34769" lon="-2.48398">
        <ele>93.800003051758</ele>
        <time>2021-06-17T08:28:23.000Z</time>
      </trkpt>
      <trkpt lat="47.34762" lon="-2.48396">
        <ele>93.800003051758</ele>
        <time>2021-06-17T08:28:24.000Z</time>
      </trkpt>
      <trkpt lat="47.34754" lon="-2.48396">
        <ele>93.800003051758</ele>
        <time>2021-06-17T08:28:25.000Z</time>
      </trkpt>
      <trkpt lat="47.3474" lon="-2.484">
        <ele>93.400001525879</ele>
        <time>2021-06-17T08:28:27.000Z</time>
      </trkpt>
      <trkpt lat="47.34734" lon="-2.48402">
        <ele>93</ele>
        <time>2021-06-17T08:28:28.000Z</time>
      </trkpt>
      <trkpt lat="47.34727" lon="-2.48403">
        <ele>92.599998474121</ele>
        <time>2021-06-17T08:28:29.000Z</time>
      </trkpt>
      <trkpt lat="47.34724" lon="-2.48404">
        <ele>92.199996948242</ele>
        <time>2021-06-17T08:28:30.000Z</time>
      </trkpt>
      <trkpt lat="47.3472" lon="-2.48405">
        <ele>91.800003051758</ele>
        <time>2021-06-17T08:28:31.000Z</time>
      </trkpt>
      <trkpt lat="47.34716" lon="-2.48409">
        <ele>91.400001525879</ele>
        <time>2021-06-17T08:28:33.000Z</time>
      </trkpt>
      <trkpt lat="47.34714" lon="-2.48411">
        <ele>91</ele>
        <time>2021-06-17T08:28:34.000Z</time>
      </trkpt>
      <trkpt lat="47.34714" lon="-2.48412">
        <ele>90.199996948242</ele>
        <time>2021-06-17T08:28:35.000Z</time>
      </trkpt>
      <trkpt lat="47.34713" lon="-2.48414">
        <ele>89.800003051758</ele>
        <time>2021-06-17T08:28:36.000Z</time>
      </trkpt>
      <trkpt lat="47.34713" lon="-2.4842">
        <ele>89.800003051758</ele>
        <time>2021-06-17T08:28:38.000Z</time>
      </trkpt>
      <trkpt lat="47.34719" lon="-2.4843">
        <ele>89.800003051758</ele>
        <time>2021-06-17T08:28:41.000Z</time>
      </trkpt>
      <trkpt lat="47.34722" lon="-2.48433">
        <ele>89.800003051758</ele>
        <time>2021-06-17T08:28:42.000Z</time>
      </trkpt>
      <trkpt lat="47.34739" lon="-2.48453">
        <ele>89.800003051758</ele>
        <time>2021-06-17T08:28:47.000Z</time>
      </trkpt>
      <trkpt lat="47.3476" lon="-2.48481">
        <ele>89.800003051758</ele>
        <time>2021-06-17T08:28:54.000Z</time>
      </trkpt>
      <trkpt lat="47.3477" lon="-2.48491">
        <ele>89.800003051758</ele>
        <time>2021-06-17T08:28:59.000Z</time>
      </trkpt>
      <trkpt lat="47.34771" lon="-2.48495">
        <ele>89.800003051758</ele>
        <time>2021-06-17T08:29:01.000Z</time>
      </trkpt>
      <trkpt lat="47.34767" lon="-2.48497">
        <ele>89.800003051758</ele>
        <time>2021-06-17T08:29:03.000Z</time>
      </trkpt>
      <trkpt lat="47.3476" lon="-2.48495">
        <ele>89.800003051758</ele>
        <time>2021-06-17T08:29:08.000Z</time>
      </trkpt>
      <trkpt lat="47.3476" lon="-2.48495">
        <ele>89.800003051758</ele>
        <time>2021-06-17T08:29:10.000Z</time>
      </trkpt>
      <trkpt lat="47.34756" lon="-2.48507">
        <ele>89.800003051758</ele>
        <time>2021-06-17T08:30:16.000Z</time>
      </trkpt>
      <trkpt lat="47.34756" lon="-2.48511">
        <ele>89.800003051758</ele>
        <time>2021-06-17T08:30:17.000Z</time>
      </trkpt>
      <trkpt lat="47.34743" lon="-2.48531">
        <ele>89.800003051758</ele>
        <time>2021-06-17T08:30:23.000Z</time>
      </trkpt>
      <trkpt lat="47.34739" lon="-2.48535">
        <ele>89.400001525879</ele>
        <time>2021-06-17T08:30:24.000Z</time>
      </trkpt>
      <trkpt lat="47.34736" lon="-2.48538">
        <ele>89</ele>
        <time>2021-06-17T08:30:25.000Z</time>
      </trkpt>
      <trkpt lat="47.34733" lon="-2.48541">
        <ele>88.599998474121</ele>
        <time>2021-06-17T08:30:26.000Z</time>
      </trkpt>
      <trkpt lat="47.34731" lon="-2.48545">
        <ele>88</ele>
        <time>2021-06-17T08:30:27.000Z</time>
      </trkpt>
      <trkpt lat="47.34727" lon="-2.48548">
        <ele>87.599998474121</ele>
        <time>2021-06-17T08:30:28.000Z</time>
      </trkpt>
      <trkpt lat="47.34718" lon="-2.48558">
        <ele>87.599998474121</ele>
        <time>2021-06-17T08:30:31.000Z</time>
      </trkpt>
      <trkpt lat="47.34713" lon="-2.48564">
        <ele>87.199996948242</ele>
        <time>2021-06-17T08:30:33.000Z</time>
      </trkpt>
      <trkpt lat="47.34712" lon="-2.48566">
        <ele>86.800003051758</ele>
        <time>2021-06-17T08:30:34.000Z</time>
      </trkpt>
      <trkpt lat="47.3471" lon="-2.48568">
        <ele>86.400001525879</ele>
        <time>2021-06-17T08:30:35.000Z</time>
      </trkpt>
      <trkpt lat="47.34709" lon="-2.48569">
        <ele>86</ele>
        <time>2021-06-17T08:30:36.000Z</time>
      </trkpt>
      <trkpt lat="47.34708" lon="-2.48571">
        <ele>85.599998474121</ele>
        <time>2021-06-17T08:30:37.000Z</time>
      </trkpt>
      <trkpt lat="47.34692" lon="-2.4858">
        <ele>85.599998474121</ele>
        <time>2021-06-17T08:30:42.000Z</time>
      </trkpt>
      <trkpt lat="47.34675" lon="-2.48596">
        <ele>85.199996948242</ele>
        <time>2021-06-17T08:30:48.000Z</time>
      </trkpt>
      <trkpt lat="47.34673" lon="-2.48598">
        <ele>84.800003051758</ele>
        <time>2021-06-17T08:30:49.000Z</time>
      </trkpt>
      <trkpt lat="47.3467" lon="-2.486">
        <ele>84.400001525879</ele>
        <time>2021-06-17T08:30:50.000Z</time>
      </trkpt>
      <trkpt lat="47.34667" lon="-2.48602">
        <ele>83.800003051758</ele>
        <time>2021-06-17T08:30:51.000Z</time>
      </trkpt>
      <trkpt lat="47.34663" lon="-2.48605">
        <ele>83.400001525879</ele>
        <time>2021-06-17T08:30:52.000Z</time>
      </trkpt>
      <trkpt lat="47.34655" lon="-2.48612">
        <ele>83.400001525879</ele>
        <time>2021-06-17T08:30:55.000Z</time>
      </trkpt>
      <trkpt lat="47.34644" lon="-2.48618">
        <ele>83.400001525879</ele>
        <time>2021-06-17T08:31:01.000Z</time>
      </trkpt>
      <trkpt lat="47.34637" lon="-2.48614">
        <ele>83.400001525879</ele>
        <time>2021-06-17T08:31:07.000Z</time>
      </trkpt>
      <trkpt lat="47.34635" lon="-2.48609">
        <ele>83.400001525879</ele>
        <time>2021-06-17T08:31:11.000Z</time>
      </trkpt>
      <trkpt lat="47.34637" lon="-2.48607">
        <ele>83.400001525879</ele>
        <time>2021-06-17T08:31:13.000Z</time>
      </trkpt>
      <trkpt lat="47.34639" lon="-2.48608">
        <ele>83.400001525879</ele>
        <time>2021-06-17T08:31:14.000Z</time>
      </trkpt>
      <trkpt lat="47.34642" lon="-2.48612">
        <ele>83.400001525879</ele>
        <time>2021-06-17T08:31:17.000Z</time>
      </trkpt>
      <trkpt lat="47.34649" lon="-2.48619">
        <ele>83.400001525879</ele>
        <time>2021-06-17T08:31:25.000Z</time>
      </trkpt>
      <trkpt lat="47.34651" lon="-2.48625">
        <ele>83.400001525879</ele>
        <time>2021-06-17T08:31:30.000Z</time>
      </trkpt>
      <trkpt lat="47.34651" lon="-2.48627">
        <ele>83.400001525879</ele>
        <time>2021-06-17T08:31:31.000Z</time>
      </trkpt>
      <trkpt lat="47.34655" lon="-2.48634">
        <ele>83.400001525879</ele>
        <time>2021-06-17T08:31:36.000Z</time>
      </trkpt>
      <trkpt lat="47.34657" lon="-2.48641">
        <ele>83.400001525879</ele>
        <time>2021-06-17T08:31:40.000Z</time>
      </trkpt>
      <trkpt lat="47.34657" lon="-2.48643">
        <ele>83.400001525879</ele>
        <time>2021-06-17T08:31:41.000Z</time>
      </trkpt>
      <trkpt lat="47.34657" lon="-2.48644">
        <ele>83.400001525879</ele>
        <time>2021-06-17T08:31:42.000Z</time>
      </trkpt>
      <trkpt lat="47.34653" lon="-2.48646">
        <ele>83.400001525879</ele>
        <time>2021-06-17T08:31:46.000Z</time>
      </trkpt>
      <trkpt lat="47.34652" lon="-2.48636">
        <ele>83.400001525879</ele>
        <time>2021-06-17T08:31:50.000Z</time>
      </trkpt>
      <trkpt lat="47.34652" lon="-2.48631">
        <ele>83.400001525879</ele>
        <time>2021-06-17T08:31:52.000Z</time>
      </trkpt>
      <trkpt lat="47.34653" lon="-2.48626">
        <ele>83.400001525879</ele>
        <time>2021-06-17T08:31:57.000Z</time>
      </trkpt>
      <trkpt lat="47.3465" lon="-2.48621">
        <ele>83.400001525879</ele>
        <time>2021-06-17T08:35:15.000Z</time>
      </trkpt>
      <trkpt lat="47.3465" lon="-2.48615">
        <ele>83.400001525879</ele>
        <time>2021-06-17T08:35:18.000Z</time>
      </trkpt>
      <trkpt lat="47.34653" lon="-2.48613">
        <ele>83.400001525879</ele>
        <time>2021-06-17T08:35:21.000Z</time>
      </trkpt>
      <trkpt lat="47.34654" lon="-2.48613">
        <ele>83.400001525879</ele>
        <time>2021-06-17T08:35:22.000Z</time>
      </trkpt>
      <trkpt lat="47.34664" lon="-2.48607">
        <ele>83.400001525879</ele>
        <time>2021-06-17T08:35:27.000Z</time>
      </trkpt>
      <trkpt lat="47.3468" lon="-2.4859">
        <ele>83.400001525879</ele>
        <time>2021-06-17T08:35:33.000Z</time>
      </trkpt>
      <trkpt lat="47.34696" lon="-2.48575">
        <ele>83.400001525879</ele>
        <time>2021-06-17T08:35:39.000Z</time>
      </trkpt>
      <trkpt lat="47.34707" lon="-2.48569">
        <ele>83.400001525879</ele>
        <time>2021-06-17T08:35:44.000Z</time>
      </trkpt>
      <trkpt lat="47.34709" lon="-2.48566">
        <ele>83.800003051758</ele>
        <time>2021-06-17T08:35:46.000Z</time>
      </trkpt>
      <trkpt lat="47.3471" lon="-2.48565">
        <ele>84.199996948242</ele>
        <time>2021-06-17T08:35:47.000Z</time>
      </trkpt>
      <trkpt lat="47.34711" lon="-2.48564">
        <ele>84.599998474121</ele>
        <time>2021-06-17T08:35:48.000Z</time>
      </trkpt>
      <trkpt lat="47.34712" lon="-2.48561">
        <ele>85.199996948242</ele>
        <time>2021-06-17T08:35:49.000Z</time>
      </trkpt>
      <trkpt lat="47.34714" lon="-2.48559">
        <ele>85.599998474121</ele>
        <time>2021-06-17T08:35:50.000Z</time>
      </trkpt>
      <trkpt lat="47.34717" lon="-2.48554">
        <ele>85.599998474121</ele>
        <time>2021-06-17T08:35:52.000Z</time>
      </trkpt>
      <trkpt lat="47.34733" lon="-2.48534">
        <ele>86.400001525879</ele>
        <time>2021-06-17T08:35:58.000Z</time>
      </trkpt>
      <trkpt lat="47.34735" lon="-2.48532">
        <ele>86.800003051758</ele>
        <time>2021-06-17T08:35:59.000Z</time>
      </trkpt>
      <trkpt lat="47.34739" lon="-2.48529">
        <ele>87.199996948242</ele>
        <time>2021-06-17T08:36:00.000Z</time>
      </trkpt>
      <trkpt lat="47.3474" lon="-2.48526">
        <ele>87.599998474121</ele>
        <time>2021-06-17T08:36:01.000Z</time>
      </trkpt>
      <trkpt lat="47.34749" lon="-2.48515">
        <ele>87.599998474121</ele>
        <time>2021-06-17T08:36:05.000Z</time>
      </trkpt>
      <trkpt lat="47.34752" lon="-2.48505">
        <ele>88</ele>
        <time>2021-06-17T08:36:08.000Z</time>
      </trkpt>
      <trkpt lat="47.34753" lon="-2.48503">
        <ele>88.400001525879</ele>
        <time>2021-06-17T08:36:09.000Z</time>
      </trkpt>
      <trkpt lat="47.34755" lon="-2.48499">
        <ele>88.800003051758</ele>
        <time>2021-06-17T08:36:10.000Z</time>
      </trkpt>
      <trkpt lat="47.34757" lon="-2.48496">
        <ele>89.199996948242</ele>
        <time>2021-06-17T08:36:11.000Z</time>
      </trkpt>
      <trkpt lat="47.34758" lon="-2.48493">
        <ele>89.800003051758</ele>
        <time>2021-06-17T08:36:12.000Z</time>
      </trkpt>
      <trkpt lat="47.34758" lon="-2.48484">
        <ele>89.800003051758</ele>
        <time>2021-06-17T08:36:15.000Z</time>
      </trkpt>
      <trkpt lat="47.34757" lon="-2.48481">
        <ele>89.800003051758</ele>
        <time>2021-06-17T08:36:16.000Z</time>
      </trkpt>
      <trkpt lat="47.34747" lon="-2.48469">
        <ele>89.800003051758</ele>
        <time>2021-06-17T08:36:21.000Z</time>
      </trkpt>
      <trkpt lat="47.34745" lon="-2.48467">
        <ele>89.800003051758</ele>
        <time>2021-06-17T08:36:22.000Z</time>
      </trkpt>
      <trkpt lat="47.34731" lon="-2.4845">
        <ele>89.800003051758</ele>
        <time>2021-06-17T08:36:28.000Z</time>
      </trkpt>
      <trkpt lat="47.34717" lon="-2.48428">
        <ele>89.800003051758</ele>
        <time>2021-06-17T08:36:35.000Z</time>
      </trkpt>
      <trkpt lat="47.34707" lon="-2.48412">
        <ele>89.800003051758</ele>
        <time>2021-06-17T08:36:41.000Z</time>
      </trkpt>
      <trkpt lat="47.34711" lon="-2.48405">
        <ele>89.800003051758</ele>
        <time>2021-06-17T08:36:44.000Z</time>
      </trkpt>
      <trkpt lat="47.34721" lon="-2.48402">
        <ele>89.800003051758</ele>
        <time>2021-06-17T08:36:47.000Z</time>
      </trkpt>
      <trkpt lat="47.34728" lon="-2.48401">
        <ele>89.800003051758</ele>
        <time>2021-06-17T08:36:49.000Z</time>
      </trkpt>
      <trkpt lat="47.34741" lon="-2.48398">
        <ele>89.800003051758</ele>
        <time>2021-06-17T08:36:54.000Z</time>
      </trkpt>
      <trkpt lat="47.34749" lon="-2.48393">
        <ele>90.199996948242</ele>
        <time>2021-06-17T08:36:57.000Z</time>
      </trkpt>
      <trkpt lat="47.34752" lon="-2.48392">
        <ele>90.599998474121</ele>
        <time>2021-06-17T08:36:58.000Z</time>
      </trkpt>
      <trkpt lat="47.34755" lon="-2.48391">
        <ele>91</ele>
        <time>2021-06-17T08:36:59.000Z</time>
      </trkpt>
      <trkpt lat="47.34758" lon="-2.48391">
        <ele>91.400001525879</ele>
        <time>2021-06-17T08:37:00.000Z</time>
      </trkpt>
      <trkpt lat="47.3476" lon="-2.4839">
        <ele>91.800003051758</ele>
        <time>2021-06-17T08:37:01.000Z</time>
      </trkpt>
      <trkpt lat="47.34773" lon="-2.48392">
        <ele>91.800003051758</ele>
        <time>2021-06-17T08:37:06.000Z</time>
      </trkpt>
      <trkpt lat="47.3479" lon="-2.48393">
        <ele>91.800003051758</ele>
        <time>2021-06-17T08:37:12.000Z</time>
      </trkpt>
      <trkpt lat="47.348" lon="-2.48391">
        <ele>92.199996948242</ele>
        <time>2021-06-17T08:37:15.000Z</time>
      </trkpt>
      <trkpt lat="47.34804" lon="-2.48389">
        <ele>92.599998474121</ele>
        <time>2021-06-17T08:37:16.000Z</time>
      </trkpt>
      <trkpt lat="47.34808" lon="-2.48387">
        <ele>93</ele>
        <time>2021-06-17T08:37:17.000Z</time>
      </trkpt>
      <trkpt lat="47.34811" lon="-2.48384">
        <ele>93.400001525879</ele>
        <time>2021-06-17T08:37:18.000Z</time>
      </trkpt>
      <trkpt lat="47.34815" lon="-2.48381">
        <ele>93.800003051758</ele>
        <time>2021-06-17T08:37:19.000Z</time>
      </trkpt>
      <trkpt lat="47.3484" lon="-2.48362">
        <ele>93.800003051758</ele>
        <time>2021-06-17T08:37:25.000Z</time>
      </trkpt>
      <trkpt lat="47.34867" lon="-2.48334">
        <ele>93.800003051758</ele>
        <time>2021-06-17T08:37:32.000Z</time>
      </trkpt>
      <trkpt lat="47.34881" lon="-2.48307">
        <ele>94.199996948242</ele>
        <time>2021-06-17T08:37:37.000Z</time>
      </trkpt>
      <trkpt lat="47.34883" lon="-2.483">
        <ele>95</ele>
        <time>2021-06-17T08:37:38.000Z</time>
      </trkpt>
      <trkpt lat="47.34885" lon="-2.48294">
        <ele>95.599998474121</ele>
        <time>2021-06-17T08:37:39.000Z</time>
      </trkpt>
      <trkpt lat="47.34888" lon="-2.48288">
        <ele>96</ele>
        <time>2021-06-17T08:37:40.000Z</time>
      </trkpt>
      <trkpt lat="47.34903" lon="-2.48259">
        <ele>96</ele>
        <time>2021-06-17T08:37:45.000Z</time>
      </trkpt>
      <trkpt lat="47.34921" lon="-2.48227">
        <ele>96.400001525879</ele>
        <time>2021-06-17T08:37:51.000Z</time>
      </trkpt>
      <trkpt lat="47.34923" lon="-2.48221">
        <ele>96.800003051758</ele>
        <time>2021-06-17T08:37:52.000Z</time>
      </trkpt>
      <trkpt lat="47.34926" lon="-2.48215">
        <ele>97.199996948242</ele>
        <time>2021-06-17T08:37:53.000Z</time>
      </trkpt>
      <trkpt lat="47.34928" lon="-2.48208">
        <ele>97.599998474121</ele>
        <time>2021-06-17T08:37:54.000Z</time>
      </trkpt>
      <trkpt lat="47.34929" lon="-2.48202">
        <ele>98.199996948242</ele>
        <time>2021-06-17T08:37:55.000Z</time>
      </trkpt>
      <trkpt lat="47.34937" lon="-2.48182">
        <ele>98.199996948242</ele>
        <time>2021-06-17T08:37:58.000Z</time>
      </trkpt>
      <trkpt lat="47.34955" lon="-2.48147">
        <ele>98.199996948242</ele>
        <time>2021-06-17T08:38:04.000Z</time>
      </trkpt>
      <trkpt lat="47.34962" lon="-2.48131">
        <ele>98.199996948242</ele>
        <time>2021-06-17T08:38:08.000Z</time>
      </trkpt>
      <trkpt lat="47.34971" lon="-2.48121">
        <ele>98.199996948242</ele>
        <time>2021-06-17T08:38:11.000Z</time>
      </trkpt>
      <trkpt lat="47.34974" lon="-2.48116">
        <ele>98.199996948242</ele>
        <time>2021-06-17T08:38:12.000Z</time>
      </trkpt>
      <trkpt lat="47.34981" lon="-2.48108">
        <ele>98.199996948242</ele>
        <time>2021-06-17T08:38:14.000Z</time>
      </trkpt>
      <trkpt lat="47.34994" lon="-2.48097">
        <ele>98.199996948242</ele>
        <time>2021-06-17T08:38:17.000Z</time>
      </trkpt>
      <trkpt lat="47.35009" lon="-2.48086">
        <ele>97.599998474121</ele>
        <time>2021-06-17T08:38:20.000Z</time>
      </trkpt>
      <trkpt lat="47.35013" lon="-2.48082">
        <ele>97.199996948242</ele>
        <time>2021-06-17T08:38:21.000Z</time>
      </trkpt>
      <trkpt lat="47.35018" lon="-2.48078">
        <ele>96.800003051758</ele>
        <time>2021-06-17T08:38:22.000Z</time>
      </trkpt>
      <trkpt lat="47.35023" lon="-2.48073">
        <ele>96.400001525879</ele>
        <time>2021-06-17T08:38:23.000Z</time>
      </trkpt>
      <trkpt lat="47.35027" lon="-2.48068">
        <ele>96</ele>
        <time>2021-06-17T08:38:24.000Z</time>
      </trkpt>
      <trkpt lat="47.35035" lon="-2.48037">
        <ele>96</ele>
        <time>2021-06-17T08:38:28.000Z</time>
      </trkpt>
      <trkpt lat="47.35035" lon="-2.48021">
        <ele>96</ele>
        <time>2021-06-17T08:38:30.000Z</time>
      </trkpt>
      <trkpt lat="47.35033" lon="-2.47977">
        <ele>96</ele>
        <time>2021-06-17T08:38:35.000Z</time>
      </trkpt>
      <trkpt lat="47.35033" lon="-2.47912">
        <ele>96</ele>
        <time>2021-06-17T08:38:42.000Z</time>
      </trkpt>
      <trkpt lat="47.35036" lon="-2.4784">
        <ele>96</ele>
        <time>2021-06-17T08:38:50.000Z</time>
      </trkpt>
      <trkpt lat="47.3504" lon="-2.47773">
        <ele>96</ele>
        <time>2021-06-17T08:38:58.000Z</time>
      </trkpt>
      <trkpt lat="47.35042" lon="-2.47707">
        <ele>96</ele>
        <time>2021-06-17T08:39:06.000Z</time>
      </trkpt>
      <trkpt lat="47.3504" lon="-2.47648">
        <ele>96</ele>
        <time>2021-06-17T08:39:13.000Z</time>
      </trkpt>
      <trkpt lat="47.35033" lon="-2.47562">
        <ele>96</ele>
        <time>2021-06-17T08:39:22.000Z</time>
      </trkpt>
      <trkpt lat="47.35027" lon="-2.47508">
        <ele>96</ele>
        <time>2021-06-17T08:39:28.000Z</time>
      </trkpt>
      <trkpt lat="47.3502" lon="-2.47441">
        <ele>96</ele>
        <time>2021-06-17T08:39:36.000Z</time>
      </trkpt>
      <trkpt lat="47.35012" lon="-2.47372">
        <ele>96</ele>
        <time>2021-06-17T08:39:44.000Z</time>
      </trkpt>
      <trkpt lat="47.35008" lon="-2.47333">
        <ele>96</ele>
        <time>2021-06-17T08:39:49.000Z</time>
      </trkpt>
      <trkpt lat="47.35006" lon="-2.47326">
        <ele>96</ele>
        <time>2021-06-17T08:39:50.000Z</time>
      </trkpt>
      <trkpt lat="47.34992" lon="-2.47283">
        <ele>96</ele>
        <time>2021-06-17T08:39:56.000Z</time>
      </trkpt>
      <trkpt lat="47.34985" lon="-2.47261">
        <ele>96</ele>
        <time>2021-06-17T08:39:59.000Z</time>
      </trkpt>
      <trkpt lat="47.34978" lon="-2.47241">
        <ele>96</ele>
        <time>2021-06-17T08:40:02.000Z</time>
      </trkpt>
      <trkpt lat="47.34968" lon="-2.47213">
        <ele>96.400001525879</ele>
        <time>2021-06-17T08:40:06.000Z</time>
      </trkpt>
      <trkpt lat="47.34966" lon="-2.47207">
        <ele>97.199996948242</ele>
        <time>2021-06-17T08:40:07.000Z</time>
      </trkpt>
      <trkpt lat="47.34963" lon="-2.472">
        <ele>97.599998474121</ele>
        <time>2021-06-17T08:40:08.000Z</time>
      </trkpt>
      <trkpt lat="47.34961" lon="-2.47194">
        <ele>98</ele>
        <time>2021-06-17T08:40:09.000Z</time>
      </trkpt>
      <trkpt lat="47.34958" lon="-2.47187">
        <ele>98</ele>
        <time>2021-06-17T08:40:10.000Z</time>
      </trkpt>
      <trkpt lat="47.34943" lon="-2.47147">
        <ele>98</ele>
        <time>2021-06-17T08:40:17.000Z</time>
      </trkpt>
      <trkpt lat="47.3493" lon="-2.47107">
        <ele>98</ele>
        <time>2021-06-17T08:40:25.000Z</time>
      </trkpt>
      <trkpt lat="47.34923" lon="-2.47089">
        <ele>98.400001525879</ele>
        <time>2021-06-17T08:40:29.000Z</time>
      </trkpt>
      <trkpt lat="47.34921" lon="-2.47085">
        <ele>98.800003051758</ele>
        <time>2021-06-17T08:40:30.000Z</time>
      </trkpt>
      <trkpt lat="47.3492" lon="-2.4708">
        <ele>99.599998474121</ele>
        <time>2021-06-17T08:40:31.000Z</time>
      </trkpt>
      <trkpt lat="47.34918" lon="-2.47076">
        <ele>100.19999694824</ele>
        <time>2021-06-17T08:40:32.000Z</time>
      </trkpt>
      <trkpt lat="47.34917" lon="-2.47071">
        <ele>100.19999694824</ele>
        <time>2021-06-17T08:40:33.000Z</time>
      </trkpt>
      <trkpt lat="47.34905" lon="-2.47044">
        <ele>100.59999847412</ele>
        <time>2021-06-17T08:40:39.000Z</time>
      </trkpt>
      <trkpt lat="47.34904" lon="-2.47038">
        <ele>101</ele>
        <time>2021-06-17T08:40:40.000Z</time>
      </trkpt>
      <trkpt lat="47.34902" lon="-2.47032">
        <ele>101.40000152588</ele>
        <time>2021-06-17T08:40:41.000Z</time>
      </trkpt>
      <trkpt lat="47.34901" lon="-2.47026">
        <ele>101.80000305176</ele>
        <time>2021-06-17T08:40:42.000Z</time>
      </trkpt>
      <trkpt lat="47.34899" lon="-2.47019">
        <ele>102.19999694824</ele>
        <time>2021-06-17T08:40:43.000Z</time>
      </trkpt>
      <trkpt lat="47.34898" lon="-2.47013">
        <ele>102.19999694824</ele>
        <time>2021-06-17T08:40:44.000Z</time>
      </trkpt>
      <trkpt lat="47.34896" lon="-2.46999">
        <ele>102.19999694824</ele>
        <time>2021-06-17T08:40:46.000Z</time>
      </trkpt>
      <trkpt lat="47.34889" lon="-2.46944">
        <ele>102.19999694824</ele>
        <time>2021-06-17T08:40:54.000Z</time>
      </trkpt>
      <trkpt lat="47.34882" lon="-2.46896">
        <ele>102.19999694824</ele>
        <time>2021-06-17T08:41:01.000Z</time>
      </trkpt>
      <trkpt lat="47.34872" lon="-2.46848">
        <ele>102.19999694824</ele>
        <time>2021-06-17T08:41:08.000Z</time>
      </trkpt>
      <trkpt lat="47.34866" lon="-2.46791">
        <ele>102.19999694824</ele>
        <time>2021-06-17T08:41:15.000Z</time>
      </trkpt>
      <trkpt lat="47.34861" lon="-2.46719">
        <ele>101.59999847412</ele>
        <time>2021-06-17T08:41:23.000Z</time>
      </trkpt>
      <trkpt lat="47.3486" lon="-2.4671">
        <ele>101.19999694824</ele>
        <time>2021-06-17T08:41:24.000Z</time>
      </trkpt>
      <trkpt lat="47.3486" lon="-2.467">
        <ele>100.80000305176</ele>
        <time>2021-06-17T08:41:25.000Z</time>
      </trkpt>
      <trkpt lat="47.34859" lon="-2.46691">
        <ele>100.40000152588</ele>
        <time>2021-06-17T08:41:26.000Z</time>
      </trkpt>
      <trkpt lat="47.34858" lon="-2.46682">
        <ele>99.800003051758</ele>
        <time>2021-06-17T08:41:27.000Z</time>
      </trkpt>
      <trkpt lat="47.34855" lon="-2.46635">
        <ele>99.800003051758</ele>
        <time>2021-06-17T08:41:32.000Z</time>
      </trkpt>
      <trkpt lat="47.34849" lon="-2.46584">
        <ele>99.800003051758</ele>
        <time>2021-06-17T08:41:38.000Z</time>
      </trkpt>
      <trkpt lat="47.34848" lon="-2.46567">
        <ele>99.400001525879</ele>
        <time>2021-06-17T08:41:40.000Z</time>
      </trkpt>
      <trkpt lat="47.34847" lon="-2.46559">
        <ele>99</ele>
        <time>2021-06-17T08:41:41.000Z</time>
      </trkpt>
      <trkpt lat="47.34847" lon="-2.46551">
        <ele>98.599998474121</ele>
        <time>2021-06-17T08:41:42.000Z</time>
      </trkpt>
      <trkpt lat="47.34846" lon="-2.46543">
        <ele>98.199996948242</ele>
        <time>2021-06-17T08:41:43.000Z</time>
      </trkpt>
      <trkpt lat="47.34846" lon="-2.46536">
        <ele>97.599998474121</ele>
        <time>2021-06-17T08:41:44.000Z</time>
      </trkpt>
      <trkpt lat="47.34847" lon="-2.46518">
        <ele>97.599998474121</ele>
        <time>2021-06-17T08:41:48.000Z</time>
      </trkpt>
      <trkpt lat="47.3485" lon="-2.465">
        <ele>97.599998474121</ele>
        <time>2021-06-17T08:41:53.000Z</time>
      </trkpt>
      <trkpt lat="47.34852" lon="-2.46499">
        <ele>97.599998474121</ele>
        <time>2021-06-17T08:41:56.000Z</time>
      </trkpt>
      <trkpt lat="47.34855" lon="-2.46489">
        <ele>97.599998474121</ele>
        <time>2021-06-17T09:00:38.000Z</time>
      </trkpt>
      <trkpt lat="47.34853" lon="-2.46474">
        <ele>97.599998474121</ele>
        <time>2021-06-17T09:00:43.000Z</time>
      </trkpt>
      <trkpt lat="47.34845" lon="-2.46443">
        <ele>97.599998474121</ele>
        <time>2021-06-17T09:00:51.000Z</time>
      </trkpt>
      <trkpt lat="47.3484" lon="-2.46406">
        <ele>97.599998474121</ele>
        <time>2021-06-17T09:00:58.000Z</time>
      </trkpt>
      <trkpt lat="47.34839" lon="-2.46395">
        <ele>98.400001525879</ele>
        <time>2021-06-17T09:01:00.000Z</time>
      </trkpt>
      <trkpt lat="47.34838" lon="-2.46389">
        <ele>98.800003051758</ele>
        <time>2021-06-17T09:01:01.000Z</time>
      </trkpt>
      <trkpt lat="47.34837" lon="-2.46382">
        <ele>99.199996948242</ele>
        <time>2021-06-17T09:01:02.000Z</time>
      </trkpt>
      <trkpt lat="47.34837" lon="-2.46376">
        <ele>99.599998474121</ele>
        <time>2021-06-17T09:01:03.000Z</time>
      </trkpt>
      <trkpt lat="47.34833" lon="-2.46351">
        <ele>99.599998474121</ele>
        <time>2021-06-17T09:01:07.000Z</time>
      </trkpt>
      <trkpt lat="47.34825" lon="-2.46292">
        <ele>99.599998474121</ele>
        <time>2021-06-17T09:01:16.000Z</time>
      </trkpt>
      <trkpt lat="47.3482" lon="-2.46251">
        <ele>99.599998474121</ele>
        <time>2021-06-17T09:01:23.000Z</time>
      </trkpt>
      <trkpt lat="47.34819" lon="-2.46245">
        <ele>99.599998474121</ele>
        <time>2021-06-17T09:01:27.000Z</time>
      </trkpt>
      <trkpt lat="47.34819" lon="-2.46242">
        <ele>99.599998474121</ele>
        <time>2021-06-17T09:01:31.000Z</time>
      </trkpt>
      <trkpt lat="47.3482" lon="-2.46235">
        <ele>99.599998474121</ele>
        <time>2021-06-17T09:01:33.000Z</time>
      </trkpt>
      <trkpt lat="47.34819" lon="-2.46213">
        <ele>99.599998474121</ele>
        <time>2021-06-17T09:01:37.000Z</time>
      </trkpt>
      <trkpt lat="47.34815" lon="-2.46166">
        <ele>99.599998474121</ele>
        <time>2021-06-17T09:01:43.000Z</time>
      </trkpt>
      <trkpt lat="47.34812" lon="-2.46095">
        <ele>99.599998474121</ele>
        <time>2021-06-17T09:01:51.000Z</time>
      </trkpt>
      <trkpt lat="47.34806" lon="-2.46035">
        <ele>99.599998474121</ele>
        <time>2021-06-17T09:01:58.000Z</time>
      </trkpt>
      <trkpt lat="47.34797" lon="-2.45969">
        <ele>99.599998474121</ele>
        <time>2021-06-17T09:02:06.000Z</time>
      </trkpt>
      <trkpt lat="47.34791" lon="-2.45921">
        <ele>99.599998474121</ele>
        <time>2021-06-17T09:02:12.000Z</time>
      </trkpt>
      <trkpt lat="47.34788" lon="-2.45897">
        <ele>100.40000152588</ele>
        <time>2021-06-17T09:02:15.000Z</time>
      </trkpt>
      <trkpt lat="47.34788" lon="-2.45889">
        <ele>101</ele>
        <time>2021-06-17T09:02:16.000Z</time>
      </trkpt>
      <trkpt lat="47.34787" lon="-2.45882">
        <ele>101.40000152588</ele>
        <time>2021-06-17T09:02:17.000Z</time>
      </trkpt>
      <trkpt lat="47.34785" lon="-2.45874">
        <ele>101.80000305176</ele>
        <time>2021-06-17T09:02:18.000Z</time>
      </trkpt>
      <trkpt lat="47.34783" lon="-2.45867">
        <ele>101.80000305176</ele>
        <time>2021-06-17T09:02:19.000Z</time>
      </trkpt>
      <trkpt lat="47.3478" lon="-2.45842">
        <ele>101.80000305176</ele>
        <time>2021-06-17T09:02:22.000Z</time>
      </trkpt>
      <trkpt lat="47.34779" lon="-2.45827">
        <ele>102.19999694824</ele>
        <time>2021-06-17T09:02:24.000Z</time>
      </trkpt>
      <trkpt lat="47.34779" lon="-2.4582">
        <ele>102.59999847412</ele>
        <time>2021-06-17T09:02:25.000Z</time>
      </trkpt>
      <trkpt lat="47.34778" lon="-2.45811">
        <ele>103</ele>
        <time>2021-06-17T09:02:26.000Z</time>
      </trkpt>
      <trkpt lat="47.34777" lon="-2.45803">
        <ele>103.40000152588</ele>
        <time>2021-06-17T09:02:27.000Z</time>
      </trkpt>
      <trkpt lat="47.34775" lon="-2.45795">
        <ele>103.80000305176</ele>
        <time>2021-06-17T09:02:28.000Z</time>
      </trkpt>
      <trkpt lat="47.34772" lon="-2.45779">
        <ele>103.80000305176</ele>
        <time>2021-06-17T09:02:30.000Z</time>
      </trkpt>
      <trkpt lat="47.34754" lon="-2.45718">
        <ele>103.80000305176</ele>
        <time>2021-06-17T09:02:38.000Z</time>
      </trkpt>
      <trkpt lat="47.34741" lon="-2.45682">
        <ele>104.19999694824</ele>
        <time>2021-06-17T09:02:43.000Z</time>
      </trkpt>
      <trkpt lat="47.34737" lon="-2.45675">
        <ele>104.59999847412</ele>
        <time>2021-06-17T09:02:44.000Z</time>
      </trkpt>
      <trkpt lat="47.34734" lon="-2.45669">
        <ele>105</ele>
        <time>2021-06-17T09:02:45.000Z</time>
      </trkpt>
      <trkpt lat="47.34731" lon="-2.45662">
        <ele>105.40000152588</ele>
        <time>2021-06-17T09:02:46.000Z</time>
      </trkpt>
      <trkpt lat="47.34728" lon="-2.45656">
        <ele>105.80000305176</ele>
        <time>2021-06-17T09:02:47.000Z</time>
      </trkpt>
      <trkpt lat="47.34707" lon="-2.45615">
        <ele>105.80000305176</ele>
        <time>2021-06-17T09:02:53.000Z</time>
      </trkpt>
      <trkpt lat="47.34686" lon="-2.45569">
        <ele>105.80000305176</ele>
        <time>2021-06-17T09:02:59.000Z</time>
      </trkpt>
      <trkpt lat="47.34661" lon="-2.45499">
        <ele>105.80000305176</ele>
        <time>2021-06-17T09:03:07.000Z</time>
      </trkpt>
      <trkpt lat="47.34636" lon="-2.45428">
        <ele>105.80000305176</ele>
        <time>2021-06-17T09:03:15.000Z</time>
      </trkpt>
      <trkpt lat="47.34631" lon="-2.45415">
        <ele>105.40000152588</ele>
        <time>2021-06-17T09:03:17.000Z</time>
      </trkpt>
      <trkpt lat="47.34629" lon="-2.45409">
        <ele>105</ele>
        <time>2021-06-17T09:03:18.000Z</time>
      </trkpt>
      <trkpt lat="47.34627" lon="-2.45404">
        <ele>104.59999847412</ele>
        <time>2021-06-17T09:03:19.000Z</time>
      </trkpt>
      <trkpt lat="47.34625" lon="-2.45399">
        <ele>104.19999694824</ele>
        <time>2021-06-17T09:03:20.000Z</time>
      </trkpt>
      <trkpt lat="47.34623" lon="-2.45396">
        <ele>103.59999847412</ele>
        <time>2021-06-17T09:03:21.000Z</time>
      </trkpt>
      <trkpt lat="47.3462" lon="-2.45391">
        <ele>103.59999847412</ele>
        <time>2021-06-17T09:03:24.000Z</time>
      </trkpt>
      <trkpt lat="47.3462" lon="-2.4539">
        <ele>103.59999847412</ele>
        <time>2021-06-17T09:03:25.000Z</time>
      </trkpt>
      <trkpt lat="47.3462" lon="-2.45389">
        <ele>103.59999847412</ele>
        <time>2021-06-17T09:03:34.000Z</time>
      </trkpt>
      <trkpt lat="47.34619" lon="-2.45385">
        <ele>103.59999847412</ele>
        <time>2021-06-17T09:03:36.000Z</time>
      </trkpt>
      <trkpt lat="47.34615" lon="-2.45375">
        <ele>103.19999694824</ele>
        <time>2021-06-17T09:03:39.000Z</time>
      </trkpt>
      <trkpt lat="47.34613" lon="-2.45371">
        <ele>102.80000305176</ele>
        <time>2021-06-17T09:03:40.000Z</time>
      </trkpt>
      <trkpt lat="47.34611" lon="-2.45365">
        <ele>102.40000152588</ele>
        <time>2021-06-17T09:03:41.000Z</time>
      </trkpt>
      <trkpt lat="47.34609" lon="-2.45359">
        <ele>102</ele>
        <time>2021-06-17T09:03:42.000Z</time>
      </trkpt>
      <trkpt lat="47.34607" lon="-2.45352">
        <ele>101.59999847412</ele>
        <time>2021-06-17T09:03:43.000Z</time>
      </trkpt>
      <trkpt lat="47.34595" lon="-2.45326">
        <ele>101.59999847412</ele>
        <time>2021-06-17T09:03:47.000Z</time>
      </trkpt>
      <trkpt lat="47.34575" lon="-2.45282">
        <ele>101.59999847412</ele>
        <time>2021-06-17T09:03:54.000Z</time>
      </trkpt>
      <trkpt lat="47.34571" lon="-2.45277">
        <ele>101.59999847412</ele>
        <time>2021-06-17T09:03:55.000Z</time>
      </trkpt>
      <trkpt lat="47.34544" lon="-2.45239">
        <ele>101.59999847412</ele>
        <time>2021-06-17T09:04:02.000Z</time>
      </trkpt>
      <trkpt lat="47.34517" lon="-2.45197">
        <ele>101.59999847412</ele>
        <time>2021-06-17T09:04:09.000Z</time>
      </trkpt>
      <trkpt lat="47.34505" lon="-2.45181">
        <ele>102.19999694824</ele>
        <time>2021-06-17T09:04:12.000Z</time>
      </trkpt>
      <trkpt lat="47.34501" lon="-2.45176">
        <ele>102.59999847412</ele>
        <time>2021-06-17T09:04:13.000Z</time>
      </trkpt>
      <trkpt lat="47.34497" lon="-2.45171">
        <ele>103</ele>
        <time>2021-06-17T09:04:14.000Z</time>
      </trkpt>
      <trkpt lat="47.34493" lon="-2.45167">
        <ele>103.40000152588</ele>
        <time>2021-06-17T09:04:15.000Z</time>
      </trkpt>
      <trkpt lat="47.34489" lon="-2.45162">
        <ele>103.80000305176</ele>
        <time>2021-06-17T09:04:16.000Z</time>
      </trkpt>
      <trkpt lat="47.34469" lon="-2.45138">
        <ele>103.80000305176</ele>
        <time>2021-06-17T09:04:21.000Z</time>
      </trkpt>
      <trkpt lat="47.34461" lon="-2.45126">
        <ele>103.80000305176</ele>
        <time>2021-06-17T09:04:23.000Z</time>
      </trkpt>
      <trkpt lat="47.34458" lon="-2.4512">
        <ele>103.80000305176</ele>
        <time>2021-06-17T09:04:24.000Z</time>
      </trkpt>
      <trkpt lat="47.34445" lon="-2.45093">
        <ele>103.80000305176</ele>
        <time>2021-06-17T09:04:28.000Z</time>
      </trkpt>
      <trkpt lat="47.34439" lon="-2.45079">
        <ele>104.40000152588</ele>
        <time>2021-06-17T09:04:30.000Z</time>
      </trkpt>
      <trkpt lat="47.34436" lon="-2.45073">
        <ele>104.80000305176</ele>
        <time>2021-06-17T09:04:31.000Z</time>
      </trkpt>
      <trkpt lat="47.34434" lon="-2.45066">
        <ele>105.19999694824</ele>
        <time>2021-06-17T09:04:32.000Z</time>
      </trkpt>
      <trkpt lat="47.34431" lon="-2.4506">
        <ele>105.59999847412</ele>
        <time>2021-06-17T09:04:33.000Z</time>
      </trkpt>
      <trkpt lat="47.34428" lon="-2.45054">
        <ele>106</ele>
        <time>2021-06-17T09:04:34.000Z</time>
      </trkpt>
      <trkpt lat="47.34426" lon="-2.45048">
        <ele>106</ele>
        <time>2021-06-17T09:04:35.000Z</time>
      </trkpt>
      <trkpt lat="47.3441" lon="-2.45009">
        <ele>106</ele>
        <time>2021-06-17T09:04:42.000Z</time>
      </trkpt>
      <trkpt lat="47.34404" lon="-2.44999">
        <ele>106</ele>
        <time>2021-06-17T09:04:44.000Z</time>
      </trkpt>
      <trkpt lat="47.34396" lon="-2.44994">
        <ele>106</ele>
        <time>2021-06-17T09:04:46.000Z</time>
      </trkpt>
      <trkpt lat="47.34384" lon="-2.45001">
        <ele>106</ele>
        <time>2021-06-17T09:04:49.000Z</time>
      </trkpt>
      <trkpt lat="47.34381" lon="-2.45005">
        <ele>106</ele>
        <time>2021-06-17T09:04:50.000Z</time>
      </trkpt>
      <trkpt lat="47.34355" lon="-2.45032">
        <ele>106</ele>
        <time>2021-06-17T09:04:56.000Z</time>
      </trkpt>
      <trkpt lat="47.34346" lon="-2.45043">
        <ele>106.40000152588</ele>
        <time>2021-06-17T09:04:58.000Z</time>
      </trkpt>
      <trkpt lat="47.34341" lon="-2.45048">
        <ele>106.80000305176</ele>
        <time>2021-06-17T09:04:59.000Z</time>
      </trkpt>
      <trkpt lat="47.34336" lon="-2.45054">
        <ele>107.19999694824</ele>
        <time>2021-06-17T09:05:00.000Z</time>
      </trkpt>
      <trkpt lat="47.34331" lon="-2.45059">
        <ele>107.59999847412</ele>
        <time>2021-06-17T09:05:01.000Z</time>
      </trkpt>
      <trkpt lat="47.34326" lon="-2.45064">
        <ele>108</ele>
        <time>2021-06-17T09:05:02.000Z</time>
      </trkpt>
      <trkpt lat="47.34321" lon="-2.45069">
        <ele>108</ele>
        <time>2021-06-17T09:05:03.000Z</time>
      </trkpt>
      <trkpt lat="47.34283" lon="-2.45102">
        <ele>108</ele>
        <time>2021-06-17T09:05:10.000Z</time>
      </trkpt>
      <trkpt lat="47.34234" lon="-2.45139">
        <ele>108</ele>
        <time>2021-06-17T09:05:19.000Z</time>
      </trkpt>
      <trkpt lat="47.34202" lon="-2.45164">
        <ele>108.40000152588</ele>
        <time>2021-06-17T09:05:25.000Z</time>
      </trkpt>
      <trkpt lat="47.34196" lon="-2.45168">
        <ele>108.80000305176</ele>
        <time>2021-06-17T09:05:26.000Z</time>
      </trkpt>
      <trkpt lat="47.34191" lon="-2.45172">
        <ele>109.19999694824</ele>
        <time>2021-06-17T09:05:27.000Z</time>
      </trkpt>
      <trkpt lat="47.34185" lon="-2.45177">
        <ele>109.80000305176</ele>
        <time>2021-06-17T09:05:28.000Z</time>
      </trkpt>
      <trkpt lat="47.3418" lon="-2.45181">
        <ele>110.19999694824</ele>
        <time>2021-06-17T09:05:29.000Z</time>
      </trkpt>
      <trkpt lat="47.34142" lon="-2.45208">
        <ele>110.19999694824</ele>
        <time>2021-06-17T09:05:36.000Z</time>
      </trkpt>
      <trkpt lat="47.34094" lon="-2.45245">
        <ele>110.19999694824</ele>
        <time>2021-06-17T09:05:45.000Z</time>
      </trkpt>
      <trkpt lat="47.34088" lon="-2.45249">
        <ele>110.19999694824</ele>
        <time>2021-06-17T09:05:46.000Z</time>
      </trkpt>
      <trkpt lat="47.34078" lon="-2.45256">
        <ele>110.19999694824</ele>
        <time>2021-06-17T09:05:48.000Z</time>
      </trkpt>
      <trkpt lat="47.34069" lon="-2.45261">
        <ele>110.19999694824</ele>
        <time>2021-06-17T09:05:50.000Z</time>
      </trkpt>
      <trkpt lat="47.34064" lon="-2.4526">
        <ele>110.19999694824</ele>
        <time>2021-06-17T09:05:51.000Z</time>
      </trkpt>
      <trkpt lat="47.34054" lon="-2.45244">
        <ele>110.19999694824</ele>
        <time>2021-06-17T09:05:54.000Z</time>
      </trkpt>
      <trkpt lat="47.34048" lon="-2.45219">
        <ele>110.19999694824</ele>
        <time>2021-06-17T09:05:57.000Z</time>
      </trkpt>
      <trkpt lat="47.34043" lon="-2.45199">
        <ele>110.19999694824</ele>
        <time>2021-06-17T09:05:59.000Z</time>
      </trkpt>
      <trkpt lat="47.34022" lon="-2.45124">
        <ele>110.19999694824</ele>
        <time>2021-06-17T09:06:07.000Z</time>
      </trkpt>
      <trkpt lat="47.34001" lon="-2.45055">
        <ele>110.19999694824</ele>
        <time>2021-06-17T09:06:14.000Z</time>
      </trkpt>
      <trkpt lat="47.33985" lon="-2.44978">
        <ele>110.19999694824</ele>
        <time>2021-06-17T09:06:22.000Z</time>
      </trkpt>
      <trkpt lat="47.33984" lon="-2.44947">
        <ele>109.80000305176</ele>
        <time>2021-06-17T09:06:25.000Z</time>
      </trkpt>
      <trkpt lat="47.33984" lon="-2.44937">
        <ele>109.19999694824</ele>
        <time>2021-06-17T09:06:26.000Z</time>
      </trkpt>
      <trkpt lat="47.33985" lon="-2.44927">
        <ele>108.80000305176</ele>
        <time>2021-06-17T09:06:27.000Z</time>
      </trkpt>
      <trkpt lat="47.33987" lon="-2.44918">
        <ele>108.40000152588</ele>
        <time>2021-06-17T09:06:28.000Z</time>
      </trkpt>
      <trkpt lat="47.33989" lon="-2.44907">
        <ele>108</ele>
        <time>2021-06-17T09:06:29.000Z</time>
      </trkpt>
      <trkpt lat="47.33996" lon="-2.44879">
        <ele>108</ele>
        <time>2021-06-17T09:06:32.000Z</time>
      </trkpt>
      <trkpt lat="47.34016" lon="-2.44811">
        <ele>108</ele>
        <time>2021-06-17T09:06:39.000Z</time>
      </trkpt>
      <trkpt lat="47.34031" lon="-2.44764">
        <ele>108</ele>
        <time>2021-06-17T09:06:44.000Z</time>
      </trkpt>
      <trkpt lat="47.34035" lon="-2.44745">
        <ele>108</ele>
        <time>2021-06-17T09:06:46.000Z</time>
      </trkpt>
      <trkpt lat="47.3404" lon="-2.44715">
        <ele>108</ele>
        <time>2021-06-17T09:06:49.000Z</time>
      </trkpt>
      <trkpt lat="47.34043" lon="-2.44695">
        <ele>108</ele>
        <time>2021-06-17T09:06:51.000Z</time>
      </trkpt>
      <trkpt lat="47.34049" lon="-2.44643">
        <ele>107.59999847412</ele>
        <time>2021-06-17T09:06:56.000Z</time>
      </trkpt>
      <trkpt lat="47.34049" lon="-2.44632">
        <ele>107.19999694824</ele>
        <time>2021-06-17T09:06:57.000Z</time>
      </trkpt>
      <trkpt lat="47.3405" lon="-2.44622">
        <ele>106.80000305176</ele>
        <time>2021-06-17T09:06:58.000Z</time>
      </trkpt>
      <trkpt lat="47.34051" lon="-2.44611">
        <ele>106.40000152588</ele>
        <time>2021-06-17T09:06:59.000Z</time>
      </trkpt>
      <trkpt lat="47.34051" lon="-2.446">
        <ele>106</ele>
        <time>2021-06-17T09:07:00.000Z</time>
      </trkpt>
      <trkpt lat="47.34051" lon="-2.44558">
        <ele>106</ele>
        <time>2021-06-17T09:07:04.000Z</time>
      </trkpt>
      <trkpt lat="47.34048" lon="-2.44499">
        <ele>105</ele>
        <time>2021-06-17T09:07:10.000Z</time>
      </trkpt>
      <trkpt lat="47.34047" lon="-2.4449">
        <ele>104.59999847412</ele>
        <time>2021-06-17T09:07:11.000Z</time>
      </trkpt>
      <trkpt lat="47.34047" lon="-2.44482">
        <ele>104.19999694824</ele>
        <time>2021-06-17T09:07:12.000Z</time>
      </trkpt>
      <trkpt lat="47.34046" lon="-2.44476">
        <ele>103.80000305176</ele>
        <time>2021-06-17T09:07:13.000Z</time>
      </trkpt>
      <trkpt lat="47.34046" lon="-2.44467">
        <ele>103.80000305176</ele>
        <time>2021-06-17T09:07:15.000Z</time>
      </trkpt>
      <trkpt lat="47.34047" lon="-2.44455">
        <ele>103.80000305176</ele>
        <time>2021-06-17T09:07:20.000Z</time>
      </trkpt>
      <trkpt lat="47.34047" lon="-2.44449">
        <ele>103.80000305176</ele>
        <time>2021-06-17T09:07:24.000Z</time>
      </trkpt>
      <trkpt lat="47.34046" lon="-2.44469">
        <ele>101.80000305176</ele>
        <time>2021-06-17T09:10:45.000Z</time>
      </trkpt>
      <trkpt lat="47.34047" lon="-2.44473">
        <ele>101.80000305176</ele>
        <time>2021-06-17T09:10:47.000Z</time>
      </trkpt>
      <trkpt lat="47.34048" lon="-2.44482">
        <ele>101.80000305176</ele>
        <time>2021-06-17T09:10:50.000Z</time>
      </trkpt>
      <trkpt lat="47.34048" lon="-2.44492">
        <ele>101.80000305176</ele>
        <time>2021-06-17T09:10:53.000Z</time>
      </trkpt>
      <trkpt lat="47.34049" lon="-2.44508">
        <ele>101.80000305176</ele>
        <time>2021-06-17T09:10:56.000Z</time>
      </trkpt>
      <trkpt lat="47.3405" lon="-2.44536">
        <ele>102.19999694824</ele>
        <time>2021-06-17T09:11:01.000Z</time>
      </trkpt>
      <trkpt lat="47.34051" lon="-2.44542">
        <ele>102.59999847412</ele>
        <time>2021-06-17T09:11:02.000Z</time>
      </trkpt>
      <trkpt lat="47.34051" lon="-2.44547">
        <ele>103</ele>
        <time>2021-06-17T09:11:03.000Z</time>
      </trkpt>
      <trkpt lat="47.34051" lon="-2.44552">
        <ele>103.40000152588</ele>
        <time>2021-06-17T09:11:04.000Z</time>
      </trkpt>
      <trkpt lat="47.3405" lon="-2.44558">
        <ele>103.80000305176</ele>
        <time>2021-06-17T09:11:05.000Z</time>
      </trkpt>
      <trkpt lat="47.3405" lon="-2.44585">
        <ele>103.80000305176</ele>
        <time>2021-06-17T09:11:10.000Z</time>
      </trkpt>
      <trkpt lat="47.34051" lon="-2.44646">
        <ele>103.80000305176</ele>
        <time>2021-06-17T09:11:20.000Z</time>
      </trkpt>
      <trkpt lat="47.34048" lon="-2.44689">
        <ele>104.19999694824</ele>
        <time>2021-06-17T09:11:27.000Z</time>
      </trkpt>
      <trkpt lat="47.34047" lon="-2.44695">
        <ele>104.59999847412</ele>
        <time>2021-06-17T09:11:28.000Z</time>
      </trkpt>
      <trkpt lat="47.34046" lon="-2.44701">
        <ele>105</ele>
        <time>2021-06-17T09:11:29.000Z</time>
      </trkpt>
      <trkpt lat="47.34046" lon="-2.44707">
        <ele>105.40000152588</ele>
        <time>2021-06-17T09:11:30.000Z</time>
      </trkpt>
      <trkpt lat="47.34045" lon="-2.44713">
        <ele>105.80000305176</ele>
        <time>2021-06-17T09:11:31.000Z</time>
      </trkpt>
      <trkpt lat="47.3404" lon="-2.44743">
        <ele>105.80000305176</ele>
        <time>2021-06-17T09:11:36.000Z</time>
      </trkpt>
      <trkpt lat="47.34029" lon="-2.44785">
        <ele>105.80000305176</ele>
        <time>2021-06-17T09:11:43.000Z</time>
      </trkpt>
      <trkpt lat="47.34015" lon="-2.44823">
        <ele>105.80000305176</ele>
        <time>2021-06-17T09:11:50.000Z</time>
      </trkpt>
      <trkpt lat="47.34003" lon="-2.44862">
        <ele>105.80000305176</ele>
        <time>2021-06-17T09:11:57.000Z</time>
      </trkpt>
      <trkpt lat="47.34001" lon="-2.44869">
        <ele>106.19999694824</ele>
        <time>2021-06-17T09:11:58.000Z</time>
      </trkpt>
      <trkpt lat="47.34" lon="-2.44875">
        <ele>106.80000305176</ele>
        <time>2021-06-17T09:11:59.000Z</time>
      </trkpt>
      <trkpt lat="47.33998" lon="-2.44882">
        <ele>107.19999694824</ele>
        <time>2021-06-17T09:12:00.000Z</time>
      </trkpt>
      <trkpt lat="47.33997" lon="-2.44889">
        <ele>107.59999847412</ele>
        <time>2021-06-17T09:12:01.000Z</time>
      </trkpt>
      <trkpt lat="47.33995" lon="-2.44895">
        <ele>108</ele>
        <time>2021-06-17T09:12:02.000Z</time>
      </trkpt>
      <trkpt lat="47.33992" lon="-2.44909">
        <ele>108</ele>
        <time>2021-06-17T09:12:04.000Z</time>
      </trkpt>
      <trkpt lat="47.33987" lon="-2.44956">
        <ele>108</ele>
        <time>2021-06-17T09:12:11.000Z</time>
      </trkpt>
      <trkpt lat="47.33989" lon="-2.44988">
        <ele>108</ele>
        <time>2021-06-17T09:12:16.000Z</time>
      </trkpt>
      <trkpt lat="47.3399" lon="-2.44994">
        <ele>108</ele>
        <time>2021-06-17T09:12:17.000Z</time>
      </trkpt>
      <trkpt lat="47.34002" lon="-2.45048">
        <ele>108</ele>
        <time>2021-06-17T09:12:26.000Z</time>
      </trkpt>
      <trkpt lat="47.34015" lon="-2.45096">
        <ele>108</ele>
        <time>2021-06-17T09:12:34.000Z</time>
      </trkpt>
      <trkpt lat="47.3403" lon="-2.4514">
        <ele>108</ele>
        <time>2021-06-17T09:12:42.000Z</time>
      </trkpt>
      <trkpt lat="47.34036" lon="-2.45162">
        <ele>108.40000152588</ele>
        <time>2021-06-17T09:12:46.000Z</time>
      </trkpt>
      <trkpt lat="47.34038" lon="-2.45167">
        <ele>108.80000305176</ele>
        <time>2021-06-17T09:12:47.000Z</time>
      </trkpt>
      <trkpt lat="47.34039" lon="-2.45173">
        <ele>109.19999694824</ele>
        <time>2021-06-17T09:12:48.000Z</time>
      </trkpt>
      <trkpt lat="47.3404" lon="-2.45178">
        <ele>109.59999847412</ele>
        <time>2021-06-17T09:12:49.000Z</time>
      </trkpt>
      <trkpt lat="47.34041" lon="-2.45184">
        <ele>110</ele>
        <time>2021-06-17T09:12:50.000Z</time>
      </trkpt>
      <trkpt lat="47.34043" lon="-2.45189">
        <ele>110</ele>
        <time>2021-06-17T09:12:51.000Z</time>
      </trkpt>
      <trkpt lat="47.34055" lon="-2.45237">
        <ele>110</ele>
        <time>2021-06-17T09:13:00.000Z</time>
      </trkpt>
      <trkpt lat="47.34064" lon="-2.4526">
        <ele>110</ele>
        <time>2021-06-17T09:13:05.000Z</time>
      </trkpt>
      <trkpt lat="47.34068" lon="-2.4526">
        <ele>110</ele>
        <time>2021-06-17T09:13:06.000Z</time>
      </trkpt>
      <trkpt lat="47.34077" lon="-2.45253">
        <ele>110</ele>
        <time>2021-06-17T09:13:09.000Z</time>
      </trkpt>
      <trkpt lat="47.34106" lon="-2.45229">
        <ele>110</ele>
        <time>2021-06-17T09:13:17.000Z</time>
      </trkpt>
      <trkpt lat="47.34143" lon="-2.45201">
        <ele>110</ele>
        <time>2021-06-17T09:13:27.000Z</time>
      </trkpt>
      <trkpt lat="47.34176" lon="-2.45177">
        <ele>110</ele>
        <time>2021-06-17T09:13:35.000Z</time>
      </trkpt>
      <trkpt lat="47.34212" lon="-2.45151">
        <ele>110</ele>
        <time>2021-06-17T09:13:43.000Z</time>
      </trkpt>
      <trkpt lat="47.34261" lon="-2.45113">
        <ele>110</ele>
        <time>2021-06-17T09:13:53.000Z</time>
      </trkpt>
      <trkpt lat="47.34303" lon="-2.45079">
        <ele>110</ele>
        <time>2021-06-17T09:14:02.000Z</time>
      </trkpt>
      <trkpt lat="47.34338" lon="-2.45045">
        <ele>110</ele>
        <time>2021-06-17T09:14:10.000Z</time>
      </trkpt>
      <trkpt lat="47.34367" lon="-2.45014">
        <ele>110</ele>
        <time>2021-06-17T09:14:17.000Z</time>
      </trkpt>
      <trkpt lat="47.3439" lon="-2.4499">
        <ele>110</ele>
        <time>2021-06-17T09:14:23.000Z</time>
      </trkpt>
      <trkpt lat="47.34394" lon="-2.44989">
        <ele>110</ele>
        <time>2021-06-17T09:14:24.000Z</time>
      </trkpt>
      <trkpt lat="47.34405" lon="-2.44997">
        <ele>110</ele>
        <time>2021-06-17T09:14:27.000Z</time>
      </trkpt>
      <trkpt lat="47.34412" lon="-2.45012">
        <ele>110</ele>
        <time>2021-06-17T09:14:30.000Z</time>
      </trkpt>
      <trkpt lat="47.34414" lon="-2.45018">
        <ele>110</ele>
        <time>2021-06-17T09:14:31.000Z</time>
      </trkpt>
      <trkpt lat="47.34435" lon="-2.45062">
        <ele>110</ele>
        <time>2021-06-17T09:14:39.000Z</time>
      </trkpt>
      <trkpt lat="47.34445" lon="-2.45085">
        <ele>109.59999847412</ele>
        <time>2021-06-17T09:14:43.000Z</time>
      </trkpt>
      <trkpt lat="47.34447" lon="-2.45091">
        <ele>109</ele>
        <time>2021-06-17T09:14:44.000Z</time>
      </trkpt>
      <trkpt lat="47.3445" lon="-2.45097">
        <ele>108.59999847412</ele>
        <time>2021-06-17T09:14:45.000Z</time>
      </trkpt>
      <trkpt lat="47.34453" lon="-2.45103">
        <ele>108.19999694824</ele>
        <time>2021-06-17T09:14:46.000Z</time>
      </trkpt>
      <trkpt lat="47.34456" lon="-2.45109">
        <ele>107.80000305176</ele>
        <time>2021-06-17T09:14:47.000Z</time>
      </trkpt>
      <trkpt lat="47.34479" lon="-2.45145">
        <ele>107.80000305176</ele>
        <time>2021-06-17T09:14:53.000Z</time>
      </trkpt>
      <trkpt lat="47.34513" lon="-2.45187">
        <ele>107.40000152588</ele>
        <time>2021-06-17T09:15:01.000Z</time>
      </trkpt>
      <trkpt lat="47.34517" lon="-2.45193">
        <ele>107</ele>
        <time>2021-06-17T09:15:02.000Z</time>
      </trkpt>
      <trkpt lat="47.34521" lon="-2.45199">
        <ele>106.59999847412</ele>
        <time>2021-06-17T09:15:03.000Z</time>
      </trkpt>
      <trkpt lat="47.34525" lon="-2.45205">
        <ele>106.19999694824</ele>
        <time>2021-06-17T09:15:04.000Z</time>
      </trkpt>
      <trkpt lat="47.34529" lon="-2.45211">
        <ele>105.80000305176</ele>
        <time>2021-06-17T09:15:05.000Z</time>
      </trkpt>
      <trkpt lat="47.34544" lon="-2.45235">
        <ele>105.80000305176</ele>
        <time>2021-06-17T09:15:09.000Z</time>
      </trkpt>
      <trkpt lat="47.34568" lon="-2.45269">
        <ele>105.80000305176</ele>
        <time>2021-06-17T09:15:16.000Z</time>
      </trkpt>
      <trkpt lat="47.34585" lon="-2.45296">
        <ele>105.40000152588</ele>
        <time>2021-06-17T09:15:22.000Z</time>
      </trkpt>
      <trkpt lat="47.34587" lon="-2.45301">
        <ele>104.80000305176</ele>
        <time>2021-06-17T09:15:23.000Z</time>
      </trkpt>
      <trkpt lat="47.3459" lon="-2.45306">
        <ele>104</ele>
        <time>2021-06-17T09:15:24.000Z</time>
      </trkpt>
      <trkpt lat="47.34593" lon="-2.45311">
        <ele>103.59999847412</ele>
        <time>2021-06-17T09:15:25.000Z</time>
      </trkpt>
      <trkpt lat="47.34607" lon="-2.45343">
        <ele>103.59999847412</ele>
        <time>2021-06-17T09:15:31.000Z</time>
      </trkpt>
      <trkpt lat="47.34622" lon="-2.45387">
        <ele>103.59999847412</ele>
        <time>2021-06-17T09:15:39.000Z</time>
      </trkpt>
      <trkpt lat="47.34634" lon="-2.4542">
        <ele>103.59999847412</ele>
        <time>2021-06-17T09:15:47.000Z</time>
      </trkpt>
      <trkpt lat="47.34639" lon="-2.45436">
        <ele>103.59999847412</ele>
        <time>2021-06-17T09:15:52.000Z</time>
      </trkpt>
      <trkpt lat="47.34641" lon="-2.45438">
        <ele>103.59999847412</ele>
        <time>2021-06-17T09:15:54.000Z</time>
      </trkpt>
      <trkpt lat="47.3464" lon="-2.45438">
        <ele>103.59999847412</ele>
        <time>2021-06-17T09:25:28.000Z</time>
      </trkpt>
      <trkpt lat="47.34639" lon="-2.45436">
        <ele>103.59999847412</ele>
        <time>2021-06-17T09:25:29.000Z</time>
      </trkpt>
      <trkpt lat="47.34631" lon="-2.45413">
        <ele>103.59999847412</ele>
        <time>2021-06-17T09:25:37.000Z</time>
      </trkpt>
      <trkpt lat="47.34623" lon="-2.4539">
        <ele>103.19999694824</ele>
        <time>2021-06-17T09:25:44.000Z</time>
      </trkpt>
      <trkpt lat="47.34622" lon="-2.45388">
        <ele>102.80000305176</ele>
        <time>2021-06-17T09:25:45.000Z</time>
      </trkpt>
      <trkpt lat="47.3462" lon="-2.45385">
        <ele>102.40000152588</ele>
        <time>2021-06-17T09:25:46.000Z</time>
      </trkpt>
      <trkpt lat="47.34619" lon="-2.45382">
        <ele>102</ele>
        <time>2021-06-17T09:25:47.000Z</time>
      </trkpt>
      <trkpt lat="47.34618" lon="-2.45379">
        <ele>101.59999847412</ele>
        <time>2021-06-17T09:25:48.000Z</time>
      </trkpt>
      <trkpt lat="47.34615" lon="-2.45371">
        <ele>101.59999847412</ele>
        <time>2021-06-17T09:25:50.000Z</time>
      </trkpt>
      <trkpt lat="47.34603" lon="-2.45338">
        <ele>101.59999847412</ele>
        <time>2021-06-17T09:25:56.000Z</time>
      </trkpt>
      <trkpt lat="47.34586" lon="-2.45302">
        <ele>101.59999847412</ele>
        <time>2021-06-17T09:26:02.000Z</time>
      </trkpt>
      <trkpt lat="47.34568" lon="-2.45268">
        <ele>101.59999847412</ele>
        <time>2021-06-17T09:26:08.000Z</time>
      </trkpt>
      <trkpt lat="47.34565" lon="-2.45263">
        <ele>101.59999847412</ele>
        <time>2021-06-17T09:26:09.000Z</time>
      </trkpt>
      <trkpt lat="47.34547" lon="-2.45236">
        <ele>101.59999847412</ele>
        <time>2021-06-17T09:26:14.000Z</time>
      </trkpt>
      <trkpt lat="47.3454" lon="-2.45225">
        <ele>101.59999847412</ele>
        <time>2021-06-17T09:26:16.000Z</time>
      </trkpt>
      <trkpt lat="47.34519" lon="-2.45195">
        <ele>101.59999847412</ele>
        <time>2021-06-17T09:26:22.000Z</time>
      </trkpt>
      <trkpt lat="47.34489" lon="-2.45163">
        <ele>101.59999847412</ele>
        <time>2021-06-17T09:26:30.000Z</time>
      </trkpt>
      <trkpt lat="47.34469" lon="-2.45136">
        <ele>102</ele>
        <time>2021-06-17T09:26:36.000Z</time>
      </trkpt>
      <trkpt lat="47.34466" lon="-2.45132">
        <ele>102.40000152588</ele>
        <time>2021-06-17T09:26:37.000Z</time>
      </trkpt>
      <trkpt lat="47.34463" lon="-2.45127">
        <ele>102.80000305176</ele>
        <time>2021-06-17T09:26:38.000Z</time>
      </trkpt>
      <trkpt lat="47.3446" lon="-2.45122">
        <ele>103.19999694824</ele>
        <time>2021-06-17T09:26:39.000Z</time>
      </trkpt>
      <trkpt lat="47.34458" lon="-2.45117">
        <ele>103.80000305176</ele>
        <time>2021-06-17T09:26:40.000Z</time>
      </trkpt>
      <trkpt lat="47.34451" lon="-2.45104">
        <ele>103.80000305176</ele>
        <time>2021-06-17T09:26:44.000Z</time>
      </trkpt>
      <trkpt lat="47.34446" lon="-2.45092">
        <ele>103.80000305176</ele>
        <time>2021-06-17T09:26:49.000Z</time>
      </trkpt>
      <trkpt lat="47.34437" lon="-2.45073">
        <ele>103.80000305176</ele>
        <time>2021-06-17T09:26:54.000Z</time>
      </trkpt>
      <trkpt lat="47.34427" lon="-2.45047">
        <ele>104.19999694824</ele>
        <time>2021-06-17T09:26:59.000Z</time>
      </trkpt>
      <trkpt lat="47.34425" lon="-2.45042">
        <ele>104.59999847412</ele>
        <time>2021-06-17T09:27:00.000Z</time>
      </trkpt>
      <trkpt lat="47.34423" lon="-2.45037">
        <ele>105</ele>
        <time>2021-06-17T09:27:01.000Z</time>
      </trkpt>
      <trkpt lat="47.3442" lon="-2.45031">
        <ele>105.40000152588</ele>
        <time>2021-06-17T09:27:02.000Z</time>
      </trkpt>
      <trkpt lat="47.34418" lon="-2.45026">
        <ele>105.80000305176</ele>
        <time>2021-06-17T09:27:03.000Z</time>
      </trkpt>
      <trkpt lat="47.34408" lon="-2.45004">
        <ele>105.80000305176</ele>
        <time>2021-06-17T09:27:07.000Z</time>
      </trkpt>
      <trkpt lat="47.34395" lon="-2.4499">
        <ele>105.80000305176</ele>
        <time>2021-06-17T09:27:12.000Z</time>
      </trkpt>
      <trkpt lat="47.34393" lon="-2.4499">
        <ele>105.80000305176</ele>
        <time>2021-06-17T09:27:13.000Z</time>
      </trkpt>
      <trkpt lat="47.34388" lon="-2.44996">
        <ele>105.80000305176</ele>
        <time>2021-06-17T09:27:16.000Z</time>
      </trkpt>
      <trkpt lat="47.34384" lon="-2.44999">
        <ele>105.80000305176</ele>
        <time>2021-06-17T09:27:18.000Z</time>
      </trkpt>
      <trkpt lat="47.34374" lon="-2.4501">
        <ele>105.80000305176</ele>
        <time>2021-06-17T09:27:22.000Z</time>
      </trkpt>
      <trkpt lat="47.3436" lon="-2.45026">
        <ele>105.80000305176</ele>
        <time>2021-06-17T09:27:27.000Z</time>
      </trkpt>
      <trkpt lat="47.34338" lon="-2.45052">
        <ele>105.80000305176</ele>
        <time>2021-06-17T09:27:33.000Z</time>
      </trkpt>
      <trkpt lat="47.34302" lon="-2.45086">
        <ele>105.80000305176</ele>
        <time>2021-06-17T09:27:41.000Z</time>
      </trkpt>
      <trkpt lat="47.34273" lon="-2.45111">
        <ele>106.19999694824</ele>
        <time>2021-06-17T09:27:47.000Z</time>
      </trkpt>
      <trkpt lat="47.34268" lon="-2.45115">
        <ele>106.59999847412</ele>
        <time>2021-06-17T09:27:48.000Z</time>
      </trkpt>
      <trkpt lat="47.34262" lon="-2.45119">
        <ele>107</ele>
        <time>2021-06-17T09:27:49.000Z</time>
      </trkpt>
      <trkpt lat="47.34258" lon="-2.45122">
        <ele>107.40000152588</ele>
        <time>2021-06-17T09:27:50.000Z</time>
      </trkpt>
      <trkpt lat="47.34253" lon="-2.45126">
        <ele>107.80000305176</ele>
        <time>2021-06-17T09:27:51.000Z</time>
      </trkpt>
      <trkpt lat="47.3421" lon="-2.45159">
        <ele>107.80000305176</ele>
        <time>2021-06-17T09:28:00.000Z</time>
      </trkpt>
      <trkpt lat="47.34168" lon="-2.4519">
        <ele>107.80000305176</ele>
        <time>2021-06-17T09:28:09.000Z</time>
      </trkpt>
      <trkpt lat="47.3413" lon="-2.45217">
        <ele>107.80000305176</ele>
        <time>2021-06-17T09:28:17.000Z</time>
      </trkpt>
      <trkpt lat="47.34105" lon="-2.45236">
        <ele>108.80000305176</ele>
        <time>2021-06-17T09:28:22.000Z</time>
      </trkpt>
      <trkpt lat="47.341" lon="-2.4524">
        <ele>109.19999694824</ele>
        <time>2021-06-17T09:28:23.000Z</time>
      </trkpt>
      <trkpt lat="47.34095" lon="-2.45243">
        <ele>109.59999847412</ele>
        <time>2021-06-17T09:28:24.000Z</time>
      </trkpt>
      <trkpt lat="47.34091" lon="-2.45247">
        <ele>110</ele>
        <time>2021-06-17T09:28:25.000Z</time>
      </trkpt>
      <trkpt lat="47.34086" lon="-2.4525">
        <ele>110</ele>
        <time>2021-06-17T09:28:26.000Z</time>
      </trkpt>
      <trkpt lat="47.34068" lon="-2.45262">
        <ele>110</ele>
        <time>2021-06-17T09:28:30.000Z</time>
      </trkpt>
      <trkpt lat="47.34063" lon="-2.45261">
        <ele>110</ele>
        <time>2021-06-17T09:28:31.000Z</time>
      </trkpt>
      <trkpt lat="47.34055" lon="-2.45245">
        <ele>110</ele>
        <time>2021-06-17T09:28:34.000Z</time>
      </trkpt>
      <trkpt lat="47.3405" lon="-2.45222">
        <ele>110</ele>
        <time>2021-06-17T09:28:37.000Z</time>
      </trkpt>
      <trkpt lat="47.34045" lon="-2.45205">
        <ele>110</ele>
        <time>2021-06-17T09:28:39.000Z</time>
      </trkpt>
      <trkpt lat="47.34024" lon="-2.45131">
        <ele>110</ele>
        <time>2021-06-17T09:28:47.000Z</time>
      </trkpt>
      <trkpt lat="47.34004" lon="-2.45065">
        <ele>110</ele>
        <time>2021-06-17T09:28:54.000Z</time>
      </trkpt>
      <trkpt lat="47.33998" lon="-2.45046">
        <ele>109.40000152588</ele>
        <time>2021-06-17T09:28:56.000Z</time>
      </trkpt>
      <trkpt lat="47.33996" lon="-2.45036">
        <ele>109</ele>
        <time>2021-06-17T09:28:57.000Z</time>
      </trkpt>
      <trkpt lat="47.33993" lon="-2.45026">
        <ele>108.59999847412</ele>
        <time>2021-06-17T09:28:58.000Z</time>
      </trkpt>
      <trkpt lat="47.33991" lon="-2.45017">
        <ele>108.19999694824</ele>
        <time>2021-06-17T09:28:59.000Z</time>
      </trkpt>
      <trkpt lat="47.33989" lon="-2.45007">
        <ele>107.59999847412</ele>
        <time>2021-06-17T09:29:00.000Z</time>
      </trkpt>
      <trkpt lat="47.33987" lon="-2.44997">
        <ele>107.59999847412</ele>
        <time>2021-06-17T09:29:01.000Z</time>
      </trkpt>
      <trkpt lat="47.33983" lon="-2.44967">
        <ele>107.59999847412</ele>
        <time>2021-06-17T09:29:04.000Z</time>
      </trkpt>
      <trkpt lat="47.33984" lon="-2.44945">
        <ele>107.59999847412</ele>
        <time>2021-06-17T09:29:06.000Z</time>
      </trkpt>
      <trkpt lat="47.33994" lon="-2.44894">
        <ele>107.59999847412</ele>
        <time>2021-06-17T09:29:11.000Z</time>
      </trkpt>
      <trkpt lat="47.3401" lon="-2.44834">
        <ele>107.59999847412</ele>
        <time>2021-06-17T09:29:17.000Z</time>
      </trkpt>
      <trkpt lat="47.3402" lon="-2.44807">
        <ele>107.19999694824</ele>
        <time>2021-06-17T09:29:20.000Z</time>
      </trkpt>
      <trkpt lat="47.34023" lon="-2.44798">
        <ele>106.80000305176</ele>
        <time>2021-06-17T09:29:21.000Z</time>
      </trkpt>
      <trkpt lat="47.34026" lon="-2.44788">
        <ele>106.40000152588</ele>
        <time>2021-06-17T09:29:22.000Z</time>
      </trkpt>
      <trkpt lat="47.34029" lon="-2.44779">
        <ele>106</ele>
        <time>2021-06-17T09:29:23.000Z</time>
      </trkpt>
      <trkpt lat="47.34032" lon="-2.4477">
        <ele>105.59999847412</ele>
        <time>2021-06-17T09:29:24.000Z</time>
      </trkpt>
      <trkpt lat="47.34044" lon="-2.44699">
        <ele>105.59999847412</ele>
        <time>2021-06-17T09:29:31.000Z</time>
      </trkpt>
      <trkpt lat="47.34051" lon="-2.44635">
        <ele>105.59999847412</ele>
        <time>2021-06-17T09:29:37.000Z</time>
      </trkpt>
      <trkpt lat="47.34052" lon="-2.4456">
        <ele>105.59999847412</ele>
        <time>2021-06-17T09:29:44.000Z</time>
      </trkpt>
      <trkpt lat="47.34051" lon="-2.44529">
        <ele>105.19999694824</ele>
        <time>2021-06-17T09:29:47.000Z</time>
      </trkpt>
      <trkpt lat="47.3405" lon="-2.44519">
        <ele>104.80000305176</ele>
        <time>2021-06-17T09:29:48.000Z</time>
      </trkpt>
      <trkpt lat="47.34049" lon="-2.44509">
        <ele>104.40000152588</ele>
        <time>2021-06-17T09:29:49.000Z</time>
      </trkpt>
      <trkpt lat="47.34049" lon="-2.44498">
        <ele>103.80000305176</ele>
        <time>2021-06-17T09:29:50.000Z</time>
      </trkpt>
      <trkpt lat="47.34049" lon="-2.44486">
        <ele>103.40000152588</ele>
        <time>2021-06-17T09:29:51.000Z</time>
      </trkpt>
      <trkpt lat="47.34047" lon="-2.44455">
        <ele>103.40000152588</ele>
        <time>2021-06-17T09:29:54.000Z</time>
      </trkpt>
      <trkpt lat="47.34045" lon="-2.44445">
        <ele>103.40000152588</ele>
        <time>2021-06-17T09:29:55.000Z</time>
      </trkpt>
      <trkpt lat="47.34041" lon="-2.44436">
        <ele>103</ele>
        <time>2021-06-17T09:29:56.000Z</time>
      </trkpt>
      <trkpt lat="47.34035" lon="-2.44429">
        <ele>102.59999847412</ele>
        <time>2021-06-17T09:29:57.000Z</time>
      </trkpt>
      <trkpt lat="47.34029" lon="-2.44422">
        <ele>102.19999694824</ele>
        <time>2021-06-17T09:29:58.000Z</time>
      </trkpt>
      <trkpt lat="47.34021" lon="-2.44416">
        <ele>101.59999847412</ele>
        <time>2021-06-17T09:29:59.000Z</time>
      </trkpt>
      <trkpt lat="47.34015" lon="-2.44412">
        <ele>101.19999694824</ele>
        <time>2021-06-17T09:30:00.000Z</time>
      </trkpt>
      <trkpt lat="47.33997" lon="-2.444">
        <ele>101.19999694824</ele>
        <time>2021-06-17T09:30:03.000Z</time>
      </trkpt>
      <trkpt lat="47.33951" lon="-2.44373">
        <ele>101.19999694824</ele>
        <time>2021-06-17T09:30:11.000Z</time>
      </trkpt>
      <trkpt lat="47.3394" lon="-2.44366">
        <ele>101.59999847412</ele>
        <time>2021-06-17T09:30:13.000Z</time>
      </trkpt>
      <trkpt lat="47.33934" lon="-2.44363">
        <ele>102.19999694824</ele>
        <time>2021-06-17T09:30:14.000Z</time>
      </trkpt>
      <trkpt lat="47.33929" lon="-2.4436">
        <ele>102.59999847412</ele>
        <time>2021-06-17T09:30:15.000Z</time>
      </trkpt>
      <trkpt lat="47.33924" lon="-2.44357">
        <ele>103</ele>
        <time>2021-06-17T09:30:16.000Z</time>
      </trkpt>
      <trkpt lat="47.33918" lon="-2.44354">
        <ele>103.40000152588</ele>
        <time>2021-06-17T09:30:17.000Z</time>
      </trkpt>
      <trkpt lat="47.33895" lon="-2.44349">
        <ele>103.80000305176</ele>
        <time>2021-06-17T09:30:21.000Z</time>
      </trkpt>
      <trkpt lat="47.3389" lon="-2.44349">
        <ele>104.40000152588</ele>
        <time>2021-06-17T09:30:22.000Z</time>
      </trkpt>
      <trkpt lat="47.33885" lon="-2.44349">
        <ele>104.80000305176</ele>
        <time>2021-06-17T09:30:23.000Z</time>
      </trkpt>
      <trkpt lat="47.3388" lon="-2.44349">
        <ele>105.19999694824</ele>
        <time>2021-06-17T09:30:24.000Z</time>
      </trkpt>
      <trkpt lat="47.33875" lon="-2.44349">
        <ele>105.80000305176</ele>
        <time>2021-06-17T09:30:25.000Z</time>
      </trkpt>
      <trkpt lat="47.33853" lon="-2.44349">
        <ele>105.80000305176</ele>
        <time>2021-06-17T09:30:29.000Z</time>
      </trkpt>
      <trkpt lat="47.33813" lon="-2.44341">
        <ele>105.80000305176</ele>
        <time>2021-06-17T09:30:36.000Z</time>
      </trkpt>
      <trkpt lat="47.33791" lon="-2.44338">
        <ele>106.19999694824</ele>
        <time>2021-06-17T09:30:40.000Z</time>
      </trkpt>
      <trkpt lat="47.33785" lon="-2.44338">
        <ele>106.59999847412</ele>
        <time>2021-06-17T09:30:41.000Z</time>
      </trkpt>
      <trkpt lat="47.33779" lon="-2.44337">
        <ele>107</ele>
        <time>2021-06-17T09:30:42.000Z</time>
      </trkpt>
      <trkpt lat="47.33773" lon="-2.44335">
        <ele>107.40000152588</ele>
        <time>2021-06-17T09:30:43.000Z</time>
      </trkpt>
      <trkpt lat="47.33767" lon="-2.44334">
        <ele>107.80000305176</ele>
        <time>2021-06-17T09:30:44.000Z</time>
      </trkpt>
      <trkpt lat="47.33756" lon="-2.44329">
        <ele>107.80000305176</ele>
        <time>2021-06-17T09:30:46.000Z</time>
      </trkpt>
      <trkpt lat="47.3374" lon="-2.44318">
        <ele>107.80000305176</ele>
        <time>2021-06-17T09:30:49.000Z</time>
      </trkpt>
      <trkpt lat="47.33709" lon="-2.44289">
        <ele>107.80000305176</ele>
        <time>2021-06-17T09:30:55.000Z</time>
      </trkpt>
      <trkpt lat="47.33693" lon="-2.44273">
        <ele>107.80000305176</ele>
        <time>2021-06-17T09:30:58.000Z</time>
      </trkpt>
      <trkpt lat="47.33673" lon="-2.44254">
        <ele>107.80000305176</ele>
        <time>2021-06-17T09:31:02.000Z</time>
      </trkpt>
      <trkpt lat="47.33644" lon="-2.44223">
        <ele>108.19999694824</ele>
        <time>2021-06-17T09:31:08.000Z</time>
      </trkpt>
      <trkpt lat="47.33639" lon="-2.44218">
        <ele>108.59999847412</ele>
        <time>2021-06-17T09:31:09.000Z</time>
      </trkpt>
      <trkpt lat="47.33634" lon="-2.44213">
        <ele>109</ele>
        <time>2021-06-17T09:31:10.000Z</time>
      </trkpt>
      <trkpt lat="47.33629" lon="-2.44208">
        <ele>109.40000152588</ele>
        <time>2021-06-17T09:31:11.000Z</time>
      </trkpt>
      <trkpt lat="47.33623" lon="-2.44204">
        <ele>109.80000305176</ele>
        <time>2021-06-17T09:31:12.000Z</time>
      </trkpt>
      <trkpt lat="47.33591" lon="-2.44179">
        <ele>109.80000305176</ele>
        <time>2021-06-17T09:31:18.000Z</time>
      </trkpt>
      <trkpt lat="47.3355" lon="-2.44145">
        <ele>109.80000305176</ele>
        <time>2021-06-17T09:31:26.000Z</time>
      </trkpt>
      <trkpt lat="47.33506" lon="-2.44108">
        <ele>109.80000305176</ele>
        <time>2021-06-17T09:31:34.000Z</time>
      </trkpt>
      <trkpt lat="47.33458" lon="-2.44066">
        <ele>109.80000305176</ele>
        <time>2021-06-17T09:31:43.000Z</time>
      </trkpt>
      <trkpt lat="47.33416" lon="-2.44028">
        <ele>109.80000305176</ele>
        <time>2021-06-17T09:31:51.000Z</time>
      </trkpt>
      <trkpt lat="47.3339" lon="-2.43998">
        <ele>109.80000305176</ele>
        <time>2021-06-17T09:31:57.000Z</time>
      </trkpt>
      <trkpt lat="47.33358" lon="-2.43963">
        <ele>109.80000305176</ele>
        <time>2021-06-17T09:32:05.000Z</time>
      </trkpt>
      <trkpt lat="47.33342" lon="-2.43945">
        <ele>109.80000305176</ele>
        <time>2021-06-17T09:32:09.000Z</time>
      </trkpt>
      <trkpt lat="47.33332" lon="-2.43939">
        <ele>109.80000305176</ele>
        <time>2021-06-17T09:32:11.000Z</time>
      </trkpt>
      <trkpt lat="47.33292" lon="-2.43921">
        <ele>109.80000305176</ele>
        <time>2021-06-17T09:32:18.000Z</time>
      </trkpt>
      <trkpt lat="47.33262" lon="-2.43906">
        <ele>109.80000305176</ele>
        <time>2021-06-17T09:32:23.000Z</time>
      </trkpt>
      <trkpt lat="47.33228" lon="-2.43887">
        <ele>109.80000305176</ele>
        <time>2021-06-17T09:32:29.000Z</time>
      </trkpt>
      <trkpt lat="47.33223" lon="-2.43882">
        <ele>109.80000305176</ele>
        <time>2021-06-17T09:32:30.000Z</time>
      </trkpt>
      <trkpt lat="47.33208" lon="-2.43868">
        <ele>109.80000305176</ele>
        <time>2021-06-17T09:32:33.000Z</time>
      </trkpt>
      <trkpt lat="47.332" lon="-2.43854">
        <ele>109.80000305176</ele>
        <time>2021-06-17T09:32:35.000Z</time>
      </trkpt>
      <trkpt lat="47.33195" lon="-2.43836">
        <ele>109.80000305176</ele>
        <time>2021-06-17T09:32:37.000Z</time>
      </trkpt>
      <trkpt lat="47.33186" lon="-2.43808">
        <ele>109.80000305176</ele>
        <time>2021-06-17T09:32:40.000Z</time>
      </trkpt>
      <trkpt lat="47.33162" lon="-2.43747">
        <ele>109.80000305176</ele>
        <time>2021-06-17T09:32:47.000Z</time>
      </trkpt>
      <trkpt lat="47.33138" lon="-2.4368">
        <ele>109.80000305176</ele>
        <time>2021-06-17T09:32:55.000Z</time>
      </trkpt>
      <trkpt lat="47.33126" lon="-2.43645">
        <ele>109.80000305176</ele>
        <time>2021-06-17T09:32:59.000Z</time>
      </trkpt>
      <trkpt lat="47.33121" lon="-2.43626">
        <ele>109.80000305176</ele>
        <time>2021-06-17T09:33:01.000Z</time>
      </trkpt>
      <trkpt lat="47.33111" lon="-2.43566">
        <ele>109.80000305176</ele>
        <time>2021-06-17T09:33:07.000Z</time>
      </trkpt>
      <trkpt lat="47.33095" lon="-2.43496">
        <ele>109.80000305176</ele>
        <time>2021-06-17T09:33:14.000Z</time>
      </trkpt>
      <trkpt lat="47.3308" lon="-2.43444">
        <ele>109.80000305176</ele>
        <time>2021-06-17T09:33:20.000Z</time>
      </trkpt>
      <trkpt lat="47.33072" lon="-2.43425">
        <ele>109.80000305176</ele>
        <time>2021-06-17T09:33:24.000Z</time>
      </trkpt>
      <trkpt lat="47.33069" lon="-2.43421">
        <ele>109.80000305176</ele>
        <time>2021-06-17T09:33:28.000Z</time>
      </trkpt>
      <trkpt lat="47.33068" lon="-2.43419">
        <ele>109.80000305176</ele>
        <time>2021-06-17T09:33:35.000Z</time>
      </trkpt>
      <trkpt lat="47.33067" lon="-2.43416">
        <ele>109.80000305176</ele>
        <time>2021-06-17T09:33:36.000Z</time>
      </trkpt>
      <trkpt lat="47.33065" lon="-2.43408">
        <ele>109.80000305176</ele>
        <time>2021-06-17T09:33:38.000Z</time>
      </trkpt>
      <trkpt lat="47.33059" lon="-2.4338">
        <ele>109.80000305176</ele>
        <time>2021-06-17T09:33:43.000Z</time>
      </trkpt>
      <trkpt lat="47.33043" lon="-2.43344">
        <ele>109.80000305176</ele>
        <time>2021-06-17T09:33:49.000Z</time>
      </trkpt>
      <trkpt lat="47.33025" lon="-2.43304">
        <ele>109.80000305176</ele>
        <time>2021-06-17T09:33:55.000Z</time>
      </trkpt>
      <trkpt lat="47.33019" lon="-2.43291">
        <ele>109.80000305176</ele>
        <time>2021-06-17T09:33:57.000Z</time>
      </trkpt>
      <trkpt lat="47.33" lon="-2.4325">
        <ele>109.80000305176</ele>
        <time>2021-06-17T09:34:03.000Z</time>
      </trkpt>
      <trkpt lat="47.32976" lon="-2.43203">
        <ele>109.80000305176</ele>
        <time>2021-06-17T09:34:10.000Z</time>
      </trkpt>
      <trkpt lat="47.32957" lon="-2.43162">
        <ele>109.80000305176</ele>
        <time>2021-06-17T09:34:17.000Z</time>
      </trkpt>
      <trkpt lat="47.32952" lon="-2.43157">
        <ele>109.80000305176</ele>
        <time>2021-06-17T09:34:19.000Z</time>
      </trkpt>
      <trkpt lat="47.32949" lon="-2.43157">
        <ele>109.80000305176</ele>
        <time>2021-06-17T09:34:20.000Z</time>
      </trkpt>
      <trkpt lat="47.32947" lon="-2.43159">
        <ele>109.40000152588</ele>
        <time>2021-06-17T09:34:21.000Z</time>
      </trkpt>
      <trkpt lat="47.32945" lon="-2.43162">
        <ele>109</ele>
        <time>2021-06-17T09:34:22.000Z</time>
      </trkpt>
      <trkpt lat="47.32942" lon="-2.43165">
        <ele>108.59999847412</ele>
        <time>2021-06-17T09:34:23.000Z</time>
      </trkpt>
      <trkpt lat="47.3294" lon="-2.43168">
        <ele>108.19999694824</ele>
        <time>2021-06-17T09:34:24.000Z</time>
      </trkpt>
      <trkpt lat="47.32936" lon="-2.43172">
        <ele>107.80000305176</ele>
        <time>2021-06-17T09:34:25.000Z</time>
      </trkpt>
      <trkpt lat="47.32928" lon="-2.43179">
        <ele>107.80000305176</ele>
        <time>2021-06-17T09:34:27.000Z</time>
      </trkpt>
      <trkpt lat="47.32924" lon="-2.43181">
        <ele>107.80000305176</ele>
        <time>2021-06-17T09:34:28.000Z</time>
      </trkpt>
      <trkpt lat="47.32911" lon="-2.4319">
        <ele>107.80000305176</ele>
        <time>2021-06-17T09:34:31.000Z</time>
      </trkpt>
      <trkpt lat="47.32901" lon="-2.43197">
        <ele>107.80000305176</ele>
        <time>2021-06-17T09:34:33.000Z</time>
      </trkpt>
      <trkpt lat="47.32862" lon="-2.43226">
        <ele>107.80000305176</ele>
        <time>2021-06-17T09:34:40.000Z</time>
      </trkpt>
      <trkpt lat="47.32807" lon="-2.43259">
        <ele>107.80000305176</ele>
        <time>2021-06-17T09:34:49.000Z</time>
      </trkpt>
      <trkpt lat="47.32756" lon="-2.43278">
        <ele>107.80000305176</ele>
        <time>2021-06-17T09:34:57.000Z</time>
      </trkpt>
      <trkpt lat="47.32717" lon="-2.43288">
        <ele>107.80000305176</ele>
        <time>2021-06-17T09:35:03.000Z</time>
      </trkpt>
      <trkpt lat="47.32712" lon="-2.43288">
        <ele>107.80000305176</ele>
        <time>2021-06-17T09:35:04.000Z</time>
      </trkpt>
      <trkpt lat="47.32698" lon="-2.43288">
        <ele>107.80000305176</ele>
        <time>2021-06-17T09:35:07.000Z</time>
      </trkpt>
      <trkpt lat="47.32678" lon="-2.43275">
        <ele>107.80000305176</ele>
        <time>2021-06-17T09:35:12.000Z</time>
      </trkpt>
      <trkpt lat="47.32674" lon="-2.4327">
        <ele>107.80000305176</ele>
        <time>2021-06-17T09:35:13.000Z</time>
      </trkpt>
      <trkpt lat="47.32657" lon="-2.43245">
        <ele>107.80000305176</ele>
        <time>2021-06-17T09:35:17.000Z</time>
      </trkpt>
      <trkpt lat="47.32645" lon="-2.43216">
        <ele>107.80000305176</ele>
        <time>2021-06-17T09:35:21.000Z</time>
      </trkpt>
      <trkpt lat="47.3264" lon="-2.432">
        <ele>107.80000305176</ele>
        <time>2021-06-17T09:35:23.000Z</time>
      </trkpt>
      <trkpt lat="47.32626" lon="-2.43141">
        <ele>107.80000305176</ele>
        <time>2021-06-17T09:35:30.000Z</time>
      </trkpt>
      <trkpt lat="47.32614" lon="-2.43089">
        <ele>107.80000305176</ele>
        <time>2021-06-17T09:35:37.000Z</time>
      </trkpt>
      <trkpt lat="47.3261" lon="-2.43057">
        <ele>107.80000305176</ele>
        <time>2021-06-17T09:35:43.000Z</time>
      </trkpt>
      <trkpt lat="47.32607" lon="-2.43028">
        <ele>108.19999694824</ele>
        <time>2021-06-17T09:35:47.000Z</time>
      </trkpt>
      <trkpt lat="47.32607" lon="-2.4302">
        <ele>108.59999847412</ele>
        <time>2021-06-17T09:35:48.000Z</time>
      </trkpt>
      <trkpt lat="47.32607" lon="-2.43012">
        <ele>109</ele>
        <time>2021-06-17T09:35:49.000Z</time>
      </trkpt>
      <trkpt lat="47.32607" lon="-2.43005">
        <ele>109.40000152588</ele>
        <time>2021-06-17T09:35:50.000Z</time>
      </trkpt>
      <trkpt lat="47.32607" lon="-2.42997">
        <ele>109.80000305176</ele>
        <time>2021-06-17T09:35:51.000Z</time>
      </trkpt>
      <trkpt lat="47.3261" lon="-2.42963">
        <ele>109.80000305176</ele>
        <time>2021-06-17T09:35:55.000Z</time>
      </trkpt>
      <trkpt lat="47.32626" lon="-2.42907">
        <ele>109.80000305176</ele>
        <time>2021-06-17T09:36:02.000Z</time>
      </trkpt>
      <trkpt lat="47.32637" lon="-2.42855">
        <ele>109.80000305176</ele>
        <time>2021-06-17T09:36:08.000Z</time>
      </trkpt>
      <trkpt lat="47.32651" lon="-2.42802">
        <ele>109.80000305176</ele>
        <time>2021-06-17T09:36:14.000Z</time>
      </trkpt>
      <trkpt lat="47.32654" lon="-2.42794">
        <ele>109.80000305176</ele>
        <time>2021-06-17T09:36:15.000Z</time>
      </trkpt>
      <trkpt lat="47.32679" lon="-2.42742">
        <ele>109.80000305176</ele>
        <time>2021-06-17T09:36:22.000Z</time>
      </trkpt>
      <trkpt lat="47.32708" lon="-2.4269">
        <ele>109.80000305176</ele>
        <time>2021-06-17T09:36:30.000Z</time>
      </trkpt>
      <trkpt lat="47.3271" lon="-2.42675">
        <ele>109.80000305176</ele>
        <time>2021-06-17T09:36:33.000Z</time>
      </trkpt>
      <trkpt lat="47.3271" lon="-2.42671">
        <ele>109.80000305176</ele>
        <time>2021-06-17T09:36:35.000Z</time>
      </trkpt>
      <trkpt lat="47.32709" lon="-2.4266">
        <ele>109.80000305176</ele>
        <time>2021-06-17T09:36:38.000Z</time>
      </trkpt>
      <trkpt lat="47.32703" lon="-2.42645">
        <ele>109.80000305176</ele>
        <time>2021-06-17T09:36:41.000Z</time>
      </trkpt>
      <trkpt lat="47.3269" lon="-2.42608">
        <ele>109.80000305176</ele>
        <time>2021-06-17T09:36:49.000Z</time>
      </trkpt>
      <trkpt lat="47.32679" lon="-2.42583">
        <ele>109.80000305176</ele>
        <time>2021-06-17T09:36:55.000Z</time>
      </trkpt>
      <trkpt lat="47.32672" lon="-2.42554">
        <ele>109.80000305176</ele>
        <time>2021-06-17T09:37:00.000Z</time>
      </trkpt>
      <trkpt lat="47.32659" lon="-2.42517">
        <ele>109.80000305176</ele>
        <time>2021-06-17T09:37:06.000Z</time>
      </trkpt>
      <trkpt lat="47.32656" lon="-2.42511">
        <ele>109.80000305176</ele>
        <time>2021-06-17T09:37:07.000Z</time>
      </trkpt>
      <trkpt lat="47.32654" lon="-2.42504">
        <ele>109.80000305176</ele>
        <time>2021-06-17T09:37:08.000Z</time>
      </trkpt>
      <trkpt lat="47.32647" lon="-2.42486">
        <ele>109.80000305176</ele>
        <time>2021-06-17T09:37:11.000Z</time>
      </trkpt>
      <trkpt lat="47.32645" lon="-2.42481">
        <ele>109.80000305176</ele>
        <time>2021-06-17T09:37:12.000Z</time>
      </trkpt>
      <trkpt lat="47.32633" lon="-2.4246">
        <ele>109.80000305176</ele>
        <time>2021-06-17T09:37:17.000Z</time>
      </trkpt>
      <trkpt lat="47.32629" lon="-2.42449">
        <ele>109.80000305176</ele>
        <time>2021-06-17T09:37:19.000Z</time>
      </trkpt>
      <trkpt lat="47.32623" lon="-2.42432">
        <ele>109.80000305176</ele>
        <time>2021-06-17T09:37:22.000Z</time>
      </trkpt>
      <trkpt lat="47.32612" lon="-2.42402">
        <ele>109.80000305176</ele>
        <time>2021-06-17T09:37:27.000Z</time>
      </trkpt>
      <trkpt lat="47.32607" lon="-2.4239">
        <ele>109.80000305176</ele>
        <time>2021-06-17T09:37:29.000Z</time>
      </trkpt>
      <trkpt lat="47.32586" lon="-2.42351">
        <ele>109.80000305176</ele>
        <time>2021-06-17T09:37:36.000Z</time>
      </trkpt>
      <trkpt lat="47.32564" lon="-2.4231">
        <ele>109.80000305176</ele>
        <time>2021-06-17T09:37:43.000Z</time>
      </trkpt>
      <trkpt lat="47.32544" lon="-2.42271">
        <ele>110.19999694824</ele>
        <time>2021-06-17T09:37:49.000Z</time>
      </trkpt>
      <trkpt lat="47.3254" lon="-2.42264">
        <ele>110.59999847412</ele>
        <time>2021-06-17T09:37:50.000Z</time>
      </trkpt>
      <trkpt lat="47.32536" lon="-2.42257">
        <ele>111</ele>
        <time>2021-06-17T09:37:51.000Z</time>
      </trkpt>
      <trkpt lat="47.32532" lon="-2.42249">
        <ele>111.80000305176</ele>
        <time>2021-06-17T09:37:52.000Z</time>
      </trkpt>
      <trkpt lat="47.32518" lon="-2.42221">
        <ele>111.80000305176</ele>
        <time>2021-06-17T09:37:56.000Z</time>
      </trkpt>
      <trkpt lat="47.3251" lon="-2.4221">
        <ele>111.80000305176</ele>
        <time>2021-06-17T09:37:58.000Z</time>
      </trkpt>
      <trkpt lat="47.32503" lon="-2.42197">
        <ele>112.19999694824</ele>
        <time>2021-06-17T09:38:00.000Z</time>
      </trkpt>
      <trkpt lat="47.325" lon="-2.4219">
        <ele>112.80000305176</ele>
        <time>2021-06-17T09:38:01.000Z</time>
      </trkpt>
      <trkpt lat="47.32497" lon="-2.42183">
        <ele>113.19999694824</ele>
        <time>2021-06-17T09:38:02.000Z</time>
      </trkpt>
      <trkpt lat="47.32493" lon="-2.42176">
        <ele>113.80000305176</ele>
        <time>2021-06-17T09:38:03.000Z</time>
      </trkpt>
      <trkpt lat="47.3249" lon="-2.42169">
        <ele>114.19999694824</ele>
        <time>2021-06-17T09:38:04.000Z</time>
      </trkpt>
      <trkpt lat="47.32478" lon="-2.42148">
        <ele>114.19999694824</ele>
        <time>2021-06-17T09:38:07.000Z</time>
      </trkpt>
      <trkpt lat="47.32474" lon="-2.42142">
        <ele>114.19999694824</ele>
        <time>2021-06-17T09:38:08.000Z</time>
      </trkpt>
      <trkpt lat="47.32458" lon="-2.42129">
        <ele>114.59999847412</ele>
        <time>2021-06-17T09:38:11.000Z</time>
      </trkpt>
      <trkpt lat="47.32453" lon="-2.42124">
        <ele>115</ele>
        <time>2021-06-17T09:38:12.000Z</time>
      </trkpt>
      <trkpt lat="47.32448" lon="-2.4212">
        <ele>115.40000152588</ele>
        <time>2021-06-17T09:38:13.000Z</time>
      </trkpt>
      <trkpt lat="47.32442" lon="-2.42115">
        <ele>115.80000305176</ele>
        <time>2021-06-17T09:38:14.000Z</time>
      </trkpt>
      <trkpt lat="47.32436" lon="-2.42111">
        <ele>116.40000152588</ele>
        <time>2021-06-17T09:38:15.000Z</time>
      </trkpt>
      <trkpt lat="47.32425" lon="-2.421">
        <ele>116.40000152588</ele>
        <time>2021-06-17T09:38:17.000Z</time>
      </trkpt>
      <trkpt lat="47.32409" lon="-2.42079">
        <ele>116.40000152588</ele>
        <time>2021-06-17T09:38:20.000Z</time>
      </trkpt>
      <trkpt lat="47.32397" lon="-2.42065">
        <ele>116.40000152588</ele>
        <time>2021-06-17T09:38:22.000Z</time>
      </trkpt>
      <trkpt lat="47.32352" lon="-2.42018">
        <ele>116.40000152588</ele>
        <time>2021-06-17T09:38:29.000Z</time>
      </trkpt>
      <trkpt lat="47.32345" lon="-2.42011">
        <ele>115.80000305176</ele>
        <time>2021-06-17T09:38:30.000Z</time>
      </trkpt>
      <trkpt lat="47.32339" lon="-2.42005">
        <ele>115.40000152588</ele>
        <time>2021-06-17T09:38:31.000Z</time>
      </trkpt>
      <trkpt lat="47.32333" lon="-2.42">
        <ele>115</ele>
        <time>2021-06-17T09:38:32.000Z</time>
      </trkpt>
      <trkpt lat="47.32328" lon="-2.41996">
        <ele>114.59999847412</ele>
        <time>2021-06-17T09:38:33.000Z</time>
      </trkpt>
      <trkpt lat="47.32323" lon="-2.41991">
        <ele>114.19999694824</ele>
        <time>2021-06-17T09:38:34.000Z</time>
      </trkpt>
      <trkpt lat="47.3232" lon="-2.41985">
        <ele>114.19999694824</ele>
        <time>2021-06-17T09:38:35.000Z</time>
      </trkpt>
      <trkpt lat="47.32316" lon="-2.41979">
        <ele>113.80000305176</ele>
        <time>2021-06-17T09:38:36.000Z</time>
      </trkpt>
      <trkpt lat="47.32312" lon="-2.41974">
        <ele>113.40000152588</ele>
        <time>2021-06-17T09:38:37.000Z</time>
      </trkpt>
      <trkpt lat="47.32307" lon="-2.41969">
        <ele>113</ele>
        <time>2021-06-17T09:38:38.000Z</time>
      </trkpt>
      <trkpt lat="47.32303" lon="-2.41964">
        <ele>112.59999847412</ele>
        <time>2021-06-17T09:38:39.000Z</time>
      </trkpt>
      <trkpt lat="47.32298" lon="-2.41959">
        <ele>112.19999694824</ele>
        <time>2021-06-17T09:38:40.000Z</time>
      </trkpt>
      <trkpt lat="47.3229" lon="-2.41946">
        <ele>112.19999694824</ele>
        <time>2021-06-17T09:38:42.000Z</time>
      </trkpt>
      <trkpt lat="47.32284" lon="-2.41933">
        <ele>112.19999694824</ele>
        <time>2021-06-17T09:38:44.000Z</time>
      </trkpt>
      <trkpt lat="47.32281" lon="-2.41927">
        <ele>112.19999694824</ele>
        <time>2021-06-17T09:38:45.000Z</time>
      </trkpt>
      <trkpt lat="47.32266" lon="-2.41905">
        <ele>112.19999694824</ele>
        <time>2021-06-17T09:38:49.000Z</time>
      </trkpt>
      <trkpt lat="47.32251" lon="-2.41882">
        <ele>111.80000305176</ele>
        <time>2021-06-17T09:38:54.000Z</time>
      </trkpt>
      <trkpt lat="47.3225" lon="-2.41878">
        <ele>111.40000152588</ele>
        <time>2021-06-17T09:38:55.000Z</time>
      </trkpt>
      <trkpt lat="47.32249" lon="-2.41873">
        <ele>111</ele>
        <time>2021-06-17T09:38:56.000Z</time>
      </trkpt>
      <trkpt lat="47.32247" lon="-2.41869">
        <ele>110.59999847412</ele>
        <time>2021-06-17T09:38:57.000Z</time>
      </trkpt>
      <trkpt lat="47.32245" lon="-2.41863">
        <ele>110.19999694824</ele>
        <time>2021-06-17T09:38:58.000Z</time>
      </trkpt>
      <trkpt lat="47.32245" lon="-2.41856">
        <ele>110.19999694824</ele>
        <time>2021-06-17T09:38:59.000Z</time>
      </trkpt>
      <trkpt lat="47.32249" lon="-2.41843">
        <ele>110.19999694824</ele>
        <time>2021-06-17T09:39:01.000Z</time>
      </trkpt>
      <trkpt lat="47.32255" lon="-2.41829">
        <ele>110.19999694824</ele>
        <time>2021-06-17T09:39:03.000Z</time>
      </trkpt>
      <trkpt lat="47.32268" lon="-2.41802">
        <ele>110.19999694824</ele>
        <time>2021-06-17T09:39:07.000Z</time>
      </trkpt>
      <trkpt lat="47.3228" lon="-2.41783">
        <ele>110.19999694824</ele>
        <time>2021-06-17T09:39:10.000Z</time>
      </trkpt>
      <trkpt lat="47.32282" lon="-2.41766">
        <ele>110.19999694824</ele>
        <time>2021-06-17T09:39:12.000Z</time>
      </trkpt>
      <trkpt lat="47.32283" lon="-2.41745">
        <ele>110.19999694824</ele>
        <time>2021-06-17T09:39:15.000Z</time>
      </trkpt>
      <trkpt lat="47.32293" lon="-2.41725">
        <ele>110.59999847412</ele>
        <time>2021-06-17T09:39:18.000Z</time>
      </trkpt>
      <trkpt lat="47.32295" lon="-2.41717">
        <ele>111</ele>
        <time>2021-06-17T09:39:19.000Z</time>
      </trkpt>
      <trkpt lat="47.32297" lon="-2.41709">
        <ele>111.40000152588</ele>
        <time>2021-06-17T09:39:20.000Z</time>
      </trkpt>
      <trkpt lat="47.32298" lon="-2.41702">
        <ele>111.80000305176</ele>
        <time>2021-06-17T09:39:21.000Z</time>
      </trkpt>
      <trkpt lat="47.32298" lon="-2.41694">
        <ele>112.19999694824</ele>
        <time>2021-06-17T09:39:22.000Z</time>
      </trkpt>
      <trkpt lat="47.32298" lon="-2.41688">
        <ele>112.19999694824</ele>
        <time>2021-06-17T09:39:23.000Z</time>
      </trkpt>
      <trkpt lat="47.32298" lon="-2.4167">
        <ele>112.19999694824</ele>
        <time>2021-06-17T09:39:26.000Z</time>
      </trkpt>
      <trkpt lat="47.32298" lon="-2.41657">
        <ele>112.19999694824</ele>
        <time>2021-06-17T09:39:28.000Z</time>
      </trkpt>
      <trkpt lat="47.32298" lon="-2.4165">
        <ele>112.19999694824</ele>
        <time>2021-06-17T09:39:29.000Z</time>
      </trkpt>
      <trkpt lat="47.32305" lon="-2.4163">
        <ele>112.19999694824</ele>
        <time>2021-06-17T09:39:32.000Z</time>
      </trkpt>
      <trkpt lat="47.32309" lon="-2.41622">
        <ele>112.19999694824</ele>
        <time>2021-06-17T09:39:33.000Z</time>
      </trkpt>
      <trkpt lat="47.32311" lon="-2.41614">
        <ele>112.19999694824</ele>
        <time>2021-06-17T09:39:34.000Z</time>
      </trkpt>
      <trkpt lat="47.32315" lon="-2.41596">
        <ele>112.19999694824</ele>
        <time>2021-06-17T09:39:36.000Z</time>
      </trkpt>
      <trkpt lat="47.3232" lon="-2.4158">
        <ele>112.19999694824</ele>
        <time>2021-06-17T09:39:38.000Z</time>
      </trkpt>
      <trkpt lat="47.32326" lon="-2.41566">
        <ele>112.19999694824</ele>
        <time>2021-06-17T09:39:40.000Z</time>
      </trkpt>
      <trkpt lat="47.32331" lon="-2.4156">
        <ele>112.19999694824</ele>
        <time>2021-06-17T09:39:41.000Z</time>
      </trkpt>
      <trkpt lat="47.3234" lon="-2.41551">
        <ele>112.19999694824</ele>
        <time>2021-06-17T09:39:43.000Z</time>
      </trkpt>
      <trkpt lat="47.32357" lon="-2.41545">
        <ele>112.19999694824</ele>
        <time>2021-06-17T09:39:46.000Z</time>
      </trkpt>
      <trkpt lat="47.32379" lon="-2.41551">
        <ele>112.19999694824</ele>
        <time>2021-06-17T09:39:50.000Z</time>
      </trkpt>
      <trkpt lat="47.32389" lon="-2.41556">
        <ele>112.19999694824</ele>
        <time>2021-06-17T09:39:52.000Z</time>
      </trkpt>
      <trkpt lat="47.32403" lon="-2.41565">
        <ele>112.19999694824</ele>
        <time>2021-06-17T09:39:55.000Z</time>
      </trkpt>
      <trkpt lat="47.32408" lon="-2.41566">
        <ele>112.19999694824</ele>
        <time>2021-06-17T09:39:56.000Z</time>
      </trkpt>
      <trkpt lat="47.32423" lon="-2.41565">
        <ele>112.19999694824</ele>
        <time>2021-06-17T09:39:59.000Z</time>
      </trkpt>
      <trkpt lat="47.3244" lon="-2.41566">
        <ele>112.59999847412</ele>
        <time>2021-06-17T09:40:02.000Z</time>
      </trkpt>
      <trkpt lat="47.32445" lon="-2.41566">
        <ele>113</ele>
        <time>2021-06-17T09:40:03.000Z</time>
      </trkpt>
      <trkpt lat="47.32451" lon="-2.41568">
        <ele>113.40000152588</ele>
        <time>2021-06-17T09:40:04.000Z</time>
      </trkpt>
      <trkpt lat="47.32456" lon="-2.4157">
        <ele>113.80000305176</ele>
        <time>2021-06-17T09:40:05.000Z</time>
      </trkpt>
      <trkpt lat="47.32461" lon="-2.41572">
        <ele>114.19999694824</ele>
        <time>2021-06-17T09:40:06.000Z</time>
      </trkpt>
      <trkpt lat="47.32498" lon="-2.41587">
        <ele>114.19999694824</ele>
        <time>2021-06-17T09:40:13.000Z</time>
      </trkpt>
      <trkpt lat="47.32509" lon="-2.41589">
        <ele>114.19999694824</ele>
        <time>2021-06-17T09:40:15.000Z</time>
      </trkpt>
      <trkpt lat="47.3253" lon="-2.41583">
        <ele>114.19999694824</ele>
        <time>2021-06-17T09:40:19.000Z</time>
      </trkpt>
      <trkpt lat="47.32534" lon="-2.4158">
        <ele>114.19999694824</ele>
        <time>2021-06-17T09:40:20.000Z</time>
      </trkpt>
      <trkpt lat="47.32544" lon="-2.41578">
        <ele>114.19999694824</ele>
        <time>2021-06-17T09:40:22.000Z</time>
      </trkpt>
      <trkpt lat="47.32559" lon="-2.41581">
        <ele>114.19999694824</ele>
        <time>2021-06-17T09:40:25.000Z</time>
      </trkpt>
      <trkpt lat="47.32573" lon="-2.41594">
        <ele>114.19999694824</ele>
        <time>2021-06-17T09:40:28.000Z</time>
      </trkpt>
      <trkpt lat="47.32578" lon="-2.41599">
        <ele>114.19999694824</ele>
        <time>2021-06-17T09:40:29.000Z</time>
      </trkpt>
      <trkpt lat="47.32589" lon="-2.41606">
        <ele>114.19999694824</ele>
        <time>2021-06-17T09:40:31.000Z</time>
      </trkpt>
      <trkpt lat="47.326" lon="-2.41608">
        <ele>114.19999694824</ele>
        <time>2021-06-17T09:40:33.000Z</time>
      </trkpt>
      <trkpt lat="47.32611" lon="-2.41605">
        <ele>114.19999694824</ele>
        <time>2021-06-17T09:40:35.000Z</time>
      </trkpt>
      <trkpt lat="47.32617" lon="-2.41605">
        <ele>114.19999694824</ele>
        <time>2021-06-17T09:40:36.000Z</time>
      </trkpt>
      <trkpt lat="47.32623" lon="-2.41606">
        <ele>114.19999694824</ele>
        <time>2021-06-17T09:40:37.000Z</time>
      </trkpt>
      <trkpt lat="47.32646" lon="-2.41615">
        <ele>114.19999694824</ele>
        <time>2021-06-17T09:40:41.000Z</time>
      </trkpt>
      <trkpt lat="47.32666" lon="-2.4162">
        <ele>113.80000305176</ele>
        <time>2021-06-17T09:40:44.000Z</time>
      </trkpt>
      <trkpt lat="47.32673" lon="-2.41623">
        <ele>113.40000152588</ele>
        <time>2021-06-17T09:40:45.000Z</time>
      </trkpt>
      <trkpt lat="47.32678" lon="-2.41625">
        <ele>113</ele>
        <time>2021-06-17T09:40:46.000Z</time>
      </trkpt>
      <trkpt lat="47.32682" lon="-2.41626">
        <ele>112.59999847412</ele>
        <time>2021-06-17T09:40:47.000Z</time>
      </trkpt>
      <trkpt lat="47.32686" lon="-2.41625">
        <ele>112.19999694824</ele>
        <time>2021-06-17T09:40:48.000Z</time>
      </trkpt>
      <trkpt lat="47.32691" lon="-2.41622">
        <ele>112.19999694824</ele>
        <time>2021-06-17T09:40:50.000Z</time>
      </trkpt>
      <trkpt lat="47.32697" lon="-2.41621">
        <ele>112.19999694824</ele>
        <time>2021-06-17T09:40:53.000Z</time>
      </trkpt>
      <trkpt lat="47.327" lon="-2.41623">
        <ele>111.80000305176</ele>
        <time>2021-06-17T09:40:54.000Z</time>
      </trkpt>
      <trkpt lat="47.32703" lon="-2.41625">
        <ele>111.40000152588</ele>
        <time>2021-06-17T09:40:55.000Z</time>
      </trkpt>
      <trkpt lat="47.32706" lon="-2.41627">
        <ele>111</ele>
        <time>2021-06-17T09:40:56.000Z</time>
      </trkpt>
      <trkpt lat="47.3271" lon="-2.41628">
        <ele>110.59999847412</ele>
        <time>2021-06-17T09:40:57.000Z</time>
      </trkpt>
      <trkpt lat="47.32714" lon="-2.41627">
        <ele>110.19999694824</ele>
        <time>2021-06-17T09:40:58.000Z</time>
      </trkpt>
      <trkpt lat="47.32717" lon="-2.41626">
        <ele>110.19999694824</ele>
        <time>2021-06-17T09:40:59.000Z</time>
      </trkpt>
      <trkpt lat="47.32716" lon="-2.41618">
        <ele>110.19999694824</ele>
        <time>2021-06-17T09:41:01.000Z</time>
      </trkpt>
      <trkpt lat="47.32711" lon="-2.4161">
        <ele>110.19999694824</ele>
        <time>2021-06-17T09:41:03.000Z</time>
      </trkpt>
      <trkpt lat="47.32705" lon="-2.41595">
        <ele>110.19999694824</ele>
        <time>2021-06-17T09:41:06.000Z</time>
      </trkpt>
      <trkpt lat="47.32705" lon="-2.41582">
        <ele>110.19999694824</ele>
        <time>2021-06-17T09:41:10.000Z</time>
      </trkpt>
      <trkpt lat="47.32704" lon="-2.4158">
        <ele>110.19999694824</ele>
        <time>2021-06-17T09:41:11.000Z</time>
      </trkpt>
      <trkpt lat="47.327" lon="-2.41575">
        <ele>110.19999694824</ele>
        <time>2021-06-17T09:41:14.000Z</time>
      </trkpt>
      <trkpt lat="47.32702" lon="-2.4156">
        <ele>110.19999694824</ele>
        <time>2021-06-17T09:41:17.000Z</time>
      </trkpt>
      <trkpt lat="47.32701" lon="-2.41554">
        <ele>110.19999694824</ele>
        <time>2021-06-17T09:41:18.000Z</time>
      </trkpt>
      <trkpt lat="47.32692" lon="-2.41542">
        <ele>110.19999694824</ele>
        <time>2021-06-17T09:41:22.000Z</time>
      </trkpt>
      <trkpt lat="47.32684" lon="-2.41542">
        <ele>110.19999694824</ele>
        <time>2021-06-17T09:41:24.000Z</time>
      </trkpt>
      <trkpt lat="47.32671" lon="-2.41539">
        <ele>110.19999694824</ele>
        <time>2021-06-17T09:41:28.000Z</time>
      </trkpt>
      <trkpt lat="47.32663" lon="-2.41537">
        <ele>110.19999694824</ele>
        <time>2021-06-17T09:41:32.000Z</time>
      </trkpt>
      <trkpt lat="47.32648" lon="-2.41535">
        <ele>110.19999694824</ele>
        <time>2021-06-17T09:41:36.000Z</time>
      </trkpt>
      <trkpt lat="47.32616" lon="-2.41528">
        <ele>110.19999694824</ele>
        <time>2021-06-17T09:41:42.000Z</time>
      </trkpt>
      <trkpt lat="47.32606" lon="-2.41526">
        <ele>110.59999847412</ele>
        <time>2021-06-17T09:41:44.000Z</time>
      </trkpt>
      <trkpt lat="47.32601" lon="-2.41525">
        <ele>111</ele>
        <time>2021-06-17T09:41:45.000Z</time>
      </trkpt>
      <trkpt lat="47.32596" lon="-2.41523">
        <ele>111.40000152588</ele>
        <time>2021-06-17T09:41:46.000Z</time>
      </trkpt>
      <trkpt lat="47.32591" lon="-2.41522">
        <ele>111.80000305176</ele>
        <time>2021-06-17T09:41:47.000Z</time>
      </trkpt>
      <trkpt lat="47.32586" lon="-2.41521">
        <ele>112.19999694824</ele>
        <time>2021-06-17T09:41:48.000Z</time>
      </trkpt>
      <trkpt lat="47.32577" lon="-2.41518">
        <ele>112.19999694824</ele>
        <time>2021-06-17T09:41:50.000Z</time>
      </trkpt>
      <trkpt lat="47.32571" lon="-2.41504">
        <ele>112.19999694824</ele>
        <time>2021-06-17T09:41:53.000Z</time>
      </trkpt>
      <trkpt lat="47.3257" lon="-2.41492">
        <ele>112.19999694824</ele>
        <time>2021-06-17T09:41:55.000Z</time>
      </trkpt>
      <trkpt lat="47.32567" lon="-2.41479">
        <ele>112.19999694824</ele>
        <time>2021-06-17T09:41:58.000Z</time>
      </trkpt>
      <trkpt lat="47.32565" lon="-2.4147">
        <ele>112.19999694824</ele>
        <time>2021-06-17T09:42:03.000Z</time>
      </trkpt>
      <trkpt lat="47.32563" lon="-2.41455">
        <ele>112.19999694824</ele>
        <time>2021-06-17T09:42:08.000Z</time>
      </trkpt>
      <trkpt lat="47.3256" lon="-2.41453">
        <ele>112.19999694824</ele>
        <time>2021-06-17T09:42:09.000Z</time>
      </trkpt>
      <trkpt lat="47.32555" lon="-2.41444">
        <ele>112.19999694824</ele>
        <time>2021-06-17T09:42:11.000Z</time>
      </trkpt>
      <trkpt lat="47.32546" lon="-2.41427">
        <ele>112.19999694824</ele>
        <time>2021-06-17T09:42:14.000Z</time>
      </trkpt>
      <trkpt lat="47.3254" lon="-2.41414">
        <ele>112.19999694824</ele>
        <time>2021-06-17T09:42:16.000Z</time>
      </trkpt>
      <trkpt lat="47.32517" lon="-2.4137">
        <ele>112.19999694824</ele>
        <time>2021-06-17T09:42:23.000Z</time>
      </trkpt>
      <trkpt lat="47.32503" lon="-2.41346">
        <ele>112.59999847412</ele>
        <time>2021-06-17T09:42:27.000Z</time>
      </trkpt>
      <trkpt lat="47.325" lon="-2.4134">
        <ele>113</ele>
        <time>2021-06-17T09:42:28.000Z</time>
      </trkpt>
      <trkpt lat="47.32497" lon="-2.41334">
        <ele>113.59999847412</ele>
        <time>2021-06-17T09:42:29.000Z</time>
      </trkpt>
      <trkpt lat="47.32494" lon="-2.41328">
        <ele>114</ele>
        <time>2021-06-17T09:42:30.000Z</time>
      </trkpt>
      <trkpt lat="47.32491" lon="-2.41322">
        <ele>114.40000152588</ele>
        <time>2021-06-17T09:42:31.000Z</time>
      </trkpt>
      <trkpt lat="47.32487" lon="-2.41316">
        <ele>114.40000152588</ele>
        <time>2021-06-17T09:42:32.000Z</time>
      </trkpt>
      <trkpt lat="47.32461" lon="-2.41262">
        <ele>114.40000152588</ele>
        <time>2021-06-17T09:42:41.000Z</time>
      </trkpt>
      <trkpt lat="47.32438" lon="-2.4122">
        <ele>114.40000152588</ele>
        <time>2021-06-17T09:42:48.000Z</time>
      </trkpt>
      <trkpt lat="47.32431" lon="-2.41204">
        <ele>114.40000152588</ele>
        <time>2021-06-17T09:42:51.000Z</time>
      </trkpt>
      <trkpt lat="47.32427" lon="-2.41195">
        <ele>114.40000152588</ele>
        <time>2021-06-17T09:42:53.000Z</time>
      </trkpt>
      <trkpt lat="47.32423" lon="-2.41192">
        <ele>114.40000152588</ele>
        <time>2021-06-17T09:42:55.000Z</time>
      </trkpt>
      <trkpt lat="47.32421" lon="-2.41189">
        <ele>114.40000152588</ele>
        <time>2021-06-17T09:42:57.000Z</time>
      </trkpt>
      <trkpt lat="47.32416" lon="-2.41177">
        <ele>114.40000152588</ele>
        <time>2021-06-17T09:43:00.000Z</time>
      </trkpt>
      <trkpt lat="47.32413" lon="-2.41172">
        <ele>114.40000152588</ele>
        <time>2021-06-17T09:43:01.000Z</time>
      </trkpt>
      <trkpt lat="47.3241" lon="-2.41167">
        <ele>114.40000152588</ele>
        <time>2021-06-17T09:43:02.000Z</time>
      </trkpt>
      <trkpt lat="47.32397" lon="-2.41143">
        <ele>114.40000152588</ele>
        <time>2021-06-17T09:43:07.000Z</time>
      </trkpt>
      <trkpt lat="47.32394" lon="-2.41138">
        <ele>114.40000152588</ele>
        <time>2021-06-17T09:43:08.000Z</time>
      </trkpt>
      <trkpt lat="47.32375" lon="-2.41098">
        <ele>114.40000152588</ele>
        <time>2021-06-17T09:43:15.000Z</time>
      </trkpt>
      <trkpt lat="47.32362" lon="-2.41076">
        <ele>114.40000152588</ele>
        <time>2021-06-17T09:43:21.000Z</time>
      </trkpt>
      <trkpt lat="47.32353" lon="-2.4106">
        <ele>114.40000152588</ele>
        <time>2021-06-17T09:43:25.000Z</time>
      </trkpt>
      <trkpt lat="47.32335" lon="-2.41027">
        <ele>114.40000152588</ele>
        <time>2021-06-17T09:43:30.000Z</time>
      </trkpt>
      <trkpt lat="47.32305" lon="-2.40971">
        <ele>114.40000152588</ele>
        <time>2021-06-17T09:43:37.000Z</time>
      </trkpt>
      <trkpt lat="47.3227" lon="-2.40903">
        <ele>114.40000152588</ele>
        <time>2021-06-17T09:43:45.000Z</time>
      </trkpt>
      <trkpt lat="47.32265" lon="-2.40894">
        <ele>114.40000152588</ele>
        <time>2021-06-17T09:43:46.000Z</time>
      </trkpt>
      <trkpt lat="47.32234" lon="-2.4084">
        <ele>114.40000152588</ele>
        <time>2021-06-17T09:43:53.000Z</time>
      </trkpt>
      <trkpt lat="47.32224" lon="-2.40822">
        <ele>114.40000152588</ele>
        <time>2021-06-17T09:43:56.000Z</time>
      </trkpt>
      <trkpt lat="47.32221" lon="-2.40817">
        <ele>114.40000152588</ele>
        <time>2021-06-17T09:43:57.000Z</time>
      </trkpt>
      <trkpt lat="47.32215" lon="-2.40812">
        <ele>114</ele>
        <time>2021-06-17T09:43:59.000Z</time>
      </trkpt>
      <trkpt lat="47.32214" lon="-2.40809">
        <ele>113</ele>
        <time>2021-06-17T09:44:00.000Z</time>
      </trkpt>
      <trkpt lat="47.32213" lon="-2.40808">
        <ele>112.59999847412</ele>
        <time>2021-06-17T09:44:01.000Z</time>
      </trkpt>
      <trkpt lat="47.32211" lon="-2.40806">
        <ele>112.19999694824</ele>
        <time>2021-06-17T09:44:02.000Z</time>
      </trkpt>
      <trkpt lat="47.32205" lon="-2.40797">
        <ele>112.19999694824</ele>
        <time>2021-06-17T09:44:06.000Z</time>
      </trkpt>
      <trkpt lat="47.32193" lon="-2.40778">
        <ele>112.19999694824</ele>
        <time>2021-06-17T09:44:11.000Z</time>
      </trkpt>
      <trkpt lat="47.32189" lon="-2.40774">
        <ele>112.19999694824</ele>
        <time>2021-06-17T09:44:12.000Z</time>
      </trkpt>
      <trkpt lat="47.32174" lon="-2.40752">
        <ele>112.19999694824</ele>
        <time>2021-06-17T09:44:16.000Z</time>
      </trkpt>
      <trkpt lat="47.32164" lon="-2.40739">
        <ele>112.19999694824</ele>
        <time>2021-06-17T09:44:18.000Z</time>
      </trkpt>
      <trkpt lat="47.32148" lon="-2.4072">
        <ele>112.19999694824</ele>
        <time>2021-06-17T09:44:21.000Z</time>
      </trkpt>
      <trkpt lat="47.32103" lon="-2.40671">
        <ele>112.19999694824</ele>
        <time>2021-06-17T09:44:29.000Z</time>
      </trkpt>
      <trkpt lat="47.32061" lon="-2.4063">
        <ele>112.19999694824</ele>
        <time>2021-06-17T09:44:36.000Z</time>
      </trkpt>
      <trkpt lat="47.3203" lon="-2.406">
        <ele>112.19999694824</ele>
        <time>2021-06-17T09:44:42.000Z</time>
      </trkpt>
      <trkpt lat="47.31994" lon="-2.40572">
        <ele>112.19999694824</ele>
        <time>2021-06-17T09:44:48.000Z</time>
      </trkpt>
      <trkpt lat="47.3197" lon="-2.40554">
        <ele>111.80000305176</ele>
        <time>2021-06-17T09:44:52.000Z</time>
      </trkpt>
      <trkpt lat="47.31964" lon="-2.40549">
        <ele>111.40000152588</ele>
        <time>2021-06-17T09:44:53.000Z</time>
      </trkpt>
      <trkpt lat="47.31957" lon="-2.40544">
        <ele>111</ele>
        <time>2021-06-17T09:44:54.000Z</time>
      </trkpt>
      <trkpt lat="47.31951" lon="-2.4054">
        <ele>110.59999847412</ele>
        <time>2021-06-17T09:44:55.000Z</time>
      </trkpt>
      <trkpt lat="47.31945" lon="-2.40535">
        <ele>110.19999694824</ele>
        <time>2021-06-17T09:44:56.000Z</time>
      </trkpt>
      <trkpt lat="47.31939" lon="-2.4053">
        <ele>110.19999694824</ele>
        <time>2021-06-17T09:44:57.000Z</time>
      </trkpt>
      <trkpt lat="47.3189" lon="-2.40493">
        <ele>110.19999694824</ele>
        <time>2021-06-17T09:45:05.000Z</time>
      </trkpt>
      <trkpt lat="47.31883" lon="-2.40488">
        <ele>110.19999694824</ele>
        <time>2021-06-17T09:45:06.000Z</time>
      </trkpt>
      <trkpt lat="47.3184" lon="-2.40458">
        <ele>110.19999694824</ele>
        <time>2021-06-17T09:45:13.000Z</time>
      </trkpt>
      <trkpt lat="47.31833" lon="-2.40454">
        <ele>109.80000305176</ele>
        <time>2021-06-17T09:45:14.000Z</time>
      </trkpt>
      <trkpt lat="47.31826" lon="-2.4045">
        <ele>109.40000152588</ele>
        <time>2021-06-17T09:45:15.000Z</time>
      </trkpt>
      <trkpt lat="47.3182" lon="-2.40446">
        <ele>109</ele>
        <time>2021-06-17T09:45:16.000Z</time>
      </trkpt>
      <trkpt lat="47.31813" lon="-2.40441">
        <ele>108.40000152588</ele>
        <time>2021-06-17T09:45:17.000Z</time>
      </trkpt>
      <trkpt lat="47.31806" lon="-2.40436">
        <ele>108</ele>
        <time>2021-06-17T09:45:18.000Z</time>
      </trkpt>
      <trkpt lat="47.31758" lon="-2.40401">
        <ele>108</ele>
        <time>2021-06-17T09:45:25.000Z</time>
      </trkpt>
      <trkpt lat="47.31726" lon="-2.40375">
        <ele>107.59999847412</ele>
        <time>2021-06-17T09:45:30.000Z</time>
      </trkpt>
      <trkpt lat="47.3172" lon="-2.4037">
        <ele>107.19999694824</ele>
        <time>2021-06-17T09:45:31.000Z</time>
      </trkpt>
      <trkpt lat="47.31714" lon="-2.40365">
        <ele>106.59999847412</ele>
        <time>2021-06-17T09:45:32.000Z</time>
      </trkpt>
      <trkpt lat="47.31708" lon="-2.40361">
        <ele>106.19999694824</ele>
        <time>2021-06-17T09:45:33.000Z</time>
      </trkpt>
      <trkpt lat="47.31702" lon="-2.40356">
        <ele>105.80000305176</ele>
        <time>2021-06-17T09:45:34.000Z</time>
      </trkpt>
      <trkpt lat="47.31688" lon="-2.40347">
        <ele>105.80000305176</ele>
        <time>2021-06-17T09:45:36.000Z</time>
      </trkpt>
      <trkpt lat="47.31675" lon="-2.40336">
        <ele>105.80000305176</ele>
        <time>2021-06-17T09:45:38.000Z</time>
      </trkpt>
      <trkpt lat="47.31639" lon="-2.40303">
        <ele>105.80000305176</ele>
        <time>2021-06-17T09:45:44.000Z</time>
      </trkpt>
      <trkpt lat="47.31633" lon="-2.40298">
        <ele>105.40000152588</ele>
        <time>2021-06-17T09:45:45.000Z</time>
      </trkpt>
      <trkpt lat="47.31627" lon="-2.40292">
        <ele>105</ele>
        <time>2021-06-17T09:45:46.000Z</time>
      </trkpt>
      <trkpt lat="47.31621" lon="-2.40287">
        <ele>104.59999847412</ele>
        <time>2021-06-17T09:45:47.000Z</time>
      </trkpt>
      <trkpt lat="47.31614" lon="-2.40282">
        <ele>104.19999694824</ele>
        <time>2021-06-17T09:45:48.000Z</time>
      </trkpt>
      <trkpt lat="47.31608" lon="-2.40277">
        <ele>103.80000305176</ele>
        <time>2021-06-17T09:45:49.000Z</time>
      </trkpt>
      <trkpt lat="47.31601" lon="-2.40273">
        <ele>103.80000305176</ele>
        <time>2021-06-17T09:45:50.000Z</time>
      </trkpt>
      <trkpt lat="47.31561" lon="-2.40241">
        <ele>103.80000305176</ele>
        <time>2021-06-17T09:45:57.000Z</time>
      </trkpt>
      <trkpt lat="47.31531" lon="-2.40217">
        <ele>103.19999694824</ele>
        <time>2021-06-17T09:46:03.000Z</time>
      </trkpt>
      <trkpt lat="47.31526" lon="-2.40213">
        <ele>102.40000152588</ele>
        <time>2021-06-17T09:46:04.000Z</time>
      </trkpt>
      <trkpt lat="47.31523" lon="-2.40209">
        <ele>102</ele>
        <time>2021-06-17T09:46:05.000Z</time>
      </trkpt>
      <trkpt lat="47.31519" lon="-2.40205">
        <ele>101.59999847412</ele>
        <time>2021-06-17T09:46:06.000Z</time>
      </trkpt>
      <trkpt lat="47.31495" lon="-2.40185">
        <ele>101.59999847412</ele>
        <time>2021-06-17T09:46:11.000Z</time>
      </trkpt>
      <trkpt lat="47.31462" lon="-2.40162">
        <ele>101.59999847412</ele>
        <time>2021-06-17T09:46:17.000Z</time>
      </trkpt>
      <trkpt lat="47.31424" lon="-2.40134">
        <ele>101.59999847412</ele>
        <time>2021-06-17T09:46:24.000Z</time>
      </trkpt>
      <trkpt lat="47.3141" lon="-2.40125">
        <ele>101.59999847412</ele>
        <time>2021-06-17T09:46:27.000Z</time>
      </trkpt>
      <trkpt lat="47.31401" lon="-2.40121">
        <ele>101.19999694824</ele>
        <time>2021-06-17T09:46:29.000Z</time>
      </trkpt>
      <trkpt lat="47.31396" lon="-2.40119">
        <ele>100.80000305176</ele>
        <time>2021-06-17T09:46:30.000Z</time>
      </trkpt>
      <trkpt lat="47.3139" lon="-2.40116">
        <ele>100.40000152588</ele>
        <time>2021-06-17T09:46:31.000Z</time>
      </trkpt>
      <trkpt lat="47.31385" lon="-2.40112">
        <ele>100</ele>
        <time>2021-06-17T09:46:32.000Z</time>
      </trkpt>
      <trkpt lat="47.3138" lon="-2.40109">
        <ele>99.599998474121</ele>
        <time>2021-06-17T09:46:33.000Z</time>
      </trkpt>
      <trkpt lat="47.31369" lon="-2.40104">
        <ele>99.599998474121</ele>
        <time>2021-06-17T09:46:35.000Z</time>
      </trkpt>
      <trkpt lat="47.31335" lon="-2.40088">
        <ele>99.599998474121</ele>
        <time>2021-06-17T09:46:41.000Z</time>
      </trkpt>
      <trkpt lat="47.31306" lon="-2.40077">
        <ele>99.599998474121</ele>
        <time>2021-06-17T09:46:47.000Z</time>
      </trkpt>
      <trkpt lat="47.31293" lon="-2.40073">
        <ele>99.199996948242</ele>
        <time>2021-06-17T09:46:50.000Z</time>
      </trkpt>
      <trkpt lat="47.31289" lon="-2.40073">
        <ele>98.800003051758</ele>
        <time>2021-06-17T09:46:51.000Z</time>
      </trkpt>
      <trkpt lat="47.31284" lon="-2.40073">
        <ele>98.199996948242</ele>
        <time>2021-06-17T09:46:52.000Z</time>
      </trkpt>
      <trkpt lat="47.31279" lon="-2.40072">
        <ele>97.400001525879</ele>
        <time>2021-06-17T09:46:53.000Z</time>
      </trkpt>
      <trkpt lat="47.31274" lon="-2.40071">
        <ele>97.400001525879</ele>
        <time>2021-06-17T09:46:54.000Z</time>
      </trkpt>
      <trkpt lat="47.31264" lon="-2.40068">
        <ele>97.400001525879</ele>
        <time>2021-06-17T09:46:56.000Z</time>
      </trkpt>
      <trkpt lat="47.31256" lon="-2.4006">
        <ele>97.400001525879</ele>
        <time>2021-06-17T09:46:58.000Z</time>
      </trkpt>
      <trkpt lat="47.31246" lon="-2.40051">
        <ele>97.400001525879</ele>
        <time>2021-06-17T09:47:02.000Z</time>
      </trkpt>
      <trkpt lat="47.3124" lon="-2.40036">
        <ele>97.400001525879</ele>
        <time>2021-06-17T09:47:05.000Z</time>
      </trkpt>
      <trkpt lat="47.31232" lon="-2.40014">
        <ele>97.400001525879</ele>
        <time>2021-06-17T09:47:10.000Z</time>
      </trkpt>
      <trkpt lat="47.31231" lon="-2.4001">
        <ele>97.400001525879</ele>
        <time>2021-06-17T09:47:11.000Z</time>
      </trkpt>
      <trkpt lat="47.31224" lon="-2.39997">
        <ele>97.400001525879</ele>
        <time>2021-06-17T09:47:16.000Z</time>
      </trkpt>
      <trkpt lat="47.31217" lon="-2.3998">
        <ele>97.400001525879</ele>
        <time>2021-06-17T09:47:23.000Z</time>
      </trkpt>
      <trkpt lat="47.31215" lon="-2.39973">
        <ele>97.800003051758</ele>
        <time>2021-06-17T09:47:25.000Z</time>
      </trkpt>
      <trkpt lat="47.31214" lon="-2.3997">
        <ele>98.199996948242</ele>
        <time>2021-06-17T09:47:26.000Z</time>
      </trkpt>
      <trkpt lat="47.31212" lon="-2.39967">
        <ele>98.800003051758</ele>
        <time>2021-06-17T09:47:27.000Z</time>
      </trkpt>
      <trkpt lat="47.31211" lon="-2.39964">
        <ele>99.199996948242</ele>
        <time>2021-06-17T09:47:28.000Z</time>
      </trkpt>
      <trkpt lat="47.31209" lon="-2.39961">
        <ele>99.599998474121</ele>
        <time>2021-06-17T09:47:29.000Z</time>
      </trkpt>
      <trkpt lat="47.312" lon="-2.39937">
        <ele>99.599998474121</ele>
        <time>2021-06-17T09:47:35.000Z</time>
      </trkpt>
      <trkpt lat="47.3119" lon="-2.39913">
        <ele>100</ele>
        <time>2021-06-17T09:47:41.000Z</time>
      </trkpt>
      <trkpt lat="47.31189" lon="-2.39909">
        <ele>100.40000152588</ele>
        <time>2021-06-17T09:47:42.000Z</time>
      </trkpt>
      <trkpt lat="47.31187" lon="-2.39904">
        <ele>101.19999694824</ele>
        <time>2021-06-17T09:47:43.000Z</time>
      </trkpt>
      <trkpt lat="47.31186" lon="-2.39899">
        <ele>101.59999847412</ele>
        <time>2021-06-17T09:47:44.000Z</time>
      </trkpt>
      <trkpt lat="47.31184" lon="-2.39886">
        <ele>102</ele>
        <time>2021-06-17T09:47:47.000Z</time>
      </trkpt>
      <trkpt lat="47.31183" lon="-2.3988">
        <ele>102.40000152588</ele>
        <time>2021-06-17T09:47:48.000Z</time>
      </trkpt>
      <trkpt lat="47.31183" lon="-2.39873">
        <ele>102.80000305176</ele>
        <time>2021-06-17T09:47:49.000Z</time>
      </trkpt>
      <trkpt lat="47.31182" lon="-2.39864">
        <ele>103.19999694824</ele>
        <time>2021-06-17T09:47:50.000Z</time>
      </trkpt>
      <trkpt lat="47.3118" lon="-2.39855">
        <ele>103.59999847412</ele>
        <time>2021-06-17T09:47:51.000Z</time>
      </trkpt>
      <trkpt lat="47.31165" lon="-2.39822">
        <ele>103.59999847412</ele>
        <time>2021-06-17T09:47:56.000Z</time>
      </trkpt>
      <trkpt lat="47.3116" lon="-2.39811">
        <ele>103.59999847412</ele>
        <time>2021-06-17T09:47:58.000Z</time>
      </trkpt>
      <trkpt lat="47.31156" lon="-2.398">
        <ele>103.59999847412</ele>
        <time>2021-06-17T09:48:00.000Z</time>
      </trkpt>
      <trkpt lat="47.31154" lon="-2.39793">
        <ele>103.59999847412</ele>
        <time>2021-06-17T09:48:01.000Z</time>
      </trkpt>
      <trkpt lat="47.31151" lon="-2.39788">
        <ele>103.59999847412</ele>
        <time>2021-06-17T09:48:02.000Z</time>
      </trkpt>
      <trkpt lat="47.31143" lon="-2.3977">
        <ele>103.59999847412</ele>
        <time>2021-06-17T09:48:06.000Z</time>
      </trkpt>
      <trkpt lat="47.31129" lon="-2.3973">
        <ele>103.59999847412</ele>
        <time>2021-06-17T09:48:14.000Z</time>
      </trkpt>
      <trkpt lat="47.31115" lon="-2.39692">
        <ele>103.59999847412</ele>
        <time>2021-06-17T09:48:22.000Z</time>
      </trkpt>
      <trkpt lat="47.31107" lon="-2.3967">
        <ele>104</ele>
        <time>2021-06-17T09:48:27.000Z</time>
      </trkpt>
      <trkpt lat="47.31106" lon="-2.39665">
        <ele>104.59999847412</ele>
        <time>2021-06-17T09:48:28.000Z</time>
      </trkpt>
      <trkpt lat="47.31105" lon="-2.39661">
        <ele>105</ele>
        <time>2021-06-17T09:48:29.000Z</time>
      </trkpt>
      <trkpt lat="47.31103" lon="-2.39657">
        <ele>105.40000152588</ele>
        <time>2021-06-17T09:48:30.000Z</time>
      </trkpt>
      <trkpt lat="47.31102" lon="-2.39652">
        <ele>105.80000305176</ele>
        <time>2021-06-17T09:48:31.000Z</time>
      </trkpt>
      <trkpt lat="47.31096" lon="-2.3963">
        <ele>105.80000305176</ele>
        <time>2021-06-17T09:48:36.000Z</time>
      </trkpt>
      <trkpt lat="47.31087" lon="-2.39609">
        <ele>105.80000305176</ele>
        <time>2021-06-17T09:48:41.000Z</time>
      </trkpt>
      <trkpt lat="47.31076" lon="-2.39577">
        <ele>105.80000305176</ele>
        <time>2021-06-17T09:48:47.000Z</time>
      </trkpt>
      <trkpt lat="47.31073" lon="-2.39565">
        <ele>105.80000305176</ele>
        <time>2021-06-17T09:48:49.000Z</time>
      </trkpt>
      <trkpt lat="47.31065" lon="-2.39542">
        <ele>105.80000305176</ele>
        <time>2021-06-17T09:48:53.000Z</time>
      </trkpt>
      <trkpt lat="47.31049" lon="-2.39496">
        <ele>105.80000305176</ele>
        <time>2021-06-17T09:48:59.000Z</time>
      </trkpt>
      <trkpt lat="47.31033" lon="-2.39452">
        <ele>105.80000305176</ele>
        <time>2021-06-17T09:49:04.000Z</time>
      </trkpt>
      <trkpt lat="47.31018" lon="-2.39408">
        <ele>105.80000305176</ele>
        <time>2021-06-17T09:49:10.000Z</time>
      </trkpt>
      <trkpt lat="47.30999" lon="-2.39348">
        <ele>105.80000305176</ele>
        <time>2021-06-17T09:49:19.000Z</time>
      </trkpt>
      <trkpt lat="47.30983" lon="-2.39303">
        <ele>105.80000305176</ele>
        <time>2021-06-17T09:49:26.000Z</time>
      </trkpt>
      <trkpt lat="47.30964" lon="-2.39252">
        <ele>105.80000305176</ele>
        <time>2021-06-17T09:49:34.000Z</time>
      </trkpt>
      <trkpt lat="47.30957" lon="-2.39234">
        <ele>105.80000305176</ele>
        <time>2021-06-17T09:49:37.000Z</time>
      </trkpt>
      <trkpt lat="47.30953" lon="-2.39223">
        <ele>105.80000305176</ele>
        <time>2021-06-17T09:49:39.000Z</time>
      </trkpt>
      <trkpt lat="47.30951" lon="-2.39217">
        <ele>105.80000305176</ele>
        <time>2021-06-17T09:49:40.000Z</time>
      </trkpt>
      <trkpt lat="47.3093" lon="-2.39176">
        <ele>105.80000305176</ele>
        <time>2021-06-17T09:49:48.000Z</time>
      </trkpt>
      <trkpt lat="47.30917" lon="-2.39147">
        <ele>105.80000305176</ele>
        <time>2021-06-17T09:49:54.000Z</time>
      </trkpt>
      <trkpt lat="47.30908" lon="-2.39118">
        <ele>105.80000305176</ele>
        <time>2021-06-17T09:49:59.000Z</time>
      </trkpt>
      <trkpt lat="47.30901" lon="-2.39101">
        <ele>105.80000305176</ele>
        <time>2021-06-17T09:50:02.000Z</time>
      </trkpt>
      <trkpt lat="47.30895" lon="-2.39075">
        <ele>105.80000305176</ele>
        <time>2021-06-17T09:50:06.000Z</time>
      </trkpt>
      <trkpt lat="47.30894" lon="-2.39062">
        <ele>105.80000305176</ele>
        <time>2021-06-17T09:50:08.000Z</time>
      </trkpt>
      <trkpt lat="47.30894" lon="-2.39056">
        <ele>105.80000305176</ele>
        <time>2021-06-17T09:50:09.000Z</time>
      </trkpt>
      <trkpt lat="47.30897" lon="-2.3903">
        <ele>105.80000305176</ele>
        <time>2021-06-17T09:50:13.000Z</time>
      </trkpt>
      <trkpt lat="47.30903" lon="-2.38978">
        <ele>105.80000305176</ele>
        <time>2021-06-17T09:50:21.000Z</time>
      </trkpt>
      <trkpt lat="47.30906" lon="-2.38966">
        <ele>105.80000305176</ele>
        <time>2021-06-17T09:50:23.000Z</time>
      </trkpt>
      <trkpt lat="47.30915" lon="-2.38949">
        <ele>105.80000305176</ele>
        <time>2021-06-17T09:50:26.000Z</time>
      </trkpt>
      <trkpt lat="47.30926" lon="-2.38924">
        <ele>105.80000305176</ele>
        <time>2021-06-17T09:50:30.000Z</time>
      </trkpt>
      <trkpt lat="47.30925" lon="-2.38909">
        <ele>105.80000305176</ele>
        <time>2021-06-17T09:50:32.000Z</time>
      </trkpt>
      <trkpt lat="47.30915" lon="-2.38891">
        <ele>105.80000305176</ele>
        <time>2021-06-17T09:50:35.000Z</time>
      </trkpt>
      <trkpt lat="47.30894" lon="-2.38886">
        <ele>105.80000305176</ele>
        <time>2021-06-17T09:50:39.000Z</time>
      </trkpt>
      <trkpt lat="47.30865" lon="-2.38888">
        <ele>105.80000305176</ele>
        <time>2021-06-17T09:50:44.000Z</time>
      </trkpt>
      <trkpt lat="47.30858" lon="-2.3889">
        <ele>105.80000305176</ele>
        <time>2021-06-17T09:50:45.000Z</time>
      </trkpt>
      <trkpt lat="47.30845" lon="-2.38898">
        <ele>105.80000305176</ele>
        <time>2021-06-17T09:50:47.000Z</time>
      </trkpt>
      <trkpt lat="47.30838" lon="-2.38903">
        <ele>105.40000152588</ele>
        <time>2021-06-17T09:50:48.000Z</time>
      </trkpt>
      <trkpt lat="47.3083" lon="-2.38909">
        <ele>105</ele>
        <time>2021-06-17T09:50:49.000Z</time>
      </trkpt>
      <trkpt lat="47.30823" lon="-2.38916">
        <ele>104.59999847412</ele>
        <time>2021-06-17T09:50:50.000Z</time>
      </trkpt>
      <trkpt lat="47.30815" lon="-2.38921">
        <ele>104.19999694824</ele>
        <time>2021-06-17T09:50:51.000Z</time>
      </trkpt>
      <trkpt lat="47.30808" lon="-2.38928">
        <ele>103.80000305176</ele>
        <time>2021-06-17T09:50:52.000Z</time>
      </trkpt>
      <trkpt lat="47.30787" lon="-2.38946">
        <ele>103.40000152588</ele>
        <time>2021-06-17T09:50:55.000Z</time>
      </trkpt>
      <trkpt lat="47.30779" lon="-2.38951">
        <ele>103</ele>
        <time>2021-06-17T09:50:56.000Z</time>
      </trkpt>
      <trkpt lat="47.30772" lon="-2.38956">
        <ele>102.59999847412</ele>
        <time>2021-06-17T09:50:57.000Z</time>
      </trkpt>
      <trkpt lat="47.30766" lon="-2.38962">
        <ele>102</ele>
        <time>2021-06-17T09:50:58.000Z</time>
      </trkpt>
      <trkpt lat="47.3076" lon="-2.38967">
        <ele>101.59999847412</ele>
        <time>2021-06-17T09:50:59.000Z</time>
      </trkpt>
      <trkpt lat="47.30755" lon="-2.38973">
        <ele>101.59999847412</ele>
        <time>2021-06-17T09:51:00.000Z</time>
      </trkpt>
      <trkpt lat="47.30752" lon="-2.3898">
        <ele>101.59999847412</ele>
        <time>2021-06-17T09:51:01.000Z</time>
      </trkpt>
      <trkpt lat="47.30741" lon="-2.39">
        <ele>101.59999847412</ele>
        <time>2021-06-17T09:51:04.000Z</time>
      </trkpt>
      <trkpt lat="47.30735" lon="-2.39003">
        <ele>101.59999847412</ele>
        <time>2021-06-17T09:51:05.000Z</time>
      </trkpt>
      <trkpt lat="47.30724" lon="-2.38999">
        <ele>102</ele>
        <time>2021-06-17T09:51:07.000Z</time>
      </trkpt>
      <trkpt lat="47.3072" lon="-2.38994">
        <ele>102.40000152588</ele>
        <time>2021-06-17T09:51:08.000Z</time>
      </trkpt>
      <trkpt lat="47.30715" lon="-2.38987">
        <ele>102.80000305176</ele>
        <time>2021-06-17T09:51:09.000Z</time>
      </trkpt>
      <trkpt lat="47.30712" lon="-2.38981">
        <ele>103.19999694824</ele>
        <time>2021-06-17T09:51:10.000Z</time>
      </trkpt>
      <trkpt lat="47.30707" lon="-2.38974">
        <ele>103.80000305176</ele>
        <time>2021-06-17T09:51:11.000Z</time>
      </trkpt>
      <trkpt lat="47.30703" lon="-2.38967">
        <ele>103.80000305176</ele>
        <time>2021-06-17T09:51:12.000Z</time>
      </trkpt>
      <trkpt lat="47.30694" lon="-2.38952">
        <ele>103.80000305176</ele>
        <time>2021-06-17T09:51:14.000Z</time>
      </trkpt>
      <trkpt lat="47.30693" lon="-2.38935">
        <ele>103.80000305176</ele>
        <time>2021-06-17T09:51:16.000Z</time>
      </trkpt>
      <trkpt lat="47.30691" lon="-2.38918">
        <ele>103.80000305176</ele>
        <time>2021-06-17T09:51:18.000Z</time>
      </trkpt>
      <trkpt lat="47.30682" lon="-2.38913">
        <ele>103.80000305176</ele>
        <time>2021-06-17T09:51:20.000Z</time>
      </trkpt>
      <trkpt lat="47.30669" lon="-2.38923">
        <ele>103.80000305176</ele>
        <time>2021-06-17T09:51:23.000Z</time>
      </trkpt>
      <trkpt lat="47.30661" lon="-2.38933">
        <ele>104.19999694824</ele>
        <time>2021-06-17T09:51:25.000Z</time>
      </trkpt>
      <trkpt lat="47.30656" lon="-2.38937">
        <ele>104.59999847412</ele>
        <time>2021-06-17T09:51:26.000Z</time>
      </trkpt>
      <trkpt lat="47.30651" lon="-2.38942">
        <ele>105</ele>
        <time>2021-06-17T09:51:27.000Z</time>
      </trkpt>
      <trkpt lat="47.30646" lon="-2.38946">
        <ele>105.40000152588</ele>
        <time>2021-06-17T09:51:28.000Z</time>
      </trkpt>
      <trkpt lat="47.3064" lon="-2.3895">
        <ele>105.80000305176</ele>
        <time>2021-06-17T09:51:29.000Z</time>
      </trkpt>
      <trkpt lat="47.30603" lon="-2.38986">
        <ele>105.80000305176</ele>
        <time>2021-06-17T09:51:36.000Z</time>
      </trkpt>
      <trkpt lat="47.30578" lon="-2.39018">
        <ele>105.80000305176</ele>
        <time>2021-06-17T09:51:41.000Z</time>
      </trkpt>
      <trkpt lat="47.3055" lon="-2.39051">
        <ele>105.40000152588</ele>
        <time>2021-06-17T09:51:46.000Z</time>
      </trkpt>
      <trkpt lat="47.30545" lon="-2.39057">
        <ele>104.80000305176</ele>
        <time>2021-06-17T09:51:47.000Z</time>
      </trkpt>
      <trkpt lat="47.30539" lon="-2.39062">
        <ele>104</ele>
        <time>2021-06-17T09:51:48.000Z</time>
      </trkpt>
      <trkpt lat="47.30533" lon="-2.39068">
        <ele>103.59999847412</ele>
        <time>2021-06-17T09:51:49.000Z</time>
      </trkpt>
      <trkpt lat="47.30501" lon="-2.39098">
        <ele>103.59999847412</ele>
        <time>2021-06-17T09:51:55.000Z</time>
      </trkpt>
      <trkpt lat="47.30476" lon="-2.39123">
        <ele>103.19999694824</ele>
        <time>2021-06-17T09:51:59.000Z</time>
      </trkpt>
      <trkpt lat="47.30469" lon="-2.3913">
        <ele>102.59999847412</ele>
        <time>2021-06-17T09:52:00.000Z</time>
      </trkpt>
      <trkpt lat="47.30463" lon="-2.39137">
        <ele>102.19999694824</ele>
        <time>2021-06-17T09:52:01.000Z</time>
      </trkpt>
      <trkpt lat="47.30457" lon="-2.39145">
        <ele>101.59999847412</ele>
        <time>2021-06-17T09:52:02.000Z</time>
      </trkpt>
      <trkpt lat="47.3045" lon="-2.39153">
        <ele>101.19999694824</ele>
        <time>2021-06-17T09:52:03.000Z</time>
      </trkpt>
      <trkpt lat="47.30427" lon="-2.3917">
        <ele>101.19999694824</ele>
        <time>2021-06-17T09:52:06.000Z</time>
      </trkpt>
      <trkpt lat="47.30419" lon="-2.39172">
        <ele>101.19999694824</ele>
        <time>2021-06-17T09:52:07.000Z</time>
      </trkpt>
      <trkpt lat="47.30402" lon="-2.39171">
        <ele>100.80000305176</ele>
        <time>2021-06-17T09:52:09.000Z</time>
      </trkpt>
      <trkpt lat="47.30395" lon="-2.39167">
        <ele>100.40000152588</ele>
        <time>2021-06-17T09:52:10.000Z</time>
      </trkpt>
      <trkpt lat="47.30387" lon="-2.3916">
        <ele>100</ele>
        <time>2021-06-17T09:52:11.000Z</time>
      </trkpt>
      <trkpt lat="47.30381" lon="-2.39152">
        <ele>99.599998474121</ele>
        <time>2021-06-17T09:52:12.000Z</time>
      </trkpt>
      <trkpt lat="47.30374" lon="-2.39142">
        <ele>99.199996948242</ele>
        <time>2021-06-17T09:52:13.000Z</time>
      </trkpt>
      <trkpt lat="47.30366" lon="-2.39122">
        <ele>99.199996948242</ele>
        <time>2021-06-17T09:52:15.000Z</time>
      </trkpt>
      <trkpt lat="47.30363" lon="-2.39112">
        <ele>99.199996948242</ele>
        <time>2021-06-17T09:52:16.000Z</time>
      </trkpt>
      <trkpt lat="47.30358" lon="-2.39094">
        <ele>99.199996948242</ele>
        <time>2021-06-17T09:52:18.000Z</time>
      </trkpt>
      <trkpt lat="47.30355" lon="-2.39078">
        <ele>99.199996948242</ele>
        <time>2021-06-17T09:52:20.000Z</time>
      </trkpt>
      <trkpt lat="47.30344" lon="-2.39025">
        <ele>99.199996948242</ele>
        <time>2021-06-17T09:52:27.000Z</time>
      </trkpt>
      <trkpt lat="47.30325" lon="-2.38967">
        <ele>99.199996948242</ele>
        <time>2021-06-17T09:52:34.000Z</time>
      </trkpt>
      <trkpt lat="47.30331" lon="-2.3894">
        <ele>99.199996948242</ele>
        <time>2021-06-17T09:52:37.000Z</time>
      </trkpt>
      <trkpt lat="47.30348" lon="-2.38916">
        <ele>99.199996948242</ele>
        <time>2021-06-17T09:52:41.000Z</time>
      </trkpt>
      <trkpt lat="47.3037" lon="-2.38882">
        <ele>99.199996948242</ele>
        <time>2021-06-17T09:52:47.000Z</time>
      </trkpt>
      <trkpt lat="47.30384" lon="-2.38861">
        <ele>99.599998474121</ele>
        <time>2021-06-17T09:52:51.000Z</time>
      </trkpt>
      <trkpt lat="47.30387" lon="-2.38855">
        <ele>100</ele>
        <time>2021-06-17T09:52:52.000Z</time>
      </trkpt>
      <trkpt lat="47.30391" lon="-2.3885">
        <ele>100.40000152588</ele>
        <time>2021-06-17T09:52:53.000Z</time>
      </trkpt>
      <trkpt lat="47.30394" lon="-2.38844">
        <ele>100.80000305176</ele>
        <time>2021-06-17T09:52:54.000Z</time>
      </trkpt>
      <trkpt lat="47.30397" lon="-2.38839">
        <ele>101.19999694824</ele>
        <time>2021-06-17T09:52:55.000Z</time>
      </trkpt>
      <trkpt lat="47.30409" lon="-2.38816">
        <ele>101.80000305176</ele>
        <time>2021-06-17T09:52:59.000Z</time>
      </trkpt>
      <trkpt lat="47.30412" lon="-2.3881">
        <ele>102.19999694824</ele>
        <time>2021-06-17T09:53:00.000Z</time>
      </trkpt>
      <trkpt lat="47.30415" lon="-2.38804">
        <ele>103.19999694824</ele>
        <time>2021-06-17T09:53:01.000Z</time>
      </trkpt>
      <trkpt lat="47.30416" lon="-2.38798">
        <ele>103.59999847412</ele>
        <time>2021-06-17T09:53:02.000Z</time>
      </trkpt>
      <trkpt lat="47.30416" lon="-2.38772">
        <ele>103.59999847412</ele>
        <time>2021-06-17T09:53:06.000Z</time>
      </trkpt>
      <trkpt lat="47.30405" lon="-2.38744">
        <ele>103.59999847412</ele>
        <time>2021-06-17T09:53:10.000Z</time>
      </trkpt>
      <trkpt lat="47.30392" lon="-2.38704">
        <ele>103.59999847412</ele>
        <time>2021-06-17T09:53:15.000Z</time>
      </trkpt>
      <trkpt lat="47.30374" lon="-2.38656">
        <ele>103.59999847412</ele>
        <time>2021-06-17T09:53:21.000Z</time>
      </trkpt>
      <trkpt lat="47.30344" lon="-2.38585">
        <ele>103.59999847412</ele>
        <time>2021-06-17T09:53:30.000Z</time>
      </trkpt>
      <trkpt lat="47.30328" lon="-2.38542">
        <ele>103.19999694824</ele>
        <time>2021-06-17T09:53:35.000Z</time>
      </trkpt>
      <trkpt lat="47.30325" lon="-2.38531">
        <ele>102.59999847412</ele>
        <time>2021-06-17T09:53:36.000Z</time>
      </trkpt>
      <trkpt lat="47.30322" lon="-2.38522">
        <ele>102.19999694824</ele>
        <time>2021-06-17T09:53:37.000Z</time>
      </trkpt>
      <trkpt lat="47.30319" lon="-2.38512">
        <ele>101.80000305176</ele>
        <time>2021-06-17T09:53:38.000Z</time>
      </trkpt>
      <trkpt lat="47.30316" lon="-2.38503">
        <ele>101.19999694824</ele>
        <time>2021-06-17T09:53:39.000Z</time>
      </trkpt>
      <trkpt lat="47.30303" lon="-2.38459">
        <ele>101.19999694824</ele>
        <time>2021-06-17T09:53:44.000Z</time>
      </trkpt>
      <trkpt lat="47.30285" lon="-2.38396">
        <ele>101.19999694824</ele>
        <time>2021-06-17T09:53:52.000Z</time>
      </trkpt>
      <trkpt lat="47.30273" lon="-2.38366">
        <ele>101.19999694824</ele>
        <time>2021-06-17T09:53:57.000Z</time>
      </trkpt>
      <trkpt lat="47.30272" lon="-2.38364">
        <ele>101.19999694824</ele>
        <time>2021-06-17T09:54:00.000Z</time>
      </trkpt>
      <trkpt lat="47.30271" lon="-2.38357">
        <ele>101.19999694824</ele>
        <time>2021-06-17T09:54:31.000Z</time>
      </trkpt>
      <trkpt lat="47.3027" lon="-2.38352">
        <ele>101.19999694824</ele>
        <time>2021-06-17T09:54:34.000Z</time>
      </trkpt>
      <trkpt lat="47.30266" lon="-2.38337">
        <ele>101.19999694824</ele>
        <time>2021-06-17T09:54:42.000Z</time>
      </trkpt>
      <trkpt lat="47.30262" lon="-2.38318">
        <ele>101.19999694824</ele>
        <time>2021-06-17T09:54:50.000Z</time>
      </trkpt>
      <trkpt lat="47.30261" lon="-2.38305">
        <ele>101.19999694824</ele>
        <time>2021-06-17T09:54:56.000Z</time>
      </trkpt>
      <trkpt lat="47.30259" lon="-2.38285">
        <ele>101.19999694824</ele>
        <time>2021-06-17T09:55:02.000Z</time>
      </trkpt>
      <trkpt lat="47.30254" lon="-2.38256">
        <ele>101.19999694824</ele>
        <time>2021-06-17T09:55:10.000Z</time>
      </trkpt>
      <trkpt lat="47.30251" lon="-2.38235">
        <ele>101.59999847412</ele>
        <time>2021-06-17T09:55:15.000Z</time>
      </trkpt>
      <trkpt lat="47.3025" lon="-2.38231">
        <ele>102</ele>
        <time>2021-06-17T09:55:16.000Z</time>
      </trkpt>
      <trkpt lat="47.30249" lon="-2.38227">
        <ele>102.40000152588</ele>
        <time>2021-06-17T09:55:17.000Z</time>
      </trkpt>
      <trkpt lat="47.30248" lon="-2.38223">
        <ele>102.80000305176</ele>
        <time>2021-06-17T09:55:18.000Z</time>
      </trkpt>
      <trkpt lat="47.30248" lon="-2.38218">
        <ele>103.19999694824</ele>
        <time>2021-06-17T09:55:19.000Z</time>
      </trkpt>
      <trkpt lat="47.30242" lon="-2.38182">
        <ele>103.19999694824</ele>
        <time>2021-06-17T09:55:26.000Z</time>
      </trkpt>
      <trkpt lat="47.30242" lon="-2.3817">
        <ele>103.19999694824</ele>
        <time>2021-06-17T09:55:28.000Z</time>
      </trkpt>
      <trkpt lat="47.30241" lon="-2.38149">
        <ele>103.19999694824</ele>
        <time>2021-06-17T09:55:31.000Z</time>
      </trkpt>
      <trkpt lat="47.30237" lon="-2.38134">
        <ele>103.19999694824</ele>
        <time>2021-06-17T09:55:33.000Z</time>
      </trkpt>
      <trkpt lat="47.30231" lon="-2.38116">
        <ele>103.19999694824</ele>
        <time>2021-06-17T09:55:36.000Z</time>
      </trkpt>
      <trkpt lat="47.30227" lon="-2.38101">
        <ele>103.19999694824</ele>
        <time>2021-06-17T09:55:40.000Z</time>
      </trkpt>
      <trkpt lat="47.30236" lon="-2.38096">
        <ele>103.19999694824</ele>
        <time>2021-06-17T09:55:43.000Z</time>
      </trkpt>
      <trkpt lat="47.30254" lon="-2.38094">
        <ele>103.19999694824</ele>
        <time>2021-06-17T09:55:47.000Z</time>
      </trkpt>
      <trkpt lat="47.30259" lon="-2.38093">
        <ele>103.19999694824</ele>
        <time>2021-06-17T09:55:48.000Z</time>
      </trkpt>
      <trkpt lat="47.30284" lon="-2.38084">
        <ele>103.19999694824</ele>
        <time>2021-06-17T09:55:53.000Z</time>
      </trkpt>
      <trkpt lat="47.30289" lon="-2.38083">
        <ele>103.19999694824</ele>
        <time>2021-06-17T09:55:54.000Z</time>
      </trkpt>
      <trkpt lat="47.30309" lon="-2.38079">
        <ele>103.19999694824</ele>
        <time>2021-06-17T09:55:58.000Z</time>
      </trkpt>
      <trkpt lat="47.30317" lon="-2.38072">
        <ele>103.19999694824</ele>
        <time>2021-06-17T09:56:00.000Z</time>
      </trkpt>
      <trkpt lat="47.30332" lon="-2.38061">
        <ele>103.19999694824</ele>
        <time>2021-06-17T09:56:03.000Z</time>
      </trkpt>
      <trkpt lat="47.3034" lon="-2.38055">
        <ele>103.19999694824</ele>
        <time>2021-06-17T09:56:05.000Z</time>
      </trkpt>
      <trkpt lat="47.30357" lon="-2.38041">
        <ele>103.19999694824</ele>
        <time>2021-06-17T09:56:09.000Z</time>
      </trkpt>
      <trkpt lat="47.3038" lon="-2.3802">
        <ele>103.19999694824</ele>
        <time>2021-06-17T09:56:15.000Z</time>
      </trkpt>
      <trkpt lat="47.30391" lon="-2.38011">
        <ele>104.19999694824</ele>
        <time>2021-06-17T09:56:18.000Z</time>
      </trkpt>
      <trkpt lat="47.30395" lon="-2.38008">
        <ele>104.59999847412</ele>
        <time>2021-06-17T09:56:19.000Z</time>
      </trkpt>
      <trkpt lat="47.30399" lon="-2.38005">
        <ele>105</ele>
        <time>2021-06-17T09:56:20.000Z</time>
      </trkpt>
      <trkpt lat="47.30403" lon="-2.38001">
        <ele>105.40000152588</ele>
        <time>2021-06-17T09:56:21.000Z</time>
      </trkpt>
      <trkpt lat="47.30411" lon="-2.37995">
        <ele>105.40000152588</ele>
        <time>2021-06-17T09:56:23.000Z</time>
      </trkpt>
      <trkpt lat="47.30439" lon="-2.37973">
        <ele>105.80000305176</ele>
        <time>2021-06-17T09:56:30.000Z</time>
      </trkpt>
      <trkpt lat="47.30443" lon="-2.3797">
        <ele>106.19999694824</ele>
        <time>2021-06-17T09:56:31.000Z</time>
      </trkpt>
      <trkpt lat="47.30447" lon="-2.37967">
        <ele>106.59999847412</ele>
        <time>2021-06-17T09:56:32.000Z</time>
      </trkpt>
      <trkpt lat="47.3045" lon="-2.37964">
        <ele>107</ele>
        <time>2021-06-17T09:56:33.000Z</time>
      </trkpt>
      <trkpt lat="47.30453" lon="-2.3796">
        <ele>107.40000152588</ele>
        <time>2021-06-17T09:56:34.000Z</time>
      </trkpt>
      <trkpt lat="47.30458" lon="-2.37954">
        <ele>107.40000152588</ele>
        <time>2021-06-17T09:56:36.000Z</time>
      </trkpt>
      <trkpt lat="47.30459" lon="-2.3795">
        <ele>107.40000152588</ele>
        <time>2021-06-17T09:56:37.000Z</time>
      </trkpt>
      <trkpt lat="47.30458" lon="-2.37939">
        <ele>107.40000152588</ele>
        <time>2021-06-17T09:56:39.000Z</time>
      </trkpt>
      <trkpt lat="47.30453" lon="-2.37929">
        <ele>107.40000152588</ele>
        <time>2021-06-17T09:56:41.000Z</time>
      </trkpt>
      <trkpt lat="47.30446" lon="-2.37912">
        <ele>107.40000152588</ele>
        <time>2021-06-17T09:56:44.000Z</time>
      </trkpt>
      <trkpt lat="47.30442" lon="-2.37899">
        <ele>107.40000152588</ele>
        <time>2021-06-17T09:56:46.000Z</time>
      </trkpt>
      <trkpt lat="47.30435" lon="-2.37878">
        <ele>107.40000152588</ele>
        <time>2021-06-17T09:56:50.000Z</time>
      </trkpt>
      <trkpt lat="47.30435" lon="-2.37876">
        <ele>107.40000152588</ele>
        <time>2021-06-17T09:56:52.000Z</time>
      </trkpt>
      <trkpt lat="47.30435" lon="-2.37875">
        <ele>107.40000152588</ele>
        <time>2021-06-17T09:57:09.000Z</time>
      </trkpt>
      <trkpt lat="47.30436" lon="-2.37862">
        <ele>107.40000152588</ele>
        <time>2021-06-17T09:57:13.000Z</time>
      </trkpt>
      <trkpt lat="47.30433" lon="-2.37849">
        <ele>107.40000152588</ele>
        <time>2021-06-17T09:57:15.000Z</time>
      </trkpt>
      <trkpt lat="47.30429" lon="-2.37833">
        <ele>107.40000152588</ele>
        <time>2021-06-17T09:57:17.000Z</time>
      </trkpt>
      <trkpt lat="47.30417" lon="-2.37771">
        <ele>107.40000152588</ele>
        <time>2021-06-17T09:57:24.000Z</time>
      </trkpt>
      <trkpt lat="47.30408" lon="-2.3771">
        <ele>107.40000152588</ele>
        <time>2021-06-17T09:57:30.000Z</time>
      </trkpt>
      <trkpt lat="47.30398" lon="-2.37629">
        <ele>107.40000152588</ele>
        <time>2021-06-17T09:57:38.000Z</time>
      </trkpt>
      <trkpt lat="47.30396" lon="-2.37619">
        <ele>107.40000152588</ele>
        <time>2021-06-17T09:57:39.000Z</time>
      </trkpt>
      <trkpt lat="47.30388" lon="-2.3757">
        <ele>107</ele>
        <time>2021-06-17T09:57:44.000Z</time>
      </trkpt>
      <trkpt lat="47.30386" lon="-2.3756">
        <ele>106.40000152588</ele>
        <time>2021-06-17T09:57:45.000Z</time>
      </trkpt>
      <trkpt lat="47.30384" lon="-2.3755">
        <ele>106</ele>
        <time>2021-06-17T09:57:46.000Z</time>
      </trkpt>
      <trkpt lat="47.30381" lon="-2.37541">
        <ele>105.59999847412</ele>
        <time>2021-06-17T09:57:47.000Z</time>
      </trkpt>
      <trkpt lat="47.30379" lon="-2.37532">
        <ele>105</ele>
        <time>2021-06-17T09:57:48.000Z</time>
      </trkpt>
      <trkpt lat="47.30367" lon="-2.37497">
        <ele>105</ele>
        <time>2021-06-17T09:57:52.000Z</time>
      </trkpt>
      <trkpt lat="47.3034" lon="-2.37436">
        <ele>105</ele>
        <time>2021-06-17T09:58:00.000Z</time>
      </trkpt>
      <trkpt lat="47.30337" lon="-2.37429">
        <ele>105.59999847412</ele>
        <time>2021-06-17T09:58:01.000Z</time>
      </trkpt>
      <trkpt lat="47.30332" lon="-2.37422">
        <ele>106</ele>
        <time>2021-06-17T09:58:02.000Z</time>
      </trkpt>
      <trkpt lat="47.30329" lon="-2.37416">
        <ele>106.40000152588</ele>
        <time>2021-06-17T09:58:03.000Z</time>
      </trkpt>
      <trkpt lat="47.30325" lon="-2.3741">
        <ele>106.80000305176</ele>
        <time>2021-06-17T09:58:04.000Z</time>
      </trkpt>
      <trkpt lat="47.30321" lon="-2.37404">
        <ele>107.19999694824</ele>
        <time>2021-06-17T09:58:05.000Z</time>
      </trkpt>
      <trkpt lat="47.30314" lon="-2.37393">
        <ele>107.19999694824</ele>
        <time>2021-06-17T09:58:07.000Z</time>
      </trkpt>
      <trkpt lat="47.30292" lon="-2.3736">
        <ele>107.59999847412</ele>
        <time>2021-06-17T09:58:13.000Z</time>
      </trkpt>
      <trkpt lat="47.30288" lon="-2.37355">
        <ele>108</ele>
        <time>2021-06-17T09:58:14.000Z</time>
      </trkpt>
      <trkpt lat="47.30284" lon="-2.3735">
        <ele>108.59999847412</ele>
        <time>2021-06-17T09:58:15.000Z</time>
      </trkpt>
      <trkpt lat="47.3028" lon="-2.37345">
        <ele>109</ele>
        <time>2021-06-17T09:58:16.000Z</time>
      </trkpt>
      <trkpt lat="47.30277" lon="-2.37339">
        <ele>109.40000152588</ele>
        <time>2021-06-17T09:58:17.000Z</time>
      </trkpt>
      <trkpt lat="47.30262" lon="-2.37318">
        <ele>109.40000152588</ele>
        <time>2021-06-17T09:58:21.000Z</time>
      </trkpt>
      <trkpt lat="47.30248" lon="-2.37296">
        <ele>109.80000305176</ele>
        <time>2021-06-17T09:58:25.000Z</time>
      </trkpt>
      <trkpt lat="47.30244" lon="-2.37291">
        <ele>110.19999694824</ele>
        <time>2021-06-17T09:58:26.000Z</time>
      </trkpt>
      <trkpt lat="47.30241" lon="-2.37286">
        <ele>110.59999847412</ele>
        <time>2021-06-17T09:58:27.000Z</time>
      </trkpt>
      <trkpt lat="47.30238" lon="-2.37281">
        <ele>111</ele>
        <time>2021-06-17T09:58:28.000Z</time>
      </trkpt>
      <trkpt lat="47.30234" lon="-2.37276">
        <ele>111.40000152588</ele>
        <time>2021-06-17T09:58:29.000Z</time>
      </trkpt>
      <trkpt lat="47.30228" lon="-2.37265">
        <ele>111.40000152588</ele>
        <time>2021-06-17T09:58:31.000Z</time>
      </trkpt>
      <trkpt lat="47.30213" lon="-2.37246">
        <ele>111.40000152588</ele>
        <time>2021-06-17T09:58:35.000Z</time>
      </trkpt>
      <trkpt lat="47.30209" lon="-2.37242">
        <ele>111.80000305176</ele>
        <time>2021-06-17T09:58:36.000Z</time>
      </trkpt>
      <trkpt lat="47.30205" lon="-2.37237">
        <ele>112.19999694824</ele>
        <time>2021-06-17T09:58:37.000Z</time>
      </trkpt>
      <trkpt lat="47.30202" lon="-2.37232">
        <ele>112.59999847412</ele>
        <time>2021-06-17T09:58:38.000Z</time>
      </trkpt>
      <trkpt lat="47.30198" lon="-2.37227">
        <ele>113.19999694824</ele>
        <time>2021-06-17T09:58:39.000Z</time>
      </trkpt>
      <trkpt lat="47.30194" lon="-2.37221">
        <ele>113.59999847412</ele>
        <time>2021-06-17T09:58:40.000Z</time>
      </trkpt>
      <trkpt lat="47.30191" lon="-2.37216">
        <ele>113.59999847412</ele>
        <time>2021-06-17T09:58:41.000Z</time>
      </trkpt>
      <trkpt lat="47.30187" lon="-2.37211">
        <ele>113.59999847412</ele>
        <time>2021-06-17T09:58:42.000Z</time>
      </trkpt>
      <trkpt lat="47.30169" lon="-2.37193">
        <ele>113.59999847412</ele>
        <time>2021-06-17T09:58:46.000Z</time>
      </trkpt>
      <trkpt lat="47.30131" lon="-2.37151">
        <ele>113.59999847412</ele>
        <time>2021-06-17T09:58:54.000Z</time>
      </trkpt>
      <trkpt lat="47.30091" lon="-2.37107">
        <ele>113</ele>
        <time>2021-06-17T09:59:01.000Z</time>
      </trkpt>
      <trkpt lat="47.30085" lon="-2.371">
        <ele>112.59999847412</ele>
        <time>2021-06-17T09:59:02.000Z</time>
      </trkpt>
      <trkpt lat="47.30079" lon="-2.37093">
        <ele>112.19999694824</ele>
        <time>2021-06-17T09:59:03.000Z</time>
      </trkpt>
      <trkpt lat="47.30073" lon="-2.37087">
        <ele>111.80000305176</ele>
        <time>2021-06-17T09:59:04.000Z</time>
      </trkpt>
      <trkpt lat="47.30066" lon="-2.37081">
        <ele>111.40000152588</ele>
        <time>2021-06-17T09:59:05.000Z</time>
      </trkpt>
      <trkpt lat="47.30059" lon="-2.37076">
        <ele>111.40000152588</ele>
        <time>2021-06-17T09:59:06.000Z</time>
      </trkpt>
      <trkpt lat="47.30018" lon="-2.37045">
        <ele>110.80000305176</ele>
        <time>2021-06-17T09:59:12.000Z</time>
      </trkpt>
      <trkpt lat="47.30011" lon="-2.37039">
        <ele>110.40000152588</ele>
        <time>2021-06-17T09:59:13.000Z</time>
      </trkpt>
      <trkpt lat="47.30004" lon="-2.37034">
        <ele>110</ele>
        <time>2021-06-17T09:59:14.000Z</time>
      </trkpt>
      <trkpt lat="47.29997" lon="-2.3703">
        <ele>109.40000152588</ele>
        <time>2021-06-17T09:59:15.000Z</time>
      </trkpt>
      <trkpt lat="47.29989" lon="-2.37025">
        <ele>109</ele>
        <time>2021-06-17T09:59:16.000Z</time>
      </trkpt>
      <trkpt lat="47.29982" lon="-2.37021">
        <ele>108.40000152588</ele>
        <time>2021-06-17T09:59:17.000Z</time>
      </trkpt>
      <trkpt lat="47.29974" lon="-2.37017">
        <ele>107.80000305176</ele>
        <time>2021-06-17T09:59:18.000Z</time>
      </trkpt>
      <trkpt lat="47.29967" lon="-2.37013">
        <ele>107.19999694824</ele>
        <time>2021-06-17T09:59:19.000Z</time>
      </trkpt>
      <trkpt lat="47.29959" lon="-2.37009">
        <ele>106.59999847412</ele>
        <time>2021-06-17T09:59:20.000Z</time>
      </trkpt>
      <trkpt lat="47.29938" lon="-2.36998">
        <ele>106.59999847412</ele>
        <time>2021-06-17T09:59:23.000Z</time>
      </trkpt>
      <trkpt lat="47.29901" lon="-2.36975">
        <ele>106.59999847412</ele>
        <time>2021-06-17T09:59:29.000Z</time>
      </trkpt>
      <trkpt lat="47.29882" lon="-2.36969">
        <ele>106.19999694824</ele>
        <time>2021-06-17T09:59:32.000Z</time>
      </trkpt>
      <trkpt lat="47.29876" lon="-2.36966">
        <ele>105.59999847412</ele>
        <time>2021-06-17T09:59:33.000Z</time>
      </trkpt>
      <trkpt lat="47.2987" lon="-2.36962">
        <ele>105.19999694824</ele>
        <time>2021-06-17T09:59:34.000Z</time>
      </trkpt>
      <trkpt lat="47.29865" lon="-2.36957">
        <ele>104.80000305176</ele>
        <time>2021-06-17T09:59:35.000Z</time>
      </trkpt>
      <trkpt lat="47.29862" lon="-2.36949">
        <ele>104.19999694824</ele>
        <time>2021-06-17T09:59:36.000Z</time>
      </trkpt>
      <trkpt lat="47.29855" lon="-2.36932">
        <ele>104.19999694824</ele>
        <time>2021-06-17T09:59:38.000Z</time>
      </trkpt>
      <trkpt lat="47.29843" lon="-2.36906">
        <ele>104.19999694824</ele>
        <time>2021-06-17T09:59:41.000Z</time>
      </trkpt>
      <trkpt lat="47.29812" lon="-2.36832">
        <ele>104.19999694824</ele>
        <time>2021-06-17T09:59:49.000Z</time>
      </trkpt>
      <trkpt lat="47.29807" lon="-2.36822">
        <ele>104.19999694824</ele>
        <time>2021-06-17T09:59:50.000Z</time>
      </trkpt>
      <trkpt lat="47.29794" lon="-2.36797">
        <ele>103.80000305176</ele>
        <time>2021-06-17T09:59:53.000Z</time>
      </trkpt>
      <trkpt lat="47.2979" lon="-2.36789">
        <ele>103.40000152588</ele>
        <time>2021-06-17T09:59:54.000Z</time>
      </trkpt>
      <trkpt lat="47.29785" lon="-2.3678">
        <ele>103</ele>
        <time>2021-06-17T09:59:55.000Z</time>
      </trkpt>
      <trkpt lat="47.29781" lon="-2.36772">
        <ele>102.59999847412</ele>
        <time>2021-06-17T09:59:56.000Z</time>
      </trkpt>
      <trkpt lat="47.29777" lon="-2.36762">
        <ele>102</ele>
        <time>2021-06-17T09:59:57.000Z</time>
      </trkpt>
      <trkpt lat="47.29759" lon="-2.36715">
        <ele>101.59999847412</ele>
        <time>2021-06-17T10:00:02.000Z</time>
      </trkpt>
      <trkpt lat="47.29756" lon="-2.36705">
        <ele>101.19999694824</ele>
        <time>2021-06-17T10:00:03.000Z</time>
      </trkpt>
      <trkpt lat="47.29753" lon="-2.36696">
        <ele>100.80000305176</ele>
        <time>2021-06-17T10:00:04.000Z</time>
      </trkpt>
      <trkpt lat="47.2975" lon="-2.36685">
        <ele>100.40000152588</ele>
        <time>2021-06-17T10:00:05.000Z</time>
      </trkpt>
      <trkpt lat="47.29747" lon="-2.36675">
        <ele>100</ele>
        <time>2021-06-17T10:00:06.000Z</time>
      </trkpt>
      <trkpt lat="47.29728" lon="-2.36614">
        <ele>100</ele>
        <time>2021-06-17T10:00:12.000Z</time>
      </trkpt>
      <trkpt lat="47.29716" lon="-2.36585">
        <ele>99.599998474121</ele>
        <time>2021-06-17T10:00:15.000Z</time>
      </trkpt>
      <trkpt lat="47.29712" lon="-2.36576">
        <ele>99.199996948242</ele>
        <time>2021-06-17T10:00:16.000Z</time>
      </trkpt>
      <trkpt lat="47.29708" lon="-2.36566">
        <ele>98.800003051758</ele>
        <time>2021-06-17T10:00:17.000Z</time>
      </trkpt>
      <trkpt lat="47.29704" lon="-2.36555">
        <ele>98.400001525879</ele>
        <time>2021-06-17T10:00:18.000Z</time>
      </trkpt>
      <trkpt lat="47.29701" lon="-2.36544">
        <ele>98</ele>
        <time>2021-06-17T10:00:19.000Z</time>
      </trkpt>
      <trkpt lat="47.29697" lon="-2.36533">
        <ele>97.599998474121</ele>
        <time>2021-06-17T10:00:20.000Z</time>
      </trkpt>
      <trkpt lat="47.29694" lon="-2.36522">
        <ele>97</ele>
        <time>2021-06-17T10:00:21.000Z</time>
      </trkpt>
      <trkpt lat="47.2969" lon="-2.36511">
        <ele>96.599998474121</ele>
        <time>2021-06-17T10:00:22.000Z</time>
      </trkpt>
      <trkpt lat="47.29686" lon="-2.365">
        <ele>96.199996948242</ele>
        <time>2021-06-17T10:00:23.000Z</time>
      </trkpt>
      <trkpt lat="47.29682" lon="-2.3649">
        <ele>95.800003051758</ele>
        <time>2021-06-17T10:00:24.000Z</time>
      </trkpt>
      <trkpt lat="47.29678" lon="-2.36479">
        <ele>95.800003051758</ele>
        <time>2021-06-17T10:00:25.000Z</time>
      </trkpt>
      <trkpt lat="47.29665" lon="-2.36445">
        <ele>95.400001525879</ele>
        <time>2021-06-17T10:00:28.000Z</time>
      </trkpt>
      <trkpt lat="47.29661" lon="-2.36434">
        <ele>95</ele>
        <time>2021-06-17T10:00:29.000Z</time>
      </trkpt>
      <trkpt lat="47.29657" lon="-2.36423">
        <ele>94.599998474121</ele>
        <time>2021-06-17T10:00:30.000Z</time>
      </trkpt>
      <trkpt lat="47.29652" lon="-2.36413">
        <ele>94.199996948242</ele>
        <time>2021-06-17T10:00:31.000Z</time>
      </trkpt>
      <trkpt lat="47.29648" lon="-2.36402">
        <ele>93.800003051758</ele>
        <time>2021-06-17T10:00:32.000Z</time>
      </trkpt>
      <trkpt lat="47.29635" lon="-2.36374">
        <ele>93.800003051758</ele>
        <time>2021-06-17T10:00:35.000Z</time>
      </trkpt>
      <trkpt lat="47.29631" lon="-2.36366">
        <ele>93.199996948242</ele>
        <time>2021-06-17T10:00:36.000Z</time>
      </trkpt>
      <trkpt lat="47.29626" lon="-2.36357">
        <ele>92.800003051758</ele>
        <time>2021-06-17T10:00:37.000Z</time>
      </trkpt>
      <trkpt lat="47.29622" lon="-2.36349">
        <ele>92.400001525879</ele>
        <time>2021-06-17T10:00:38.000Z</time>
      </trkpt>
      <trkpt lat="47.29618" lon="-2.36342">
        <ele>92</ele>
        <time>2021-06-17T10:00:39.000Z</time>
      </trkpt>
      <trkpt lat="47.29614" lon="-2.36334">
        <ele>91.400001525879</ele>
        <time>2021-06-17T10:00:40.000Z</time>
      </trkpt>
      <trkpt lat="47.2961" lon="-2.36327">
        <ele>91.400001525879</ele>
        <time>2021-06-17T10:00:41.000Z</time>
      </trkpt>
      <trkpt lat="47.29594" lon="-2.3629">
        <ele>91.400001525879</ele>
        <time>2021-06-17T10:00:46.000Z</time>
      </trkpt>
      <trkpt lat="47.29573" lon="-2.36249">
        <ele>91.400001525879</ele>
        <time>2021-06-17T10:00:52.000Z</time>
      </trkpt>
      <trkpt lat="47.2955" lon="-2.36204">
        <ele>91.400001525879</ele>
        <time>2021-06-17T10:00:59.000Z</time>
      </trkpt>
      <trkpt lat="47.29537" lon="-2.36182">
        <ele>91.400001525879</ele>
        <time>2021-06-17T10:01:03.000Z</time>
      </trkpt>
      <trkpt lat="47.29533" lon="-2.36178">
        <ele>91.400001525879</ele>
        <time>2021-06-17T10:01:04.000Z</time>
      </trkpt>
      <trkpt lat="47.29527" lon="-2.36168">
        <ele>91.800003051758</ele>
        <time>2021-06-17T10:01:06.000Z</time>
      </trkpt>
      <trkpt lat="47.29525" lon="-2.36161">
        <ele>92.199996948242</ele>
        <time>2021-06-17T10:01:07.000Z</time>
      </trkpt>
      <trkpt lat="47.29523" lon="-2.36154">
        <ele>92.599998474121</ele>
        <time>2021-06-17T10:01:08.000Z</time>
      </trkpt>
      <trkpt lat="47.29521" lon="-2.36147">
        <ele>93.199996948242</ele>
        <time>2021-06-17T10:01:09.000Z</time>
      </trkpt>
      <trkpt lat="47.29518" lon="-2.3614">
        <ele>93.599998474121</ele>
        <time>2021-06-17T10:01:10.000Z</time>
      </trkpt>
      <trkpt lat="47.29512" lon="-2.36126">
        <ele>93.599998474121</ele>
        <time>2021-06-17T10:01:12.000Z</time>
      </trkpt>
      <trkpt lat="47.29495" lon="-2.36084">
        <ele>93.599998474121</ele>
        <time>2021-06-17T10:01:18.000Z</time>
      </trkpt>
      <trkpt lat="47.2949" lon="-2.3607">
        <ele>93.599998474121</ele>
        <time>2021-06-17T10:01:20.000Z</time>
      </trkpt>
      <trkpt lat="47.29478" lon="-2.36032">
        <ele>93.599998474121</ele>
        <time>2021-06-17T10:01:26.000Z</time>
      </trkpt>
      <trkpt lat="47.29474" lon="-2.36021">
        <ele>93.599998474121</ele>
        <time>2021-06-17T10:01:30.000Z</time>
      </trkpt>
      <trkpt lat="47.29467" lon="-2.36">
        <ele>93.599998474121</ele>
        <time>2021-06-17T10:01:37.000Z</time>
      </trkpt>
      <trkpt lat="47.29458" lon="-2.3598">
        <ele>93.599998474121</ele>
        <time>2021-06-17T10:01:42.000Z</time>
      </trkpt>
      <trkpt lat="47.29455" lon="-2.35962">
        <ele>93.599998474121</ele>
        <time>2021-06-17T10:01:45.000Z</time>
      </trkpt>
      <trkpt lat="47.29449" lon="-2.35943">
        <ele>93.599998474121</ele>
        <time>2021-06-17T10:01:48.000Z</time>
      </trkpt>
      <trkpt lat="47.29445" lon="-2.35933">
        <ele>93.599998474121</ele>
        <time>2021-06-17T10:01:51.000Z</time>
      </trkpt>
      <trkpt lat="47.29437" lon="-2.35916">
        <ele>93.599998474121</ele>
        <time>2021-06-17T10:01:55.000Z</time>
      </trkpt>
      <trkpt lat="47.29426" lon="-2.35894">
        <ele>93.599998474121</ele>
        <time>2021-06-17T10:01:59.000Z</time>
      </trkpt>
      <trkpt lat="47.29422" lon="-2.35889">
        <ele>93.599998474121</ele>
        <time>2021-06-17T10:02:00.000Z</time>
      </trkpt>
      <trkpt lat="47.29392" lon="-2.35856">
        <ele>93.599998474121</ele>
        <time>2021-06-17T10:02:07.000Z</time>
      </trkpt>
      <trkpt lat="47.2937" lon="-2.35833">
        <ele>94</ele>
        <time>2021-06-17T10:02:12.000Z</time>
      </trkpt>
      <trkpt lat="47.29364" lon="-2.35828">
        <ele>94.400001525879</ele>
        <time>2021-06-17T10:02:13.000Z</time>
      </trkpt>
      <trkpt lat="47.29359" lon="-2.35824">
        <ele>94.800003051758</ele>
        <time>2021-06-17T10:02:14.000Z</time>
      </trkpt>
      <trkpt lat="47.29354" lon="-2.3582">
        <ele>95.199996948242</ele>
        <time>2021-06-17T10:02:15.000Z</time>
      </trkpt>
      <trkpt lat="47.29348" lon="-2.35815">
        <ele>95.599998474121</ele>
        <time>2021-06-17T10:02:16.000Z</time>
      </trkpt>
      <trkpt lat="47.29322" lon="-2.35792">
        <ele>95.599998474121</ele>
        <time>2021-06-17T10:02:21.000Z</time>
      </trkpt>
      <trkpt lat="47.29289" lon="-2.35765">
        <ele>95.599998474121</ele>
        <time>2021-06-17T10:02:27.000Z</time>
      </trkpt>
      <trkpt lat="47.29254" lon="-2.35732">
        <ele>95.599998474121</ele>
        <time>2021-06-17T10:02:34.000Z</time>
      </trkpt>
      <trkpt lat="47.29248" lon="-2.35728">
        <ele>95.599998474121</ele>
        <time>2021-06-17T10:02:35.000Z</time>
      </trkpt>
      <trkpt lat="47.29217" lon="-2.35698">
        <ele>95.599998474121</ele>
        <time>2021-06-17T10:02:41.000Z</time>
      </trkpt>
      <trkpt lat="47.29177" lon="-2.35658">
        <ele>95.599998474121</ele>
        <time>2021-06-17T10:02:49.000Z</time>
      </trkpt>
      <trkpt lat="47.29172" lon="-2.35654">
        <ele>95.599998474121</ele>
        <time>2021-06-17T10:02:50.000Z</time>
      </trkpt>
      <trkpt lat="47.29155" lon="-2.35648">
        <ele>95.599998474121</ele>
        <time>2021-06-17T10:02:53.000Z</time>
      </trkpt>
      <trkpt lat="47.29143" lon="-2.35649">
        <ele>95.599998474121</ele>
        <time>2021-06-17T10:02:55.000Z</time>
      </trkpt>
      <trkpt lat="47.29133" lon="-2.35655">
        <ele>95.599998474121</ele>
        <time>2021-06-17T10:02:57.000Z</time>
      </trkpt>
      <trkpt lat="47.29118" lon="-2.35651">
        <ele>95.599998474121</ele>
        <time>2021-06-17T10:03:00.000Z</time>
      </trkpt>
      <trkpt lat="47.2911" lon="-2.35629">
        <ele>95.599998474121</ele>
        <time>2021-06-17T10:03:03.000Z</time>
      </trkpt>
      <trkpt lat="47.29116" lon="-2.35604">
        <ele>95.599998474121</ele>
        <time>2021-06-17T10:03:06.000Z</time>
      </trkpt>
      <trkpt lat="47.29123" lon="-2.35568">
        <ele>95.599998474121</ele>
        <time>2021-06-17T10:03:10.000Z</time>
      </trkpt>
      <trkpt lat="47.29119" lon="-2.35539">
        <ele>95.599998474121</ele>
        <time>2021-06-17T10:03:13.000Z</time>
      </trkpt>
      <trkpt lat="47.29117" lon="-2.3553">
        <ele>95.599998474121</ele>
        <time>2021-06-17T10:03:14.000Z</time>
      </trkpt>
      <trkpt lat="47.29101" lon="-2.35465">
        <ele>95.599998474121</ele>
        <time>2021-06-17T10:03:22.000Z</time>
      </trkpt>
      <trkpt lat="47.291" lon="-2.35463">
        <ele>95.599998474121</ele>
        <time>2021-06-17T10:03:24.000Z</time>
      </trkpt>
      <trkpt lat="47.291" lon="-2.35467">
        <ele>95.599998474121</ele>
        <time>2021-06-17T10:03:27.000Z</time>
      </trkpt>
      <trkpt lat="47.29096" lon="-2.35474">
        <ele>95.599998474121</ele>
        <time>2021-06-17T10:03:31.000Z</time>
      </trkpt>
      <trkpt lat="47.2909" lon="-2.35461">
        <ele>95.599998474121</ele>
        <time>2021-06-17T10:03:35.000Z</time>
      </trkpt>
      <trkpt lat="47.29089" lon="-2.35453">
        <ele>95.599998474121</ele>
        <time>2021-06-17T10:03:36.000Z</time>
      </trkpt>
      <trkpt lat="47.29086" lon="-2.35429">
        <ele>95.599998474121</ele>
        <time>2021-06-17T10:03:39.000Z</time>
      </trkpt>
      <trkpt lat="47.29083" lon="-2.35411">
        <ele>95.599998474121</ele>
        <time>2021-06-17T10:03:41.000Z</time>
      </trkpt>
      <trkpt lat="47.29077" lon="-2.35382">
        <ele>95.599998474121</ele>
        <time>2021-06-17T10:03:44.000Z</time>
      </trkpt>
      <trkpt lat="47.29062" lon="-2.35299">
        <ele>95.599998474121</ele>
        <time>2021-06-17T10:03:52.000Z</time>
      </trkpt>
      <trkpt lat="47.29055" lon="-2.35268">
        <ele>95.599998474121</ele>
        <time>2021-06-17T10:03:55.000Z</time>
      </trkpt>
      <trkpt lat="47.29046" lon="-2.35252">
        <ele>95.599998474121</ele>
        <time>2021-06-17T10:03:57.000Z</time>
      </trkpt>
      <trkpt lat="47.29035" lon="-2.35224">
        <ele>95.599998474121</ele>
        <time>2021-06-17T10:04:00.000Z</time>
      </trkpt>
      <trkpt lat="47.29038" lon="-2.35192">
        <ele>95.599998474121</ele>
        <time>2021-06-17T10:04:03.000Z</time>
      </trkpt>
      <trkpt lat="47.29038" lon="-2.35182">
        <ele>95.599998474121</ele>
        <time>2021-06-17T10:04:04.000Z</time>
      </trkpt>
      <trkpt lat="47.29036" lon="-2.35162">
        <ele>95.599998474121</ele>
        <time>2021-06-17T10:04:06.000Z</time>
      </trkpt>
      <trkpt lat="47.2903" lon="-2.35131">
        <ele>95.199996948242</ele>
        <time>2021-06-17T10:04:09.000Z</time>
      </trkpt>
      <trkpt lat="47.29028" lon="-2.3512">
        <ele>94.800003051758</ele>
        <time>2021-06-17T10:04:10.000Z</time>
      </trkpt>
      <trkpt lat="47.29027" lon="-2.3511">
        <ele>94.400001525879</ele>
        <time>2021-06-17T10:04:11.000Z</time>
      </trkpt>
      <trkpt lat="47.29025" lon="-2.35099">
        <ele>94</ele>
        <time>2021-06-17T10:04:12.000Z</time>
      </trkpt>
      <trkpt lat="47.29023" lon="-2.35089">
        <ele>93.599998474121</ele>
        <time>2021-06-17T10:04:13.000Z</time>
      </trkpt>
      <trkpt lat="47.29015" lon="-2.35047">
        <ele>93.599998474121</ele>
        <time>2021-06-17T10:04:17.000Z</time>
      </trkpt>
      <trkpt lat="47.29002" lon="-2.34986">
        <ele>93.599998474121</ele>
        <time>2021-06-17T10:04:23.000Z</time>
      </trkpt>
      <trkpt lat="47.28986" lon="-2.349">
        <ele>93.599998474121</ele>
        <time>2021-06-17T10:04:31.000Z</time>
      </trkpt>
      <trkpt lat="47.2898" lon="-2.34868">
        <ele>93.199996948242</ele>
        <time>2021-06-17T10:04:34.000Z</time>
      </trkpt>
      <trkpt lat="47.28978" lon="-2.34857">
        <ele>92.800003051758</ele>
        <time>2021-06-17T10:04:35.000Z</time>
      </trkpt>
      <trkpt lat="47.28976" lon="-2.34847">
        <ele>92.400001525879</ele>
        <time>2021-06-17T10:04:36.000Z</time>
      </trkpt>
      <trkpt lat="47.28975" lon="-2.34836">
        <ele>92</ele>
        <time>2021-06-17T10:04:37.000Z</time>
      </trkpt>
      <trkpt lat="47.28973" lon="-2.34825">
        <ele>91.599998474121</ele>
        <time>2021-06-17T10:04:38.000Z</time>
      </trkpt>
      <trkpt lat="47.2897" lon="-2.34815">
        <ele>91.599998474121</ele>
        <time>2021-06-17T10:04:39.000Z</time>
      </trkpt>
      <trkpt lat="47.28959" lon="-2.34749">
        <ele>91.599998474121</ele>
        <time>2021-06-17T10:04:46.000Z</time>
      </trkpt>
      <trkpt lat="47.28953" lon="-2.34721">
        <ele>91.599998474121</ele>
        <time>2021-06-17T10:04:51.000Z</time>
      </trkpt>
      <trkpt lat="47.28953" lon="-2.3472">
        <ele>91.199996948242</ele>
        <time>2021-06-17T10:04:52.000Z</time>
      </trkpt>
      <trkpt lat="47.28952" lon="-2.34719">
        <ele>90.800003051758</ele>
        <time>2021-06-17T10:04:53.000Z</time>
      </trkpt>
      <trkpt lat="47.28953" lon="-2.34717">
        <ele>89.400001525879</ele>
        <time>2021-06-17T10:05:03.000Z</time>
      </trkpt>
      <trkpt lat="47.28951" lon="-2.34696">
        <ele>89.400001525879</ele>
        <time>2021-06-17T10:05:08.000Z</time>
      </trkpt>
      <trkpt lat="47.28948" lon="-2.34675">
        <ele>89.400001525879</ele>
        <time>2021-06-17T10:05:12.000Z</time>
      </trkpt>
      <trkpt lat="47.28944" lon="-2.34657">
        <ele>89.400001525879</ele>
        <time>2021-06-17T10:05:15.000Z</time>
      </trkpt>
      <trkpt lat="47.28938" lon="-2.34632">
        <ele>89.400001525879</ele>
        <time>2021-06-17T10:05:19.000Z</time>
      </trkpt>
      <trkpt lat="47.28934" lon="-2.34615">
        <ele>89.400001525879</ele>
        <time>2021-06-17T10:05:22.000Z</time>
      </trkpt>
      <trkpt lat="47.28925" lon="-2.34583">
        <ele>89.400001525879</ele>
        <time>2021-06-17T10:05:28.000Z</time>
      </trkpt>
      <trkpt lat="47.28918" lon="-2.34534">
        <ele>89.400001525879</ele>
        <time>2021-06-17T10:05:35.000Z</time>
      </trkpt>
      <trkpt lat="47.28907" lon="-2.34465">
        <ele>89.400001525879</ele>
        <time>2021-06-17T10:05:44.000Z</time>
      </trkpt>
      <trkpt lat="47.28903" lon="-2.34441">
        <ele>89.800003051758</ele>
        <time>2021-06-17T10:05:47.000Z</time>
      </trkpt>
      <trkpt lat="47.28901" lon="-2.34433">
        <ele>90.199996948242</ele>
        <time>2021-06-17T10:05:48.000Z</time>
      </trkpt>
      <trkpt lat="47.28899" lon="-2.34424">
        <ele>90.599998474121</ele>
        <time>2021-06-17T10:05:49.000Z</time>
      </trkpt>
      <trkpt lat="47.28898" lon="-2.34416">
        <ele>91</ele>
        <time>2021-06-17T10:05:50.000Z</time>
      </trkpt>
      <trkpt lat="47.28896" lon="-2.34407">
        <ele>91.400001525879</ele>
        <time>2021-06-17T10:05:51.000Z</time>
      </trkpt>
      <trkpt lat="47.28894" lon="-2.34399">
        <ele>91.400001525879</ele>
        <time>2021-06-17T10:05:52.000Z</time>
      </trkpt>
      <trkpt lat="47.28878" lon="-2.3432">
        <ele>91.400001525879</ele>
        <time>2021-06-17T10:06:01.000Z</time>
      </trkpt>
      <trkpt lat="47.28877" lon="-2.34311">
        <ele>91.400001525879</ele>
        <time>2021-06-17T10:06:02.000Z</time>
      </trkpt>
      <trkpt lat="47.28865" lon="-2.34241">
        <ele>91.400001525879</ele>
        <time>2021-06-17T10:06:10.000Z</time>
      </trkpt>
      <trkpt lat="47.28856" lon="-2.34169">
        <ele>91.400001525879</ele>
        <time>2021-06-17T10:06:19.000Z</time>
      </trkpt>
      <trkpt lat="47.28848" lon="-2.34104">
        <ele>91.400001525879</ele>
        <time>2021-06-17T10:06:27.000Z</time>
      </trkpt>
      <trkpt lat="47.28839" lon="-2.34051">
        <ele>91.400001525879</ele>
        <time>2021-06-17T10:06:34.000Z</time>
      </trkpt>
      <trkpt lat="47.28826" lon="-2.34">
        <ele>91.400001525879</ele>
        <time>2021-06-17T10:06:40.000Z</time>
      </trkpt>
      <trkpt lat="47.28801" lon="-2.33924">
        <ele>91.400001525879</ele>
        <time>2021-06-17T10:06:49.000Z</time>
      </trkpt>
      <trkpt lat="47.28778" lon="-2.33875">
        <ele>91.400001525879</ele>
        <time>2021-06-17T10:06:55.000Z</time>
      </trkpt>
      <trkpt lat="47.28767" lon="-2.3385">
        <ele>91.400001525879</ele>
        <time>2021-06-17T10:06:58.000Z</time>
      </trkpt>
      <trkpt lat="47.28765" lon="-2.33841">
        <ele>91</ele>
        <time>2021-06-17T10:06:59.000Z</time>
      </trkpt>
      <trkpt lat="47.28763" lon="-2.33831">
        <ele>90.599998474121</ele>
        <time>2021-06-17T10:07:00.000Z</time>
      </trkpt>
      <trkpt lat="47.28761" lon="-2.33821">
        <ele>89.800003051758</ele>
        <time>2021-06-17T10:07:01.000Z</time>
      </trkpt>
      <trkpt lat="47.2876" lon="-2.33811">
        <ele>89.400001525879</ele>
        <time>2021-06-17T10:07:02.000Z</time>
      </trkpt>
      <trkpt lat="47.28754" lon="-2.33766">
        <ele>89.400001525879</ele>
        <time>2021-06-17T10:07:07.000Z</time>
      </trkpt>
      <trkpt lat="47.28747" lon="-2.33731">
        <ele>89.400001525879</ele>
        <time>2021-06-17T10:07:11.000Z</time>
      </trkpt>
      <trkpt lat="47.28743" lon="-2.33723">
        <ele>89.400001525879</ele>
        <time>2021-06-17T10:07:12.000Z</time>
      </trkpt>
      <trkpt lat="47.28723" lon="-2.33697">
        <ele>89.400001525879</ele>
        <time>2021-06-17T10:07:16.000Z</time>
      </trkpt>
      <trkpt lat="47.28697" lon="-2.33689">
        <ele>89.400001525879</ele>
        <time>2021-06-17T10:07:20.000Z</time>
      </trkpt>
      <trkpt lat="47.2869" lon="-2.3369">
        <ele>89</ele>
        <time>2021-06-17T10:07:21.000Z</time>
      </trkpt>
      <trkpt lat="47.28684" lon="-2.33691">
        <ele>88.599998474121</ele>
        <time>2021-06-17T10:07:22.000Z</time>
      </trkpt>
      <trkpt lat="47.28678" lon="-2.33693">
        <ele>88.199996948242</ele>
        <time>2021-06-17T10:07:23.000Z</time>
      </trkpt>
      <trkpt lat="47.28672" lon="-2.33696">
        <ele>87.599998474121</ele>
        <time>2021-06-17T10:07:24.000Z</time>
      </trkpt>
      <trkpt lat="47.28666" lon="-2.33698">
        <ele>87.199996948242</ele>
        <time>2021-06-17T10:07:25.000Z</time>
      </trkpt>
      <trkpt lat="47.28641" lon="-2.3371">
        <ele>87.199996948242</ele>
        <time>2021-06-17T10:07:30.000Z</time>
      </trkpt>
      <trkpt lat="47.28631" lon="-2.33713">
        <ele>87.199996948242</ele>
        <time>2021-06-17T10:07:32.000Z</time>
      </trkpt>
      <trkpt lat="47.28616" lon="-2.33719">
        <ele>87.199996948242</ele>
        <time>2021-06-17T10:07:35.000Z</time>
      </trkpt>
      <trkpt lat="47.28578" lon="-2.33732">
        <ele>87.199996948242</ele>
        <time>2021-06-17T10:07:42.000Z</time>
      </trkpt>
      <trkpt lat="47.28572" lon="-2.33732">
        <ele>87.199996948242</ele>
        <time>2021-06-17T10:07:43.000Z</time>
      </trkpt>
      <trkpt lat="47.28542" lon="-2.3373">
        <ele>87.199996948242</ele>
        <time>2021-06-17T10:07:48.000Z</time>
      </trkpt>
      <trkpt lat="47.28508" lon="-2.33734">
        <ele>87.199996948242</ele>
        <time>2021-06-17T10:07:53.000Z</time>
      </trkpt>
      <trkpt lat="47.28502" lon="-2.33738">
        <ele>87.199996948242</ele>
        <time>2021-06-17T10:07:54.000Z</time>
      </trkpt>
      <trkpt lat="47.28481" lon="-2.33763">
        <ele>87.199996948242</ele>
        <time>2021-06-17T10:07:58.000Z</time>
      </trkpt>
      <trkpt lat="47.28436" lon="-2.33815">
        <ele>87.199996948242</ele>
        <time>2021-06-17T10:08:07.000Z</time>
      </trkpt>
      <trkpt lat="47.28392" lon="-2.33859">
        <ele>87.199996948242</ele>
        <time>2021-06-17T10:08:15.000Z</time>
      </trkpt>
      <trkpt lat="47.2835" lon="-2.33898">
        <ele>87.199996948242</ele>
        <time>2021-06-17T10:08:22.000Z</time>
      </trkpt>
      <trkpt lat="47.28327" lon="-2.33919">
        <ele>86.800003051758</ele>
        <time>2021-06-17T10:08:26.000Z</time>
      </trkpt>
      <trkpt lat="47.28322" lon="-2.33923">
        <ele>86.400001525879</ele>
        <time>2021-06-17T10:08:27.000Z</time>
      </trkpt>
      <trkpt lat="47.28317" lon="-2.33927">
        <ele>86</ele>
        <time>2021-06-17T10:08:28.000Z</time>
      </trkpt>
      <trkpt lat="47.28313" lon="-2.3393">
        <ele>85.599998474121</ele>
        <time>2021-06-17T10:08:29.000Z</time>
      </trkpt>
      <trkpt lat="47.28308" lon="-2.33931">
        <ele>85.199996948242</ele>
        <time>2021-06-17T10:08:30.000Z</time>
      </trkpt>
      <trkpt lat="47.28304" lon="-2.3393">
        <ele>85.199996948242</ele>
        <time>2021-06-17T10:08:31.000Z</time>
      </trkpt>
      <trkpt lat="47.283" lon="-2.33926">
        <ele>84.800003051758</ele>
        <time>2021-06-17T10:08:32.000Z</time>
      </trkpt>
      <trkpt lat="47.28297" lon="-2.3392">
        <ele>84.400001525879</ele>
        <time>2021-06-17T10:08:33.000Z</time>
      </trkpt>
      <trkpt lat="47.28294" lon="-2.33913">
        <ele>84</ele>
        <time>2021-06-17T10:08:34.000Z</time>
      </trkpt>
      <trkpt lat="47.28291" lon="-2.33905">
        <ele>83.599998474121</ele>
        <time>2021-06-17T10:08:35.000Z</time>
      </trkpt>
      <trkpt lat="47.28287" lon="-2.33897">
        <ele>83.199996948242</ele>
        <time>2021-06-17T10:08:36.000Z</time>
      </trkpt>
      <trkpt lat="47.28274" lon="-2.33863">
        <ele>83.199996948242</ele>
        <time>2021-06-17T10:08:40.000Z</time>
      </trkpt>
      <trkpt lat="47.28247" lon="-2.33815">
        <ele>83.199996948242</ele>
        <time>2021-06-17T10:08:46.000Z</time>
      </trkpt>
      <trkpt lat="47.28222" lon="-2.33801">
        <ele>83.199996948242</ele>
        <time>2021-06-17T10:08:50.000Z</time>
      </trkpt>
      <trkpt lat="47.28189" lon="-2.33786">
        <ele>82.800003051758</ele>
        <time>2021-06-17T10:08:55.000Z</time>
      </trkpt>
      <trkpt lat="47.28184" lon="-2.33781">
        <ele>82.400001525879</ele>
        <time>2021-06-17T10:08:56.000Z</time>
      </trkpt>
      <trkpt lat="47.28178" lon="-2.33776">
        <ele>82</ele>
        <time>2021-06-17T10:08:57.000Z</time>
      </trkpt>
      <trkpt lat="47.28173" lon="-2.33771">
        <ele>81.599998474121</ele>
        <time>2021-06-17T10:08:58.000Z</time>
      </trkpt>
      <trkpt lat="47.28168" lon="-2.33765">
        <ele>81.199996948242</ele>
        <time>2021-06-17T10:08:59.000Z</time>
      </trkpt>
      <trkpt lat="47.28157" lon="-2.33753">
        <ele>81.199996948242</ele>
        <time>2021-06-17T10:09:01.000Z</time>
      </trkpt>
      <trkpt lat="47.28137" lon="-2.33728">
        <ele>81.199996948242</ele>
        <time>2021-06-17T10:09:05.000Z</time>
      </trkpt>
      <trkpt lat="47.28128" lon="-2.33713">
        <ele>81.199996948242</ele>
        <time>2021-06-17T10:09:07.000Z</time>
      </trkpt>
      <trkpt lat="47.28116" lon="-2.33692">
        <ele>81.199996948242</ele>
        <time>2021-06-17T10:09:10.000Z</time>
      </trkpt>
      <trkpt lat="47.28107" lon="-2.33681">
        <ele>81.199996948242</ele>
        <time>2021-06-17T10:09:12.000Z</time>
      </trkpt>
      <trkpt lat="47.28099" lon="-2.33673">
        <ele>81.199996948242</ele>
        <time>2021-06-17T10:09:14.000Z</time>
      </trkpt>
      <trkpt lat="47.28094" lon="-2.33664">
        <ele>81.199996948242</ele>
        <time>2021-06-17T10:09:16.000Z</time>
      </trkpt>
      <trkpt lat="47.28092" lon="-2.33658">
        <ele>81.199996948242</ele>
        <time>2021-06-17T10:09:19.000Z</time>
      </trkpt>
      <trkpt lat="47.28089" lon="-2.33644">
        <ele>81.199996948242</ele>
        <time>2021-06-17T10:09:25.000Z</time>
      </trkpt>
      <trkpt lat="47.28086" lon="-2.33619">
        <ele>80.800003051758</ele>
        <time>2021-06-17T10:09:29.000Z</time>
      </trkpt>
      <trkpt lat="47.28085" lon="-2.3361">
        <ele>80.199996948242</ele>
        <time>2021-06-17T10:09:30.000Z</time>
      </trkpt>
      <trkpt lat="47.28084" lon="-2.33602">
        <ele>79.800003051758</ele>
        <time>2021-06-17T10:09:31.000Z</time>
      </trkpt>
      <trkpt lat="47.28083" lon="-2.33593">
        <ele>79.400001525879</ele>
        <time>2021-06-17T10:09:32.000Z</time>
      </trkpt>
      <trkpt lat="47.28082" lon="-2.33585">
        <ele>79</ele>
        <time>2021-06-17T10:09:33.000Z</time>
      </trkpt>
      <trkpt lat="47.28081" lon="-2.33577">
        <ele>79</ele>
        <time>2021-06-17T10:09:34.000Z</time>
      </trkpt>
      <trkpt lat="47.28074" lon="-2.33535">
        <ele>79</ele>
        <time>2021-06-17T10:09:39.000Z</time>
      </trkpt>
      <trkpt lat="47.28073" lon="-2.33528">
        <ele>79</ele>
        <time>2021-06-17T10:09:40.000Z</time>
      </trkpt>
      <trkpt lat="47.28068" lon="-2.33519">
        <ele>79</ele>
        <time>2021-06-17T10:09:42.000Z</time>
      </trkpt>
      <trkpt lat="47.28064" lon="-2.33519">
        <ele>79</ele>
        <time>2021-06-17T10:09:43.000Z</time>
      </trkpt>
      <trkpt lat="47.2804" lon="-2.33521">
        <ele>79</ele>
        <time>2021-06-17T10:09:48.000Z</time>
      </trkpt>
      <trkpt lat="47.28034" lon="-2.33522">
        <ele>79</ele>
        <time>2021-06-17T10:09:49.000Z</time>
      </trkpt>
      <trkpt lat="47.28023" lon="-2.33525">
        <ele>79</ele>
        <time>2021-06-17T10:09:51.000Z</time>
      </trkpt>
      <trkpt lat="47.28012" lon="-2.33531">
        <ele>79</ele>
        <time>2021-06-17T10:09:53.000Z</time>
      </trkpt>
      <trkpt lat="47.28007" lon="-2.33534">
        <ele>79</ele>
        <time>2021-06-17T10:09:54.000Z</time>
      </trkpt>
      <trkpt lat="47.27979" lon="-2.33553">
        <ele>79</ele>
        <time>2021-06-17T10:09:59.000Z</time>
      </trkpt>
      <trkpt lat="47.27938" lon="-2.3358">
        <ele>79</ele>
        <time>2021-06-17T10:10:06.000Z</time>
      </trkpt>
      <trkpt lat="47.27933" lon="-2.33584">
        <ele>79.400001525879</ele>
        <time>2021-06-17T10:10:07.000Z</time>
      </trkpt>
      <trkpt lat="47.27927" lon="-2.33588">
        <ele>80</ele>
        <time>2021-06-17T10:10:08.000Z</time>
      </trkpt>
      <trkpt lat="47.27922" lon="-2.33591">
        <ele>80.400001525879</ele>
        <time>2021-06-17T10:10:09.000Z</time>
      </trkpt>
      <trkpt lat="47.27917" lon="-2.33594">
        <ele>80.800003051758</ele>
        <time>2021-06-17T10:10:10.000Z</time>
      </trkpt>
      <trkpt lat="47.27911" lon="-2.33597">
        <ele>81.199996948242</ele>
        <time>2021-06-17T10:10:11.000Z</time>
      </trkpt>
      <trkpt lat="47.279" lon="-2.33603">
        <ele>81.199996948242</ele>
        <time>2021-06-17T10:10:13.000Z</time>
      </trkpt>
      <trkpt lat="47.27878" lon="-2.33613">
        <ele>81.199996948242</ele>
        <time>2021-06-17T10:10:17.000Z</time>
      </trkpt>
      <trkpt lat="47.27867" lon="-2.33617">
        <ele>82</ele>
        <time>2021-06-17T10:10:19.000Z</time>
      </trkpt>
      <trkpt lat="47.27861" lon="-2.3362">
        <ele>82.400001525879</ele>
        <time>2021-06-17T10:10:20.000Z</time>
      </trkpt>
      <trkpt lat="47.27855" lon="-2.33622">
        <ele>82.800003051758</ele>
        <time>2021-06-17T10:10:21.000Z</time>
      </trkpt>
      <trkpt lat="47.2785" lon="-2.33624">
        <ele>83.199996948242</ele>
        <time>2021-06-17T10:10:22.000Z</time>
      </trkpt>
      <trkpt lat="47.27822" lon="-2.33636">
        <ele>83.199996948242</ele>
        <time>2021-06-17T10:10:27.000Z</time>
      </trkpt>
      <trkpt lat="47.27802" lon="-2.33644">
        <ele>83.599998474121</ele>
        <time>2021-06-17T10:10:31.000Z</time>
      </trkpt>
      <trkpt lat="47.27797" lon="-2.33646">
        <ele>84.199996948242</ele>
        <time>2021-06-17T10:10:32.000Z</time>
      </trkpt>
      <trkpt lat="47.27793" lon="-2.33647">
        <ele>84.599998474121</ele>
        <time>2021-06-17T10:10:33.000Z</time>
      </trkpt>
      <trkpt lat="47.27788" lon="-2.33649">
        <ele>85</ele>
        <time>2021-06-17T10:10:34.000Z</time>
      </trkpt>
      <trkpt lat="47.27783" lon="-2.33652">
        <ele>85.400001525879</ele>
        <time>2021-06-17T10:10:35.000Z</time>
      </trkpt>
      <trkpt lat="47.27774" lon="-2.33658">
        <ele>85.400001525879</ele>
        <time>2021-06-17T10:10:37.000Z</time>
      </trkpt>
      <trkpt lat="47.27766" lon="-2.33667">
        <ele>85.400001525879</ele>
        <time>2021-06-17T10:10:39.000Z</time>
      </trkpt>
      <trkpt lat="47.27738" lon="-2.33693">
        <ele>85.400001525879</ele>
        <time>2021-06-17T10:10:45.000Z</time>
      </trkpt>
      <trkpt lat="47.27733" lon="-2.33696">
        <ele>85.400001525879</ele>
        <time>2021-06-17T10:10:46.000Z</time>
      </trkpt>
      <trkpt lat="47.27723" lon="-2.33703">
        <ele>85.400001525879</ele>
        <time>2021-06-17T10:10:48.000Z</time>
      </trkpt>
      <trkpt lat="47.2771" lon="-2.33711">
        <ele>85.400001525879</ele>
        <time>2021-06-17T10:10:51.000Z</time>
      </trkpt>
      <trkpt lat="47.27706" lon="-2.33713">
        <ele>85.400001525879</ele>
        <time>2021-06-17T10:10:52.000Z</time>
      </trkpt>
      <trkpt lat="47.27694" lon="-2.3371">
        <ele>85.400001525879</ele>
        <time>2021-06-17T10:10:55.000Z</time>
      </trkpt>
      <trkpt lat="47.27691" lon="-2.33705">
        <ele>85.800003051758</ele>
        <time>2021-06-17T10:10:56.000Z</time>
      </trkpt>
      <trkpt lat="47.27688" lon="-2.337">
        <ele>86.199996948242</ele>
        <time>2021-06-17T10:10:57.000Z</time>
      </trkpt>
      <trkpt lat="47.27685" lon="-2.33693">
        <ele>86.599998474121</ele>
        <time>2021-06-17T10:10:58.000Z</time>
      </trkpt>
      <trkpt lat="47.27682" lon="-2.33687">
        <ele>87</ele>
        <time>2021-06-17T10:10:59.000Z</time>
      </trkpt>
      <trkpt lat="47.27679" lon="-2.3368">
        <ele>87.400001525879</ele>
        <time>2021-06-17T10:11:00.000Z</time>
      </trkpt>
      <trkpt lat="47.27664" lon="-2.33643">
        <ele>87.400001525879</ele>
        <time>2021-06-17T10:11:05.000Z</time>
      </trkpt>
      <trkpt lat="47.27645" lon="-2.33598">
        <ele>87.400001525879</ele>
        <time>2021-06-17T10:11:11.000Z</time>
      </trkpt>
      <trkpt lat="47.27618" lon="-2.33554">
        <ele>87.400001525879</ele>
        <time>2021-06-17T10:11:18.000Z</time>
      </trkpt>
      <trkpt lat="47.27608" lon="-2.33543">
        <ele>87.400001525879</ele>
        <time>2021-06-17T10:11:20.000Z</time>
      </trkpt>
      <trkpt lat="47.27593" lon="-2.33529">
        <ele>87.400001525879</ele>
        <time>2021-06-17T10:11:23.000Z</time>
      </trkpt>
      <trkpt lat="47.27565" lon="-2.33514">
        <ele>87.400001525879</ele>
        <time>2021-06-17T10:11:28.000Z</time>
      </trkpt>
      <trkpt lat="47.27532" lon="-2.33501">
        <ele>87.800003051758</ele>
        <time>2021-06-17T10:11:34.000Z</time>
      </trkpt>
      <trkpt lat="47.27527" lon="-2.33499">
        <ele>88.199996948242</ele>
        <time>2021-06-17T10:11:35.000Z</time>
      </trkpt>
      <trkpt lat="47.27521" lon="-2.33497">
        <ele>88.599998474121</ele>
        <time>2021-06-17T10:11:36.000Z</time>
      </trkpt>
      <trkpt lat="47.27515" lon="-2.33495">
        <ele>89.199996948242</ele>
        <time>2021-06-17T10:11:37.000Z</time>
      </trkpt>
      <trkpt lat="47.27509" lon="-2.33493">
        <ele>89.599998474121</ele>
        <time>2021-06-17T10:11:38.000Z</time>
      </trkpt>
      <trkpt lat="47.27493" lon="-2.33485">
        <ele>89.599998474121</ele>
        <time>2021-06-17T10:11:41.000Z</time>
      </trkpt>
      <trkpt lat="47.27459" lon="-2.33469">
        <ele>89.599998474121</ele>
        <time>2021-06-17T10:11:48.000Z</time>
      </trkpt>
      <trkpt lat="47.27446" lon="-2.33469">
        <ele>89.599998474121</ele>
        <time>2021-06-17T10:11:52.000Z</time>
      </trkpt>
      <trkpt lat="47.27445" lon="-2.33469">
        <ele>89.599998474121</ele>
        <time>2021-06-17T10:11:53.000Z</time>
      </trkpt>
      <trkpt lat="47.27444" lon="-2.33465">
        <ele>89.599998474121</ele>
        <time>2021-06-17T10:11:55.000Z</time>
      </trkpt>
      <trkpt lat="47.27444" lon="-2.33456">
        <ele>89.599998474121</ele>
        <time>2021-06-17T10:11:59.000Z</time>
      </trkpt>
      <trkpt lat="47.27451" lon="-2.33442">
        <ele>89.599998474121</ele>
        <time>2021-06-17T10:12:05.000Z</time>
      </trkpt>
      <trkpt lat="47.27467" lon="-2.33441">
        <ele>89.599998474121</ele>
        <time>2021-06-17T10:12:11.000Z</time>
      </trkpt>
      <trkpt lat="47.27482" lon="-2.33431">
        <ele>89.599998474121</ele>
        <time>2021-06-17T10:12:15.000Z</time>
      </trkpt>
      <trkpt lat="47.27515" lon="-2.33402">
        <ele>89.599998474121</ele>
        <time>2021-06-17T10:12:23.000Z</time>
      </trkpt>
      <trkpt lat="47.2755" lon="-2.33366">
        <ele>89.599998474121</ele>
        <time>2021-06-17T10:12:31.000Z</time>
      </trkpt>
      <trkpt lat="47.27561" lon="-2.33355">
        <ele>89.599998474121</ele>
        <time>2021-06-17T10:12:34.000Z</time>
      </trkpt>
      <trkpt lat="47.27563" lon="-2.33344">
        <ele>89.599998474121</ele>
        <time>2021-06-17T10:12:36.000Z</time>
      </trkpt>
      <trkpt lat="47.27557" lon="-2.33324">
        <ele>89.599998474121</ele>
        <time>2021-06-17T10:12:40.000Z</time>
      </trkpt>
      <trkpt lat="47.27544" lon="-2.33314">
        <ele>89.599998474121</ele>
        <time>2021-06-17T10:12:44.000Z</time>
      </trkpt>
      <trkpt lat="47.27541" lon="-2.33312">
        <ele>89.599998474121</ele>
        <time>2021-06-17T10:12:45.000Z</time>
      </trkpt>
      <trkpt lat="47.27537" lon="-2.33312">
        <ele>89.599998474121</ele>
        <time>2021-06-17T10:12:47.000Z</time>
      </trkpt>
      <trkpt lat="47.27536" lon="-2.33312">
        <ele>89.599998474121</ele>
        <time>2021-06-17T10:12:48.000Z</time>
      </trkpt>
      <trkpt lat="47.27536" lon="-2.33312">
        <ele>89.599998474121</ele>
        <time>2021-06-17T10:12:49.000Z</time>
      </trkpt>
      <trkpt lat="47.27535" lon="-2.33315">
        <ele>89.599998474121</ele>
        <time>2021-06-17T10:12:57.000Z</time>
      </trkpt>
      <trkpt lat="47.27536" lon="-2.33314">
        <ele>89.599998474121</ele>
        <time>2021-06-17T10:12:58.000Z</time>
      </trkpt>
      <trkpt lat="47.27535" lon="-2.3331">
        <ele>89.599998474121</ele>
        <time>2021-06-17T10:13:01.000Z</time>
      </trkpt>
      <trkpt lat="47.27533" lon="-2.33309">
        <ele>89.599998474121</ele>
        <time>2021-06-17T10:13:03.000Z</time>
      </trkpt>
      <trkpt lat="47.27528" lon="-2.3331">
        <ele>89.599998474121</ele>
        <time>2021-06-17T10:13:08.000Z</time>
      </trkpt>
      <trkpt lat="47.27528" lon="-2.33311">
        <ele>89.599998474121</ele>
        <time>2021-06-17T10:13:09.000Z</time>
      </trkpt>
      <trkpt lat="47.27521" lon="-2.33315">
        <ele>89.599998474121</ele>
        <time>2021-06-17T10:13:24.000Z</time>
      </trkpt>
      <trkpt lat="47.27519" lon="-2.33317">
        <ele>89.599998474121</ele>
        <time>2021-06-17T10:13:26.000Z</time>
      </trkpt>
      <trkpt lat="47.27515" lon="-2.33319">
        <ele>89.599998474121</ele>
        <time>2021-06-17T10:13:32.000Z</time>
      </trkpt>
      <trkpt lat="47.27515" lon="-2.3332">
        <ele>89.599998474121</ele>
        <time>2021-06-17T10:13:34.000Z</time>
      </trkpt>
      <trkpt lat="47.27529" lon="-2.33309">
        <ele>93.800003051758</ele>
        <time>2021-06-17T11:21:10.000Z</time>
      </trkpt>
      <trkpt lat="47.27531" lon="-2.3331">
        <ele>93.800003051758</ele>
        <time>2021-06-17T11:21:11.000Z</time>
      </trkpt>
      <trkpt lat="47.27546" lon="-2.33311">
        <ele>93.800003051758</ele>
        <time>2021-06-17T11:21:16.000Z</time>
      </trkpt>
      <trkpt lat="47.27559" lon="-2.33327">
        <ele>93.800003051758</ele>
        <time>2021-06-17T11:21:21.000Z</time>
      </trkpt>
      <trkpt lat="47.27561" lon="-2.33332">
        <ele>93.800003051758</ele>
        <time>2021-06-17T11:21:22.000Z</time>
      </trkpt>
      <trkpt lat="47.27566" lon="-2.33347">
        <ele>93.800003051758</ele>
        <time>2021-06-17T11:21:27.000Z</time>
      </trkpt>
      <trkpt lat="47.27566" lon="-2.33349">
        <ele>93.800003051758</ele>
        <time>2021-06-17T11:21:28.000Z</time>
      </trkpt>
      <trkpt lat="47.27561" lon="-2.33356">
        <ele>93.800003051758</ele>
        <time>2021-06-17T11:21:31.000Z</time>
      </trkpt>
      <trkpt lat="47.27555" lon="-2.33363">
        <ele>93.800003051758</ele>
        <time>2021-06-17T11:21:33.000Z</time>
      </trkpt>
      <trkpt lat="47.27548" lon="-2.33372">
        <ele>93.800003051758</ele>
        <time>2021-06-17T11:21:35.000Z</time>
      </trkpt>
      <trkpt lat="47.27531" lon="-2.33386">
        <ele>93.800003051758</ele>
        <time>2021-06-17T11:21:41.000Z</time>
      </trkpt>
      <trkpt lat="47.27533" lon="-2.33376">
        <ele>93.800003051758</ele>
        <time>2021-06-17T11:21:45.000Z</time>
      </trkpt>
      <trkpt lat="47.27532" lon="-2.33373">
        <ele>93.800003051758</ele>
        <time>2021-06-17T11:21:46.000Z</time>
      </trkpt>
      <trkpt lat="47.27527" lon="-2.33368">
        <ele>93.800003051758</ele>
        <time>2021-06-17T11:21:48.000Z</time>
      </trkpt>
      <trkpt lat="47.27522" lon="-2.33361">
        <ele>93.800003051758</ele>
        <time>2021-06-17T11:21:50.000Z</time>
      </trkpt>
      <trkpt lat="47.27513" lon="-2.33352">
        <ele>93.800003051758</ele>
        <time>2021-06-17T11:21:53.000Z</time>
      </trkpt>
      <trkpt lat="47.27498" lon="-2.33342">
        <ele>93.800003051758</ele>
        <time>2021-06-17T11:21:57.000Z</time>
      </trkpt>
      <trkpt lat="47.27486" lon="-2.33336">
        <ele>93.800003051758</ele>
        <time>2021-06-17T11:22:00.000Z</time>
      </trkpt>
      <trkpt lat="47.27458" lon="-2.33333">
        <ele>93.800003051758</ele>
        <time>2021-06-17T11:22:06.000Z</time>
      </trkpt>
      <trkpt lat="47.27445" lon="-2.3332">
        <ele>93.800003051758</ele>
        <time>2021-06-17T11:22:10.000Z</time>
      </trkpt>
      <trkpt lat="47.27436" lon="-2.33292">
        <ele>93.800003051758</ele>
        <time>2021-06-17T11:22:14.000Z</time>
      </trkpt>
      <trkpt lat="47.27428" lon="-2.33275">
        <ele>93.800003051758</ele>
        <time>2021-06-17T11:22:17.000Z</time>
      </trkpt>
      <trkpt lat="47.27421" lon="-2.33261">
        <ele>93.800003051758</ele>
        <time>2021-06-17T11:22:20.000Z</time>
      </trkpt>
      <trkpt lat="47.27417" lon="-2.33257">
        <ele>93.800003051758</ele>
        <time>2021-06-17T11:22:23.000Z</time>
      </trkpt>
      <trkpt lat="47.27415" lon="-2.33256">
        <ele>93.800003051758</ele>
        <time>2021-06-17T11:22:24.000Z</time>
      </trkpt>
      <trkpt lat="47.27411" lon="-2.33252">
        <ele>93.800003051758</ele>
        <time>2021-06-17T11:22:26.000Z</time>
      </trkpt>
      <trkpt lat="47.27406" lon="-2.33244">
        <ele>93.800003051758</ele>
        <time>2021-06-17T11:22:28.000Z</time>
      </trkpt>
      <trkpt lat="47.27404" lon="-2.33238">
        <ele>93.800003051758</ele>
        <time>2021-06-17T11:22:29.000Z</time>
      </trkpt>
      <trkpt lat="47.27394" lon="-2.33223">
        <ele>93.800003051758</ele>
        <time>2021-06-17T11:22:32.000Z</time>
      </trkpt>
      <trkpt lat="47.27391" lon="-2.33218">
        <ele>93.800003051758</ele>
        <time>2021-06-17T11:22:33.000Z</time>
      </trkpt>
      <trkpt lat="47.2737" lon="-2.33196">
        <ele>93.800003051758</ele>
        <time>2021-06-17T11:22:38.000Z</time>
      </trkpt>
      <trkpt lat="47.27359" lon="-2.33189">
        <ele>93.800003051758</ele>
        <time>2021-06-17T11:22:40.000Z</time>
      </trkpt>
      <trkpt lat="47.27354" lon="-2.33184">
        <ele>93.400001525879</ele>
        <time>2021-06-17T11:22:41.000Z</time>
      </trkpt>
      <trkpt lat="47.27348" lon="-2.33179">
        <ele>93</ele>
        <time>2021-06-17T11:22:42.000Z</time>
      </trkpt>
      <trkpt lat="47.27343" lon="-2.33174">
        <ele>92.599998474121</ele>
        <time>2021-06-17T11:22:43.000Z</time>
      </trkpt>
      <trkpt lat="47.27337" lon="-2.33169">
        <ele>92.199996948242</ele>
        <time>2021-06-17T11:22:44.000Z</time>
      </trkpt>
      <trkpt lat="47.27331" lon="-2.33163">
        <ele>91.800003051758</ele>
        <time>2021-06-17T11:22:45.000Z</time>
      </trkpt>
      <trkpt lat="47.27326" lon="-2.33158">
        <ele>91.800003051758</ele>
        <time>2021-06-17T11:22:46.000Z</time>
      </trkpt>
      <trkpt lat="47.27308" lon="-2.33133">
        <ele>91.800003051758</ele>
        <time>2021-06-17T11:22:50.000Z</time>
      </trkpt>
      <trkpt lat="47.27305" lon="-2.33125">
        <ele>91.800003051758</ele>
        <time>2021-06-17T11:22:51.000Z</time>
      </trkpt>
      <trkpt lat="47.27304" lon="-2.33114">
        <ele>91.400001525879</ele>
        <time>2021-06-17T11:22:53.000Z</time>
      </trkpt>
      <trkpt lat="47.27306" lon="-2.33112">
        <ele>91</ele>
        <time>2021-06-17T11:22:54.000Z</time>
      </trkpt>
      <trkpt lat="47.27308" lon="-2.33109">
        <ele>90.599998474121</ele>
        <time>2021-06-17T11:22:55.000Z</time>
      </trkpt>
      <trkpt lat="47.27311" lon="-2.33107">
        <ele>90.199996948242</ele>
        <time>2021-06-17T11:22:56.000Z</time>
      </trkpt>
      <trkpt lat="47.27314" lon="-2.33104">
        <ele>89.599998474121</ele>
        <time>2021-06-17T11:22:57.000Z</time>
      </trkpt>
      <trkpt lat="47.27317" lon="-2.33099">
        <ele>89.599998474121</ele>
        <time>2021-06-17T11:22:58.000Z</time>
      </trkpt>
      <trkpt lat="47.27327" lon="-2.33076">
        <ele>89.599998474121</ele>
        <time>2021-06-17T11:23:02.000Z</time>
      </trkpt>
      <trkpt lat="47.27341" lon="-2.33031">
        <ele>89.599998474121</ele>
        <time>2021-06-17T11:23:08.000Z</time>
      </trkpt>
      <trkpt lat="47.27358" lon="-2.32984">
        <ele>89.599998474121</ele>
        <time>2021-06-17T11:23:15.000Z</time>
      </trkpt>
      <trkpt lat="47.27361" lon="-2.32978">
        <ele>89.599998474121</ele>
        <time>2021-06-17T11:23:16.000Z</time>
      </trkpt>
      <trkpt lat="47.27371" lon="-2.32961">
        <ele>89.199996948242</ele>
        <time>2021-06-17T11:23:19.000Z</time>
      </trkpt>
      <trkpt lat="47.27375" lon="-2.32954">
        <ele>88.800003051758</ele>
        <time>2021-06-17T11:23:20.000Z</time>
      </trkpt>
      <trkpt lat="47.27378" lon="-2.32948">
        <ele>88.400001525879</ele>
        <time>2021-06-17T11:23:21.000Z</time>
      </trkpt>
      <trkpt lat="47.2738" lon="-2.32941">
        <ele>88</ele>
        <time>2021-06-17T11:23:22.000Z</time>
      </trkpt>
      <trkpt lat="47.27383" lon="-2.32936">
        <ele>87.599998474121</ele>
        <time>2021-06-17T11:23:23.000Z</time>
      </trkpt>
      <trkpt lat="47.27391" lon="-2.32924">
        <ele>87.599998474121</ele>
        <time>2021-06-17T11:23:26.000Z</time>
      </trkpt>
      <trkpt lat="47.27396" lon="-2.32907">
        <ele>87.599998474121</ele>
        <time>2021-06-17T11:23:30.000Z</time>
      </trkpt>
      <trkpt lat="47.27405" lon="-2.3289">
        <ele>87.599998474121</ele>
        <time>2021-06-17T11:23:34.000Z</time>
      </trkpt>
      <trkpt lat="47.27407" lon="-2.32885">
        <ele>87.199996948242</ele>
        <time>2021-06-17T11:23:35.000Z</time>
      </trkpt>
      <trkpt lat="47.2741" lon="-2.32879">
        <ele>86.800003051758</ele>
        <time>2021-06-17T11:23:36.000Z</time>
      </trkpt>
      <trkpt lat="47.27412" lon="-2.32874">
        <ele>86.400001525879</ele>
        <time>2021-06-17T11:23:37.000Z</time>
      </trkpt>
      <trkpt lat="47.27414" lon="-2.32868">
        <ele>85.599998474121</ele>
        <time>2021-06-17T11:23:38.000Z</time>
      </trkpt>
      <trkpt lat="47.27416" lon="-2.32863">
        <ele>85.599998474121</ele>
        <time>2021-06-17T11:23:39.000Z</time>
      </trkpt>
      <trkpt lat="47.27427" lon="-2.32829">
        <ele>85.599998474121</ele>
        <time>2021-06-17T11:23:44.000Z</time>
      </trkpt>
      <trkpt lat="47.27435" lon="-2.3279">
        <ele>85.199996948242</ele>
        <time>2021-06-17T11:23:49.000Z</time>
      </trkpt>
      <trkpt lat="47.27436" lon="-2.32783">
        <ele>84.800003051758</ele>
        <time>2021-06-17T11:23:50.000Z</time>
      </trkpt>
      <trkpt lat="47.27438" lon="-2.32775">
        <ele>84.400001525879</ele>
        <time>2021-06-17T11:23:51.000Z</time>
      </trkpt>
      <trkpt lat="47.2744" lon="-2.32767">
        <ele>84</ele>
        <time>2021-06-17T11:23:52.000Z</time>
      </trkpt>
      <trkpt lat="47.27443" lon="-2.32759">
        <ele>83.599998474121</ele>
        <time>2021-06-17T11:23:53.000Z</time>
      </trkpt>
      <trkpt lat="47.27452" lon="-2.32735">
        <ele>83.599998474121</ele>
        <time>2021-06-17T11:23:56.000Z</time>
      </trkpt>
      <trkpt lat="47.27462" lon="-2.32706">
        <ele>83</ele>
        <time>2021-06-17T11:23:59.000Z</time>
      </trkpt>
      <trkpt lat="47.27466" lon="-2.32699">
        <ele>82.599998474121</ele>
        <time>2021-06-17T11:24:00.000Z</time>
      </trkpt>
      <trkpt lat="47.27469" lon="-2.32692">
        <ele>82</ele>
        <time>2021-06-17T11:24:01.000Z</time>
      </trkpt>
      <trkpt lat="47.27473" lon="-2.32686">
        <ele>81.400001525879</ele>
        <time>2021-06-17T11:24:02.000Z</time>
      </trkpt>
      <trkpt lat="47.27478" lon="-2.32683">
        <ele>80.199996948242</ele>
        <time>2021-06-17T11:24:03.000Z</time>
      </trkpt>
      <trkpt lat="47.27483" lon="-2.32682">
        <ele>79.599998474121</ele>
        <time>2021-06-17T11:24:04.000Z</time>
      </trkpt>
      <trkpt lat="47.27488" lon="-2.3268">
        <ele>78.800003051758</ele>
        <time>2021-06-17T11:24:05.000Z</time>
      </trkpt>
      <trkpt lat="47.27492" lon="-2.32677">
        <ele>78.800003051758</ele>
        <time>2021-06-17T11:24:06.000Z</time>
      </trkpt>
      <trkpt lat="47.27501" lon="-2.32665">
        <ele>78.800003051758</ele>
        <time>2021-06-17T11:24:08.000Z</time>
      </trkpt>
      <trkpt lat="47.2751" lon="-2.32642">
        <ele>78.800003051758</ele>
        <time>2021-06-17T11:24:11.000Z</time>
      </trkpt>
      <trkpt lat="47.27513" lon="-2.32636">
        <ele>78.400001525879</ele>
        <time>2021-06-17T11:24:12.000Z</time>
      </trkpt>
      <trkpt lat="47.27516" lon="-2.32631">
        <ele>78</ele>
        <time>2021-06-17T11:24:13.000Z</time>
      </trkpt>
      <trkpt lat="47.27521" lon="-2.32627">
        <ele>77.599998474121</ele>
        <time>2021-06-17T11:24:14.000Z</time>
      </trkpt>
      <trkpt lat="47.27525" lon="-2.32624">
        <ele>77.199996948242</ele>
        <time>2021-06-17T11:24:15.000Z</time>
      </trkpt>
      <trkpt lat="47.2753" lon="-2.32623">
        <ele>76.599998474121</ele>
        <time>2021-06-17T11:24:16.000Z</time>
      </trkpt>
      <trkpt lat="47.27542" lon="-2.32608">
        <ele>76.599998474121</ele>
        <time>2021-06-17T11:24:19.000Z</time>
      </trkpt>
      <trkpt lat="47.2755" lon="-2.32593">
        <ele>76.599998474121</ele>
        <time>2021-06-17T11:24:22.000Z</time>
      </trkpt>
      <trkpt lat="47.27549" lon="-2.32573">
        <ele>76.599998474121</ele>
        <time>2021-06-17T11:24:25.000Z</time>
      </trkpt>
      <trkpt lat="47.27545" lon="-2.32561">
        <ele>76.599998474121</ele>
        <time>2021-06-17T11:24:28.000Z</time>
      </trkpt>
      <trkpt lat="47.27543" lon="-2.32558">
        <ele>76.599998474121</ele>
        <time>2021-06-17T11:24:29.000Z</time>
      </trkpt>
      <trkpt lat="47.27538" lon="-2.32545">
        <ele>76.599998474121</ele>
        <time>2021-06-17T11:24:33.000Z</time>
      </trkpt>
      <trkpt lat="47.27538" lon="-2.32536">
        <ele>76.599998474121</ele>
        <time>2021-06-17T11:24:35.000Z</time>
      </trkpt>
      <trkpt lat="47.27539" lon="-2.32531">
        <ele>77</ele>
        <time>2021-06-17T11:24:36.000Z</time>
      </trkpt>
      <trkpt lat="47.27539" lon="-2.32526">
        <ele>77.599998474121</ele>
        <time>2021-06-17T11:24:37.000Z</time>
      </trkpt>
      <trkpt lat="47.27541" lon="-2.32521">
        <ele>78</ele>
        <time>2021-06-17T11:24:38.000Z</time>
      </trkpt>
      <trkpt lat="47.27542" lon="-2.32517">
        <ele>78.400001525879</ele>
        <time>2021-06-17T11:24:39.000Z</time>
      </trkpt>
      <trkpt lat="47.27543" lon="-2.32513">
        <ele>78.800003051758</ele>
        <time>2021-06-17T11:24:40.000Z</time>
      </trkpt>
      <trkpt lat="47.27543" lon="-2.32509">
        <ele>78.800003051758</ele>
        <time>2021-06-17T11:24:41.000Z</time>
      </trkpt>
      <trkpt lat="47.27545" lon="-2.32505">
        <ele>79.199996948242</ele>
        <time>2021-06-17T11:24:42.000Z</time>
      </trkpt>
      <trkpt lat="47.27546" lon="-2.32502">
        <ele>79.599998474121</ele>
        <time>2021-06-17T11:24:43.000Z</time>
      </trkpt>
      <trkpt lat="47.27547" lon="-2.32498">
        <ele>80.199996948242</ele>
        <time>2021-06-17T11:24:44.000Z</time>
      </trkpt>
      <trkpt lat="47.27548" lon="-2.32494">
        <ele>80.599998474121</ele>
        <time>2021-06-17T11:24:45.000Z</time>
      </trkpt>
      <trkpt lat="47.27549" lon="-2.32489">
        <ele>81</ele>
        <time>2021-06-17T11:24:46.000Z</time>
      </trkpt>
      <trkpt lat="47.2755" lon="-2.32481">
        <ele>81</ele>
        <time>2021-06-17T11:24:48.000Z</time>
      </trkpt>
      <trkpt lat="47.27553" lon="-2.32471">
        <ele>81.400001525879</ele>
        <time>2021-06-17T11:24:50.000Z</time>
      </trkpt>
      <trkpt lat="47.27555" lon="-2.32466">
        <ele>82</ele>
        <time>2021-06-17T11:24:51.000Z</time>
      </trkpt>
      <trkpt lat="47.27556" lon="-2.32461">
        <ele>82.800003051758</ele>
        <time>2021-06-17T11:24:52.000Z</time>
      </trkpt>
      <trkpt lat="47.27558" lon="-2.32455">
        <ele>83.199996948242</ele>
        <time>2021-06-17T11:24:53.000Z</time>
      </trkpt>
      <trkpt lat="47.27565" lon="-2.32425">
        <ele>83.199996948242</ele>
        <time>2021-06-17T11:24:59.000Z</time>
      </trkpt>
      <trkpt lat="47.27567" lon="-2.32397">
        <ele>83.199996948242</ele>
        <time>2021-06-17T11:25:04.000Z</time>
      </trkpt>
      <trkpt lat="47.27578" lon="-2.32366">
        <ele>83.199996948242</ele>
        <time>2021-06-17T11:25:10.000Z</time>
      </trkpt>
      <trkpt lat="47.27585" lon="-2.32349">
        <ele>83.800003051758</ele>
        <time>2021-06-17T11:25:13.000Z</time>
      </trkpt>
      <trkpt lat="47.27587" lon="-2.32343">
        <ele>84.199996948242</ele>
        <time>2021-06-17T11:25:14.000Z</time>
      </trkpt>
      <trkpt lat="47.27589" lon="-2.32337">
        <ele>84.599998474121</ele>
        <time>2021-06-17T11:25:15.000Z</time>
      </trkpt>
      <trkpt lat="47.27592" lon="-2.32332">
        <ele>85.400001525879</ele>
        <time>2021-06-17T11:25:16.000Z</time>
      </trkpt>
      <trkpt lat="47.27605" lon="-2.3229">
        <ele>85.400001525879</ele>
        <time>2021-06-17T11:25:24.000Z</time>
      </trkpt>
      <trkpt lat="47.27597" lon="-2.32277">
        <ele>85.400001525879</ele>
        <time>2021-06-17T11:25:27.000Z</time>
      </trkpt>
      <trkpt lat="47.27588" lon="-2.3227">
        <ele>85.400001525879</ele>
        <time>2021-06-17T11:25:29.000Z</time>
      </trkpt>
      <trkpt lat="47.27573" lon="-2.32258">
        <ele>85.400001525879</ele>
        <time>2021-06-17T11:25:32.000Z</time>
      </trkpt>
      <trkpt lat="47.27539" lon="-2.32226">
        <ele>85.400001525879</ele>
        <time>2021-06-17T11:25:38.000Z</time>
      </trkpt>
      <trkpt lat="47.27526" lon="-2.32215">
        <ele>85</ele>
        <time>2021-06-17T11:25:40.000Z</time>
      </trkpt>
      <trkpt lat="47.2752" lon="-2.32208">
        <ele>84</ele>
        <time>2021-06-17T11:25:41.000Z</time>
      </trkpt>
      <trkpt lat="47.27515" lon="-2.322">
        <ele>83.599998474121</ele>
        <time>2021-06-17T11:25:42.000Z</time>
      </trkpt>
      <trkpt lat="47.27509" lon="-2.32192">
        <ele>83.199996948242</ele>
        <time>2021-06-17T11:25:43.000Z</time>
      </trkpt>
      <trkpt lat="47.27485" lon="-2.3216">
        <ele>82.599998474121</ele>
        <time>2021-06-17T11:25:47.000Z</time>
      </trkpt>
      <trkpt lat="47.27479" lon="-2.32153">
        <ele>82.199996948242</ele>
        <time>2021-06-17T11:25:48.000Z</time>
      </trkpt>
      <trkpt lat="47.27473" lon="-2.32145">
        <ele>81.800003051758</ele>
        <time>2021-06-17T11:25:49.000Z</time>
      </trkpt>
      <trkpt lat="47.27468" lon="-2.32139">
        <ele>81.400001525879</ele>
        <time>2021-06-17T11:25:50.000Z</time>
      </trkpt>
      <trkpt lat="47.27462" lon="-2.32131">
        <ele>80.800003051758</ele>
        <time>2021-06-17T11:25:51.000Z</time>
      </trkpt>
      <trkpt lat="47.27437" lon="-2.321">
        <ele>80.800003051758</ele>
        <time>2021-06-17T11:25:56.000Z</time>
      </trkpt>
      <trkpt lat="47.27407" lon="-2.32062">
        <ele>80.400001525879</ele>
        <time>2021-06-17T11:26:02.000Z</time>
      </trkpt>
      <trkpt lat="47.27401" lon="-2.32057">
        <ele>80</ele>
        <time>2021-06-17T11:26:03.000Z</time>
      </trkpt>
      <trkpt lat="47.27395" lon="-2.3205">
        <ele>79.400001525879</ele>
        <time>2021-06-17T11:26:04.000Z</time>
      </trkpt>
      <trkpt lat="47.27388" lon="-2.32044">
        <ele>79</ele>
        <time>2021-06-17T11:26:05.000Z</time>
      </trkpt>
      <trkpt lat="47.27381" lon="-2.32037">
        <ele>78.400001525879</ele>
        <time>2021-06-17T11:26:06.000Z</time>
      </trkpt>
      <trkpt lat="47.27374" lon="-2.3203">
        <ele>78</ele>
        <time>2021-06-17T11:26:07.000Z</time>
      </trkpt>
      <trkpt lat="47.27368" lon="-2.32022">
        <ele>77.599998474121</ele>
        <time>2021-06-17T11:26:08.000Z</time>
      </trkpt>
      <trkpt lat="47.2736" lon="-2.32015">
        <ele>77.199996948242</ele>
        <time>2021-06-17T11:26:09.000Z</time>
      </trkpt>
      <trkpt lat="47.27353" lon="-2.32007">
        <ele>76.800003051758</ele>
        <time>2021-06-17T11:26:10.000Z</time>
      </trkpt>
      <trkpt lat="47.27346" lon="-2.31999">
        <ele>76.199996948242</ele>
        <time>2021-06-17T11:26:11.000Z</time>
      </trkpt>
      <trkpt lat="47.27297" lon="-2.3195">
        <ele>76.199996948242</ele>
        <time>2021-06-17T11:26:18.000Z</time>
      </trkpt>
      <trkpt lat="47.27278" lon="-2.31938">
        <ele>76.199996948242</ele>
        <time>2021-06-17T11:26:21.000Z</time>
      </trkpt>
      <trkpt lat="47.27272" lon="-2.31935">
        <ele>76.199996948242</ele>
        <time>2021-06-17T11:26:22.000Z</time>
      </trkpt>
      <trkpt lat="47.2723" lon="-2.31923">
        <ele>76.199996948242</ele>
        <time>2021-06-17T11:26:29.000Z</time>
      </trkpt>
      <trkpt lat="47.27198" lon="-2.31908">
        <ele>76.199996948242</ele>
        <time>2021-06-17T11:26:34.000Z</time>
      </trkpt>
      <trkpt lat="47.27172" lon="-2.31882">
        <ele>76.199996948242</ele>
        <time>2021-06-17T11:26:39.000Z</time>
      </trkpt>
      <trkpt lat="47.27142" lon="-2.31841">
        <ele>76.199996948242</ele>
        <time>2021-06-17T11:26:46.000Z</time>
      </trkpt>
      <trkpt lat="47.27106" lon="-2.31792">
        <ele>76.199996948242</ele>
        <time>2021-06-17T11:26:55.000Z</time>
      </trkpt>
      <trkpt lat="47.27084" lon="-2.3177">
        <ele>76.599998474121</ele>
        <time>2021-06-17T11:27:00.000Z</time>
      </trkpt>
      <trkpt lat="47.2708" lon="-2.31767">
        <ele>77</ele>
        <time>2021-06-17T11:27:01.000Z</time>
      </trkpt>
      <trkpt lat="47.27076" lon="-2.31763">
        <ele>77.400001525879</ele>
        <time>2021-06-17T11:27:02.000Z</time>
      </trkpt>
      <trkpt lat="47.27071" lon="-2.3176">
        <ele>77.800003051758</ele>
        <time>2021-06-17T11:27:03.000Z</time>
      </trkpt>
      <trkpt lat="47.27067" lon="-2.31756">
        <ele>78.199996948242</ele>
        <time>2021-06-17T11:27:04.000Z</time>
      </trkpt>
      <trkpt lat="47.27034" lon="-2.31729">
        <ele>78.199996948242</ele>
        <time>2021-06-17T11:27:12.000Z</time>
      </trkpt>
      <trkpt lat="47.27029" lon="-2.31726">
        <ele>78.800003051758</ele>
        <time>2021-06-17T11:27:13.000Z</time>
      </trkpt>
      <trkpt lat="47.27025" lon="-2.31723">
        <ele>79.199996948242</ele>
        <time>2021-06-17T11:27:14.000Z</time>
      </trkpt>
      <trkpt lat="47.2702" lon="-2.3172">
        <ele>79.599998474121</ele>
        <time>2021-06-17T11:27:15.000Z</time>
      </trkpt>
      <trkpt lat="47.27017" lon="-2.31717">
        <ele>80</ele>
        <time>2021-06-17T11:27:16.000Z</time>
      </trkpt>
      <trkpt lat="47.27012" lon="-2.31714">
        <ele>80.400001525879</ele>
        <time>2021-06-17T11:27:17.000Z</time>
      </trkpt>
      <trkpt lat="47.27004" lon="-2.31707">
        <ele>80.400001525879</ele>
        <time>2021-06-17T11:27:19.000Z</time>
      </trkpt>
      <trkpt lat="47.2698" lon="-2.31688">
        <ele>80.800003051758</ele>
        <time>2021-06-17T11:27:25.000Z</time>
      </trkpt>
      <trkpt lat="47.26976" lon="-2.31685">
        <ele>81.199996948242</ele>
        <time>2021-06-17T11:27:26.000Z</time>
      </trkpt>
      <trkpt lat="47.26973" lon="-2.31682">
        <ele>81.599998474121</ele>
        <time>2021-06-17T11:27:27.000Z</time>
      </trkpt>
      <trkpt lat="47.26969" lon="-2.3168">
        <ele>82</ele>
        <time>2021-06-17T11:27:28.000Z</time>
      </trkpt>
      <trkpt lat="47.26965" lon="-2.31677">
        <ele>82.599998474121</ele>
        <time>2021-06-17T11:27:29.000Z</time>
      </trkpt>
      <trkpt lat="47.26943" lon="-2.31661">
        <ele>82.599998474121</ele>
        <time>2021-06-17T11:27:35.000Z</time>
      </trkpt>
      <trkpt lat="47.26939" lon="-2.31658">
        <ele>83</ele>
        <time>2021-06-17T11:27:36.000Z</time>
      </trkpt>
      <trkpt lat="47.26935" lon="-2.31656">
        <ele>83.400001525879</ele>
        <time>2021-06-17T11:27:37.000Z</time>
      </trkpt>
      <trkpt lat="47.26932" lon="-2.31654">
        <ele>83.800003051758</ele>
        <time>2021-06-17T11:27:38.000Z</time>
      </trkpt>
      <trkpt lat="47.26928" lon="-2.31652">
        <ele>84.199996948242</ele>
        <time>2021-06-17T11:27:39.000Z</time>
      </trkpt>
      <trkpt lat="47.26924" lon="-2.3165">
        <ele>84.599998474121</ele>
        <time>2021-06-17T11:27:40.000Z</time>
      </trkpt>
      <trkpt lat="47.26916" lon="-2.31645">
        <ele>84.599998474121</ele>
        <time>2021-06-17T11:27:42.000Z</time>
      </trkpt>
      <trkpt lat="47.26905" lon="-2.31639">
        <ele>85.199996948242</ele>
        <time>2021-06-17T11:27:45.000Z</time>
      </trkpt>
      <trkpt lat="47.269" lon="-2.31637">
        <ele>85.599998474121</ele>
        <time>2021-06-17T11:27:46.000Z</time>
      </trkpt>
      <trkpt lat="47.26897" lon="-2.31637">
        <ele>86</ele>
        <time>2021-06-17T11:27:47.000Z</time>
      </trkpt>
      <trkpt lat="47.26894" lon="-2.31636">
        <ele>86.400001525879</ele>
        <time>2021-06-17T11:27:48.000Z</time>
      </trkpt>
      <trkpt lat="47.26891" lon="-2.31635">
        <ele>86.800003051758</ele>
        <time>2021-06-17T11:27:49.000Z</time>
      </trkpt>
      <trkpt lat="47.26882" lon="-2.31642">
        <ele>86.800003051758</ele>
        <time>2021-06-17T11:27:52.000Z</time>
      </trkpt>
      <trkpt lat="47.26882" lon="-2.31647">
        <ele>86.800003051758</ele>
        <time>2021-06-17T11:27:53.000Z</time>
      </trkpt>
      <trkpt lat="47.26884" lon="-2.3167">
        <ele>86.800003051758</ele>
        <time>2021-06-17T11:27:57.000Z</time>
      </trkpt>
      <trkpt lat="47.26891" lon="-2.3172">
        <ele>86.800003051758</ele>
        <time>2021-06-17T11:28:04.000Z</time>
      </trkpt>
      <trkpt lat="47.26891" lon="-2.31728">
        <ele>86.800003051758</ele>
        <time>2021-06-17T11:28:05.000Z</time>
      </trkpt>
      <trkpt lat="47.26887" lon="-2.31752">
        <ele>86.800003051758</ele>
        <time>2021-06-17T11:28:08.000Z</time>
      </trkpt>
      <trkpt lat="47.26873" lon="-2.31777">
        <ele>86.800003051758</ele>
        <time>2021-06-17T11:28:12.000Z</time>
      </trkpt>
      <trkpt lat="47.26857" lon="-2.31789">
        <ele>86.800003051758</ele>
        <time>2021-06-17T11:28:15.000Z</time>
      </trkpt>
      <trkpt lat="47.26851" lon="-2.31791">
        <ele>86.800003051758</ele>
        <time>2021-06-17T11:28:16.000Z</time>
      </trkpt>
      <trkpt lat="47.26813" lon="-2.31809">
        <ele>86.800003051758</ele>
        <time>2021-06-17T11:28:23.000Z</time>
      </trkpt>
      <trkpt lat="47.26777" lon="-2.31828">
        <ele>86.800003051758</ele>
        <time>2021-06-17T11:28:30.000Z</time>
      </trkpt>
      <trkpt lat="47.26742" lon="-2.31858">
        <ele>86.800003051758</ele>
        <time>2021-06-17T11:28:38.000Z</time>
      </trkpt>
      <trkpt lat="47.26737" lon="-2.31861">
        <ele>86.800003051758</ele>
        <time>2021-06-17T11:28:39.000Z</time>
      </trkpt>
      <trkpt lat="47.26729" lon="-2.31857">
        <ele>86.800003051758</ele>
        <time>2021-06-17T11:28:41.000Z</time>
      </trkpt>
      <trkpt lat="47.26723" lon="-2.31843">
        <ele>86.800003051758</ele>
        <time>2021-06-17T11:28:44.000Z</time>
      </trkpt>
      <trkpt lat="47.26721" lon="-2.31836">
        <ele>86.800003051758</ele>
        <time>2021-06-17T11:28:45.000Z</time>
      </trkpt>
      <trkpt lat="47.26711" lon="-2.31796">
        <ele>86.800003051758</ele>
        <time>2021-06-17T11:28:51.000Z</time>
      </trkpt>
      <trkpt lat="47.26702" lon="-2.31761">
        <ele>87.199996948242</ele>
        <time>2021-06-17T11:28:56.000Z</time>
      </trkpt>
      <trkpt lat="47.26701" lon="-2.31754">
        <ele>87.599998474121</ele>
        <time>2021-06-17T11:28:57.000Z</time>
      </trkpt>
      <trkpt lat="47.26699" lon="-2.31747">
        <ele>88</ele>
        <time>2021-06-17T11:28:58.000Z</time>
      </trkpt>
      <trkpt lat="47.26698" lon="-2.3174">
        <ele>88.800003051758</ele>
        <time>2021-06-17T11:28:59.000Z</time>
      </trkpt>
      <trkpt lat="47.26681" lon="-2.31676">
        <ele>88.800003051758</ele>
        <time>2021-06-17T11:29:08.000Z</time>
      </trkpt>
      <trkpt lat="47.26665" lon="-2.31634">
        <ele>88.800003051758</ele>
        <time>2021-06-17T11:29:14.000Z</time>
      </trkpt>
      <trkpt lat="47.26646" lon="-2.31586">
        <ele>88.800003051758</ele>
        <time>2021-06-17T11:29:21.000Z</time>
      </trkpt>
      <trkpt lat="47.26639" lon="-2.31567">
        <ele>88.800003051758</ele>
        <time>2021-06-17T11:29:24.000Z</time>
      </trkpt>
      <trkpt lat="47.26632" lon="-2.3156">
        <ele>88.800003051758</ele>
        <time>2021-06-17T11:29:26.000Z</time>
      </trkpt>
      <trkpt lat="47.26622" lon="-2.31566">
        <ele>88.800003051758</ele>
        <time>2021-06-17T11:29:29.000Z</time>
      </trkpt>
      <trkpt lat="47.26621" lon="-2.31566">
        <ele>88.400001525879</ele>
        <time>2021-06-17T11:29:30.000Z</time>
      </trkpt>
      <trkpt lat="47.26619" lon="-2.31567">
        <ele>87.800003051758</ele>
        <time>2021-06-17T11:29:31.000Z</time>
      </trkpt>
      <trkpt lat="47.26616" lon="-2.31568">
        <ele>87.400001525879</ele>
        <time>2021-06-17T11:29:32.000Z</time>
      </trkpt>
      <trkpt lat="47.26614" lon="-2.31569">
        <ele>87</ele>
        <time>2021-06-17T11:29:33.000Z</time>
      </trkpt>
      <trkpt lat="47.2661" lon="-2.31573">
        <ele>86.400001525879</ele>
        <time>2021-06-17T11:29:34.000Z</time>
      </trkpt>
      <trkpt lat="47.26602" lon="-2.31578">
        <ele>86.400001525879</ele>
        <time>2021-06-17T11:29:36.000Z</time>
      </trkpt>
      <trkpt lat="47.26597" lon="-2.31581">
        <ele>86.400001525879</ele>
        <time>2021-06-17T11:29:37.000Z</time>
      </trkpt>
      <trkpt lat="47.2658" lon="-2.31594">
        <ele>86</ele>
        <time>2021-06-17T11:29:40.000Z</time>
      </trkpt>
      <trkpt lat="47.26573" lon="-2.31599">
        <ele>85.599998474121</ele>
        <time>2021-06-17T11:29:41.000Z</time>
      </trkpt>
      <trkpt lat="47.26566" lon="-2.31604">
        <ele>85.199996948242</ele>
        <time>2021-06-17T11:29:42.000Z</time>
      </trkpt>
      <trkpt lat="47.2656" lon="-2.31608">
        <ele>84.800003051758</ele>
        <time>2021-06-17T11:29:43.000Z</time>
      </trkpt>
      <trkpt lat="47.26552" lon="-2.31613">
        <ele>84.400001525879</ele>
        <time>2021-06-17T11:29:44.000Z</time>
      </trkpt>
      <trkpt lat="47.26538" lon="-2.31623">
        <ele>84</ele>
        <time>2021-06-17T11:29:46.000Z</time>
      </trkpt>
      <trkpt lat="47.2653" lon="-2.31628">
        <ele>83.599998474121</ele>
        <time>2021-06-17T11:29:47.000Z</time>
      </trkpt>
      <trkpt lat="47.26521" lon="-2.31633">
        <ele>82.599998474121</ele>
        <time>2021-06-17T11:29:48.000Z</time>
      </trkpt>
      <trkpt lat="47.26513" lon="-2.31636">
        <ele>82</ele>
        <time>2021-06-17T11:29:49.000Z</time>
      </trkpt>
      <trkpt lat="47.26504" lon="-2.31639">
        <ele>81.400001525879</ele>
        <time>2021-06-17T11:29:50.000Z</time>
      </trkpt>
      <trkpt lat="47.26494" lon="-2.31641">
        <ele>80.800003051758</ele>
        <time>2021-06-17T11:29:51.000Z</time>
      </trkpt>
      <trkpt lat="47.26485" lon="-2.31643">
        <ele>80.199996948242</ele>
        <time>2021-06-17T11:29:52.000Z</time>
      </trkpt>
      <trkpt lat="47.26429" lon="-2.31654">
        <ele>79.800003051758</ele>
        <time>2021-06-17T11:29:58.000Z</time>
      </trkpt>
      <trkpt lat="47.26421" lon="-2.31656">
        <ele>79.199996948242</ele>
        <time>2021-06-17T11:29:59.000Z</time>
      </trkpt>
      <trkpt lat="47.26414" lon="-2.31657">
        <ele>78.800003051758</ele>
        <time>2021-06-17T11:30:00.000Z</time>
      </trkpt>
      <trkpt lat="47.26407" lon="-2.31654">
        <ele>78.199996948242</ele>
        <time>2021-06-17T11:30:01.000Z</time>
      </trkpt>
      <trkpt lat="47.26403" lon="-2.31646">
        <ele>77.400001525879</ele>
        <time>2021-06-17T11:30:02.000Z</time>
      </trkpt>
      <trkpt lat="47.26402" lon="-2.31639">
        <ele>76.800003051758</ele>
        <time>2021-06-17T11:30:03.000Z</time>
      </trkpt>
      <trkpt lat="47.26402" lon="-2.31631">
        <ele>76.199996948242</ele>
        <time>2021-06-17T11:30:04.000Z</time>
      </trkpt>
      <trkpt lat="47.26402" lon="-2.31624">
        <ele>75.400001525879</ele>
        <time>2021-06-17T11:30:05.000Z</time>
      </trkpt>
      <trkpt lat="47.26404" lon="-2.31608">
        <ele>75.400001525879</ele>
        <time>2021-06-17T11:30:07.000Z</time>
      </trkpt>
      <trkpt lat="47.26404" lon="-2.31586">
        <ele>75.400001525879</ele>
        <time>2021-06-17T11:30:10.000Z</time>
      </trkpt>
      <trkpt lat="47.26405" lon="-2.31554">
        <ele>75.400001525879</ele>
        <time>2021-06-17T11:30:15.000Z</time>
      </trkpt>
      <trkpt lat="47.26409" lon="-2.31552">
        <ele>75.400001525879</ele>
        <time>2021-06-17T11:30:16.000Z</time>
      </trkpt>
      <trkpt lat="47.26417" lon="-2.31553">
        <ele>75.400001525879</ele>
        <time>2021-06-17T11:30:19.000Z</time>
      </trkpt>
      <trkpt lat="47.26417" lon="-2.31554">
        <ele>75.400001525879</ele>
        <time>2021-06-17T11:30:22.000Z</time>
      </trkpt>
    </trkseg>
  </trk>
</gpx>